<?xml version="1.0" encoding="UTF-8" standalone="no" ?>
<gpx xmlns="http://www.topografix.com/GPX/1/1" xmlns:xsi="http://www.w3.org/2001/XMLSchema-instance" xsi:schemaLocation="http://www.topografix.com/GPX/1/1 http://www.topografix.com/GPX/1/1/gpx.xsd" version="1.1" creator="VisuGPX - https://www.visugpx.com">
  <metadata>
    <name>Presle</name>
    <desc><![CDATA[2010-04-20_Presle, Dist.134Km Asc.2032m ]]></desc>
  </metadata>
  <trk>
    <name><![CDATA[Presle]]></name>
    <trkseg>
      <trkpt lat="45.11566" lon="4.96455">
        <ele>207.96200561523</ele>
        <time>2010-04-20T11:30:34Z</time>
      </trkpt>
      <trkpt lat="45.1157" lon="4.96455">
        <ele>207.95399475098</ele>
        <time>2010-04-20T11:30:36Z</time>
      </trkpt>
      <trkpt lat="45.11575" lon="4.9645">
        <ele>209.55099487305</ele>
        <time>2010-04-20T11:30:39Z</time>
      </trkpt>
      <trkpt lat="45.11578" lon="4.96451">
        <ele>209.51300048828</ele>
        <time>2010-04-20T11:30:43Z</time>
      </trkpt>
      <trkpt lat="45.1158" lon="4.96457">
        <ele>209.2859954834</ele>
        <time>2010-04-20T11:30:47Z</time>
      </trkpt>
      <trkpt lat="45.11582" lon="4.96469">
        <ele>208.89199829102</ele>
        <time>2010-04-20T11:30:51Z</time>
      </trkpt>
      <trkpt lat="45.11581" lon="4.96498">
        <ele>207.87300109863</ele>
        <time>2010-04-20T11:30:57Z</time>
      </trkpt>
      <trkpt lat="45.11586" lon="4.96523">
        <ele>206.77699279785</ele>
        <time>2010-04-20T11:31:01Z</time>
      </trkpt>
      <trkpt lat="45.1161" lon="4.96586">
        <ele>207.18099975586</ele>
        <time>2010-04-20T11:31:10Z</time>
      </trkpt>
      <trkpt lat="45.11635" lon="4.9665">
        <ele>206.82200622559</ele>
        <time>2010-04-20T11:31:19Z</time>
      </trkpt>
      <trkpt lat="45.11643" lon="4.9667">
        <ele>207.43200683594</ele>
        <time>2010-04-20T11:31:22Z</time>
      </trkpt>
      <trkpt lat="45.11644" lon="4.96681">
        <ele>207.15800476074</ele>
        <time>2010-04-20T11:31:24Z</time>
      </trkpt>
      <trkpt lat="45.11644" lon="4.96684">
        <ele>207.78100585938</ele>
        <time>2010-04-20T11:31:25Z</time>
      </trkpt>
      <trkpt lat="45.11645" lon="4.96686">
        <ele>207.86999511719</ele>
        <time>2010-04-20T11:31:27Z</time>
      </trkpt>
      <trkpt lat="45.11645" lon="4.96686">
        <ele>207.92700195312</ele>
        <time>2010-04-20T11:31:39Z</time>
      </trkpt>
      <trkpt lat="45.11645" lon="4.96686">
        <ele>207.78900146484</ele>
        <time>2010-04-20T11:31:40Z</time>
      </trkpt>
      <trkpt lat="45.11645" lon="4.96686">
        <ele>207.56700134277</ele>
        <time>2010-04-20T11:31:42Z</time>
      </trkpt>
      <trkpt lat="45.11649" lon="4.96691">
        <ele>207.81799316406</ele>
        <time>2010-04-20T11:32:15Z</time>
      </trkpt>
      <trkpt lat="45.11654" lon="4.96696">
        <ele>207.82499694824</ele>
        <time>2010-04-20T11:32:18Z</time>
      </trkpt>
      <trkpt lat="45.11663" lon="4.9672">
        <ele>207.63600158691</ele>
        <time>2010-04-20T11:32:24Z</time>
      </trkpt>
      <trkpt lat="45.11668" lon="4.9673">
        <ele>207.26400756836</ele>
        <time>2010-04-20T11:32:26Z</time>
      </trkpt>
      <trkpt lat="45.11691" lon="4.96771">
        <ele>208.27000427246</ele>
        <time>2010-04-20T11:32:34Z</time>
      </trkpt>
      <trkpt lat="45.1171" lon="4.96803">
        <ele>207.68899536133</ele>
        <time>2010-04-20T11:32:40Z</time>
      </trkpt>
      <trkpt lat="45.11723" lon="4.96825">
        <ele>207.97200012207</ele>
        <time>2010-04-20T11:32:44Z</time>
      </trkpt>
      <trkpt lat="45.11727" lon="4.96831">
        <ele>207.96800231934</ele>
        <time>2010-04-20T11:32:45Z</time>
      </trkpt>
      <trkpt lat="45.11737" lon="4.96864">
        <ele>208.08700561523</ele>
        <time>2010-04-20T11:32:50Z</time>
      </trkpt>
      <trkpt lat="45.1175" lon="4.96878">
        <ele>208.5359954834</ele>
        <time>2010-04-20T11:32:53Z</time>
      </trkpt>
      <trkpt lat="45.11767" lon="4.96896">
        <ele>208.72300720215</ele>
        <time>2010-04-20T11:32:57Z</time>
      </trkpt>
      <trkpt lat="45.118" lon="4.96949">
        <ele>209.04800415039</ele>
        <time>2010-04-20T11:33:06Z</time>
      </trkpt>
      <trkpt lat="45.11835" lon="4.97001">
        <ele>209.38499450684</ele>
        <time>2010-04-20T11:33:15Z</time>
      </trkpt>
      <trkpt lat="45.11872" lon="4.9705">
        <ele>210.00500488281</ele>
        <time>2010-04-20T11:33:24Z</time>
      </trkpt>
      <trkpt lat="45.1188" lon="4.9708">
        <ele>209.29200744629</ele>
        <time>2010-04-20T11:33:28Z</time>
      </trkpt>
      <trkpt lat="45.1188" lon="4.97089">
        <ele>209.30499267578</ele>
        <time>2010-04-20T11:33:29Z</time>
      </trkpt>
      <trkpt lat="45.11875" lon="4.97125">
        <ele>208.5</ele>
        <time>2010-04-20T11:33:33Z</time>
      </trkpt>
      <trkpt lat="45.11877" lon="4.9717">
        <ele>207.20500183106</ele>
        <time>2010-04-20T11:33:38Z</time>
      </trkpt>
      <trkpt lat="45.1189" lon="4.97247">
        <ele>206.53199768066</ele>
        <time>2010-04-20T11:33:47Z</time>
      </trkpt>
      <trkpt lat="45.11901" lon="4.97313">
        <ele>206.5359954834</ele>
        <time>2010-04-20T11:33:55Z</time>
      </trkpt>
      <trkpt lat="45.11918" lon="4.97411">
        <ele>206.99200439453</ele>
        <time>2010-04-20T11:34:07Z</time>
      </trkpt>
      <trkpt lat="45.11934" lon="4.97498">
        <ele>207.79600524902</ele>
        <time>2010-04-20T11:34:18Z</time>
      </trkpt>
      <trkpt lat="45.11947" lon="4.97577">
        <ele>208.61199951172</ele>
        <time>2010-04-20T11:34:28Z</time>
      </trkpt>
      <trkpt lat="45.11951" lon="4.9761">
        <ele>208.81300354004</ele>
        <time>2010-04-20T11:34:32Z</time>
      </trkpt>
      <trkpt lat="45.11966" lon="4.97683">
        <ele>208.07400512695</ele>
        <time>2010-04-20T11:34:41Z</time>
      </trkpt>
      <trkpt lat="45.11974" lon="4.97733">
        <ele>208.80200195312</ele>
        <time>2010-04-20T11:34:47Z</time>
      </trkpt>
      <trkpt lat="45.1199" lon="4.97825">
        <ele>209.39700317383</ele>
        <time>2010-04-20T11:34:58Z</time>
      </trkpt>
      <trkpt lat="45.12" lon="4.97883">
        <ele>210.36999511719</ele>
        <time>2010-04-20T11:35:05Z</time>
      </trkpt>
      <trkpt lat="45.12017" lon="4.97965">
        <ele>211.17999267578</ele>
        <time>2010-04-20T11:35:15Z</time>
      </trkpt>
      <trkpt lat="45.12042" lon="4.98055">
        <ele>212.17599487305</ele>
        <time>2010-04-20T11:35:26Z</time>
      </trkpt>
      <trkpt lat="45.12059" lon="4.98129">
        <ele>212.18299865723</ele>
        <time>2010-04-20T11:35:35Z</time>
      </trkpt>
      <trkpt lat="45.12068" lon="4.98198">
        <ele>213.15800476074</ele>
        <time>2010-04-20T11:35:43Z</time>
      </trkpt>
      <trkpt lat="45.12066" lon="4.98268">
        <ele>213.61799621582</ele>
        <time>2010-04-20T11:35:51Z</time>
      </trkpt>
      <trkpt lat="45.12054" lon="4.98345">
        <ele>214.14500427246</ele>
        <time>2010-04-20T11:36:00Z</time>
      </trkpt>
      <trkpt lat="45.12044" lon="4.98384">
        <ele>215.36999511719</ele>
        <time>2010-04-20T11:36:05Z</time>
      </trkpt>
      <trkpt lat="45.1203" lon="4.9842">
        <ele>215.6190032959</ele>
        <time>2010-04-20T11:36:10Z</time>
      </trkpt>
      <trkpt lat="45.12028" lon="4.98439">
        <ele>215.63600158691</ele>
        <time>2010-04-20T11:36:12Z</time>
      </trkpt>
      <trkpt lat="45.12017" lon="4.9851">
        <ele>214.88400268555</ele>
        <time>2010-04-20T11:36:20Z</time>
      </trkpt>
      <trkpt lat="45.12016" lon="4.98583">
        <ele>213.84399414062</ele>
        <time>2010-04-20T11:36:28Z</time>
      </trkpt>
      <trkpt lat="45.12016" lon="4.98592">
        <ele>214.16700744629</ele>
        <time>2010-04-20T11:36:29Z</time>
      </trkpt>
      <trkpt lat="45.12022" lon="4.98666">
        <ele>214.1549987793</ele>
        <time>2010-04-20T11:36:37Z</time>
      </trkpt>
      <trkpt lat="45.12041" lon="4.98765">
        <ele>214.7799987793</ele>
        <time>2010-04-20T11:36:48Z</time>
      </trkpt>
      <trkpt lat="45.12062" lon="4.98832">
        <ele>215.85200500488</ele>
        <time>2010-04-20T11:36:56Z</time>
      </trkpt>
      <trkpt lat="45.12098" lon="4.9891">
        <ele>215.94900512695</ele>
        <time>2010-04-20T11:37:06Z</time>
      </trkpt>
      <trkpt lat="45.12134" lon="4.98972">
        <ele>218.04400634766</ele>
        <time>2010-04-20T11:37:15Z</time>
      </trkpt>
      <trkpt lat="45.12169" lon="4.99015">
        <ele>220.02200317383</ele>
        <time>2010-04-20T11:37:23Z</time>
      </trkpt>
      <trkpt lat="45.12202" lon="4.9905">
        <ele>221.15199279785</ele>
        <time>2010-04-20T11:37:31Z</time>
      </trkpt>
      <trkpt lat="45.12215" lon="4.9908">
        <ele>221.47999572754</ele>
        <time>2010-04-20T11:37:36Z</time>
      </trkpt>
      <trkpt lat="45.12213" lon="4.99112">
        <ele>221.89300537109</ele>
        <time>2010-04-20T11:37:40Z</time>
      </trkpt>
      <trkpt lat="45.12204" lon="4.99145">
        <ele>220.10699462891</ele>
        <time>2010-04-20T11:37:44Z</time>
      </trkpt>
      <trkpt lat="45.12183" lon="4.99223">
        <ele>219.15600585938</ele>
        <time>2010-04-20T11:37:53Z</time>
      </trkpt>
      <trkpt lat="45.1216" lon="4.99309">
        <ele>219.48899841309</ele>
        <time>2010-04-20T11:38:03Z</time>
      </trkpt>
      <trkpt lat="45.1214" lon="4.99385">
        <ele>219.23500061035</ele>
        <time>2010-04-20T11:38:12Z</time>
      </trkpt>
      <trkpt lat="45.1212" lon="4.99443">
        <ele>219.27600097656</ele>
        <time>2010-04-20T11:38:19Z</time>
      </trkpt>
      <trkpt lat="45.12086" lon="4.9951">
        <ele>220.56500244141</ele>
        <time>2010-04-20T11:38:28Z</time>
      </trkpt>
      <trkpt lat="45.12075" lon="4.99531">
        <ele>222.90899658203</ele>
        <time>2010-04-20T11:38:31Z</time>
      </trkpt>
      <trkpt lat="45.12034" lon="4.99605">
        <ele>222.66000366211</ele>
        <time>2010-04-20T11:38:41Z</time>
      </trkpt>
      <trkpt lat="45.11998" lon="4.99671">
        <ele>221.76899719238</ele>
        <time>2010-04-20T11:38:49Z</time>
      </trkpt>
      <trkpt lat="45.11967" lon="4.99729">
        <ele>222.35200500488</ele>
        <time>2010-04-20T11:38:56Z</time>
      </trkpt>
      <trkpt lat="45.11961" lon="4.99741">
        <ele>222.10400390625</ele>
        <time>2010-04-20T11:38:58Z</time>
      </trkpt>
      <trkpt lat="45.11961" lon="4.99767">
        <ele>221.7440032959</ele>
        <time>2010-04-20T11:39:02Z</time>
      </trkpt>
      <trkpt lat="45.11964" lon="4.99799">
        <ele>221.66999816894</ele>
        <time>2010-04-20T11:39:06Z</time>
      </trkpt>
      <trkpt lat="45.11959" lon="4.99883">
        <ele>222.87199401856</ele>
        <time>2010-04-20T11:39:16Z</time>
      </trkpt>
      <trkpt lat="45.11958" lon="4.99902">
        <ele>224.27200317383</ele>
        <time>2010-04-20T11:39:19Z</time>
      </trkpt>
      <trkpt lat="45.11956" lon="4.99941">
        <ele>226.98599243164</ele>
        <time>2010-04-20T11:39:26Z</time>
      </trkpt>
      <trkpt lat="45.11956" lon="4.99966">
        <ele>228.56199645996</ele>
        <time>2010-04-20T11:39:31Z</time>
      </trkpt>
      <trkpt lat="45.11958" lon="4.99983">
        <ele>229.58200073242</ele>
        <time>2010-04-20T11:39:35Z</time>
      </trkpt>
      <trkpt lat="45.11955" lon="5.00005">
        <ele>230.85499572754</ele>
        <time>2010-04-20T11:39:40Z</time>
      </trkpt>
      <trkpt lat="45.11948" lon="5.00034">
        <ele>232.02299499512</ele>
        <time>2010-04-20T11:39:46Z</time>
      </trkpt>
      <trkpt lat="45.1194" lon="5.00064">
        <ele>233.20500183106</ele>
        <time>2010-04-20T11:39:52Z</time>
      </trkpt>
      <trkpt lat="45.11934" lon="5.00093">
        <ele>233.81399536133</ele>
        <time>2010-04-20T11:39:57Z</time>
      </trkpt>
      <trkpt lat="45.11914" lon="5.00141">
        <ele>234.66299438477</ele>
        <time>2010-04-20T11:40:06Z</time>
      </trkpt>
      <trkpt lat="45.11908" lon="5.00152">
        <ele>234.81100463867</ele>
        <time>2010-04-20T11:40:08Z</time>
      </trkpt>
      <trkpt lat="45.11903" lon="5.00184">
        <ele>235.36000061035</ele>
        <time>2010-04-20T11:40:13Z</time>
      </trkpt>
      <trkpt lat="45.11913" lon="5.0021">
        <ele>235.20300292969</ele>
        <time>2010-04-20T11:40:17Z</time>
      </trkpt>
      <trkpt lat="45.11916" lon="5.00216">
        <ele>234.71699523926</ele>
        <time>2010-04-20T11:40:18Z</time>
      </trkpt>
      <trkpt lat="45.11924" lon="5.00228">
        <ele>233.94500732422</ele>
        <time>2010-04-20T11:40:20Z</time>
      </trkpt>
      <trkpt lat="45.11953" lon="5.00271">
        <ele>233.92799377441</ele>
        <time>2010-04-20T11:40:27Z</time>
      </trkpt>
      <trkpt lat="45.11982" lon="5.00329">
        <ele>234.45700073242</ele>
        <time>2010-04-20T11:40:36Z</time>
      </trkpt>
      <trkpt lat="45.11994" lon="5.00377">
        <ele>235.64900207519</ele>
        <time>2010-04-20T11:40:43Z</time>
      </trkpt>
      <trkpt lat="45.11997" lon="5.00397">
        <ele>235.89500427246</ele>
        <time>2010-04-20T11:40:46Z</time>
      </trkpt>
      <trkpt lat="45.12011" lon="5.00441">
        <ele>237.39599609375</ele>
        <time>2010-04-20T11:40:53Z</time>
      </trkpt>
      <trkpt lat="45.1203" lon="5.00487">
        <ele>238.25900268555</ele>
        <time>2010-04-20T11:41:01Z</time>
      </trkpt>
      <trkpt lat="45.12038" lon="5.00513">
        <ele>238.87100219727</ele>
        <time>2010-04-20T11:41:05Z</time>
      </trkpt>
      <trkpt lat="45.12041" lon="5.00527">
        <ele>239.2859954834</ele>
        <time>2010-04-20T11:41:07Z</time>
      </trkpt>
      <trkpt lat="45.12042" lon="5.00561">
        <ele>239.69400024414</ele>
        <time>2010-04-20T11:41:12Z</time>
      </trkpt>
      <trkpt lat="45.12033" lon="5.00631">
        <ele>240.37100219727</ele>
        <time>2010-04-20T11:41:22Z</time>
      </trkpt>
      <trkpt lat="45.12026" lon="5.00693">
        <ele>239.16900634766</ele>
        <time>2010-04-20T11:41:30Z</time>
      </trkpt>
      <trkpt lat="45.1202" lon="5.0074">
        <ele>239.51699829102</ele>
        <time>2010-04-20T11:41:36Z</time>
      </trkpt>
      <trkpt lat="45.12025" lon="5.00785">
        <ele>240.56199645996</ele>
        <time>2010-04-20T11:41:42Z</time>
      </trkpt>
      <trkpt lat="45.12026" lon="5.00798">
        <ele>241.44400024414</ele>
        <time>2010-04-20T11:41:44Z</time>
      </trkpt>
      <trkpt lat="45.12026" lon="5.0081">
        <ele>242.42300415039</ele>
        <time>2010-04-20T11:41:46Z</time>
      </trkpt>
      <trkpt lat="45.1202" lon="5.00841">
        <ele>244.43899536133</ele>
        <time>2010-04-20T11:41:52Z</time>
      </trkpt>
      <trkpt lat="45.12009" lon="5.00888">
        <ele>246.58700561523</ele>
        <time>2010-04-20T11:42:01Z</time>
      </trkpt>
      <trkpt lat="45.12002" lon="5.00915">
        <ele>247.67599487305</ele>
        <time>2010-04-20T11:42:06Z</time>
      </trkpt>
      <trkpt lat="45.11992" lon="5.0096">
        <ele>250.56500244141</ele>
        <time>2010-04-20T11:42:15Z</time>
      </trkpt>
      <trkpt lat="45.11986" lon="5.00983">
        <ele>252.01100158691</ele>
        <time>2010-04-20T11:42:20Z</time>
      </trkpt>
      <trkpt lat="45.11979" lon="5.01013">
        <ele>254.28999328613</ele>
        <time>2010-04-20T11:42:27Z</time>
      </trkpt>
      <trkpt lat="45.11978" lon="5.01019">
        <ele>254.56199645996</ele>
        <time>2010-04-20T11:42:29Z</time>
      </trkpt>
      <trkpt lat="45.11988" lon="5.01038">
        <ele>254.58999633789</ele>
        <time>2010-04-20T11:42:34Z</time>
      </trkpt>
      <trkpt lat="45.12003" lon="5.0106">
        <ele>255.29299926758</ele>
        <time>2010-04-20T11:42:40Z</time>
      </trkpt>
      <trkpt lat="45.12024" lon="5.01096">
        <ele>256.04699707031</ele>
        <time>2010-04-20T11:42:48Z</time>
      </trkpt>
      <trkpt lat="45.12035" lon="5.01118">
        <ele>255.87699890137</ele>
        <time>2010-04-20T11:42:52Z</time>
      </trkpt>
      <trkpt lat="45.12057" lon="5.01167">
        <ele>256.2200012207</ele>
        <time>2010-04-20T11:43:00Z</time>
      </trkpt>
      <trkpt lat="45.12091" lon="5.01226">
        <ele>256.28500366211</ele>
        <time>2010-04-20T11:43:10Z</time>
      </trkpt>
      <trkpt lat="45.12123" lon="5.01267">
        <ele>256.69900512695</ele>
        <time>2010-04-20T11:43:18Z</time>
      </trkpt>
      <trkpt lat="45.12157" lon="5.01303">
        <ele>257.15701293945</ele>
        <time>2010-04-20T11:43:26Z</time>
      </trkpt>
      <trkpt lat="45.122" lon="5.01348">
        <ele>258.04000854492</ele>
        <time>2010-04-20T11:43:36Z</time>
      </trkpt>
      <trkpt lat="45.12239" lon="5.01384">
        <ele>259.50299072266</ele>
        <time>2010-04-20T11:43:45Z</time>
      </trkpt>
      <trkpt lat="45.12274" lon="5.01416">
        <ele>260.27099609375</ele>
        <time>2010-04-20T11:43:53Z</time>
      </trkpt>
      <trkpt lat="45.12322" lon="5.01475">
        <ele>262.73400878906</ele>
        <time>2010-04-20T11:44:05Z</time>
      </trkpt>
      <trkpt lat="45.1236" lon="5.01538">
        <ele>264.43301391602</ele>
        <time>2010-04-20T11:44:16Z</time>
      </trkpt>
      <trkpt lat="45.12395" lon="5.01593">
        <ele>263.50900268555</ele>
        <time>2010-04-20T11:44:26Z</time>
      </trkpt>
      <trkpt lat="45.12418" lon="5.0163">
        <ele>264.79699707031</ele>
        <time>2010-04-20T11:44:33Z</time>
      </trkpt>
      <trkpt lat="45.12457" lon="5.01691">
        <ele>266.8219909668</ele>
        <time>2010-04-20T11:44:45Z</time>
      </trkpt>
      <trkpt lat="45.1249" lon="5.01745">
        <ele>267.27200317383</ele>
        <time>2010-04-20T11:44:55Z</time>
      </trkpt>
      <trkpt lat="45.12526" lon="5.01806">
        <ele>267.58700561523</ele>
        <time>2010-04-20T11:45:05Z</time>
      </trkpt>
      <trkpt lat="45.12558" lon="5.01858">
        <ele>267.08599853516</ele>
        <time>2010-04-20T11:45:13Z</time>
      </trkpt>
      <trkpt lat="45.12577" lon="5.01882">
        <ele>265.37399291992</ele>
        <time>2010-04-20T11:45:17Z</time>
      </trkpt>
      <trkpt lat="45.12621" lon="5.01913">
        <ele>263.35198974609</ele>
        <time>2010-04-20T11:45:24Z</time>
      </trkpt>
      <trkpt lat="45.12675" lon="5.01946">
        <ele>260.16900634766</ele>
        <time>2010-04-20T11:45:31Z</time>
      </trkpt>
      <trkpt lat="45.12709" lon="5.01966">
        <ele>256.8630065918</ele>
        <time>2010-04-20T11:45:35Z</time>
      </trkpt>
      <trkpt lat="45.12754" lon="5.01998">
        <ele>255.75100708008</ele>
        <time>2010-04-20T11:45:41Z</time>
      </trkpt>
      <trkpt lat="45.12792" lon="5.02025">
        <ele>253.41900634766</ele>
        <time>2010-04-20T11:45:46Z</time>
      </trkpt>
      <trkpt lat="45.12808" lon="5.02036">
        <ele>252.50399780273</ele>
        <time>2010-04-20T11:45:48Z</time>
      </trkpt>
      <trkpt lat="45.12841" lon="5.02059">
        <ele>251.625</ele>
        <time>2010-04-20T11:45:52Z</time>
      </trkpt>
      <trkpt lat="45.12857" lon="5.02069">
        <ele>251.70300292969</ele>
        <time>2010-04-20T11:45:54Z</time>
      </trkpt>
      <trkpt lat="45.1289" lon="5.02111">
        <ele>250.69999694824</ele>
        <time>2010-04-20T11:45:59Z</time>
      </trkpt>
      <trkpt lat="45.12923" lon="5.02171">
        <ele>249.25399780273</ele>
        <time>2010-04-20T11:46:05Z</time>
      </trkpt>
      <trkpt lat="45.12957" lon="5.02238">
        <ele>248.95399475098</ele>
        <time>2010-04-20T11:46:12Z</time>
      </trkpt>
      <trkpt lat="45.12984" lon="5.02274">
        <ele>249.73100280762</ele>
        <time>2010-04-20T11:46:17Z</time>
      </trkpt>
      <trkpt lat="45.13029" lon="5.02325">
        <ele>249.89799499512</ele>
        <time>2010-04-20T11:46:25Z</time>
      </trkpt>
      <trkpt lat="45.13056" lon="5.02371">
        <ele>250.53100585938</ele>
        <time>2010-04-20T11:46:31Z</time>
      </trkpt>
      <trkpt lat="45.13067" lon="5.02396">
        <ele>250.52099609375</ele>
        <time>2010-04-20T11:46:34Z</time>
      </trkpt>
      <trkpt lat="45.13073" lon="5.02443">
        <ele>250.28300476074</ele>
        <time>2010-04-20T11:46:39Z</time>
      </trkpt>
      <trkpt lat="45.13075" lon="5.0253">
        <ele>250.59599304199</ele>
        <time>2010-04-20T11:46:48Z</time>
      </trkpt>
      <trkpt lat="45.13092" lon="5.02619">
        <ele>250.80400085449</ele>
        <time>2010-04-20T11:46:58Z</time>
      </trkpt>
      <trkpt lat="45.13107" lon="5.02664">
        <ele>253.42900085449</ele>
        <time>2010-04-20T11:47:04Z</time>
      </trkpt>
      <trkpt lat="45.1312" lon="5.02691">
        <ele>254.87600708008</ele>
        <time>2010-04-20T11:47:09Z</time>
      </trkpt>
      <trkpt lat="45.13123" lon="5.02696">
        <ele>255.1130065918</ele>
        <time>2010-04-20T11:47:10Z</time>
      </trkpt>
      <trkpt lat="45.13135" lon="5.02719">
        <ele>257.01699829102</ele>
        <time>2010-04-20T11:47:15Z</time>
      </trkpt>
      <trkpt lat="45.13147" lon="5.02742">
        <ele>259.44799804688</ele>
        <time>2010-04-20T11:47:20Z</time>
      </trkpt>
      <trkpt lat="45.13169" lon="5.02782">
        <ele>262.18301391602</ele>
        <time>2010-04-20T11:47:29Z</time>
      </trkpt>
      <trkpt lat="45.1319" lon="5.02815">
        <ele>264.47100830078</ele>
        <time>2010-04-20T11:47:37Z</time>
      </trkpt>
      <trkpt lat="45.13206" lon="5.02845">
        <ele>266.63598632812</ele>
        <time>2010-04-20T11:47:44Z</time>
      </trkpt>
      <trkpt lat="45.13213" lon="5.02866">
        <ele>267.33700561523</ele>
        <time>2010-04-20T11:47:48Z</time>
      </trkpt>
      <trkpt lat="45.13216" lon="5.02912">
        <ele>269.39001464844</ele>
        <time>2010-04-20T11:47:56Z</time>
      </trkpt>
      <trkpt lat="45.13208" lon="5.02959">
        <ele>270.99301147461</ele>
        <time>2010-04-20T11:48:04Z</time>
      </trkpt>
      <trkpt lat="45.1319" lon="5.03009">
        <ele>272.68701171875</ele>
        <time>2010-04-20T11:48:13Z</time>
      </trkpt>
      <trkpt lat="45.13179" lon="5.03042">
        <ele>273.68399047852</ele>
        <time>2010-04-20T11:48:19Z</time>
      </trkpt>
      <trkpt lat="45.13174" lon="5.03092">
        <ele>275.25100708008</ele>
        <time>2010-04-20T11:48:27Z</time>
      </trkpt>
      <trkpt lat="45.13173" lon="5.03104">
        <ele>275.16000366211</ele>
        <time>2010-04-20T11:48:29Z</time>
      </trkpt>
      <trkpt lat="45.13169" lon="5.03141">
        <ele>276.09799194336</ele>
        <time>2010-04-20T11:48:35Z</time>
      </trkpt>
      <trkpt lat="45.13163" lon="5.03194">
        <ele>277.75698852539</ele>
        <time>2010-04-20T11:48:44Z</time>
      </trkpt>
      <trkpt lat="45.13158" lon="5.0325">
        <ele>281.34298706055</ele>
        <time>2010-04-20T11:48:54Z</time>
      </trkpt>
      <trkpt lat="45.13156" lon="5.03301">
        <ele>283.18499755859</ele>
        <time>2010-04-20T11:49:03Z</time>
      </trkpt>
      <trkpt lat="45.13157" lon="5.03343">
        <ele>284.69000244141</ele>
        <time>2010-04-20T11:49:10Z</time>
      </trkpt>
      <trkpt lat="45.13161" lon="5.03393">
        <ele>285.62799072266</ele>
        <time>2010-04-20T11:49:18Z</time>
      </trkpt>
      <trkpt lat="45.13165" lon="5.03434">
        <ele>286.23199462891</ele>
        <time>2010-04-20T11:49:25Z</time>
      </trkpt>
      <trkpt lat="45.13168" lon="5.03464">
        <ele>285.85900878906</ele>
        <time>2010-04-20T11:49:31Z</time>
      </trkpt>
      <trkpt lat="45.13169" lon="5.03475">
        <ele>286.0530090332</ele>
        <time>2010-04-20T11:49:33Z</time>
      </trkpt>
      <trkpt lat="45.13175" lon="5.03496">
        <ele>285.70999145508</ele>
        <time>2010-04-20T11:49:37Z</time>
      </trkpt>
      <trkpt lat="45.13186" lon="5.03519">
        <ele>285.42300415039</ele>
        <time>2010-04-20T11:49:42Z</time>
      </trkpt>
      <trkpt lat="45.13199" lon="5.03539">
        <ele>284.9280090332</ele>
        <time>2010-04-20T11:49:47Z</time>
      </trkpt>
      <trkpt lat="45.13205" lon="5.03547">
        <ele>284.52899169922</ele>
        <time>2010-04-20T11:49:49Z</time>
      </trkpt>
      <trkpt lat="45.13214" lon="5.03558">
        <ele>284.45901489258</ele>
        <time>2010-04-20T11:49:52Z</time>
      </trkpt>
      <trkpt lat="45.13225" lon="5.03586">
        <ele>284.70999145508</ele>
        <time>2010-04-20T11:49:57Z</time>
      </trkpt>
      <trkpt lat="45.13227" lon="5.03601">
        <ele>285.08801269531</ele>
        <time>2010-04-20T11:49:59Z</time>
      </trkpt>
      <trkpt lat="45.13223" lon="5.03679">
        <ele>286.4580078125</ele>
        <time>2010-04-20T11:50:09Z</time>
      </trkpt>
      <trkpt lat="45.13216" lon="5.03737">
        <ele>287.23098754883</ele>
        <time>2010-04-20T11:50:17Z</time>
      </trkpt>
      <trkpt lat="45.13213" lon="5.03761">
        <ele>287.41598510742</ele>
        <time>2010-04-20T11:50:21Z</time>
      </trkpt>
      <trkpt lat="45.1321" lon="5.03788">
        <ele>287.92098999023</ele>
        <time>2010-04-20T11:50:25Z</time>
      </trkpt>
      <trkpt lat="45.13203" lon="5.03808">
        <ele>287.70001220703</ele>
        <time>2010-04-20T11:50:28Z</time>
      </trkpt>
      <trkpt lat="45.13179" lon="5.0385">
        <ele>287.1549987793</ele>
        <time>2010-04-20T11:50:35Z</time>
      </trkpt>
      <trkpt lat="45.13168" lon="5.03859">
        <ele>287.24398803711</ele>
        <time>2010-04-20T11:50:37Z</time>
      </trkpt>
      <trkpt lat="45.13145" lon="5.03876">
        <ele>286.69299316406</ele>
        <time>2010-04-20T11:50:41Z</time>
      </trkpt>
      <trkpt lat="45.13126" lon="5.03901">
        <ele>286.17599487305</ele>
        <time>2010-04-20T11:50:45Z</time>
      </trkpt>
      <trkpt lat="45.13112" lon="5.03957">
        <ele>288.93099975586</ele>
        <time>2010-04-20T11:50:52Z</time>
      </trkpt>
      <trkpt lat="45.1311" lon="5.03983">
        <ele>290.38299560547</ele>
        <time>2010-04-20T11:50:56Z</time>
      </trkpt>
      <trkpt lat="45.13111" lon="5.04035">
        <ele>293.17001342773</ele>
        <time>2010-04-20T11:51:04Z</time>
      </trkpt>
      <trkpt lat="45.13118" lon="5.04068">
        <ele>294.80099487305</ele>
        <time>2010-04-20T11:51:09Z</time>
      </trkpt>
      <trkpt lat="45.13126" lon="5.04103">
        <ele>296.6369934082</ele>
        <time>2010-04-20T11:51:14Z</time>
      </trkpt>
      <trkpt lat="45.13132" lon="5.04131">
        <ele>297.60198974609</ele>
        <time>2010-04-20T11:51:18Z</time>
      </trkpt>
      <trkpt lat="45.1314" lon="5.04192">
        <ele>301.51000976562</ele>
        <time>2010-04-20T11:51:27Z</time>
      </trkpt>
      <trkpt lat="45.13141" lon="5.04243">
        <ele>304.37799072266</ele>
        <time>2010-04-20T11:51:34Z</time>
      </trkpt>
      <trkpt lat="45.13138" lon="5.04287">
        <ele>305.25500488281</ele>
        <time>2010-04-20T11:51:41Z</time>
      </trkpt>
      <trkpt lat="45.13129" lon="5.04335">
        <ele>303.88400268555</ele>
        <time>2010-04-20T11:51:48Z</time>
      </trkpt>
      <trkpt lat="45.13119" lon="5.04366">
        <ele>301.60400390625</ele>
        <time>2010-04-20T11:51:52Z</time>
      </trkpt>
      <trkpt lat="45.13103" lon="5.04408">
        <ele>300.05700683594</ele>
        <time>2010-04-20T11:51:57Z</time>
      </trkpt>
      <trkpt lat="45.13089" lon="5.04445">
        <ele>299.24099731445</ele>
        <time>2010-04-20T11:52:02Z</time>
      </trkpt>
      <trkpt lat="45.13071" lon="5.04493">
        <ele>297.34201049805</ele>
        <time>2010-04-20T11:52:08Z</time>
      </trkpt>
      <trkpt lat="45.13058" lon="5.0453">
        <ele>295.65200805664</ele>
        <time>2010-04-20T11:52:12Z</time>
      </trkpt>
      <trkpt lat="45.13047" lon="5.04559">
        <ele>294.97601318359</ele>
        <time>2010-04-20T11:52:15Z</time>
      </trkpt>
      <trkpt lat="45.13039" lon="5.04582">
        <ele>294.37100219727</ele>
        <time>2010-04-20T11:52:18Z</time>
      </trkpt>
      <trkpt lat="45.13033" lon="5.046">
        <ele>294.53698730469</ele>
        <time>2010-04-20T11:52:22Z</time>
      </trkpt>
      <trkpt lat="45.13031" lon="5.04605">
        <ele>294.35299682617</ele>
        <time>2010-04-20T11:52:24Z</time>
      </trkpt>
      <trkpt lat="45.13029" lon="5.04608">
        <ele>294.28399658203</ele>
        <time>2010-04-20T11:52:25Z</time>
      </trkpt>
      <trkpt lat="45.13023" lon="5.04623">
        <ele>294.75299072266</ele>
        <time>2010-04-20T11:52:31Z</time>
      </trkpt>
      <trkpt lat="45.13021" lon="5.04634">
        <ele>295.32699584961</ele>
        <time>2010-04-20T11:52:37Z</time>
      </trkpt>
      <trkpt lat="45.13014" lon="5.04655">
        <ele>295.32901000977</ele>
        <time>2010-04-20T11:52:44Z</time>
      </trkpt>
      <trkpt lat="45.13002" lon="5.04691">
        <ele>296.80899047852</ele>
        <time>2010-04-20T11:52:51Z</time>
      </trkpt>
      <trkpt lat="45.12991" lon="5.04721">
        <ele>298.03201293945</ele>
        <time>2010-04-20T11:52:57Z</time>
      </trkpt>
      <trkpt lat="45.12982" lon="5.04743">
        <ele>299.56698608398</ele>
        <time>2010-04-20T11:53:03Z</time>
      </trkpt>
      <trkpt lat="45.12977" lon="5.04762">
        <ele>300.06500244141</ele>
        <time>2010-04-20T11:53:08Z</time>
      </trkpt>
      <trkpt lat="45.12971" lon="5.04789">
        <ele>301.44299316406</ele>
        <time>2010-04-20T11:53:14Z</time>
      </trkpt>
      <trkpt lat="45.12963" lon="5.04831">
        <ele>302.93301391602</ele>
        <time>2010-04-20T11:53:22Z</time>
      </trkpt>
      <trkpt lat="45.12955" lon="5.04872">
        <ele>304.59298706055</ele>
        <time>2010-04-20T11:53:30Z</time>
      </trkpt>
      <trkpt lat="45.12948" lon="5.04911">
        <ele>306.03100585938</ele>
        <time>2010-04-20T11:53:38Z</time>
      </trkpt>
      <trkpt lat="45.12943" lon="5.0494">
        <ele>307.23300170898</ele>
        <time>2010-04-20T11:53:44Z</time>
      </trkpt>
      <trkpt lat="45.12936" lon="5.04972">
        <ele>309.01800537109</ele>
        <time>2010-04-20T11:53:51Z</time>
      </trkpt>
      <trkpt lat="45.12928" lon="5.05007">
        <ele>309.8219909668</ele>
        <time>2010-04-20T11:53:57Z</time>
      </trkpt>
      <trkpt lat="45.12923" lon="5.05032">
        <ele>310.45700073242</ele>
        <time>2010-04-20T11:54:01Z</time>
      </trkpt>
      <trkpt lat="45.12916" lon="5.05066">
        <ele>310.21600341797</ele>
        <time>2010-04-20T11:54:07Z</time>
      </trkpt>
      <trkpt lat="45.12913" lon="5.05084">
        <ele>310.38101196289</ele>
        <time>2010-04-20T11:54:10Z</time>
      </trkpt>
      <trkpt lat="45.1291" lon="5.05127">
        <ele>310.54598999023</ele>
        <time>2010-04-20T11:54:17Z</time>
      </trkpt>
      <trkpt lat="45.1291" lon="5.05173">
        <ele>308.52200317383</ele>
        <time>2010-04-20T11:54:23Z</time>
      </trkpt>
      <trkpt lat="45.12917" lon="5.05224">
        <ele>307</ele>
        <time>2010-04-20T11:54:29Z</time>
      </trkpt>
      <trkpt lat="45.12934" lon="5.05291">
        <ele>306.83599853516</ele>
        <time>2010-04-20T11:54:37Z</time>
      </trkpt>
      <trkpt lat="45.12947" lon="5.05337">
        <ele>307.15701293945</ele>
        <time>2010-04-20T11:54:43Z</time>
      </trkpt>
      <trkpt lat="45.12957" lon="5.05378">
        <ele>307.67199707031</ele>
        <time>2010-04-20T11:54:49Z</time>
      </trkpt>
      <trkpt lat="45.12959" lon="5.05384">
        <ele>307.7799987793</ele>
        <time>2010-04-20T11:54:50Z</time>
      </trkpt>
      <trkpt lat="45.12972" lon="5.05409">
        <ele>308.84298706055</ele>
        <time>2010-04-20T11:54:55Z</time>
      </trkpt>
      <trkpt lat="45.12976" lon="5.05413">
        <ele>309.08801269531</ele>
        <time>2010-04-20T11:54:56Z</time>
      </trkpt>
      <trkpt lat="45.13007" lon="5.05434">
        <ele>311.1960144043</ele>
        <time>2010-04-20T11:55:04Z</time>
      </trkpt>
      <trkpt lat="45.13041" lon="5.05458">
        <ele>313.01901245117</ele>
        <time>2010-04-20T11:55:13Z</time>
      </trkpt>
      <trkpt lat="45.13071" lon="5.05487">
        <ele>315.60000610352</ele>
        <time>2010-04-20T11:55:22Z</time>
      </trkpt>
      <trkpt lat="45.13084" lon="5.05508">
        <ele>316.93200683594</ele>
        <time>2010-04-20T11:55:28Z</time>
      </trkpt>
      <trkpt lat="45.13092" lon="5.05527">
        <ele>318.29501342773</ele>
        <time>2010-04-20T11:55:33Z</time>
      </trkpt>
      <trkpt lat="45.13102" lon="5.05551">
        <ele>319.76901245117</ele>
        <time>2010-04-20T11:55:39Z</time>
      </trkpt>
      <trkpt lat="45.13113" lon="5.05573">
        <ele>320.86999511719</ele>
        <time>2010-04-20T11:55:45Z</time>
      </trkpt>
      <trkpt lat="45.13128" lon="5.05592">
        <ele>321.79901123047</ele>
        <time>2010-04-20T11:55:51Z</time>
      </trkpt>
      <trkpt lat="45.13146" lon="5.05609">
        <ele>323.41500854492</ele>
        <time>2010-04-20T11:55:58Z</time>
      </trkpt>
      <trkpt lat="45.13165" lon="5.05629">
        <ele>324.06100463867</ele>
        <time>2010-04-20T11:56:05Z</time>
      </trkpt>
      <trkpt lat="45.13184" lon="5.05654">
        <ele>324.52099609375</ele>
        <time>2010-04-20T11:56:12Z</time>
      </trkpt>
      <trkpt lat="45.13204" lon="5.05684">
        <ele>325.45700073242</ele>
        <time>2010-04-20T11:56:20Z</time>
      </trkpt>
      <trkpt lat="45.13206" lon="5.05688">
        <ele>325.36499023438</ele>
        <time>2010-04-20T11:56:21Z</time>
      </trkpt>
      <trkpt lat="45.13218" lon="5.05714">
        <ele>324.77899169922</ele>
        <time>2010-04-20T11:56:26Z</time>
      </trkpt>
      <trkpt lat="45.13223" lon="5.05725">
        <ele>324.49398803711</ele>
        <time>2010-04-20T11:56:28Z</time>
      </trkpt>
      <trkpt lat="45.13229" lon="5.05742">
        <ele>324.17700195312</ele>
        <time>2010-04-20T11:56:31Z</time>
      </trkpt>
      <trkpt lat="45.13236" lon="5.05764">
        <ele>324.36499023438</ele>
        <time>2010-04-20T11:56:35Z</time>
      </trkpt>
      <trkpt lat="45.1325" lon="5.05805">
        <ele>324.65798950195</ele>
        <time>2010-04-20T11:56:42Z</time>
      </trkpt>
      <trkpt lat="45.13267" lon="5.05852">
        <ele>325.03799438477</ele>
        <time>2010-04-20T11:56:50Z</time>
      </trkpt>
      <trkpt lat="45.13276" lon="5.05891">
        <ele>325.59100341797</ele>
        <time>2010-04-20T11:56:56Z</time>
      </trkpt>
      <trkpt lat="45.13281" lon="5.05955">
        <ele>326.1789855957</ele>
        <time>2010-04-20T11:57:06Z</time>
      </trkpt>
      <trkpt lat="45.13283" lon="5.0599">
        <ele>327.22698974609</ele>
        <time>2010-04-20T11:57:12Z</time>
      </trkpt>
      <trkpt lat="45.13285" lon="5.06028">
        <ele>326.93600463867</ele>
        <time>2010-04-20T11:57:19Z</time>
      </trkpt>
      <trkpt lat="45.13285" lon="5.06044">
        <ele>326.58999633789</ele>
        <time>2010-04-20T11:57:22Z</time>
      </trkpt>
      <trkpt lat="45.13286" lon="5.06055">
        <ele>326.41400146484</ele>
        <time>2010-04-20T11:57:24Z</time>
      </trkpt>
      <trkpt lat="45.13288" lon="5.06089">
        <ele>325.73498535156</ele>
        <time>2010-04-20T11:57:30Z</time>
      </trkpt>
      <trkpt lat="45.13281" lon="5.06112">
        <ele>325.29400634766</ele>
        <time>2010-04-20T11:57:34Z</time>
      </trkpt>
      <trkpt lat="45.13276" lon="5.06124">
        <ele>324.90399169922</ele>
        <time>2010-04-20T11:57:36Z</time>
      </trkpt>
      <trkpt lat="45.1326" lon="5.06181">
        <ele>325.12899780273</ele>
        <time>2010-04-20T11:57:44Z</time>
      </trkpt>
      <trkpt lat="45.13251" lon="5.0622">
        <ele>325.06298828125</ele>
        <time>2010-04-20T11:57:50Z</time>
      </trkpt>
      <trkpt lat="45.13245" lon="5.06246">
        <ele>325.42401123047</ele>
        <time>2010-04-20T11:57:54Z</time>
      </trkpt>
      <trkpt lat="45.13237" lon="5.06277">
        <ele>325.58700561523</ele>
        <time>2010-04-20T11:57:59Z</time>
      </trkpt>
      <trkpt lat="45.13223" lon="5.06327">
        <ele>322.95401000977</ele>
        <time>2010-04-20T11:58:06Z</time>
      </trkpt>
      <trkpt lat="45.13201" lon="5.06367">
        <ele>320.35299682617</ele>
        <time>2010-04-20T11:58:11Z</time>
      </trkpt>
      <trkpt lat="45.13169" lon="5.06417">
        <ele>316.51901245117</ele>
        <time>2010-04-20T11:58:17Z</time>
      </trkpt>
      <trkpt lat="45.13152" lon="5.06442">
        <ele>317.14099121094</ele>
        <time>2010-04-20T11:58:21Z</time>
      </trkpt>
      <trkpt lat="45.13148" lon="5.06448">
        <ele>316.84698486328</ele>
        <time>2010-04-20T11:58:23Z</time>
      </trkpt>
      <trkpt lat="45.13147" lon="5.06463">
        <ele>318.10501098633</ele>
        <time>2010-04-20T11:58:28Z</time>
      </trkpt>
      <trkpt lat="45.13163" lon="5.06492">
        <ele>316.94500732422</ele>
        <time>2010-04-20T11:58:35Z</time>
      </trkpt>
      <trkpt lat="45.13184" lon="5.06524">
        <ele>317.73599243164</ele>
        <time>2010-04-20T11:58:42Z</time>
      </trkpt>
      <trkpt lat="45.1321" lon="5.06561">
        <ele>318.57800292969</ele>
        <time>2010-04-20T11:58:50Z</time>
      </trkpt>
      <trkpt lat="45.13231" lon="5.06589">
        <ele>319.98098754883</ele>
        <time>2010-04-20T11:58:56Z</time>
      </trkpt>
      <trkpt lat="45.1326" lon="5.06624">
        <ele>321.16598510742</ele>
        <time>2010-04-20T11:59:04Z</time>
      </trkpt>
      <trkpt lat="45.1329" lon="5.06659">
        <ele>321.74899291992</ele>
        <time>2010-04-20T11:59:12Z</time>
      </trkpt>
      <trkpt lat="45.13315" lon="5.06689">
        <ele>323.29400634766</ele>
        <time>2010-04-20T11:59:19Z</time>
      </trkpt>
      <trkpt lat="45.13345" lon="5.06726">
        <ele>324.64199829102</ele>
        <time>2010-04-20T11:59:28Z</time>
      </trkpt>
      <trkpt lat="45.13362" lon="5.06747">
        <ele>324.97100830078</ele>
        <time>2010-04-20T11:59:33Z</time>
      </trkpt>
      <trkpt lat="45.1339" lon="5.0678">
        <ele>326.37799072266</ele>
        <time>2010-04-20T11:59:41Z</time>
      </trkpt>
      <trkpt lat="45.13426" lon="5.06819">
        <ele>327.11898803711</ele>
        <time>2010-04-20T11:59:51Z</time>
      </trkpt>
      <trkpt lat="45.1346" lon="5.06853">
        <ele>327.47799682617</ele>
        <time>2010-04-20T12:00:00Z</time>
      </trkpt>
      <trkpt lat="45.13483" lon="5.06873">
        <ele>327.52398681641</ele>
        <time>2010-04-20T12:00:06Z</time>
      </trkpt>
      <trkpt lat="45.1353" lon="5.06915">
        <ele>329.54501342773</ele>
        <time>2010-04-20T12:00:18Z</time>
      </trkpt>
      <trkpt lat="45.13578" lon="5.06954">
        <ele>330.83599853516</ele>
        <time>2010-04-20T12:00:29Z</time>
      </trkpt>
      <trkpt lat="45.13617" lon="5.06985">
        <ele>332.04299926758</ele>
        <time>2010-04-20T12:00:38Z</time>
      </trkpt>
      <trkpt lat="45.13659" lon="5.07012">
        <ele>332.90301513672</ele>
        <time>2010-04-20T12:00:47Z</time>
      </trkpt>
      <trkpt lat="45.13705" lon="5.07038">
        <ele>333.07901000977</ele>
        <time>2010-04-20T12:00:57Z</time>
      </trkpt>
      <trkpt lat="45.13746" lon="5.07067">
        <ele>333.56698608398</ele>
        <time>2010-04-20T12:01:06Z</time>
      </trkpt>
      <trkpt lat="45.13782" lon="5.07102">
        <ele>334.17098999023</ele>
        <time>2010-04-20T12:01:15Z</time>
      </trkpt>
      <trkpt lat="45.13813" lon="5.07133">
        <ele>335.17199707031</ele>
        <time>2010-04-20T12:01:23Z</time>
      </trkpt>
      <trkpt lat="45.13844" lon="5.07165">
        <ele>336.21899414062</ele>
        <time>2010-04-20T12:01:31Z</time>
      </trkpt>
      <trkpt lat="45.1387" lon="5.07191">
        <ele>336.48599243164</ele>
        <time>2010-04-20T12:01:38Z</time>
      </trkpt>
      <trkpt lat="45.13912" lon="5.07231">
        <ele>337.50299072266</ele>
        <time>2010-04-20T12:01:49Z</time>
      </trkpt>
      <trkpt lat="45.13937" lon="5.07256">
        <ele>338.64099121094</ele>
        <time>2010-04-20T12:01:56Z</time>
      </trkpt>
      <trkpt lat="45.13976" lon="5.07294">
        <ele>341.01800537109</ele>
        <time>2010-04-20T12:02:07Z</time>
      </trkpt>
      <trkpt lat="45.14008" lon="5.07326">
        <ele>342.40899658203</ele>
        <time>2010-04-20T12:02:16Z</time>
      </trkpt>
      <trkpt lat="45.14042" lon="5.0736">
        <ele>344.23300170898</ele>
        <time>2010-04-20T12:02:26Z</time>
      </trkpt>
      <trkpt lat="45.14072" lon="5.07389">
        <ele>346.40600585938</ele>
        <time>2010-04-20T12:02:35Z</time>
      </trkpt>
      <trkpt lat="45.14085" lon="5.07402">
        <ele>347.74600219727</ele>
        <time>2010-04-20T12:02:39Z</time>
      </trkpt>
      <trkpt lat="45.14115" lon="5.07431">
        <ele>349.29901123047</ele>
        <time>2010-04-20T12:02:48Z</time>
      </trkpt>
      <trkpt lat="45.14151" lon="5.07468">
        <ele>350.85998535156</ele>
        <time>2010-04-20T12:02:59Z</time>
      </trkpt>
      <trkpt lat="45.14176" lon="5.07495">
        <ele>351.85699462891</ele>
        <time>2010-04-20T12:03:07Z</time>
      </trkpt>
      <trkpt lat="45.14198" lon="5.07525">
        <ele>353.45199584961</ele>
        <time>2010-04-20T12:03:15Z</time>
      </trkpt>
      <trkpt lat="45.1422" lon="5.07555">
        <ele>354.85000610352</ele>
        <time>2010-04-20T12:03:23Z</time>
      </trkpt>
      <trkpt lat="45.14236" lon="5.07577">
        <ele>355.85800170898</ele>
        <time>2010-04-20T12:03:29Z</time>
      </trkpt>
      <trkpt lat="45.14254" lon="5.07598">
        <ele>356.78799438477</ele>
        <time>2010-04-20T12:03:35Z</time>
      </trkpt>
      <trkpt lat="45.14257" lon="5.07602">
        <ele>357.15701293945</ele>
        <time>2010-04-20T12:03:36Z</time>
      </trkpt>
      <trkpt lat="45.14267" lon="5.07613">
        <ele>357.04998779297</ele>
        <time>2010-04-20T12:03:39Z</time>
      </trkpt>
      <trkpt lat="45.1428" lon="5.07628">
        <ele>357.3210144043</ele>
        <time>2010-04-20T12:03:43Z</time>
      </trkpt>
      <trkpt lat="45.14307" lon="5.07658">
        <ele>358.02499389648</ele>
        <time>2010-04-20T12:03:51Z</time>
      </trkpt>
      <trkpt lat="45.14339" lon="5.07695">
        <ele>358.50698852539</ele>
        <time>2010-04-20T12:04:00Z</time>
      </trkpt>
      <trkpt lat="45.14368" lon="5.07727">
        <ele>359.22299194336</ele>
        <time>2010-04-20T12:04:08Z</time>
      </trkpt>
      <trkpt lat="45.14388" lon="5.07751">
        <ele>359.07699584961</ele>
        <time>2010-04-20T12:04:14Z</time>
      </trkpt>
      <trkpt lat="45.14412" lon="5.07779">
        <ele>358.50500488281</ele>
        <time>2010-04-20T12:04:20Z</time>
      </trkpt>
      <trkpt lat="45.14433" lon="5.07802">
        <ele>357.89498901367</ele>
        <time>2010-04-20T12:04:25Z</time>
      </trkpt>
      <trkpt lat="45.14457" lon="5.0783">
        <ele>357.39099121094</ele>
        <time>2010-04-20T12:04:31Z</time>
      </trkpt>
      <trkpt lat="45.14485" lon="5.07863">
        <ele>356.92999267578</ele>
        <time>2010-04-20T12:04:37Z</time>
      </trkpt>
      <trkpt lat="45.14504" lon="5.07885">
        <ele>356.17098999023</ele>
        <time>2010-04-20T12:04:41Z</time>
      </trkpt>
      <trkpt lat="45.14543" lon="5.07934">
        <ele>354.63800048828</ele>
        <time>2010-04-20T12:04:49Z</time>
      </trkpt>
      <trkpt lat="45.1458" lon="5.07991">
        <ele>355.11199951172</ele>
        <time>2010-04-20T12:04:57Z</time>
      </trkpt>
      <trkpt lat="45.14585" lon="5.07997">
        <ele>355.19198608398</ele>
        <time>2010-04-20T12:04:58Z</time>
      </trkpt>
      <trkpt lat="45.14625" lon="5.08045">
        <ele>356.4289855957</ele>
        <time>2010-04-20T12:05:06Z</time>
      </trkpt>
      <trkpt lat="45.14672" lon="5.08106">
        <ele>357.73999023438</ele>
        <time>2010-04-20T12:05:17Z</time>
      </trkpt>
      <trkpt lat="45.14703" lon="5.08147">
        <ele>359.31100463867</ele>
        <time>2010-04-20T12:05:25Z</time>
      </trkpt>
      <trkpt lat="45.14741" lon="5.08194">
        <ele>360.71600341797</ele>
        <time>2010-04-20T12:05:35Z</time>
      </trkpt>
      <trkpt lat="45.14774" lon="5.08233">
        <ele>361.23498535156</ele>
        <time>2010-04-20T12:05:43Z</time>
      </trkpt>
      <trkpt lat="45.14809" lon="5.08277">
        <ele>359.59298706055</ele>
        <time>2010-04-20T12:05:51Z</time>
      </trkpt>
      <trkpt lat="45.14841" lon="5.08319">
        <ele>358.51400756836</ele>
        <time>2010-04-20T12:05:58Z</time>
      </trkpt>
      <trkpt lat="45.14872" lon="5.08347">
        <ele>356.49099731445</ele>
        <time>2010-04-20T12:06:03Z</time>
      </trkpt>
      <trkpt lat="45.14908" lon="5.08367">
        <ele>355.02700805664</ele>
        <time>2010-04-20T12:06:08Z</time>
      </trkpt>
      <trkpt lat="45.14959" lon="5.08396">
        <ele>355.61700439453</ele>
        <time>2010-04-20T12:06:16Z</time>
      </trkpt>
      <trkpt lat="45.14993" lon="5.08416">
        <ele>356.96499633789</ele>
        <time>2010-04-20T12:06:22Z</time>
      </trkpt>
      <trkpt lat="45.15021" lon="5.08432">
        <ele>358.60400390625</ele>
        <time>2010-04-20T12:06:28Z</time>
      </trkpt>
      <trkpt lat="45.15053" lon="5.08449">
        <ele>359.76699829102</ele>
        <time>2010-04-20T12:06:36Z</time>
      </trkpt>
      <trkpt lat="45.15072" lon="5.0846">
        <ele>362.11401367188</ele>
        <time>2010-04-20T12:06:41Z</time>
      </trkpt>
      <trkpt lat="45.15084" lon="5.08468">
        <ele>361.875</ele>
        <time>2010-04-20T12:06:45Z</time>
      </trkpt>
      <trkpt lat="45.15101" lon="5.08477">
        <ele>363.34899902344</ele>
        <time>2010-04-20T12:06:50Z</time>
      </trkpt>
      <trkpt lat="45.15122" lon="5.0849">
        <ele>364.89898681641</ele>
        <time>2010-04-20T12:06:57Z</time>
      </trkpt>
      <trkpt lat="45.15141" lon="5.085">
        <ele>366.03900146484</ele>
        <time>2010-04-20T12:07:03Z</time>
      </trkpt>
      <trkpt lat="45.15165" lon="5.08513">
        <ele>367.8450012207</ele>
        <time>2010-04-20T12:07:10Z</time>
      </trkpt>
      <trkpt lat="45.15189" lon="5.08525">
        <ele>369.37200927734</ele>
        <time>2010-04-20T12:07:17Z</time>
      </trkpt>
      <trkpt lat="45.15211" lon="5.08537">
        <ele>370.6960144043</ele>
        <time>2010-04-20T12:07:24Z</time>
      </trkpt>
      <trkpt lat="45.15232" lon="5.08549">
        <ele>371.93701171875</ele>
        <time>2010-04-20T12:07:31Z</time>
      </trkpt>
      <trkpt lat="45.1525" lon="5.08559">
        <ele>373.91000366211</ele>
        <time>2010-04-20T12:07:37Z</time>
      </trkpt>
      <trkpt lat="45.15271" lon="5.0857">
        <ele>375.32998657227</ele>
        <time>2010-04-20T12:07:44Z</time>
      </trkpt>
      <trkpt lat="45.15295" lon="5.08584">
        <ele>376.98400878906</ele>
        <time>2010-04-20T12:07:52Z</time>
      </trkpt>
      <trkpt lat="45.15311" lon="5.08594">
        <ele>378.09600830078</ele>
        <time>2010-04-20T12:07:58Z</time>
      </trkpt>
      <trkpt lat="45.15334" lon="5.08607">
        <ele>378.44299316406</ele>
        <time>2010-04-20T12:08:06Z</time>
      </trkpt>
      <trkpt lat="45.15358" lon="5.08619">
        <ele>380.34399414062</ele>
        <time>2010-04-20T12:08:14Z</time>
      </trkpt>
      <trkpt lat="45.15363" lon="5.08622">
        <ele>381.23098754883</ele>
        <time>2010-04-20T12:08:16Z</time>
      </trkpt>
      <trkpt lat="45.15383" lon="5.08636">
        <ele>382.81100463867</ele>
        <time>2010-04-20T12:08:23Z</time>
      </trkpt>
      <trkpt lat="45.15406" lon="5.08661">
        <ele>384.71701049805</ele>
        <time>2010-04-20T12:08:32Z</time>
      </trkpt>
      <trkpt lat="45.15419" lon="5.08682">
        <ele>385.64898681641</ele>
        <time>2010-04-20T12:08:38Z</time>
      </trkpt>
      <trkpt lat="45.15434" lon="5.08706">
        <ele>387.27700805664</ele>
        <time>2010-04-20T12:08:45Z</time>
      </trkpt>
      <trkpt lat="45.15452" lon="5.08734">
        <ele>388.81399536133</ele>
        <time>2010-04-20T12:08:54Z</time>
      </trkpt>
      <trkpt lat="45.15467" lon="5.08758">
        <ele>390.07400512695</ele>
        <time>2010-04-20T12:09:02Z</time>
      </trkpt>
      <trkpt lat="45.15476" lon="5.08771">
        <ele>391.1369934082</ele>
        <time>2010-04-20T12:09:07Z</time>
      </trkpt>
      <trkpt lat="45.15488" lon="5.08791">
        <ele>392.61700439453</ele>
        <time>2010-04-20T12:09:14Z</time>
      </trkpt>
      <trkpt lat="45.155" lon="5.08809">
        <ele>393.9880065918</ele>
        <time>2010-04-20T12:09:20Z</time>
      </trkpt>
      <trkpt lat="45.15512" lon="5.08826">
        <ele>395.26300048828</ele>
        <time>2010-04-20T12:09:26Z</time>
      </trkpt>
      <trkpt lat="45.15525" lon="5.08844">
        <ele>396.31900024414</ele>
        <time>2010-04-20T12:09:32Z</time>
      </trkpt>
      <trkpt lat="45.15543" lon="5.08868">
        <ele>397.29400634766</ele>
        <time>2010-04-20T12:09:40Z</time>
      </trkpt>
      <trkpt lat="45.15553" lon="5.08882">
        <ele>398.26098632812</ele>
        <time>2010-04-20T12:09:45Z</time>
      </trkpt>
      <trkpt lat="45.15568" lon="5.089">
        <ele>397.85198974609</ele>
        <time>2010-04-20T12:09:53Z</time>
      </trkpt>
      <trkpt lat="45.1558" lon="5.08915">
        <ele>397.32400512695</ele>
        <time>2010-04-20T12:09:58Z</time>
      </trkpt>
      <trkpt lat="45.15599" lon="5.08941">
        <ele>397.32699584961</ele>
        <time>2010-04-20T12:10:05Z</time>
      </trkpt>
      <trkpt lat="45.15619" lon="5.08968">
        <ele>396.93099975586</ele>
        <time>2010-04-20T12:10:11Z</time>
      </trkpt>
      <trkpt lat="45.15637" lon="5.08991">
        <ele>396.03799438477</ele>
        <time>2010-04-20T12:10:16Z</time>
      </trkpt>
      <trkpt lat="45.15659" lon="5.09019">
        <ele>395.75900268555</ele>
        <time>2010-04-20T12:10:22Z</time>
      </trkpt>
      <trkpt lat="45.15675" lon="5.09041">
        <ele>395.6969909668</ele>
        <time>2010-04-20T12:10:28Z</time>
      </trkpt>
      <trkpt lat="45.15685" lon="5.09052">
        <ele>395.12200927734</ele>
        <time>2010-04-20T12:10:31Z</time>
      </trkpt>
      <trkpt lat="45.15718" lon="5.09097">
        <ele>397.32598876953</ele>
        <time>2010-04-20T12:10:41Z</time>
      </trkpt>
      <trkpt lat="45.15744" lon="5.09132">
        <ele>397.27099609375</ele>
        <time>2010-04-20T12:10:49Z</time>
      </trkpt>
      <trkpt lat="45.15775" lon="5.09172">
        <ele>397.51599121094</ele>
        <time>2010-04-20T12:10:58Z</time>
      </trkpt>
      <trkpt lat="45.15806" lon="5.09212">
        <ele>398.20098876953</ele>
        <time>2010-04-20T12:11:07Z</time>
      </trkpt>
      <trkpt lat="45.15843" lon="5.09258">
        <ele>398.00601196289</ele>
        <time>2010-04-20T12:11:17Z</time>
      </trkpt>
      <trkpt lat="45.15871" lon="5.09299">
        <ele>397.79800415039</ele>
        <time>2010-04-20T12:11:25Z</time>
      </trkpt>
      <trkpt lat="45.15905" lon="5.09346">
        <ele>398.88800048828</ele>
        <time>2010-04-20T12:11:35Z</time>
      </trkpt>
      <trkpt lat="45.15936" lon="5.09389">
        <ele>401.49301147461</ele>
        <time>2010-04-20T12:11:45Z</time>
      </trkpt>
      <trkpt lat="45.15956" lon="5.09418">
        <ele>402.46701049805</ele>
        <time>2010-04-20T12:11:52Z</time>
      </trkpt>
      <trkpt lat="45.15982" lon="5.09454">
        <ele>404.08999633789</ele>
        <time>2010-04-20T12:12:01Z</time>
      </trkpt>
      <trkpt lat="45.16001" lon="5.09483">
        <ele>405.68899536133</ele>
        <time>2010-04-20T12:12:08Z</time>
      </trkpt>
      <trkpt lat="45.16021" lon="5.09514">
        <ele>407.13299560547</ele>
        <time>2010-04-20T12:12:16Z</time>
      </trkpt>
      <trkpt lat="45.16031" lon="5.09529">
        <ele>407.97698974609</ele>
        <time>2010-04-20T12:12:20Z</time>
      </trkpt>
      <trkpt lat="45.16055" lon="5.0956">
        <ele>409.96099853516</ele>
        <time>2010-04-20T12:12:30Z</time>
      </trkpt>
      <trkpt lat="45.16082" lon="5.09586">
        <ele>412.44400024414</ele>
        <time>2010-04-20T12:12:40Z</time>
      </trkpt>
      <trkpt lat="45.16105" lon="5.096">
        <ele>413.36401367188</ele>
        <time>2010-04-20T12:12:48Z</time>
      </trkpt>
      <trkpt lat="45.16131" lon="5.09612">
        <ele>414.94500732422</ele>
        <time>2010-04-20T12:12:57Z</time>
      </trkpt>
      <trkpt lat="45.16156" lon="5.09618">
        <ele>415.50500488281</ele>
        <time>2010-04-20T12:13:06Z</time>
      </trkpt>
      <trkpt lat="45.16174" lon="5.09614">
        <ele>416.67401123047</ele>
        <time>2010-04-20T12:13:12Z</time>
      </trkpt>
      <trkpt lat="45.16191" lon="5.09605">
        <ele>417.41900634766</ele>
        <time>2010-04-20T12:13:18Z</time>
      </trkpt>
      <trkpt lat="45.16211" lon="5.09592">
        <ele>418.64700317383</ele>
        <time>2010-04-20T12:13:25Z</time>
      </trkpt>
      <trkpt lat="45.16225" lon="5.09584">
        <ele>419.19198608398</ele>
        <time>2010-04-20T12:13:30Z</time>
      </trkpt>
      <trkpt lat="45.16247" lon="5.09567">
        <ele>421.09698486328</ele>
        <time>2010-04-20T12:13:39Z</time>
      </trkpt>
      <trkpt lat="45.16267" lon="5.09548">
        <ele>422.80700683594</ele>
        <time>2010-04-20T12:13:47Z</time>
      </trkpt>
      <trkpt lat="45.16284" lon="5.09539">
        <ele>423.81600952148</ele>
        <time>2010-04-20T12:13:53Z</time>
      </trkpt>
      <trkpt lat="45.16297" lon="5.0954">
        <ele>424.72799682617</ele>
        <time>2010-04-20T12:13:58Z</time>
      </trkpt>
      <trkpt lat="45.16312" lon="5.09551">
        <ele>425.64801025391</ele>
        <time>2010-04-20T12:14:04Z</time>
      </trkpt>
      <trkpt lat="45.16328" lon="5.09572">
        <ele>427.00601196289</ele>
        <time>2010-04-20T12:14:11Z</time>
      </trkpt>
      <trkpt lat="45.16339" lon="5.09584">
        <ele>427.60699462891</ele>
        <time>2010-04-20T12:14:16Z</time>
      </trkpt>
      <trkpt lat="45.16352" lon="5.09592">
        <ele>428.35299682617</ele>
        <time>2010-04-20T12:14:21Z</time>
      </trkpt>
      <trkpt lat="45.16367" lon="5.096">
        <ele>429.42300415039</ele>
        <time>2010-04-20T12:14:27Z</time>
      </trkpt>
      <trkpt lat="45.16385" lon="5.09607">
        <ele>430.49398803711</ele>
        <time>2010-04-20T12:14:33Z</time>
      </trkpt>
      <trkpt lat="45.16401" lon="5.09612">
        <ele>430.99798583984</ele>
        <time>2010-04-20T12:14:39Z</time>
      </trkpt>
      <trkpt lat="45.16425" lon="5.09618">
        <ele>432.87899780273</ele>
        <time>2010-04-20T12:14:47Z</time>
      </trkpt>
      <trkpt lat="45.16445" lon="5.09626">
        <ele>433.73498535156</ele>
        <time>2010-04-20T12:14:54Z</time>
      </trkpt>
      <trkpt lat="45.16461" lon="5.09643">
        <ele>434.55700683594</ele>
        <time>2010-04-20T12:15:01Z</time>
      </trkpt>
      <trkpt lat="45.16459" lon="5.09658">
        <ele>435.59201049805</ele>
        <time>2010-04-20T12:15:05Z</time>
      </trkpt>
      <trkpt lat="45.16447" lon="5.09669">
        <ele>436.29098510742</ele>
        <time>2010-04-20T12:15:10Z</time>
      </trkpt>
      <trkpt lat="45.16424" lon="5.09675">
        <ele>437.9460144043</ele>
        <time>2010-04-20T12:15:18Z</time>
      </trkpt>
      <trkpt lat="45.16405" lon="5.09688">
        <ele>438.73300170898</ele>
        <time>2010-04-20T12:15:26Z</time>
      </trkpt>
      <trkpt lat="45.16394" lon="5.09706">
        <ele>439.44900512695</ele>
        <time>2010-04-20T12:15:32Z</time>
      </trkpt>
      <trkpt lat="45.16389" lon="5.0973">
        <ele>440.1669921875</ele>
        <time>2010-04-20T12:15:38Z</time>
      </trkpt>
      <trkpt lat="45.16392" lon="5.09757">
        <ele>441.44799804688</ele>
        <time>2010-04-20T12:15:44Z</time>
      </trkpt>
      <trkpt lat="45.16402" lon="5.09773">
        <ele>442.40200805664</ele>
        <time>2010-04-20T12:15:49Z</time>
      </trkpt>
      <trkpt lat="45.16417" lon="5.09783">
        <ele>443.18899536133</ele>
        <time>2010-04-20T12:15:55Z</time>
      </trkpt>
      <trkpt lat="45.16433" lon="5.09789">
        <ele>443.97900390625</ele>
        <time>2010-04-20T12:16:01Z</time>
      </trkpt>
      <trkpt lat="45.16452" lon="5.09797">
        <ele>444.84799194336</ele>
        <time>2010-04-20T12:16:08Z</time>
      </trkpt>
      <trkpt lat="45.16469" lon="5.09807">
        <ele>445.50799560547</ele>
        <time>2010-04-20T12:16:14Z</time>
      </trkpt>
      <trkpt lat="45.16485" lon="5.09817">
        <ele>446.35699462891</ele>
        <time>2010-04-20T12:16:20Z</time>
      </trkpt>
      <trkpt lat="45.16506" lon="5.09832">
        <ele>447.90899658203</ele>
        <time>2010-04-20T12:16:28Z</time>
      </trkpt>
      <trkpt lat="45.16521" lon="5.09848">
        <ele>449.24600219727</ele>
        <time>2010-04-20T12:16:34Z</time>
      </trkpt>
      <trkpt lat="45.16539" lon="5.09869">
        <ele>449.95401000977</ele>
        <time>2010-04-20T12:16:42Z</time>
      </trkpt>
      <trkpt lat="45.1655" lon="5.09883">
        <ele>451.0950012207</ele>
        <time>2010-04-20T12:16:47Z</time>
      </trkpt>
      <trkpt lat="45.16571" lon="5.09902">
        <ele>452.64199829102</ele>
        <time>2010-04-20T12:16:55Z</time>
      </trkpt>
      <trkpt lat="45.16587" lon="5.09915">
        <ele>453.75100708008</ele>
        <time>2010-04-20T12:17:01Z</time>
      </trkpt>
      <trkpt lat="45.16607" lon="5.09933">
        <ele>454.92999267578</ele>
        <time>2010-04-20T12:17:09Z</time>
      </trkpt>
      <trkpt lat="45.16623" lon="5.0995">
        <ele>455.79998779297</ele>
        <time>2010-04-20T12:17:16Z</time>
      </trkpt>
      <trkpt lat="45.16644" lon="5.09976">
        <ele>457.37600708008</ele>
        <time>2010-04-20T12:17:25Z</time>
      </trkpt>
      <trkpt lat="45.16663" lon="5.09998">
        <ele>459.05999755859</ele>
        <time>2010-04-20T12:17:33Z</time>
      </trkpt>
      <trkpt lat="45.16678" lon="5.1001">
        <ele>459.9049987793</ele>
        <time>2010-04-20T12:17:39Z</time>
      </trkpt>
      <trkpt lat="45.16703" lon="5.10022">
        <ele>460.14898681641</ele>
        <time>2010-04-20T12:17:47Z</time>
      </trkpt>
      <trkpt lat="45.16725" lon="5.10034">
        <ele>461.06799316406</ele>
        <time>2010-04-20T12:17:54Z</time>
      </trkpt>
      <trkpt lat="45.16747" lon="5.10051">
        <ele>461.91500854492</ele>
        <time>2010-04-20T12:18:01Z</time>
      </trkpt>
      <trkpt lat="45.16768" lon="5.10074">
        <ele>463.26901245117</ele>
        <time>2010-04-20T12:18:08Z</time>
      </trkpt>
      <trkpt lat="45.1679" lon="5.10107">
        <ele>463.74398803711</ele>
        <time>2010-04-20T12:18:16Z</time>
      </trkpt>
      <trkpt lat="45.16803" lon="5.10142">
        <ele>464.05200195312</ele>
        <time>2010-04-20T12:18:23Z</time>
      </trkpt>
      <trkpt lat="45.16818" lon="5.10181">
        <ele>464.89700317383</ele>
        <time>2010-04-20T12:18:31Z</time>
      </trkpt>
      <trkpt lat="45.16832" lon="5.10214">
        <ele>466.17999267578</ele>
        <time>2010-04-20T12:18:38Z</time>
      </trkpt>
      <trkpt lat="45.16853" lon="5.10255">
        <ele>466.48098754883</ele>
        <time>2010-04-20T12:18:47Z</time>
      </trkpt>
      <trkpt lat="45.16876" lon="5.10294">
        <ele>467.67999267578</ele>
        <time>2010-04-20T12:18:56Z</time>
      </trkpt>
      <trkpt lat="45.16895" lon="5.10329">
        <ele>468.91101074219</ele>
        <time>2010-04-20T12:19:04Z</time>
      </trkpt>
      <trkpt lat="45.16902" lon="5.10342">
        <ele>468.78500366211</ele>
        <time>2010-04-20T12:19:07Z</time>
      </trkpt>
      <trkpt lat="45.16917" lon="5.10369">
        <ele>468.32299804688</ele>
        <time>2010-04-20T12:19:13Z</time>
      </trkpt>
      <trkpt lat="45.16934" lon="5.10398">
        <ele>468.89300537109</ele>
        <time>2010-04-20T12:19:19Z</time>
      </trkpt>
      <trkpt lat="45.16953" lon="5.10426">
        <ele>468.68399047852</ele>
        <time>2010-04-20T12:19:25Z</time>
      </trkpt>
      <trkpt lat="45.16973" lon="5.10453">
        <ele>469.12799072266</ele>
        <time>2010-04-20T12:19:31Z</time>
      </trkpt>
      <trkpt lat="45.16996" lon="5.10485">
        <ele>469.32501220703</ele>
        <time>2010-04-20T12:19:38Z</time>
      </trkpt>
      <trkpt lat="45.17016" lon="5.10512">
        <ele>470.11401367188</ele>
        <time>2010-04-20T12:19:44Z</time>
      </trkpt>
      <trkpt lat="45.17036" lon="5.10539">
        <ele>470.93701171875</ele>
        <time>2010-04-20T12:19:50Z</time>
      </trkpt>
      <trkpt lat="45.17058" lon="5.10572">
        <ele>471.93798828125</ele>
        <time>2010-04-20T12:19:57Z</time>
      </trkpt>
      <trkpt lat="45.17085" lon="5.10611">
        <ele>473.2200012207</ele>
        <time>2010-04-20T12:20:06Z</time>
      </trkpt>
      <trkpt lat="45.17114" lon="5.10655">
        <ele>474.60198974609</ele>
        <time>2010-04-20T12:20:16Z</time>
      </trkpt>
      <trkpt lat="45.17135" lon="5.1069">
        <ele>475.93099975586</ele>
        <time>2010-04-20T12:20:24Z</time>
      </trkpt>
      <trkpt lat="45.17153" lon="5.10719">
        <ele>477.14300537109</ele>
        <time>2010-04-20T12:20:31Z</time>
      </trkpt>
      <trkpt lat="45.17174" lon="5.10761">
        <ele>478.56799316406</ele>
        <time>2010-04-20T12:20:40Z</time>
      </trkpt>
      <trkpt lat="45.17184" lon="5.1079">
        <ele>479.53100585938</ele>
        <time>2010-04-20T12:20:46Z</time>
      </trkpt>
      <trkpt lat="45.17192" lon="5.10816">
        <ele>480.21099853516</ele>
        <time>2010-04-20T12:20:51Z</time>
      </trkpt>
      <trkpt lat="45.17194" lon="5.10821">
        <ele>480.04699707031</ele>
        <time>2010-04-20T12:20:52Z</time>
      </trkpt>
      <trkpt lat="45.17199" lon="5.10836">
        <ele>480.0419921875</ele>
        <time>2010-04-20T12:20:55Z</time>
      </trkpt>
      <trkpt lat="45.17207" lon="5.10863">
        <ele>480.6780090332</ele>
        <time>2010-04-20T12:21:00Z</time>
      </trkpt>
      <trkpt lat="45.1721" lon="5.10874">
        <ele>480.70498657227</ele>
        <time>2010-04-20T12:21:02Z</time>
      </trkpt>
      <trkpt lat="45.17217" lon="5.10898">
        <ele>479.92098999023</ele>
        <time>2010-04-20T12:21:06Z</time>
      </trkpt>
      <trkpt lat="45.17229" lon="5.10938">
        <ele>478.89401245117</ele>
        <time>2010-04-20T12:21:12Z</time>
      </trkpt>
      <trkpt lat="45.17231" lon="5.10945">
        <ele>478.63101196289</ele>
        <time>2010-04-20T12:21:13Z</time>
      </trkpt>
      <trkpt lat="45.17245" lon="5.10979">
        <ele>478.04998779297</ele>
        <time>2010-04-20T12:21:18Z</time>
      </trkpt>
      <trkpt lat="45.17265" lon="5.11004">
        <ele>477.56100463867</ele>
        <time>2010-04-20T12:21:23Z</time>
      </trkpt>
      <trkpt lat="45.17273" lon="5.11011">
        <ele>477.87399291992</ele>
        <time>2010-04-20T12:21:25Z</time>
      </trkpt>
      <trkpt lat="45.17302" lon="5.11033">
        <ele>479.26098632812</ele>
        <time>2010-04-20T12:21:32Z</time>
      </trkpt>
      <trkpt lat="45.17316" lon="5.11046">
        <ele>479.89300537109</ele>
        <time>2010-04-20T12:21:36Z</time>
      </trkpt>
      <trkpt lat="45.1733" lon="5.11066">
        <ele>481.41198730469</ele>
        <time>2010-04-20T12:21:41Z</time>
      </trkpt>
      <trkpt lat="45.17348" lon="5.11105">
        <ele>482.23901367188</ele>
        <time>2010-04-20T12:21:49Z</time>
      </trkpt>
      <trkpt lat="45.17352" lon="5.11114">
        <ele>483.04299926758</ele>
        <time>2010-04-20T12:21:51Z</time>
      </trkpt>
      <trkpt lat="45.17366" lon="5.11145">
        <ele>484.35800170898</ele>
        <time>2010-04-20T12:21:58Z</time>
      </trkpt>
      <trkpt lat="45.17384" lon="5.1118">
        <ele>485.00299072266</ele>
        <time>2010-04-20T12:22:06Z</time>
      </trkpt>
      <trkpt lat="45.17407" lon="5.1122">
        <ele>486.07800292969</ele>
        <time>2010-04-20T12:22:14Z</time>
      </trkpt>
      <trkpt lat="45.17431" lon="5.1127">
        <ele>485.99200439453</ele>
        <time>2010-04-20T12:22:22Z</time>
      </trkpt>
      <trkpt lat="45.1745" lon="5.11329">
        <ele>485.78500366211</ele>
        <time>2010-04-20T12:22:30Z</time>
      </trkpt>
      <trkpt lat="45.17473" lon="5.1141">
        <ele>486.17498779297</ele>
        <time>2010-04-20T12:22:40Z</time>
      </trkpt>
      <trkpt lat="45.17494" lon="5.1148">
        <ele>486.89001464844</ele>
        <time>2010-04-20T12:22:49Z</time>
      </trkpt>
      <trkpt lat="45.17506" lon="5.11522">
        <ele>487.69900512695</ele>
        <time>2010-04-20T12:22:55Z</time>
      </trkpt>
      <trkpt lat="45.17518" lon="5.11558">
        <ele>488.38198852539</ele>
        <time>2010-04-20T12:23:01Z</time>
      </trkpt>
      <trkpt lat="45.17524" lon="5.11576">
        <ele>488.46499633789</ele>
        <time>2010-04-20T12:23:04Z</time>
      </trkpt>
      <trkpt lat="45.17537" lon="5.11601">
        <ele>487.5830078125</ele>
        <time>2010-04-20T12:23:10Z</time>
      </trkpt>
      <trkpt lat="45.17549" lon="5.11627">
        <ele>488.38900756836</ele>
        <time>2010-04-20T12:23:16Z</time>
      </trkpt>
      <trkpt lat="45.17556" lon="5.11643">
        <ele>488.64401245117</ele>
        <time>2010-04-20T12:23:19Z</time>
      </trkpt>
      <trkpt lat="45.17575" lon="5.11686">
        <ele>488.64801025391</ele>
        <time>2010-04-20T12:23:26Z</time>
      </trkpt>
      <trkpt lat="45.17596" lon="5.1173">
        <ele>489.23699951172</ele>
        <time>2010-04-20T12:23:33Z</time>
      </trkpt>
      <trkpt lat="45.17614" lon="5.11784">
        <ele>489.59698486328</ele>
        <time>2010-04-20T12:23:41Z</time>
      </trkpt>
      <trkpt lat="45.17626" lon="5.11832">
        <ele>490.23699951172</ele>
        <time>2010-04-20T12:23:48Z</time>
      </trkpt>
      <trkpt lat="45.17637" lon="5.11874">
        <ele>490.74200439453</ele>
        <time>2010-04-20T12:23:54Z</time>
      </trkpt>
      <trkpt lat="45.17647" lon="5.11912">
        <ele>491.29699707031</ele>
        <time>2010-04-20T12:23:59Z</time>
      </trkpt>
      <trkpt lat="45.17664" lon="5.11984">
        <ele>491.1780090332</ele>
        <time>2010-04-20T12:24:07Z</time>
      </trkpt>
      <trkpt lat="45.17682" lon="5.12055">
        <ele>491.86599731445</ele>
        <time>2010-04-20T12:24:14Z</time>
      </trkpt>
      <trkpt lat="45.17693" lon="5.12096">
        <ele>491.69198608398</ele>
        <time>2010-04-20T12:24:18Z</time>
      </trkpt>
      <trkpt lat="45.17722" lon="5.12157">
        <ele>492.17999267578</ele>
        <time>2010-04-20T12:24:25Z</time>
      </trkpt>
      <trkpt lat="45.17765" lon="5.12223">
        <ele>494.12899780273</ele>
        <time>2010-04-20T12:24:33Z</time>
      </trkpt>
      <trkpt lat="45.17797" lon="5.12273">
        <ele>494.82800292969</ele>
        <time>2010-04-20T12:24:39Z</time>
      </trkpt>
      <trkpt lat="45.17815" lon="5.12321">
        <ele>495.29098510742</ele>
        <time>2010-04-20T12:24:44Z</time>
      </trkpt>
      <trkpt lat="45.17834" lon="5.12397">
        <ele>497.19400024414</ele>
        <time>2010-04-20T12:24:52Z</time>
      </trkpt>
      <trkpt lat="45.17853" lon="5.12469">
        <ele>498.84600830078</ele>
        <time>2010-04-20T12:25:00Z</time>
      </trkpt>
      <trkpt lat="45.17876" lon="5.12556">
        <ele>500.26901245117</ele>
        <time>2010-04-20T12:25:10Z</time>
      </trkpt>
      <trkpt lat="45.17897" lon="5.12633">
        <ele>501.36199951172</ele>
        <time>2010-04-20T12:25:19Z</time>
      </trkpt>
      <trkpt lat="45.17916" lon="5.12693">
        <ele>501.81399536133</ele>
        <time>2010-04-20T12:25:26Z</time>
      </trkpt>
      <trkpt lat="45.17945" lon="5.12767">
        <ele>502.09698486328</ele>
        <time>2010-04-20T12:25:35Z</time>
      </trkpt>
      <trkpt lat="45.17959" lon="5.12799">
        <ele>502.04000854492</ele>
        <time>2010-04-20T12:25:39Z</time>
      </trkpt>
      <trkpt lat="45.17977" lon="5.12838">
        <ele>503.26400756836</ele>
        <time>2010-04-20T12:25:44Z</time>
      </trkpt>
      <trkpt lat="45.17983" lon="5.12853">
        <ele>503.29699707031</ele>
        <time>2010-04-20T12:25:46Z</time>
      </trkpt>
      <trkpt lat="45.18002" lon="5.129">
        <ele>504.18399047852</ele>
        <time>2010-04-20T12:25:52Z</time>
      </trkpt>
      <trkpt lat="45.18023" lon="5.12965">
        <ele>506.3330078125</ele>
        <time>2010-04-20T12:26:00Z</time>
      </trkpt>
      <trkpt lat="45.18024" lon="5.12974">
        <ele>506.62899780273</ele>
        <time>2010-04-20T12:26:01Z</time>
      </trkpt>
      <trkpt lat="45.18032" lon="5.13047">
        <ele>506.60000610352</ele>
        <time>2010-04-20T12:26:09Z</time>
      </trkpt>
      <trkpt lat="45.18041" lon="5.13131">
        <ele>507.63800048828</ele>
        <time>2010-04-20T12:26:18Z</time>
      </trkpt>
      <trkpt lat="45.18048" lon="5.13199">
        <ele>508.25100708008</ele>
        <time>2010-04-20T12:26:25Z</time>
      </trkpt>
      <trkpt lat="45.18065" lon="5.13262">
        <ele>508.9460144043</ele>
        <time>2010-04-20T12:26:32Z</time>
      </trkpt>
      <trkpt lat="45.18087" lon="5.13327">
        <ele>509.28698730469</ele>
        <time>2010-04-20T12:26:40Z</time>
      </trkpt>
      <trkpt lat="45.18111" lon="5.13401">
        <ele>510.74499511719</ele>
        <time>2010-04-20T12:26:49Z</time>
      </trkpt>
      <trkpt lat="45.18117" lon="5.13417">
        <ele>510.84899902344</ele>
        <time>2010-04-20T12:26:51Z</time>
      </trkpt>
      <trkpt lat="45.18128" lon="5.13442">
        <ele>511.15399169922</ele>
        <time>2010-04-20T12:26:54Z</time>
      </trkpt>
      <trkpt lat="45.18142" lon="5.13464">
        <ele>510.33700561523</ele>
        <time>2010-04-20T12:26:57Z</time>
      </trkpt>
      <trkpt lat="45.18187" lon="5.13502">
        <ele>509.42001342773</ele>
        <time>2010-04-20T12:27:04Z</time>
      </trkpt>
      <trkpt lat="45.18262" lon="5.13556">
        <ele>508.80499267578</ele>
        <time>2010-04-20T12:27:15Z</time>
      </trkpt>
      <trkpt lat="45.18324" lon="5.136">
        <ele>508.51699829102</ele>
        <time>2010-04-20T12:27:24Z</time>
      </trkpt>
      <trkpt lat="45.18376" lon="5.13639">
        <ele>508.11999511719</ele>
        <time>2010-04-20T12:27:32Z</time>
      </trkpt>
      <trkpt lat="45.18399" lon="5.13662">
        <ele>509.13000488281</ele>
        <time>2010-04-20T12:27:36Z</time>
      </trkpt>
      <trkpt lat="45.18418" lon="5.13692">
        <ele>508.74099731445</ele>
        <time>2010-04-20T12:27:40Z</time>
      </trkpt>
      <trkpt lat="45.18443" lon="5.13756">
        <ele>508.17700195312</ele>
        <time>2010-04-20T12:27:47Z</time>
      </trkpt>
      <trkpt lat="45.18473" lon="5.13839">
        <ele>508.03698730469</ele>
        <time>2010-04-20T12:27:56Z</time>
      </trkpt>
      <trkpt lat="45.18503" lon="5.13917">
        <ele>507.73599243164</ele>
        <time>2010-04-20T12:28:04Z</time>
      </trkpt>
      <trkpt lat="45.18523" lon="5.13967">
        <ele>507.1780090332</ele>
        <time>2010-04-20T12:28:09Z</time>
      </trkpt>
      <trkpt lat="45.18546" lon="5.14029">
        <ele>506.30200195312</ele>
        <time>2010-04-20T12:28:15Z</time>
      </trkpt>
      <trkpt lat="45.18578" lon="5.14114">
        <ele>505.29299926758</ele>
        <time>2010-04-20T12:28:23Z</time>
      </trkpt>
      <trkpt lat="45.18609" lon="5.14186">
        <ele>504.25299072266</ele>
        <time>2010-04-20T12:28:30Z</time>
      </trkpt>
      <trkpt lat="45.18636" lon="5.14214">
        <ele>502.89898681641</ele>
        <time>2010-04-20T12:28:34Z</time>
      </trkpt>
      <trkpt lat="45.18694" lon="5.14252">
        <ele>498.86499023438</ele>
        <time>2010-04-20T12:28:41Z</time>
      </trkpt>
      <trkpt lat="45.18721" lon="5.1427">
        <ele>497.23199462891</ele>
        <time>2010-04-20T12:28:44Z</time>
      </trkpt>
      <trkpt lat="45.18763" lon="5.14274">
        <ele>492.56900024414</ele>
        <time>2010-04-20T12:28:48Z</time>
      </trkpt>
      <trkpt lat="45.18794" lon="5.14245">
        <ele>489.50201416016</ele>
        <time>2010-04-20T12:28:51Z</time>
      </trkpt>
      <trkpt lat="45.18801" lon="5.1421">
        <ele>487.51599121094</ele>
        <time>2010-04-20T12:28:53Z</time>
      </trkpt>
      <trkpt lat="45.188" lon="5.14175">
        <ele>486.36801147461</ele>
        <time>2010-04-20T12:28:55Z</time>
      </trkpt>
      <trkpt lat="45.18791" lon="5.14105">
        <ele>482.09600830078</ele>
        <time>2010-04-20T12:28:59Z</time>
      </trkpt>
      <trkpt lat="45.18774" lon="5.14057">
        <ele>480.00201416016</ele>
        <time>2010-04-20T12:29:02Z</time>
      </trkpt>
      <trkpt lat="45.18752" lon="5.14011">
        <ele>475.25201416016</ele>
        <time>2010-04-20T12:29:05Z</time>
      </trkpt>
      <trkpt lat="45.18752" lon="5.13973">
        <ele>472.35400390625</ele>
        <time>2010-04-20T12:29:07Z</time>
      </trkpt>
      <trkpt lat="45.18762" lon="5.13939">
        <ele>469.83599853516</ele>
        <time>2010-04-20T12:29:09Z</time>
      </trkpt>
      <trkpt lat="45.18794" lon="5.13855">
        <ele>465.82501220703</ele>
        <time>2010-04-20T12:29:14Z</time>
      </trkpt>
      <trkpt lat="45.18827" lon="5.13836">
        <ele>461.76998901367</ele>
        <time>2010-04-20T12:29:17Z</time>
      </trkpt>
      <trkpt lat="45.1885" lon="5.13855">
        <ele>460.9169921875</ele>
        <time>2010-04-20T12:29:19Z</time>
      </trkpt>
      <trkpt lat="45.18859" lon="5.13865">
        <ele>459.88101196289</ele>
        <time>2010-04-20T12:29:20Z</time>
      </trkpt>
      <trkpt lat="45.18901" lon="5.13906">
        <ele>455.73901367188</ele>
        <time>2010-04-20T12:29:24Z</time>
      </trkpt>
      <trkpt lat="45.18954" lon="5.13962">
        <ele>449.64498901367</ele>
        <time>2010-04-20T12:29:29Z</time>
      </trkpt>
      <trkpt lat="45.18997" lon="5.14009">
        <ele>445.70199584961</ele>
        <time>2010-04-20T12:29:33Z</time>
      </trkpt>
      <trkpt lat="45.19043" lon="5.14048">
        <ele>441.8030090332</ele>
        <time>2010-04-20T12:29:37Z</time>
      </trkpt>
      <trkpt lat="45.19112" lon="5.14108">
        <ele>436.49600219727</ele>
        <time>2010-04-20T12:29:43Z</time>
      </trkpt>
      <trkpt lat="45.19146" lon="5.1414">
        <ele>431.48599243164</ele>
        <time>2010-04-20T12:29:46Z</time>
      </trkpt>
      <trkpt lat="45.19158" lon="5.14151">
        <ele>431.34600830078</ele>
        <time>2010-04-20T12:29:47Z</time>
      </trkpt>
      <trkpt lat="45.19191" lon="5.14184">
        <ele>427.01901245117</ele>
        <time>2010-04-20T12:29:50Z</time>
      </trkpt>
      <trkpt lat="45.19241" lon="5.14206">
        <ele>424.18099975586</ele>
        <time>2010-04-20T12:29:54Z</time>
      </trkpt>
      <trkpt lat="45.19333" lon="5.14219">
        <ele>416.21301269531</ele>
        <time>2010-04-20T12:30:01Z</time>
      </trkpt>
      <trkpt lat="45.19385" lon="5.14224">
        <ele>413.14599609375</ele>
        <time>2010-04-20T12:30:05Z</time>
      </trkpt>
      <trkpt lat="45.19434" lon="5.14236">
        <ele>408.23001098633</ele>
        <time>2010-04-20T12:30:09Z</time>
      </trkpt>
      <trkpt lat="45.19457" lon="5.14245">
        <ele>407.50698852539</ele>
        <time>2010-04-20T12:30:11Z</time>
      </trkpt>
      <trkpt lat="45.19489" lon="5.14255">
        <ele>404.86099243164</ele>
        <time>2010-04-20T12:30:14Z</time>
      </trkpt>
      <trkpt lat="45.19512" lon="5.14264">
        <ele>404.48098754883</ele>
        <time>2010-04-20T12:30:17Z</time>
      </trkpt>
      <trkpt lat="45.19517" lon="5.14266">
        <ele>404.53298950195</ele>
        <time>2010-04-20T12:30:18Z</time>
      </trkpt>
      <trkpt lat="45.19522" lon="5.14285">
        <ele>403.99499511719</ele>
        <time>2010-04-20T12:30:22Z</time>
      </trkpt>
      <trkpt lat="45.19512" lon="5.14309">
        <ele>403.64498901367</ele>
        <time>2010-04-20T12:30:26Z</time>
      </trkpt>
      <trkpt lat="45.19511" lon="5.1433">
        <ele>403.99200439453</ele>
        <time>2010-04-20T12:30:29Z</time>
      </trkpt>
      <trkpt lat="45.19518" lon="5.14355">
        <ele>405.21798706055</ele>
        <time>2010-04-20T12:30:33Z</time>
      </trkpt>
      <trkpt lat="45.1953" lon="5.14376">
        <ele>406.75399780273</ele>
        <time>2010-04-20T12:30:37Z</time>
      </trkpt>
      <trkpt lat="45.19542" lon="5.1439">
        <ele>407.85699462891</ele>
        <time>2010-04-20T12:30:40Z</time>
      </trkpt>
      <trkpt lat="45.19556" lon="5.14404">
        <ele>409.35000610352</ele>
        <time>2010-04-20T12:30:43Z</time>
      </trkpt>
      <trkpt lat="45.19571" lon="5.14418">
        <ele>410.52899169922</ele>
        <time>2010-04-20T12:30:46Z</time>
      </trkpt>
      <trkpt lat="45.19583" lon="5.14432">
        <ele>411.41198730469</ele>
        <time>2010-04-20T12:30:49Z</time>
      </trkpt>
      <trkpt lat="45.19592" lon="5.14453">
        <ele>412.57299804688</ele>
        <time>2010-04-20T12:30:52Z</time>
      </trkpt>
      <trkpt lat="45.19596" lon="5.14474">
        <ele>412.41299438477</ele>
        <time>2010-04-20T12:30:55Z</time>
      </trkpt>
      <trkpt lat="45.19598" lon="5.14506">
        <ele>413.59698486328</ele>
        <time>2010-04-20T12:30:59Z</time>
      </trkpt>
      <trkpt lat="45.19596" lon="5.1458">
        <ele>414.16598510742</ele>
        <time>2010-04-20T12:31:07Z</time>
      </trkpt>
      <trkpt lat="45.19597" lon="5.14611">
        <ele>413.41400146484</ele>
        <time>2010-04-20T12:31:10Z</time>
      </trkpt>
      <trkpt lat="45.1961" lon="5.1465">
        <ele>412.04699707031</ele>
        <time>2010-04-20T12:31:14Z</time>
      </trkpt>
      <trkpt lat="45.19627" lon="5.14672">
        <ele>412.00601196289</ele>
        <time>2010-04-20T12:31:17Z</time>
      </trkpt>
      <trkpt lat="45.1966" lon="5.14703">
        <ele>413.46099853516</ele>
        <time>2010-04-20T12:31:23Z</time>
      </trkpt>
      <trkpt lat="45.19687" lon="5.14722">
        <ele>414.70999145508</ele>
        <time>2010-04-20T12:31:28Z</time>
      </trkpt>
      <trkpt lat="45.19714" lon="5.14761">
        <ele>415.55499267578</ele>
        <time>2010-04-20T12:31:34Z</time>
      </trkpt>
      <trkpt lat="45.19728" lon="5.14819">
        <ele>416.41299438477</ele>
        <time>2010-04-20T12:31:41Z</time>
      </trkpt>
      <trkpt lat="45.19729" lon="5.1488">
        <ele>417.33401489258</ele>
        <time>2010-04-20T12:31:48Z</time>
      </trkpt>
      <trkpt lat="45.19731" lon="5.14959">
        <ele>417.99499511719</ele>
        <time>2010-04-20T12:31:57Z</time>
      </trkpt>
      <trkpt lat="45.19739" lon="5.15038">
        <ele>419.51400756836</ele>
        <time>2010-04-20T12:32:06Z</time>
      </trkpt>
      <trkpt lat="45.19749" lon="5.15108">
        <ele>420.85800170898</ele>
        <time>2010-04-20T12:32:14Z</time>
      </trkpt>
      <trkpt lat="45.19763" lon="5.15168">
        <ele>421.83599853516</ele>
        <time>2010-04-20T12:32:21Z</time>
      </trkpt>
      <trkpt lat="45.19789" lon="5.15254">
        <ele>422.32998657227</ele>
        <time>2010-04-20T12:32:31Z</time>
      </trkpt>
      <trkpt lat="45.19807" lon="5.15314">
        <ele>422.70199584961</ele>
        <time>2010-04-20T12:32:38Z</time>
      </trkpt>
      <trkpt lat="45.19826" lon="5.15377">
        <ele>422.22399902344</ele>
        <time>2010-04-20T12:32:45Z</time>
      </trkpt>
      <trkpt lat="45.19843" lon="5.15433">
        <ele>423.53500366211</ele>
        <time>2010-04-20T12:32:51Z</time>
      </trkpt>
      <trkpt lat="45.19869" lon="5.15518">
        <ele>424.9049987793</ele>
        <time>2010-04-20T12:33:00Z</time>
      </trkpt>
      <trkpt lat="45.19888" lon="5.15596">
        <ele>426.03900146484</ele>
        <time>2010-04-20T12:33:08Z</time>
      </trkpt>
      <trkpt lat="45.19899" lon="5.15682">
        <ele>425.57800292969</ele>
        <time>2010-04-20T12:33:16Z</time>
      </trkpt>
      <trkpt lat="45.19907" lon="5.15771">
        <ele>425.00601196289</ele>
        <time>2010-04-20T12:33:24Z</time>
      </trkpt>
      <trkpt lat="45.19904" lon="5.1585">
        <ele>423.91799926758</ele>
        <time>2010-04-20T12:33:31Z</time>
      </trkpt>
      <trkpt lat="45.19901" lon="5.15958">
        <ele>422.60198974609</ele>
        <time>2010-04-20T12:33:40Z</time>
      </trkpt>
      <trkpt lat="45.1989" lon="5.16029">
        <ele>422.0830078125</ele>
        <time>2010-04-20T12:33:46Z</time>
      </trkpt>
      <trkpt lat="45.19869" lon="5.16099">
        <ele>420.72100830078</ele>
        <time>2010-04-20T12:33:52Z</time>
      </trkpt>
      <trkpt lat="45.19829" lon="5.16214">
        <ele>419.26400756836</ele>
        <time>2010-04-20T12:34:02Z</time>
      </trkpt>
      <trkpt lat="45.19809" lon="5.16287">
        <ele>418.7799987793</ele>
        <time>2010-04-20T12:34:08Z</time>
      </trkpt>
      <trkpt lat="45.19804" lon="5.16346">
        <ele>420.40600585938</ele>
        <time>2010-04-20T12:34:13Z</time>
      </trkpt>
      <trkpt lat="45.19801" lon="5.16395">
        <ele>422.59100341797</ele>
        <time>2010-04-20T12:34:18Z</time>
      </trkpt>
      <trkpt lat="45.19796" lon="5.16443">
        <ele>424.06799316406</ele>
        <time>2010-04-20T12:34:24Z</time>
      </trkpt>
      <trkpt lat="45.1979" lon="5.16476">
        <ele>425.1369934082</ele>
        <time>2010-04-20T12:34:29Z</time>
      </trkpt>
      <trkpt lat="45.19786" lon="5.16503">
        <ele>425.95700073242</ele>
        <time>2010-04-20T12:34:33Z</time>
      </trkpt>
      <trkpt lat="45.19785" lon="5.16516">
        <ele>426.42999267578</ele>
        <time>2010-04-20T12:34:35Z</time>
      </trkpt>
      <trkpt lat="45.19783" lon="5.16548">
        <ele>427.58801269531</ele>
        <time>2010-04-20T12:34:40Z</time>
      </trkpt>
      <trkpt lat="45.19785" lon="5.16573">
        <ele>428.27398681641</ele>
        <time>2010-04-20T12:34:44Z</time>
      </trkpt>
      <trkpt lat="45.19796" lon="5.16608">
        <ele>429.14401245117</ele>
        <time>2010-04-20T12:34:50Z</time>
      </trkpt>
      <trkpt lat="45.19803" lon="5.16632">
        <ele>430.58801269531</ele>
        <time>2010-04-20T12:34:54Z</time>
      </trkpt>
      <trkpt lat="45.19821" lon="5.16688">
        <ele>431.92599487305</ele>
        <time>2010-04-20T12:35:03Z</time>
      </trkpt>
      <trkpt lat="45.19839" lon="5.1674">
        <ele>433.03900146484</ele>
        <time>2010-04-20T12:35:11Z</time>
      </trkpt>
      <trkpt lat="45.19856" lon="5.16777">
        <ele>433.45401000977</ele>
        <time>2010-04-20T12:35:17Z</time>
      </trkpt>
      <trkpt lat="45.19881" lon="5.16828">
        <ele>434.20401000977</ele>
        <time>2010-04-20T12:35:25Z</time>
      </trkpt>
      <trkpt lat="45.1989" lon="5.16874">
        <ele>434.76998901367</ele>
        <time>2010-04-20T12:35:31Z</time>
      </trkpt>
      <trkpt lat="45.1989" lon="5.16882">
        <ele>435.10198974609</ele>
        <time>2010-04-20T12:35:32Z</time>
      </trkpt>
      <trkpt lat="45.19887" lon="5.16966">
        <ele>436.66500854492</ele>
        <time>2010-04-20T12:35:42Z</time>
      </trkpt>
      <trkpt lat="45.19881" lon="5.17049">
        <ele>437.6369934082</ele>
        <time>2010-04-20T12:35:51Z</time>
      </trkpt>
      <trkpt lat="45.19876" lon="5.17155">
        <ele>438.80801391602</ele>
        <time>2010-04-20T12:36:02Z</time>
      </trkpt>
      <trkpt lat="45.19878" lon="5.17203">
        <ele>438.83999633789</ele>
        <time>2010-04-20T12:36:07Z</time>
      </trkpt>
      <trkpt lat="45.1987" lon="5.1725">
        <ele>440.17700195312</ele>
        <time>2010-04-20T12:36:12Z</time>
      </trkpt>
      <trkpt lat="45.1985" lon="5.17299">
        <ele>441.08898925781</ele>
        <time>2010-04-20T12:36:18Z</time>
      </trkpt>
      <trkpt lat="45.19831" lon="5.17346">
        <ele>441.56600952148</ele>
        <time>2010-04-20T12:36:24Z</time>
      </trkpt>
      <trkpt lat="45.19807" lon="5.17404">
        <ele>441.47399902344</ele>
        <time>2010-04-20T12:36:31Z</time>
      </trkpt>
      <trkpt lat="45.1979" lon="5.17456">
        <ele>442.77099609375</ele>
        <time>2010-04-20T12:36:37Z</time>
      </trkpt>
      <trkpt lat="45.19785" lon="5.17483">
        <ele>443.1969909668</ele>
        <time>2010-04-20T12:36:40Z</time>
      </trkpt>
      <trkpt lat="45.19777" lon="5.17537">
        <ele>443.78100585938</ele>
        <time>2010-04-20T12:36:46Z</time>
      </trkpt>
      <trkpt lat="45.19778" lon="5.17581">
        <ele>443.10400390625</ele>
        <time>2010-04-20T12:36:51Z</time>
      </trkpt>
      <trkpt lat="45.19778" lon="5.17598">
        <ele>443.64300537109</ele>
        <time>2010-04-20T12:36:53Z</time>
      </trkpt>
      <trkpt lat="45.19769" lon="5.17635">
        <ele>444.20700073242</ele>
        <time>2010-04-20T12:36:58Z</time>
      </trkpt>
      <trkpt lat="45.19753" lon="5.1768">
        <ele>445.41900634766</ele>
        <time>2010-04-20T12:37:04Z</time>
      </trkpt>
      <trkpt lat="45.19737" lon="5.17754">
        <ele>446.10400390625</ele>
        <time>2010-04-20T12:37:13Z</time>
      </trkpt>
      <trkpt lat="45.19715" lon="5.17833">
        <ele>448.13800048828</ele>
        <time>2010-04-20T12:37:23Z</time>
      </trkpt>
      <trkpt lat="45.19711" lon="5.17848">
        <ele>448.55499267578</ele>
        <time>2010-04-20T12:37:25Z</time>
      </trkpt>
      <trkpt lat="45.19709" lon="5.17888">
        <ele>449.07000732422</ele>
        <time>2010-04-20T12:37:30Z</time>
      </trkpt>
      <trkpt lat="45.19712" lon="5.17896">
        <ele>449.16198730469</ele>
        <time>2010-04-20T12:37:31Z</time>
      </trkpt>
      <trkpt lat="45.19724" lon="5.17926">
        <ele>449.58599853516</ele>
        <time>2010-04-20T12:37:35Z</time>
      </trkpt>
      <trkpt lat="45.19729" lon="5.17949">
        <ele>450.49600219727</ele>
        <time>2010-04-20T12:37:38Z</time>
      </trkpt>
      <trkpt lat="45.19731" lon="5.17979">
        <ele>451.16799926758</ele>
        <time>2010-04-20T12:37:42Z</time>
      </trkpt>
      <trkpt lat="45.19731" lon="5.18027">
        <ele>452.27099609375</ele>
        <time>2010-04-20T12:37:48Z</time>
      </trkpt>
      <trkpt lat="45.1973" lon="5.1809">
        <ele>453.8210144043</ele>
        <time>2010-04-20T12:37:56Z</time>
      </trkpt>
      <trkpt lat="45.19723" lon="5.18161">
        <ele>454.87200927734</ele>
        <time>2010-04-20T12:38:05Z</time>
      </trkpt>
      <trkpt lat="45.19714" lon="5.18242">
        <ele>456.86099243164</ele>
        <time>2010-04-20T12:38:15Z</time>
      </trkpt>
      <trkpt lat="45.19712" lon="5.1825">
        <ele>457.11999511719</ele>
        <time>2010-04-20T12:38:16Z</time>
      </trkpt>
      <trkpt lat="45.19698" lon="5.1832">
        <ele>458.19799804688</ele>
        <time>2010-04-20T12:38:25Z</time>
      </trkpt>
      <trkpt lat="45.19682" lon="5.1837">
        <ele>459.38299560547</ele>
        <time>2010-04-20T12:38:32Z</time>
      </trkpt>
      <trkpt lat="45.19664" lon="5.18417">
        <ele>460.53201293945</ele>
        <time>2010-04-20T12:38:39Z</time>
      </trkpt>
      <trkpt lat="45.19658" lon="5.1846">
        <ele>461.45999145508</ele>
        <time>2010-04-20T12:38:45Z</time>
      </trkpt>
      <trkpt lat="45.19656" lon="5.18528">
        <ele>462.93499755859</ele>
        <time>2010-04-20T12:38:54Z</time>
      </trkpt>
      <trkpt lat="45.19654" lon="5.18597">
        <ele>464.53900146484</ele>
        <time>2010-04-20T12:39:03Z</time>
      </trkpt>
      <trkpt lat="45.19653" lon="5.18669">
        <ele>466.60000610352</ele>
        <time>2010-04-20T12:39:12Z</time>
      </trkpt>
      <trkpt lat="45.19658" lon="5.18736">
        <ele>468.01901245117</ele>
        <time>2010-04-20T12:39:20Z</time>
      </trkpt>
      <trkpt lat="45.19662" lon="5.18786">
        <ele>469.3630065918</ele>
        <time>2010-04-20T12:39:26Z</time>
      </trkpt>
      <trkpt lat="45.19655" lon="5.18837">
        <ele>471.0539855957</ele>
        <time>2010-04-20T12:39:32Z</time>
      </trkpt>
      <trkpt lat="45.19646" lon="5.18868">
        <ele>471.71899414062</ele>
        <time>2010-04-20T12:39:36Z</time>
      </trkpt>
      <trkpt lat="45.19643" lon="5.18929">
        <ele>473.00601196289</ele>
        <time>2010-04-20T12:39:43Z</time>
      </trkpt>
      <trkpt lat="45.19642" lon="5.18982">
        <ele>474.63800048828</ele>
        <time>2010-04-20T12:39:49Z</time>
      </trkpt>
      <trkpt lat="45.19635" lon="5.1905">
        <ele>476.42098999023</ele>
        <time>2010-04-20T12:39:57Z</time>
      </trkpt>
      <trkpt lat="45.19628" lon="5.19116">
        <ele>478.1780090332</ele>
        <time>2010-04-20T12:40:05Z</time>
      </trkpt>
      <trkpt lat="45.19618" lon="5.19215">
        <ele>480.92001342773</ele>
        <time>2010-04-20T12:40:17Z</time>
      </trkpt>
      <trkpt lat="45.19613" lon="5.19279">
        <ele>482.71701049805</ele>
        <time>2010-04-20T12:40:25Z</time>
      </trkpt>
      <trkpt lat="45.19611" lon="5.19347">
        <ele>483.56298828125</ele>
        <time>2010-04-20T12:40:33Z</time>
      </trkpt>
      <trkpt lat="45.1961" lon="5.19442">
        <ele>484.84899902344</ele>
        <time>2010-04-20T12:40:43Z</time>
      </trkpt>
      <trkpt lat="45.19609" lon="5.19522">
        <ele>484.8630065918</ele>
        <time>2010-04-20T12:40:51Z</time>
      </trkpt>
      <trkpt lat="45.19607" lon="5.19618">
        <ele>487.00799560547</ele>
        <time>2010-04-20T12:41:01Z</time>
      </trkpt>
      <trkpt lat="45.19607" lon="5.19708">
        <ele>489.3030090332</ele>
        <time>2010-04-20T12:41:10Z</time>
      </trkpt>
      <trkpt lat="45.19613" lon="5.19778">
        <ele>490.08801269531</ele>
        <time>2010-04-20T12:41:17Z</time>
      </trkpt>
      <trkpt lat="45.19627" lon="5.19865">
        <ele>491.32598876953</ele>
        <time>2010-04-20T12:41:26Z</time>
      </trkpt>
      <trkpt lat="45.1963" lon="5.19939">
        <ele>491.00299072266</ele>
        <time>2010-04-20T12:41:33Z</time>
      </trkpt>
      <trkpt lat="45.1963" lon="5.20027">
        <ele>490.34600830078</ele>
        <time>2010-04-20T12:41:41Z</time>
      </trkpt>
      <trkpt lat="45.19632" lon="5.20094">
        <ele>487.22299194336</ele>
        <time>2010-04-20T12:41:46Z</time>
      </trkpt>
      <trkpt lat="45.19648" lon="5.20149">
        <ele>484.21398925781</ele>
        <time>2010-04-20T12:41:50Z</time>
      </trkpt>
      <trkpt lat="45.19655" lon="5.2016">
        <ele>483.5119934082</ele>
        <time>2010-04-20T12:41:51Z</time>
      </trkpt>
      <trkpt lat="45.19668" lon="5.20214">
        <ele>480.29901123047</ele>
        <time>2010-04-20T12:41:55Z</time>
      </trkpt>
      <trkpt lat="45.19646" lon="5.20225">
        <ele>478.49301147461</ele>
        <time>2010-04-20T12:41:57Z</time>
      </trkpt>
      <trkpt lat="45.19634" lon="5.20228">
        <ele>478.04998779297</ele>
        <time>2010-04-20T12:41:58Z</time>
      </trkpt>
      <trkpt lat="45.19592" lon="5.20256">
        <ele>474.39099121094</ele>
        <time>2010-04-20T12:42:02Z</time>
      </trkpt>
      <trkpt lat="45.19584" lon="5.2027">
        <ele>473.91299438477</ele>
        <time>2010-04-20T12:42:03Z</time>
      </trkpt>
      <trkpt lat="45.19549" lon="5.2035">
        <ele>466.39599609375</ele>
        <time>2010-04-20T12:42:08Z</time>
      </trkpt>
      <trkpt lat="45.19538" lon="5.20406">
        <ele>464.19198608398</ele>
        <time>2010-04-20T12:42:11Z</time>
      </trkpt>
      <trkpt lat="45.19537" lon="5.20426">
        <ele>463.31900024414</ele>
        <time>2010-04-20T12:42:12Z</time>
      </trkpt>
      <trkpt lat="45.19527" lon="5.20526">
        <ele>458.60598754883</ele>
        <time>2010-04-20T12:42:17Z</time>
      </trkpt>
      <trkpt lat="45.19492" lon="5.2059">
        <ele>454.41101074219</ele>
        <time>2010-04-20T12:42:21Z</time>
      </trkpt>
      <trkpt lat="45.19481" lon="5.20601">
        <ele>454.11599731445</ele>
        <time>2010-04-20T12:42:22Z</time>
      </trkpt>
      <trkpt lat="45.19441" lon="5.2063">
        <ele>452.38299560547</ele>
        <time>2010-04-20T12:42:25Z</time>
      </trkpt>
      <trkpt lat="45.19426" lon="5.20635">
        <ele>451.88101196289</ele>
        <time>2010-04-20T12:42:26Z</time>
      </trkpt>
      <trkpt lat="45.19368" lon="5.20652">
        <ele>449.16299438477</ele>
        <time>2010-04-20T12:42:30Z</time>
      </trkpt>
      <trkpt lat="45.19295" lon="5.20672">
        <ele>446.17700195312</ele>
        <time>2010-04-20T12:42:35Z</time>
      </trkpt>
      <trkpt lat="45.19281" lon="5.20677">
        <ele>446.24200439453</ele>
        <time>2010-04-20T12:42:36Z</time>
      </trkpt>
      <trkpt lat="45.19229" lon="5.20716">
        <ele>442.73699951172</ele>
        <time>2010-04-20T12:42:40Z</time>
      </trkpt>
      <trkpt lat="45.19158" lon="5.20785">
        <ele>436.76998901367</ele>
        <time>2010-04-20T12:42:46Z</time>
      </trkpt>
      <trkpt lat="45.19147" lon="5.20796">
        <ele>436.69500732422</ele>
        <time>2010-04-20T12:42:47Z</time>
      </trkpt>
      <trkpt lat="45.19124" lon="5.20819">
        <ele>437.23999023438</ele>
        <time>2010-04-20T12:42:49Z</time>
      </trkpt>
      <trkpt lat="45.1909" lon="5.20877">
        <ele>435.6369934082</ele>
        <time>2010-04-20T12:42:53Z</time>
      </trkpt>
      <trkpt lat="45.19077" lon="5.2091">
        <ele>434.72198486328</ele>
        <time>2010-04-20T12:42:55Z</time>
      </trkpt>
      <trkpt lat="45.19052" lon="5.20976">
        <ele>433.14898681641</ele>
        <time>2010-04-20T12:42:59Z</time>
      </trkpt>
      <trkpt lat="45.19012" lon="5.2103">
        <ele>429.07901000977</ele>
        <time>2010-04-20T12:43:03Z</time>
      </trkpt>
      <trkpt lat="45.19001" lon="5.21041">
        <ele>428.93200683594</ele>
        <time>2010-04-20T12:43:04Z</time>
      </trkpt>
      <trkpt lat="45.18966" lon="5.21077">
        <ele>425.24499511719</ele>
        <time>2010-04-20T12:43:07Z</time>
      </trkpt>
      <trkpt lat="45.18906" lon="5.21111">
        <ele>421.7619934082</ele>
        <time>2010-04-20T12:43:11Z</time>
      </trkpt>
      <trkpt lat="45.18832" lon="5.2114">
        <ele>416.58898925781</ele>
        <time>2010-04-20T12:43:16Z</time>
      </trkpt>
      <trkpt lat="45.1874" lon="5.21161">
        <ele>411.46899414062</ele>
        <time>2010-04-20T12:43:22Z</time>
      </trkpt>
      <trkpt lat="45.18696" lon="5.21182">
        <ele>408.10800170898</ele>
        <time>2010-04-20T12:43:25Z</time>
      </trkpt>
      <trkpt lat="45.18583" lon="5.2125">
        <ele>400.93701171875</ele>
        <time>2010-04-20T12:43:33Z</time>
      </trkpt>
      <trkpt lat="45.18511" lon="5.2129">
        <ele>395.08099365234</ele>
        <time>2010-04-20T12:43:38Z</time>
      </trkpt>
      <trkpt lat="45.18454" lon="5.21323">
        <ele>390.50100708008</ele>
        <time>2010-04-20T12:43:42Z</time>
      </trkpt>
      <trkpt lat="45.18354" lon="5.21382">
        <ele>385.11099243164</ele>
        <time>2010-04-20T12:43:49Z</time>
      </trkpt>
      <trkpt lat="45.1828" lon="5.2142">
        <ele>379.78900146484</ele>
        <time>2010-04-20T12:43:54Z</time>
      </trkpt>
      <trkpt lat="45.18233" lon="5.21435">
        <ele>376.76501464844</ele>
        <time>2010-04-20T12:43:57Z</time>
      </trkpt>
      <trkpt lat="45.18171" lon="5.21432">
        <ele>372.64300537109</ele>
        <time>2010-04-20T12:44:01Z</time>
      </trkpt>
      <trkpt lat="45.1814" lon="5.21426">
        <ele>371.05801391602</ele>
        <time>2010-04-20T12:44:03Z</time>
      </trkpt>
      <trkpt lat="45.18079" lon="5.21422">
        <ele>368.75</ele>
        <time>2010-04-20T12:44:07Z</time>
      </trkpt>
      <trkpt lat="45.18036" lon="5.21429">
        <ele>366.75</ele>
        <time>2010-04-20T12:44:10Z</time>
      </trkpt>
      <trkpt lat="45.17981" lon="5.21406">
        <ele>364.70498657227</ele>
        <time>2010-04-20T12:44:14Z</time>
      </trkpt>
      <trkpt lat="45.17921" lon="5.21357">
        <ele>361.89700317383</ele>
        <time>2010-04-20T12:44:19Z</time>
      </trkpt>
      <trkpt lat="45.17897" lon="5.21344">
        <ele>361.07400512695</ele>
        <time>2010-04-20T12:44:21Z</time>
      </trkpt>
      <trkpt lat="45.1786" lon="5.2135">
        <ele>359.30801391602</ele>
        <time>2010-04-20T12:44:24Z</time>
      </trkpt>
      <trkpt lat="45.17783" lon="5.21368">
        <ele>358.33999633789</ele>
        <time>2010-04-20T12:44:30Z</time>
      </trkpt>
      <trkpt lat="45.17744" lon="5.2139">
        <ele>359.40899658203</ele>
        <time>2010-04-20T12:44:34Z</time>
      </trkpt>
      <trkpt lat="45.177" lon="5.21447">
        <ele>359.49899291992</ele>
        <time>2010-04-20T12:44:40Z</time>
      </trkpt>
      <trkpt lat="45.17663" lon="5.21463">
        <ele>356.64001464844</ele>
        <time>2010-04-20T12:44:44Z</time>
      </trkpt>
      <trkpt lat="45.17653" lon="5.2146">
        <ele>356.52301025391</ele>
        <time>2010-04-20T12:44:45Z</time>
      </trkpt>
      <trkpt lat="45.17614" lon="5.21446">
        <ele>354.64401245117</ele>
        <time>2010-04-20T12:44:49Z</time>
      </trkpt>
      <trkpt lat="45.17585" lon="5.21451">
        <ele>354.56100463867</ele>
        <time>2010-04-20T12:44:52Z</time>
      </trkpt>
      <trkpt lat="45.17576" lon="5.21457">
        <ele>354.38800048828</ele>
        <time>2010-04-20T12:44:53Z</time>
      </trkpt>
      <trkpt lat="45.17525" lon="5.21495">
        <ele>354.75500488281</ele>
        <time>2010-04-20T12:44:59Z</time>
      </trkpt>
      <trkpt lat="45.17518" lon="5.21503">
        <ele>354.70098876953</ele>
        <time>2010-04-20T12:45:00Z</time>
      </trkpt>
      <trkpt lat="45.17487" lon="5.21548">
        <ele>356.34201049805</ele>
        <time>2010-04-20T12:45:05Z</time>
      </trkpt>
      <trkpt lat="45.17479" lon="5.21568">
        <ele>356.43701171875</ele>
        <time>2010-04-20T12:45:07Z</time>
      </trkpt>
      <trkpt lat="45.17463" lon="5.216">
        <ele>357.36599731445</ele>
        <time>2010-04-20T12:45:11Z</time>
      </trkpt>
      <trkpt lat="45.17458" lon="5.21614">
        <ele>357.82000732422</ele>
        <time>2010-04-20T12:45:13Z</time>
      </trkpt>
      <trkpt lat="45.17444" lon="5.21641">
        <ele>357.67599487305</ele>
        <time>2010-04-20T12:45:18Z</time>
      </trkpt>
      <trkpt lat="45.17427" lon="5.21671">
        <ele>356.51800537109</ele>
        <time>2010-04-20T12:45:23Z</time>
      </trkpt>
      <trkpt lat="45.17407" lon="5.21721">
        <ele>355.28100585938</ele>
        <time>2010-04-20T12:45:29Z</time>
      </trkpt>
      <trkpt lat="45.17396" lon="5.2174">
        <ele>354.42700195312</ele>
        <time>2010-04-20T12:45:31Z</time>
      </trkpt>
      <trkpt lat="45.17376" lon="5.21776">
        <ele>352.6789855957</ele>
        <time>2010-04-20T12:45:35Z</time>
      </trkpt>
      <trkpt lat="45.17348" lon="5.21832">
        <ele>353.10900878906</ele>
        <time>2010-04-20T12:45:41Z</time>
      </trkpt>
      <trkpt lat="45.17344" lon="5.21841">
        <ele>352.43798828125</ele>
        <time>2010-04-20T12:45:42Z</time>
      </trkpt>
      <trkpt lat="45.17338" lon="5.21861">
        <ele>351.82800292969</ele>
        <time>2010-04-20T12:45:44Z</time>
      </trkpt>
      <trkpt lat="45.17334" lon="5.21896">
        <ele>350.79998779297</ele>
        <time>2010-04-20T12:45:47Z</time>
      </trkpt>
      <trkpt lat="45.17335" lon="5.22005">
        <ele>349.31201171875</ele>
        <time>2010-04-20T12:45:56Z</time>
      </trkpt>
      <trkpt lat="45.17337" lon="5.22084">
        <ele>349.3210144043</ele>
        <time>2010-04-20T12:46:03Z</time>
      </trkpt>
      <trkpt lat="45.17337" lon="5.22151">
        <ele>349.67401123047</ele>
        <time>2010-04-20T12:46:09Z</time>
      </trkpt>
      <trkpt lat="45.17339" lon="5.22237">
        <ele>348.4700012207</ele>
        <time>2010-04-20T12:46:17Z</time>
      </trkpt>
      <trkpt lat="45.17339" lon="5.22257">
        <ele>349.04998779297</ele>
        <time>2010-04-20T12:46:19Z</time>
      </trkpt>
      <trkpt lat="45.17327" lon="5.22294">
        <ele>349.77899169922</ele>
        <time>2010-04-20T12:46:23Z</time>
      </trkpt>
      <trkpt lat="45.173" lon="5.22335">
        <ele>349.63000488281</ele>
        <time>2010-04-20T12:46:28Z</time>
      </trkpt>
      <trkpt lat="45.1727" lon="5.22373">
        <ele>350.05200195312</ele>
        <time>2010-04-20T12:46:33Z</time>
      </trkpt>
      <trkpt lat="45.17228" lon="5.22429">
        <ele>350.27899169922</ele>
        <time>2010-04-20T12:46:40Z</time>
      </trkpt>
      <trkpt lat="45.17192" lon="5.22475">
        <ele>351.83499145508</ele>
        <time>2010-04-20T12:46:46Z</time>
      </trkpt>
      <trkpt lat="45.17177" lon="5.22501">
        <ele>352.46398925781</ele>
        <time>2010-04-20T12:46:49Z</time>
      </trkpt>
      <trkpt lat="45.17166" lon="5.22547">
        <ele>355.00900268555</ele>
        <time>2010-04-20T12:46:54Z</time>
      </trkpt>
      <trkpt lat="45.17167" lon="5.22565">
        <ele>355.73699951172</ele>
        <time>2010-04-20T12:46:56Z</time>
      </trkpt>
      <trkpt lat="45.17167" lon="5.2261">
        <ele>356.43899536133</ele>
        <time>2010-04-20T12:47:02Z</time>
      </trkpt>
      <trkpt lat="45.17165" lon="5.22623">
        <ele>356.89898681641</ele>
        <time>2010-04-20T12:47:04Z</time>
      </trkpt>
      <trkpt lat="45.17158" lon="5.22646">
        <ele>358.0119934082</ele>
        <time>2010-04-20T12:47:08Z</time>
      </trkpt>
      <trkpt lat="45.17131" lon="5.22703">
        <ele>360.03601074219</ele>
        <time>2010-04-20T12:47:18Z</time>
      </trkpt>
      <trkpt lat="45.17114" lon="5.22737">
        <ele>361.83099365234</ele>
        <time>2010-04-20T12:47:24Z</time>
      </trkpt>
      <trkpt lat="45.171" lon="5.22765">
        <ele>363.29299926758</ele>
        <time>2010-04-20T12:47:29Z</time>
      </trkpt>
      <trkpt lat="45.17095" lon="5.22776">
        <ele>363.88000488281</ele>
        <time>2010-04-20T12:47:31Z</time>
      </trkpt>
      <trkpt lat="45.17084" lon="5.22818">
        <ele>365.94299316406</ele>
        <time>2010-04-20T12:47:38Z</time>
      </trkpt>
      <trkpt lat="45.17079" lon="5.22836">
        <ele>366.58898925781</ele>
        <time>2010-04-20T12:47:41Z</time>
      </trkpt>
      <trkpt lat="45.17064" lon="5.22864">
        <ele>367.6789855957</ele>
        <time>2010-04-20T12:47:46Z</time>
      </trkpt>
      <trkpt lat="45.17049" lon="5.22881">
        <ele>368.39999389648</ele>
        <time>2010-04-20T12:47:50Z</time>
      </trkpt>
      <trkpt lat="45.17023" lon="5.22911">
        <ele>370.06799316406</ele>
        <time>2010-04-20T12:47:57Z</time>
      </trkpt>
      <trkpt lat="45.16994" lon="5.22945">
        <ele>371.58999633789</ele>
        <time>2010-04-20T12:48:04Z</time>
      </trkpt>
      <trkpt lat="45.16969" lon="5.22974">
        <ele>372.64001464844</ele>
        <time>2010-04-20T12:48:10Z</time>
      </trkpt>
      <trkpt lat="45.16937" lon="5.2301">
        <ele>372.48300170898</ele>
        <time>2010-04-20T12:48:17Z</time>
      </trkpt>
      <trkpt lat="45.16921" lon="5.23043">
        <ele>372.81399536133</ele>
        <time>2010-04-20T12:48:22Z</time>
      </trkpt>
      <trkpt lat="45.16922" lon="5.23061">
        <ele>372.04000854492</ele>
        <time>2010-04-20T12:48:24Z</time>
      </trkpt>
      <trkpt lat="45.16927" lon="5.23097">
        <ele>372.05099487305</ele>
        <time>2010-04-20T12:48:28Z</time>
      </trkpt>
      <trkpt lat="45.1693" lon="5.23126">
        <ele>372.04000854492</ele>
        <time>2010-04-20T12:48:31Z</time>
      </trkpt>
      <trkpt lat="45.1693" lon="5.23147">
        <ele>371.24700927734</ele>
        <time>2010-04-20T12:48:33Z</time>
      </trkpt>
      <trkpt lat="45.16921" lon="5.23191">
        <ele>369.8210144043</ele>
        <time>2010-04-20T12:48:37Z</time>
      </trkpt>
      <trkpt lat="45.16883" lon="5.23262">
        <ele>367.08200073242</ele>
        <time>2010-04-20T12:48:44Z</time>
      </trkpt>
      <trkpt lat="45.16847" lon="5.23326">
        <ele>365.53900146484</ele>
        <time>2010-04-20T12:48:50Z</time>
      </trkpt>
      <trkpt lat="45.16842" lon="5.23338">
        <ele>365.18200683594</ele>
        <time>2010-04-20T12:48:51Z</time>
      </trkpt>
      <trkpt lat="45.16833" lon="5.23363">
        <ele>364.10501098633</ele>
        <time>2010-04-20T12:48:53Z</time>
      </trkpt>
      <trkpt lat="45.16831" lon="5.23404">
        <ele>363.48498535156</ele>
        <time>2010-04-20T12:48:56Z</time>
      </trkpt>
      <trkpt lat="45.16842" lon="5.23441">
        <ele>362.22900390625</ele>
        <time>2010-04-20T12:48:59Z</time>
      </trkpt>
      <trkpt lat="45.16872" lon="5.23463">
        <ele>360.45098876953</ele>
        <time>2010-04-20T12:49:02Z</time>
      </trkpt>
      <trkpt lat="45.16882" lon="5.23465">
        <ele>360.23098754883</ele>
        <time>2010-04-20T12:49:03Z</time>
      </trkpt>
      <trkpt lat="45.1693" lon="5.23473">
        <ele>358.7200012207</ele>
        <time>2010-04-20T12:49:08Z</time>
      </trkpt>
      <trkpt lat="45.16939" lon="5.23476">
        <ele>358.78201293945</ele>
        <time>2010-04-20T12:49:09Z</time>
      </trkpt>
      <trkpt lat="45.16971" lon="5.23501">
        <ele>357.86801147461</ele>
        <time>2010-04-20T12:49:13Z</time>
      </trkpt>
      <trkpt lat="45.16987" lon="5.23533">
        <ele>355.83401489258</ele>
        <time>2010-04-20T12:49:16Z</time>
      </trkpt>
      <trkpt lat="45.16996" lon="5.23572">
        <ele>355.21398925781</ele>
        <time>2010-04-20T12:49:19Z</time>
      </trkpt>
      <trkpt lat="45.16995" lon="5.23615">
        <ele>354.4460144043</ele>
        <time>2010-04-20T12:49:22Z</time>
      </trkpt>
      <trkpt lat="45.16981" lon="5.23654">
        <ele>353.81298828125</ele>
        <time>2010-04-20T12:49:25Z</time>
      </trkpt>
      <trkpt lat="45.16958" lon="5.2368">
        <ele>354.375</ele>
        <time>2010-04-20T12:49:28Z</time>
      </trkpt>
      <trkpt lat="45.16924" lon="5.23697">
        <ele>355.11999511719</ele>
        <time>2010-04-20T12:49:32Z</time>
      </trkpt>
      <trkpt lat="45.16898" lon="5.23694">
        <ele>356.02499389648</ele>
        <time>2010-04-20T12:49:35Z</time>
      </trkpt>
      <trkpt lat="45.16833" lon="5.23667">
        <ele>356.87298583984</ele>
        <time>2010-04-20T12:49:43Z</time>
      </trkpt>
      <trkpt lat="45.16811" lon="5.23657">
        <ele>357.27499389648</ele>
        <time>2010-04-20T12:49:46Z</time>
      </trkpt>
      <trkpt lat="45.1678" lon="5.23652">
        <ele>357.49798583984</ele>
        <time>2010-04-20T12:49:50Z</time>
      </trkpt>
      <trkpt lat="45.16725" lon="5.23663">
        <ele>358.31399536133</ele>
        <time>2010-04-20T12:49:57Z</time>
      </trkpt>
      <trkpt lat="45.16677" lon="5.23677">
        <ele>358.05599975586</ele>
        <time>2010-04-20T12:50:03Z</time>
      </trkpt>
      <trkpt lat="45.16582" lon="5.23708">
        <ele>358.20999145508</ele>
        <time>2010-04-20T12:50:15Z</time>
      </trkpt>
      <trkpt lat="45.1655" lon="5.23716">
        <ele>358.45401000977</ele>
        <time>2010-04-20T12:50:19Z</time>
      </trkpt>
      <trkpt lat="45.16515" lon="5.23741">
        <ele>358.22500610352</ele>
        <time>2010-04-20T12:50:24Z</time>
      </trkpt>
      <trkpt lat="45.16496" lon="5.23778">
        <ele>358.36099243164</ele>
        <time>2010-04-20T12:50:28Z</time>
      </trkpt>
      <trkpt lat="45.16492" lon="5.23788">
        <ele>358.13400268555</ele>
        <time>2010-04-20T12:50:29Z</time>
      </trkpt>
      <trkpt lat="45.16485" lon="5.23819">
        <ele>358.49301147461</ele>
        <time>2010-04-20T12:50:32Z</time>
      </trkpt>
      <trkpt lat="45.16484" lon="5.23871">
        <ele>360.01300048828</ele>
        <time>2010-04-20T12:50:37Z</time>
      </trkpt>
      <trkpt lat="45.16499" lon="5.23945">
        <ele>361.03500366211</ele>
        <time>2010-04-20T12:50:45Z</time>
      </trkpt>
      <trkpt lat="45.16512" lon="5.24003">
        <ele>362.08700561523</ele>
        <time>2010-04-20T12:50:52Z</time>
      </trkpt>
      <trkpt lat="45.16525" lon="5.24064">
        <ele>363.13299560547</ele>
        <time>2010-04-20T12:51:00Z</time>
      </trkpt>
      <trkpt lat="45.16539" lon="5.24124">
        <ele>364.82000732422</ele>
        <time>2010-04-20T12:51:08Z</time>
      </trkpt>
      <trkpt lat="45.16549" lon="5.24168">
        <ele>365.45401000977</ele>
        <time>2010-04-20T12:51:14Z</time>
      </trkpt>
      <trkpt lat="45.16565" lon="5.24201">
        <ele>365.98400878906</ele>
        <time>2010-04-20T12:51:19Z</time>
      </trkpt>
      <trkpt lat="45.16586" lon="5.24225">
        <ele>366.38299560547</ele>
        <time>2010-04-20T12:51:24Z</time>
      </trkpt>
      <trkpt lat="45.1662" lon="5.24242">
        <ele>367.21798706055</ele>
        <time>2010-04-20T12:51:30Z</time>
      </trkpt>
      <trkpt lat="45.16658" lon="5.24254">
        <ele>367.40600585938</ele>
        <time>2010-04-20T12:51:36Z</time>
      </trkpt>
      <trkpt lat="45.16717" lon="5.24269">
        <ele>367.05899047852</ele>
        <time>2010-04-20T12:51:44Z</time>
      </trkpt>
      <trkpt lat="45.16774" lon="5.24286">
        <ele>367.14700317383</ele>
        <time>2010-04-20T12:51:52Z</time>
      </trkpt>
      <trkpt lat="45.16837" lon="5.24304">
        <ele>367.03100585938</ele>
        <time>2010-04-20T12:52:01Z</time>
      </trkpt>
      <trkpt lat="45.16887" lon="5.24321">
        <ele>367.00500488281</ele>
        <time>2010-04-20T12:52:08Z</time>
      </trkpt>
      <trkpt lat="45.16912" lon="5.24339">
        <ele>367.00201416016</ele>
        <time>2010-04-20T12:52:12Z</time>
      </trkpt>
      <trkpt lat="45.16933" lon="5.24367">
        <ele>367.11199951172</ele>
        <time>2010-04-20T12:52:16Z</time>
      </trkpt>
      <trkpt lat="45.1695" lon="5.24413">
        <ele>367.75900268555</ele>
        <time>2010-04-20T12:52:21Z</time>
      </trkpt>
      <trkpt lat="45.16952" lon="5.24456">
        <ele>368.18499755859</ele>
        <time>2010-04-20T12:52:25Z</time>
      </trkpt>
      <trkpt lat="45.16941" lon="5.24494">
        <ele>368.23199462891</ele>
        <time>2010-04-20T12:52:29Z</time>
      </trkpt>
      <trkpt lat="45.16909" lon="5.24537">
        <ele>369.48001098633</ele>
        <time>2010-04-20T12:52:35Z</time>
      </trkpt>
      <trkpt lat="45.16876" lon="5.24574">
        <ele>370.25100708008</ele>
        <time>2010-04-20T12:52:41Z</time>
      </trkpt>
      <trkpt lat="45.16839" lon="5.24618">
        <ele>370.86700439453</ele>
        <time>2010-04-20T12:52:48Z</time>
      </trkpt>
      <trkpt lat="45.16798" lon="5.24666">
        <ele>370.02099609375</ele>
        <time>2010-04-20T12:52:55Z</time>
      </trkpt>
      <trkpt lat="45.16756" lon="5.24721">
        <ele>369.54598999023</ele>
        <time>2010-04-20T12:53:02Z</time>
      </trkpt>
      <trkpt lat="45.16703" lon="5.24791">
        <ele>368.24200439453</ele>
        <time>2010-04-20T12:53:10Z</time>
      </trkpt>
      <trkpt lat="45.16657" lon="5.24838">
        <ele>367.48300170898</ele>
        <time>2010-04-20T12:53:16Z</time>
      </trkpt>
      <trkpt lat="45.166" lon="5.24888">
        <ele>365.79800415039</ele>
        <time>2010-04-20T12:53:23Z</time>
      </trkpt>
      <trkpt lat="45.16564" lon="5.2493">
        <ele>364.7799987793</ele>
        <time>2010-04-20T12:53:28Z</time>
      </trkpt>
      <trkpt lat="45.16526" lon="5.25005">
        <ele>362.99899291992</ele>
        <time>2010-04-20T12:53:35Z</time>
      </trkpt>
      <trkpt lat="45.16497" lon="5.25058">
        <ele>362.50500488281</ele>
        <time>2010-04-20T12:53:40Z</time>
      </trkpt>
      <trkpt lat="45.16454" lon="5.25104">
        <ele>362.28100585938</ele>
        <time>2010-04-20T12:53:46Z</time>
      </trkpt>
      <trkpt lat="45.16401" lon="5.25152">
        <ele>362.22100830078</ele>
        <time>2010-04-20T12:53:53Z</time>
      </trkpt>
      <trkpt lat="45.16351" lon="5.25194">
        <ele>362.63000488281</ele>
        <time>2010-04-20T12:54:00Z</time>
      </trkpt>
      <trkpt lat="45.16296" lon="5.25221">
        <ele>362.45300292969</ele>
        <time>2010-04-20T12:54:07Z</time>
      </trkpt>
      <trkpt lat="45.16223" lon="5.25258">
        <ele>360.92599487305</ele>
        <time>2010-04-20T12:54:16Z</time>
      </trkpt>
      <trkpt lat="45.16206" lon="5.25269">
        <ele>359.98098754883</ele>
        <time>2010-04-20T12:54:18Z</time>
      </trkpt>
      <trkpt lat="45.16157" lon="5.25292">
        <ele>357.19400024414</ele>
        <time>2010-04-20T12:54:23Z</time>
      </trkpt>
      <trkpt lat="45.16101" lon="5.25303">
        <ele>353.97601318359</ele>
        <time>2010-04-20T12:54:28Z</time>
      </trkpt>
      <trkpt lat="45.16066" lon="5.25312">
        <ele>351.9049987793</ele>
        <time>2010-04-20T12:54:31Z</time>
      </trkpt>
      <trkpt lat="45.16013" lon="5.25351">
        <ele>349.23599243164</ele>
        <time>2010-04-20T12:54:36Z</time>
      </trkpt>
      <trkpt lat="45.15974" lon="5.25389">
        <ele>347.24700927734</ele>
        <time>2010-04-20T12:54:40Z</time>
      </trkpt>
      <trkpt lat="45.1591" lon="5.25431">
        <ele>342.47399902344</ele>
        <time>2010-04-20T12:54:46Z</time>
      </trkpt>
      <trkpt lat="45.15865" lon="5.25439">
        <ele>341.81201171875</ele>
        <time>2010-04-20T12:54:50Z</time>
      </trkpt>
      <trkpt lat="45.15813" lon="5.25427">
        <ele>342.85101318359</ele>
        <time>2010-04-20T12:54:55Z</time>
      </trkpt>
      <trkpt lat="45.1577" lon="5.25418">
        <ele>344.58599853516</ele>
        <time>2010-04-20T12:55:00Z</time>
      </trkpt>
      <trkpt lat="45.15762" lon="5.25417">
        <ele>344.82901000977</ele>
        <time>2010-04-20T12:55:01Z</time>
      </trkpt>
      <trkpt lat="45.15731" lon="5.25414">
        <ele>345.55099487305</ele>
        <time>2010-04-20T12:55:05Z</time>
      </trkpt>
      <trkpt lat="45.15678" lon="5.25412">
        <ele>347.14599609375</ele>
        <time>2010-04-20T12:55:13Z</time>
      </trkpt>
      <trkpt lat="45.15631" lon="5.25421">
        <ele>348.95001220703</ele>
        <time>2010-04-20T12:55:21Z</time>
      </trkpt>
      <trkpt lat="45.15588" lon="5.25433">
        <ele>350.62899780273</ele>
        <time>2010-04-20T12:55:30Z</time>
      </trkpt>
      <trkpt lat="45.15561" lon="5.25442">
        <ele>351.76699829102</ele>
        <time>2010-04-20T12:55:36Z</time>
      </trkpt>
      <trkpt lat="45.15521" lon="5.25465">
        <ele>354.27600097656</ele>
        <time>2010-04-20T12:55:46Z</time>
      </trkpt>
      <trkpt lat="45.15506" lon="5.25476">
        <ele>354.57299804688</ele>
        <time>2010-04-20T12:55:50Z</time>
      </trkpt>
      <trkpt lat="45.15475" lon="5.25492">
        <ele>355.65100097656</ele>
        <time>2010-04-20T12:55:58Z</time>
      </trkpt>
      <trkpt lat="45.15462" lon="5.25494">
        <ele>354.71398925781</ele>
        <time>2010-04-20T12:56:01Z</time>
      </trkpt>
      <trkpt lat="45.15443" lon="5.25514">
        <ele>353.25601196289</ele>
        <time>2010-04-20T12:56:06Z</time>
      </trkpt>
      <trkpt lat="45.1544" lon="5.25542">
        <ele>352.39300537109</ele>
        <time>2010-04-20T12:56:10Z</time>
      </trkpt>
      <trkpt lat="45.15441" lon="5.2555">
        <ele>352.49600219727</ele>
        <time>2010-04-20T12:56:11Z</time>
      </trkpt>
      <trkpt lat="45.1545" lon="5.25594">
        <ele>354.76300048828</ele>
        <time>2010-04-20T12:56:17Z</time>
      </trkpt>
      <trkpt lat="45.15454" lon="5.25606">
        <ele>355.70599365234</ele>
        <time>2010-04-20T12:56:19Z</time>
      </trkpt>
      <trkpt lat="45.15482" lon="5.25659">
        <ele>357.2380065918</ele>
        <time>2010-04-20T12:56:29Z</time>
      </trkpt>
      <trkpt lat="45.15508" lon="5.25702">
        <ele>357.8210144043</ele>
        <time>2010-04-20T12:56:37Z</time>
      </trkpt>
      <trkpt lat="45.15532" lon="5.2574">
        <ele>356.76098632812</ele>
        <time>2010-04-20T12:56:43Z</time>
      </trkpt>
      <trkpt lat="45.15563" lon="5.25784">
        <ele>355.1369934082</ele>
        <time>2010-04-20T12:56:49Z</time>
      </trkpt>
      <trkpt lat="45.15592" lon="5.25813">
        <ele>354.92001342773</ele>
        <time>2010-04-20T12:56:53Z</time>
      </trkpt>
      <trkpt lat="45.15606" lon="5.25832">
        <ele>351.4880065918</ele>
        <time>2010-04-20T12:56:55Z</time>
      </trkpt>
      <trkpt lat="45.1562" lon="5.25853">
        <ele>351.38800048828</ele>
        <time>2010-04-20T12:56:57Z</time>
      </trkpt>
      <trkpt lat="45.15651" lon="5.25912">
        <ele>345.45498657227</ele>
        <time>2010-04-20T12:57:02Z</time>
      </trkpt>
      <trkpt lat="45.15657" lon="5.25925">
        <ele>344.50601196289</ele>
        <time>2010-04-20T12:57:03Z</time>
      </trkpt>
      <trkpt lat="45.15659" lon="5.25987">
        <ele>340.27801513672</ele>
        <time>2010-04-20T12:57:07Z</time>
      </trkpt>
      <trkpt lat="45.15655" lon="5.26004">
        <ele>339.76800537109</ele>
        <time>2010-04-20T12:57:08Z</time>
      </trkpt>
      <trkpt lat="45.15625" lon="5.26104">
        <ele>333.28900146484</ele>
        <time>2010-04-20T12:57:14Z</time>
      </trkpt>
      <trkpt lat="45.15618" lon="5.26159">
        <ele>330.57598876953</ele>
        <time>2010-04-20T12:57:17Z</time>
      </trkpt>
      <trkpt lat="45.15611" lon="5.26235">
        <ele>325.03399658203</ele>
        <time>2010-04-20T12:57:21Z</time>
      </trkpt>
      <trkpt lat="45.15607" lon="5.26273">
        <ele>324.07901000977</ele>
        <time>2010-04-20T12:57:23Z</time>
      </trkpt>
      <trkpt lat="45.15583" lon="5.26346">
        <ele>319.88800048828</ele>
        <time>2010-04-20T12:57:27Z</time>
      </trkpt>
      <trkpt lat="45.15553" lon="5.26416">
        <ele>314.4460144043</ele>
        <time>2010-04-20T12:57:31Z</time>
      </trkpt>
      <trkpt lat="45.15526" lon="5.26493">
        <ele>308.70901489258</ele>
        <time>2010-04-20T12:57:35Z</time>
      </trkpt>
      <trkpt lat="45.15509" lon="5.26577">
        <ele>305.75201416016</ele>
        <time>2010-04-20T12:57:39Z</time>
      </trkpt>
      <trkpt lat="45.15485" lon="5.26649">
        <ele>303.91101074219</ele>
        <time>2010-04-20T12:57:43Z</time>
      </trkpt>
      <trkpt lat="45.15442" lon="5.26746">
        <ele>302.64401245117</ele>
        <time>2010-04-20T12:57:49Z</time>
      </trkpt>
      <trkpt lat="45.15415" lon="5.268">
        <ele>303.13000488281</ele>
        <time>2010-04-20T12:57:53Z</time>
      </trkpt>
      <trkpt lat="45.15381" lon="5.26844">
        <ele>302.54098510742</ele>
        <time>2010-04-20T12:57:57Z</time>
      </trkpt>
      <trkpt lat="45.15364" lon="5.26861">
        <ele>303.04598999023</ele>
        <time>2010-04-20T12:57:59Z</time>
      </trkpt>
      <trkpt lat="45.15315" lon="5.26912">
        <ele>301.69400024414</ele>
        <time>2010-04-20T12:58:05Z</time>
      </trkpt>
      <trkpt lat="45.15259" lon="5.26971">
        <ele>301.32901000977</ele>
        <time>2010-04-20T12:58:12Z</time>
      </trkpt>
      <trkpt lat="45.15203" lon="5.2703">
        <ele>300.57501220703</ele>
        <time>2010-04-20T12:58:19Z</time>
      </trkpt>
      <trkpt lat="45.15155" lon="5.2708">
        <ele>299.42300415039</ele>
        <time>2010-04-20T12:58:25Z</time>
      </trkpt>
      <trkpt lat="45.15123" lon="5.27113">
        <ele>298.13299560547</ele>
        <time>2010-04-20T12:58:29Z</time>
      </trkpt>
      <trkpt lat="45.15063" lon="5.27176">
        <ele>298.53698730469</ele>
        <time>2010-04-20T12:58:37Z</time>
      </trkpt>
      <trkpt lat="45.15047" lon="5.27191">
        <ele>297.15301513672</ele>
        <time>2010-04-20T12:58:39Z</time>
      </trkpt>
      <trkpt lat="45.14989" lon="5.27251">
        <ele>296.4169921875</ele>
        <time>2010-04-20T12:58:47Z</time>
      </trkpt>
      <trkpt lat="45.14931" lon="5.2731">
        <ele>296.9280090332</ele>
        <time>2010-04-20T12:58:55Z</time>
      </trkpt>
      <trkpt lat="45.14857" lon="5.27384">
        <ele>295.77099609375</ele>
        <time>2010-04-20T12:59:05Z</time>
      </trkpt>
      <trkpt lat="45.14793" lon="5.27439">
        <ele>295.10299682617</ele>
        <time>2010-04-20T12:59:13Z</time>
      </trkpt>
      <trkpt lat="45.14722" lon="5.27488">
        <ele>294.99301147461</ele>
        <time>2010-04-20T12:59:22Z</time>
      </trkpt>
      <trkpt lat="45.14667" lon="5.27523">
        <ele>292.93099975586</ele>
        <time>2010-04-20T12:59:29Z</time>
      </trkpt>
      <trkpt lat="45.14606" lon="5.27565">
        <ele>291.06201171875</ele>
        <time>2010-04-20T12:59:36Z</time>
      </trkpt>
      <trkpt lat="45.14597" lon="5.27571">
        <ele>290.52301025391</ele>
        <time>2010-04-20T12:59:37Z</time>
      </trkpt>
      <trkpt lat="45.14568" lon="5.27617">
        <ele>289.57901000977</ele>
        <time>2010-04-20T12:59:41Z</time>
      </trkpt>
      <trkpt lat="45.14562" lon="5.27629">
        <ele>289.11099243164</ele>
        <time>2010-04-20T12:59:42Z</time>
      </trkpt>
      <trkpt lat="45.14551" lon="5.27653">
        <ele>287.90301513672</ele>
        <time>2010-04-20T12:59:44Z</time>
      </trkpt>
      <trkpt lat="45.14531" lon="5.27722">
        <ele>286.02700805664</ele>
        <time>2010-04-20T12:59:49Z</time>
      </trkpt>
      <trkpt lat="45.1452" lon="5.27765">
        <ele>284.41299438477</ele>
        <time>2010-04-20T12:59:52Z</time>
      </trkpt>
      <trkpt lat="45.14491" lon="5.27844">
        <ele>282.63800048828</ele>
        <time>2010-04-20T12:59:58Z</time>
      </trkpt>
      <trkpt lat="45.14457" lon="5.27913">
        <ele>281.57299804688</ele>
        <time>2010-04-20T13:00:04Z</time>
      </trkpt>
      <trkpt lat="45.14426" lon="5.27976">
        <ele>281.35598754883</ele>
        <time>2010-04-20T13:00:10Z</time>
      </trkpt>
      <trkpt lat="45.14392" lon="5.28052">
        <ele>280.86898803711</ele>
        <time>2010-04-20T13:00:18Z</time>
      </trkpt>
      <trkpt lat="45.1437" lon="5.28098">
        <ele>281.28900146484</ele>
        <time>2010-04-20T13:00:23Z</time>
      </trkpt>
      <trkpt lat="45.14358" lon="5.28119">
        <ele>282.04800415039</ele>
        <time>2010-04-20T13:00:27Z</time>
      </trkpt>
      <trkpt lat="45.14356" lon="5.28122">
        <ele>281.91500854492</ele>
        <time>2010-04-20T13:00:28Z</time>
      </trkpt>
      <trkpt lat="45.14354" lon="5.28153">
        <ele>281.63500976562</ele>
        <time>2010-04-20T13:00:33Z</time>
      </trkpt>
      <trkpt lat="45.14352" lon="5.28168">
        <ele>282.04501342773</ele>
        <time>2010-04-20T13:00:35Z</time>
      </trkpt>
      <trkpt lat="45.14349" lon="5.28207">
        <ele>282.79400634766</ele>
        <time>2010-04-20T13:00:40Z</time>
      </trkpt>
      <trkpt lat="45.14344" lon="5.28258">
        <ele>283.72500610352</ele>
        <time>2010-04-20T13:00:47Z</time>
      </trkpt>
      <trkpt lat="45.14338" lon="5.2828">
        <ele>283.61401367188</ele>
        <time>2010-04-20T13:00:50Z</time>
      </trkpt>
      <trkpt lat="45.14313" lon="5.28337">
        <ele>282.81201171875</ele>
        <time>2010-04-20T13:00:57Z</time>
      </trkpt>
      <trkpt lat="45.14306" lon="5.28353">
        <ele>282.75100708008</ele>
        <time>2010-04-20T13:00:59Z</time>
      </trkpt>
      <trkpt lat="45.14301" lon="5.28363">
        <ele>283.45300292969</ele>
        <time>2010-04-20T13:01:01Z</time>
      </trkpt>
      <trkpt lat="45.14299" lon="5.28366">
        <ele>283.48300170898</ele>
        <time>2010-04-20T13:01:02Z</time>
      </trkpt>
      <trkpt lat="45.14297" lon="5.28367">
        <ele>283.55099487305</ele>
        <time>2010-04-20T13:01:05Z</time>
      </trkpt>
      <trkpt lat="45.14297" lon="5.28367">
        <ele>283.66198730469</ele>
        <time>2010-04-20T13:01:06Z</time>
      </trkpt>
      <trkpt lat="45.14295" lon="5.28377">
        <ele>283.38000488281</ele>
        <time>2010-04-20T13:01:12Z</time>
      </trkpt>
      <trkpt lat="45.14288" lon="5.28397">
        <ele>282.80899047852</ele>
        <time>2010-04-20T13:01:16Z</time>
      </trkpt>
      <trkpt lat="45.14268" lon="5.28447">
        <ele>283.03399658203</ele>
        <time>2010-04-20T13:01:23Z</time>
      </trkpt>
      <trkpt lat="45.14246" lon="5.28502">
        <ele>283.07501220703</ele>
        <time>2010-04-20T13:01:30Z</time>
      </trkpt>
      <trkpt lat="45.14231" lon="5.28551">
        <ele>284.17498779297</ele>
        <time>2010-04-20T13:01:36Z</time>
      </trkpt>
      <trkpt lat="45.14222" lon="5.28596">
        <ele>282.85598754883</ele>
        <time>2010-04-20T13:01:41Z</time>
      </trkpt>
      <trkpt lat="45.14197" lon="5.28659">
        <ele>281.31201171875</ele>
        <time>2010-04-20T13:01:47Z</time>
      </trkpt>
      <trkpt lat="45.14171" lon="5.28704">
        <ele>280.59399414062</ele>
        <time>2010-04-20T13:01:52Z</time>
      </trkpt>
      <trkpt lat="45.14143" lon="5.28748">
        <ele>279.97601318359</ele>
        <time>2010-04-20T13:01:57Z</time>
      </trkpt>
      <trkpt lat="45.14108" lon="5.2878">
        <ele>279.28399658203</ele>
        <time>2010-04-20T13:02:02Z</time>
      </trkpt>
      <trkpt lat="45.14054" lon="5.28819">
        <ele>278.56100463867</ele>
        <time>2010-04-20T13:02:09Z</time>
      </trkpt>
      <trkpt lat="45.14047" lon="5.28823">
        <ele>278.33999633789</ele>
        <time>2010-04-20T13:02:10Z</time>
      </trkpt>
      <trkpt lat="45.1401" lon="5.2884">
        <ele>277.67999267578</ele>
        <time>2010-04-20T13:02:15Z</time>
      </trkpt>
      <trkpt lat="45.1396" lon="5.28886">
        <ele>275.84799194336</ele>
        <time>2010-04-20T13:02:22Z</time>
      </trkpt>
      <trkpt lat="45.13915" lon="5.28927">
        <ele>275.30999755859</ele>
        <time>2010-04-20T13:02:28Z</time>
      </trkpt>
      <trkpt lat="45.13859" lon="5.28973">
        <ele>273.25201416016</ele>
        <time>2010-04-20T13:02:36Z</time>
      </trkpt>
      <trkpt lat="45.13806" lon="5.29026">
        <ele>271.65301513672</ele>
        <time>2010-04-20T13:02:43Z</time>
      </trkpt>
      <trkpt lat="45.1377" lon="5.29068">
        <ele>271.36801147461</ele>
        <time>2010-04-20T13:02:48Z</time>
      </trkpt>
      <trkpt lat="45.13718" lon="5.2914">
        <ele>270.25900268555</ele>
        <time>2010-04-20T13:02:56Z</time>
      </trkpt>
      <trkpt lat="45.13665" lon="5.29212">
        <ele>269.40798950195</ele>
        <time>2010-04-20T13:03:04Z</time>
      </trkpt>
      <trkpt lat="45.13615" lon="5.29269">
        <ele>268.3630065918</ele>
        <time>2010-04-20T13:03:11Z</time>
      </trkpt>
      <trkpt lat="45.13573" lon="5.29316">
        <ele>268.57299804688</ele>
        <time>2010-04-20T13:03:17Z</time>
      </trkpt>
      <trkpt lat="45.13531" lon="5.29359">
        <ele>268.21200561523</ele>
        <time>2010-04-20T13:03:23Z</time>
      </trkpt>
      <trkpt lat="45.13508" lon="5.29386">
        <ele>268.7080078125</ele>
        <time>2010-04-20T13:03:28Z</time>
      </trkpt>
      <trkpt lat="45.13506" lon="5.2939">
        <ele>269.00500488281</ele>
        <time>2010-04-20T13:03:29Z</time>
      </trkpt>
      <trkpt lat="45.13494" lon="5.294">
        <ele>269.14401245117</ele>
        <time>2010-04-20T13:03:33Z</time>
      </trkpt>
      <trkpt lat="45.13483" lon="5.29412">
        <ele>269.14099121094</ele>
        <time>2010-04-20T13:03:38Z</time>
      </trkpt>
      <trkpt lat="45.13478" lon="5.29414">
        <ele>269.13400268555</ele>
        <time>2010-04-20T13:03:40Z</time>
      </trkpt>
      <trkpt lat="45.13477" lon="5.29416">
        <ele>269.03799438477</ele>
        <time>2010-04-20T13:03:41Z</time>
      </trkpt>
      <trkpt lat="45.13472" lon="5.2942">
        <ele>269.15798950195</ele>
        <time>2010-04-20T13:03:46Z</time>
      </trkpt>
      <trkpt lat="45.13472" lon="5.29421">
        <ele>269.14199829102</ele>
        <time>2010-04-20T13:03:47Z</time>
      </trkpt>
      <trkpt lat="45.1347" lon="5.29423">
        <ele>269.18099975586</ele>
        <time>2010-04-20T13:03:52Z</time>
      </trkpt>
      <trkpt lat="45.1347" lon="5.29423">
        <ele>269.25</ele>
        <time>2010-04-20T13:03:53Z</time>
      </trkpt>
      <trkpt lat="45.13456" lon="5.29434">
        <ele>268.78298950195</ele>
        <time>2010-04-20T13:04:01Z</time>
      </trkpt>
      <trkpt lat="45.13452" lon="5.29438">
        <ele>268.42001342773</ele>
        <time>2010-04-20T13:04:02Z</time>
      </trkpt>
      <trkpt lat="45.13443" lon="5.29447">
        <ele>267.98199462891</ele>
        <time>2010-04-20T13:04:04Z</time>
      </trkpt>
      <trkpt lat="45.13431" lon="5.2946">
        <ele>267.88900756836</ele>
        <time>2010-04-20T13:04:07Z</time>
      </trkpt>
      <trkpt lat="45.13396" lon="5.29498">
        <ele>267.40100097656</ele>
        <time>2010-04-20T13:04:14Z</time>
      </trkpt>
      <trkpt lat="45.13359" lon="5.29542">
        <ele>267.65899658203</ele>
        <time>2010-04-20T13:04:21Z</time>
      </trkpt>
      <trkpt lat="45.13311" lon="5.29593">
        <ele>266.9049987793</ele>
        <time>2010-04-20T13:04:29Z</time>
      </trkpt>
      <trkpt lat="45.13257" lon="5.29651">
        <ele>267.08898925781</ele>
        <time>2010-04-20T13:04:38Z</time>
      </trkpt>
      <trkpt lat="45.13201" lon="5.29715">
        <ele>267.65200805664</ele>
        <time>2010-04-20T13:04:48Z</time>
      </trkpt>
      <trkpt lat="45.13153" lon="5.29778">
        <ele>267.24499511719</ele>
        <time>2010-04-20T13:04:57Z</time>
      </trkpt>
      <trkpt lat="45.13125" lon="5.29815">
        <ele>267.03100585938</ele>
        <time>2010-04-20T13:05:03Z</time>
      </trkpt>
      <trkpt lat="45.13095" lon="5.29854">
        <ele>266.73199462891</ele>
        <time>2010-04-20T13:05:09Z</time>
      </trkpt>
      <trkpt lat="45.13055" lon="5.29903">
        <ele>266.28799438477</ele>
        <time>2010-04-20T13:05:16Z</time>
      </trkpt>
      <trkpt lat="45.13015" lon="5.29949">
        <ele>266.46301269531</ele>
        <time>2010-04-20T13:05:23Z</time>
      </trkpt>
      <trkpt lat="45.1298" lon="5.29989">
        <ele>266.5299987793</ele>
        <time>2010-04-20T13:05:29Z</time>
      </trkpt>
      <trkpt lat="45.12935" lon="5.30031">
        <ele>266.31799316406</ele>
        <time>2010-04-20T13:05:36Z</time>
      </trkpt>
      <trkpt lat="45.1289" lon="5.30069">
        <ele>264.5419921875</ele>
        <time>2010-04-20T13:05:42Z</time>
      </trkpt>
      <trkpt lat="45.12841" lon="5.30109">
        <ele>263.59899902344</ele>
        <time>2010-04-20T13:05:48Z</time>
      </trkpt>
      <trkpt lat="45.12806" lon="5.30124">
        <ele>264.37298583984</ele>
        <time>2010-04-20T13:05:52Z</time>
      </trkpt>
      <trkpt lat="45.12767" lon="5.30137">
        <ele>266.30099487305</ele>
        <time>2010-04-20T13:05:57Z</time>
      </trkpt>
      <trkpt lat="45.12735" lon="5.30158">
        <ele>267.44299316406</ele>
        <time>2010-04-20T13:06:02Z</time>
      </trkpt>
      <trkpt lat="45.12695" lon="5.30202">
        <ele>267.86499023438</ele>
        <time>2010-04-20T13:06:09Z</time>
      </trkpt>
      <trkpt lat="45.12666" lon="5.30238">
        <ele>266.79000854492</ele>
        <time>2010-04-20T13:06:14Z</time>
      </trkpt>
      <trkpt lat="45.12649" lon="5.3029">
        <ele>264.99398803711</ele>
        <time>2010-04-20T13:06:19Z</time>
      </trkpt>
      <trkpt lat="45.12644" lon="5.30314">
        <ele>264.51000976562</ele>
        <time>2010-04-20T13:06:21Z</time>
      </trkpt>
      <trkpt lat="45.12624" lon="5.30364">
        <ele>265.75</ele>
        <time>2010-04-20T13:06:26Z</time>
      </trkpt>
      <trkpt lat="45.12594" lon="5.30412">
        <ele>266.56201171875</ele>
        <time>2010-04-20T13:06:32Z</time>
      </trkpt>
      <trkpt lat="45.12555" lon="5.30476">
        <ele>267.1369934082</ele>
        <time>2010-04-20T13:06:40Z</time>
      </trkpt>
      <trkpt lat="45.12526" lon="5.30528">
        <ele>266.34899902344</ele>
        <time>2010-04-20T13:06:46Z</time>
      </trkpt>
      <trkpt lat="45.12517" lon="5.30546">
        <ele>266.47500610352</ele>
        <time>2010-04-20T13:06:48Z</time>
      </trkpt>
      <trkpt lat="45.12495" lon="5.30551">
        <ele>266.22198486328</ele>
        <time>2010-04-20T13:06:51Z</time>
      </trkpt>
      <trkpt lat="45.12484" lon="5.30536">
        <ele>266.4169921875</ele>
        <time>2010-04-20T13:06:53Z</time>
      </trkpt>
      <trkpt lat="45.12439" lon="5.30469">
        <ele>266.5</ele>
        <time>2010-04-20T13:07:01Z</time>
      </trkpt>
      <trkpt lat="45.12391" lon="5.30399">
        <ele>265.41101074219</ele>
        <time>2010-04-20T13:07:09Z</time>
      </trkpt>
      <trkpt lat="45.1237" lon="5.30381">
        <ele>264.14898681641</ele>
        <time>2010-04-20T13:07:12Z</time>
      </trkpt>
      <trkpt lat="45.12353" lon="5.3038">
        <ele>263.36401367188</ele>
        <time>2010-04-20T13:07:14Z</time>
      </trkpt>
      <trkpt lat="45.12344" lon="5.30383">
        <ele>263.36898803711</ele>
        <time>2010-04-20T13:07:15Z</time>
      </trkpt>
      <trkpt lat="45.12281" lon="5.30408">
        <ele>260.72198486328</ele>
        <time>2010-04-20T13:07:22Z</time>
      </trkpt>
      <trkpt lat="45.12241" lon="5.30421">
        <ele>258.32000732422</ele>
        <time>2010-04-20T13:07:26Z</time>
      </trkpt>
      <trkpt lat="45.12221" lon="5.30426">
        <ele>257.05599975586</ele>
        <time>2010-04-20T13:07:28Z</time>
      </trkpt>
      <trkpt lat="45.12189" lon="5.3043">
        <ele>254.80000305176</ele>
        <time>2010-04-20T13:07:31Z</time>
      </trkpt>
      <trkpt lat="45.12134" lon="5.3043">
        <ele>251.58999633789</ele>
        <time>2010-04-20T13:07:36Z</time>
      </trkpt>
      <trkpt lat="45.12103" lon="5.30448">
        <ele>249.70300292969</ele>
        <time>2010-04-20T13:07:39Z</time>
      </trkpt>
      <trkpt lat="45.12091" lon="5.30479">
        <ele>248.50799560547</ele>
        <time>2010-04-20T13:07:41Z</time>
      </trkpt>
      <trkpt lat="45.12092" lon="5.30514">
        <ele>246.47099304199</ele>
        <time>2010-04-20T13:07:43Z</time>
      </trkpt>
      <trkpt lat="45.12099" lon="5.30548">
        <ele>245.40899658203</ele>
        <time>2010-04-20T13:07:45Z</time>
      </trkpt>
      <trkpt lat="45.12123" lon="5.30631">
        <ele>242.48300170898</ele>
        <time>2010-04-20T13:07:50Z</time>
      </trkpt>
      <trkpt lat="45.12145" lon="5.30751">
        <ele>236.4880065918</ele>
        <time>2010-04-20T13:07:57Z</time>
      </trkpt>
      <trkpt lat="45.12153" lon="5.30802">
        <ele>234.36799621582</ele>
        <time>2010-04-20T13:08:00Z</time>
      </trkpt>
      <trkpt lat="45.12174" lon="5.30906">
        <ele>229.56399536133</ele>
        <time>2010-04-20T13:08:06Z</time>
      </trkpt>
      <trkpt lat="45.12184" lon="5.30956">
        <ele>227.91200256348</ele>
        <time>2010-04-20T13:08:09Z</time>
      </trkpt>
      <trkpt lat="45.12197" lon="5.31026">
        <ele>224.86599731445</ele>
        <time>2010-04-20T13:08:13Z</time>
      </trkpt>
      <trkpt lat="45.12223" lon="5.31162">
        <ele>219.00500488281</ele>
        <time>2010-04-20T13:08:21Z</time>
      </trkpt>
      <trkpt lat="45.12231" lon="5.31214">
        <ele>217.26699829102</ele>
        <time>2010-04-20T13:08:24Z</time>
      </trkpt>
      <trkpt lat="45.12248" lon="5.31351">
        <ele>211.03199768066</ele>
        <time>2010-04-20T13:08:32Z</time>
      </trkpt>
      <trkpt lat="45.1225" lon="5.31437">
        <ele>208.09199523926</ele>
        <time>2010-04-20T13:08:37Z</time>
      </trkpt>
      <trkpt lat="45.12262" lon="5.31522">
        <ele>204.98599243164</ele>
        <time>2010-04-20T13:08:42Z</time>
      </trkpt>
      <trkpt lat="45.12269" lon="5.31608">
        <ele>202.45700073242</ele>
        <time>2010-04-20T13:08:47Z</time>
      </trkpt>
      <trkpt lat="45.12269" lon="5.31678">
        <ele>199.69099426269</ele>
        <time>2010-04-20T13:08:51Z</time>
      </trkpt>
      <trkpt lat="45.12284" lon="5.31764">
        <ele>194.22900390625</ele>
        <time>2010-04-20T13:08:56Z</time>
      </trkpt>
      <trkpt lat="45.12308" lon="5.31882">
        <ele>191.07000732422</ele>
        <time>2010-04-20T13:09:03Z</time>
      </trkpt>
      <trkpt lat="45.12328" lon="5.31946">
        <ele>188.6549987793</ele>
        <time>2010-04-20T13:09:07Z</time>
      </trkpt>
      <trkpt lat="45.12354" lon="5.32043">
        <ele>183.98899841309</ele>
        <time>2010-04-20T13:09:13Z</time>
      </trkpt>
      <trkpt lat="45.12383" lon="5.32158">
        <ele>178.83000183106</ele>
        <time>2010-04-20T13:09:20Z</time>
      </trkpt>
      <trkpt lat="45.12391" lon="5.32186">
        <ele>179.44500732422</ele>
        <time>2010-04-20T13:09:22Z</time>
      </trkpt>
      <trkpt lat="45.12412" lon="5.32217">
        <ele>179.46099853516</ele>
        <time>2010-04-20T13:09:25Z</time>
      </trkpt>
      <trkpt lat="45.12439" lon="5.32236">
        <ele>178.24099731445</ele>
        <time>2010-04-20T13:09:28Z</time>
      </trkpt>
      <trkpt lat="45.12447" lon="5.32258">
        <ele>178.9700012207</ele>
        <time>2010-04-20T13:09:30Z</time>
      </trkpt>
      <trkpt lat="45.12441" lon="5.32281">
        <ele>179.11999511719</ele>
        <time>2010-04-20T13:09:32Z</time>
      </trkpt>
      <trkpt lat="45.12424" lon="5.32311">
        <ele>177.81199645996</ele>
        <time>2010-04-20T13:09:35Z</time>
      </trkpt>
      <trkpt lat="45.12415" lon="5.3236">
        <ele>177.04800415039</ele>
        <time>2010-04-20T13:09:39Z</time>
      </trkpt>
      <trkpt lat="45.12419" lon="5.3241">
        <ele>177.37600708008</ele>
        <time>2010-04-20T13:09:43Z</time>
      </trkpt>
      <trkpt lat="45.12441" lon="5.32487">
        <ele>177.99499511719</ele>
        <time>2010-04-20T13:09:50Z</time>
      </trkpt>
      <trkpt lat="45.12462" lon="5.32557">
        <ele>179.2619934082</ele>
        <time>2010-04-20T13:09:57Z</time>
      </trkpt>
      <trkpt lat="45.12487" lon="5.32635">
        <ele>179.43899536133</ele>
        <time>2010-04-20T13:10:05Z</time>
      </trkpt>
      <trkpt lat="45.12513" lon="5.32723">
        <ele>181.04899597168</ele>
        <time>2010-04-20T13:10:14Z</time>
      </trkpt>
      <trkpt lat="45.12534" lon="5.32797">
        <ele>181.57099914551</ele>
        <time>2010-04-20T13:10:22Z</time>
      </trkpt>
      <trkpt lat="45.12557" lon="5.32868">
        <ele>181.84599304199</ele>
        <time>2010-04-20T13:10:30Z</time>
      </trkpt>
      <trkpt lat="45.12567" lon="5.32905">
        <ele>181.8809967041</ele>
        <time>2010-04-20T13:10:34Z</time>
      </trkpt>
      <trkpt lat="45.12564" lon="5.32951">
        <ele>183.05700683594</ele>
        <time>2010-04-20T13:10:39Z</time>
      </trkpt>
      <trkpt lat="45.12552" lon="5.32971">
        <ele>183.05700683594</ele>
        <time>2010-04-20T13:10:42Z</time>
      </trkpt>
      <trkpt lat="45.12547" lon="5.32975">
        <ele>183.36000061035</ele>
        <time>2010-04-20T13:10:43Z</time>
      </trkpt>
      <trkpt lat="45.12484" lon="5.33017">
        <ele>184.43299865723</ele>
        <time>2010-04-20T13:10:54Z</time>
      </trkpt>
      <trkpt lat="45.1246" lon="5.33033">
        <ele>182.77699279785</ele>
        <time>2010-04-20T13:10:58Z</time>
      </trkpt>
      <trkpt lat="45.12416" lon="5.33065">
        <ele>182.81300354004</ele>
        <time>2010-04-20T13:11:05Z</time>
      </trkpt>
      <trkpt lat="45.1241" lon="5.3307">
        <ele>182.76300048828</ele>
        <time>2010-04-20T13:11:06Z</time>
      </trkpt>
      <trkpt lat="45.12395" lon="5.331">
        <ele>181.94299316406</ele>
        <time>2010-04-20T13:11:10Z</time>
      </trkpt>
      <trkpt lat="45.12395" lon="5.33142">
        <ele>180.42900085449</ele>
        <time>2010-04-20T13:11:14Z</time>
      </trkpt>
      <trkpt lat="45.12405" lon="5.33171">
        <ele>179.36700439453</ele>
        <time>2010-04-20T13:11:17Z</time>
      </trkpt>
      <trkpt lat="45.12437" lon="5.33216">
        <ele>175.71299743652</ele>
        <time>2010-04-20T13:11:22Z</time>
      </trkpt>
      <trkpt lat="45.12457" lon="5.33244">
        <ele>175.95700073242</ele>
        <time>2010-04-20T13:11:25Z</time>
      </trkpt>
      <trkpt lat="45.1247" lon="5.33285">
        <ele>176.52699279785</ele>
        <time>2010-04-20T13:11:29Z</time>
      </trkpt>
      <trkpt lat="45.1247" lon="5.33296">
        <ele>176.73199462891</ele>
        <time>2010-04-20T13:11:30Z</time>
      </trkpt>
      <trkpt lat="45.12469" lon="5.33352">
        <ele>178.64700317383</ele>
        <time>2010-04-20T13:11:36Z</time>
      </trkpt>
      <trkpt lat="45.12471" lon="5.3338">
        <ele>180.28500366211</ele>
        <time>2010-04-20T13:11:40Z</time>
      </trkpt>
      <trkpt lat="45.12471" lon="5.33387">
        <ele>180.48500061035</ele>
        <time>2010-04-20T13:11:41Z</time>
      </trkpt>
      <trkpt lat="45.12476" lon="5.33409">
        <ele>181.55400085449</ele>
        <time>2010-04-20T13:11:45Z</time>
      </trkpt>
      <trkpt lat="45.12489" lon="5.33445">
        <ele>183.79499816894</ele>
        <time>2010-04-20T13:11:53Z</time>
      </trkpt>
      <trkpt lat="45.12498" lon="5.33464">
        <ele>185.22599792481</ele>
        <time>2010-04-20T13:11:58Z</time>
      </trkpt>
      <trkpt lat="45.12509" lon="5.33484">
        <ele>186.71200561523</ele>
        <time>2010-04-20T13:12:04Z</time>
      </trkpt>
      <trkpt lat="45.12517" lon="5.33507">
        <ele>188.13000488281</ele>
        <time>2010-04-20T13:12:10Z</time>
      </trkpt>
      <trkpt lat="45.12521" lon="5.33525">
        <ele>189.33599853516</ele>
        <time>2010-04-20T13:12:14Z</time>
      </trkpt>
      <trkpt lat="45.12526" lon="5.33552">
        <ele>190.70899963379</ele>
        <time>2010-04-20T13:12:20Z</time>
      </trkpt>
      <trkpt lat="45.12535" lon="5.33576">
        <ele>191.64199829102</ele>
        <time>2010-04-20T13:12:26Z</time>
      </trkpt>
      <trkpt lat="45.12548" lon="5.33602">
        <ele>193.59800720215</ele>
        <time>2010-04-20T13:12:33Z</time>
      </trkpt>
      <trkpt lat="45.12561" lon="5.33627">
        <ele>194.92700195312</ele>
        <time>2010-04-20T13:12:40Z</time>
      </trkpt>
      <trkpt lat="45.12572" lon="5.33648">
        <ele>196.19200134277</ele>
        <time>2010-04-20T13:12:46Z</time>
      </trkpt>
      <trkpt lat="45.1258" lon="5.33674">
        <ele>197.60400390625</ele>
        <time>2010-04-20T13:12:52Z</time>
      </trkpt>
      <trkpt lat="45.12576" lon="5.33686">
        <ele>198.62199401856</ele>
        <time>2010-04-20T13:12:55Z</time>
      </trkpt>
      <trkpt lat="45.1256" lon="5.33694">
        <ele>199.64199829102</ele>
        <time>2010-04-20T13:13:00Z</time>
      </trkpt>
      <trkpt lat="45.12539" lon="5.33694">
        <ele>200.95799255371</ele>
        <time>2010-04-20T13:13:06Z</time>
      </trkpt>
      <trkpt lat="45.12518" lon="5.33692">
        <ele>202.44700622559</ele>
        <time>2010-04-20T13:13:12Z</time>
      </trkpt>
      <trkpt lat="45.12494" lon="5.33684">
        <ele>203.82400512695</ele>
        <time>2010-04-20T13:13:19Z</time>
      </trkpt>
      <trkpt lat="45.12482" lon="5.33679">
        <ele>204.30299377441</ele>
        <time>2010-04-20T13:13:23Z</time>
      </trkpt>
      <trkpt lat="45.12472" lon="5.3368">
        <ele>203.98599243164</ele>
        <time>2010-04-20T13:13:26Z</time>
      </trkpt>
      <trkpt lat="45.12445" lon="5.33701">
        <ele>205.67199707031</ele>
        <time>2010-04-20T13:13:34Z</time>
      </trkpt>
      <trkpt lat="45.12423" lon="5.33719">
        <ele>207.43699645996</ele>
        <time>2010-04-20T13:13:41Z</time>
      </trkpt>
      <trkpt lat="45.12409" lon="5.33744">
        <ele>208.99499511719</ele>
        <time>2010-04-20T13:13:47Z</time>
      </trkpt>
      <trkpt lat="45.12404" lon="5.33759">
        <ele>209.68099975586</ele>
        <time>2010-04-20T13:13:50Z</time>
      </trkpt>
      <trkpt lat="45.124" lon="5.3377">
        <ele>209.86500549316</ele>
        <time>2010-04-20T13:13:52Z</time>
      </trkpt>
      <trkpt lat="45.12391" lon="5.33788">
        <ele>210.94099426269</ele>
        <time>2010-04-20T13:13:56Z</time>
      </trkpt>
      <trkpt lat="45.12384" lon="5.33796">
        <ele>211.44799804688</ele>
        <time>2010-04-20T13:13:58Z</time>
      </trkpt>
      <trkpt lat="45.1236" lon="5.33817">
        <ele>213.38999938965</ele>
        <time>2010-04-20T13:14:05Z</time>
      </trkpt>
      <trkpt lat="45.12336" lon="5.33823">
        <ele>215.59100341797</ele>
        <time>2010-04-20T13:14:12Z</time>
      </trkpt>
      <trkpt lat="45.12321" lon="5.33815">
        <ele>216.80400085449</ele>
        <time>2010-04-20T13:14:17Z</time>
      </trkpt>
      <trkpt lat="45.12306" lon="5.33802">
        <ele>218.2619934082</ele>
        <time>2010-04-20T13:14:23Z</time>
      </trkpt>
      <trkpt lat="45.12286" lon="5.33782">
        <ele>220.14199829102</ele>
        <time>2010-04-20T13:14:31Z</time>
      </trkpt>
      <trkpt lat="45.1226" lon="5.33754">
        <ele>222.63600158691</ele>
        <time>2010-04-20T13:14:42Z</time>
      </trkpt>
      <trkpt lat="45.12242" lon="5.33731">
        <ele>224.20100402832</ele>
        <time>2010-04-20T13:14:50Z</time>
      </trkpt>
      <trkpt lat="45.12225" lon="5.33706">
        <ele>226.03799438477</ele>
        <time>2010-04-20T13:14:58Z</time>
      </trkpt>
      <trkpt lat="45.1221" lon="5.33686">
        <ele>227.63800048828</ele>
        <time>2010-04-20T13:15:05Z</time>
      </trkpt>
      <trkpt lat="45.12193" lon="5.33657">
        <ele>229.26100158691</ele>
        <time>2010-04-20T13:15:13Z</time>
      </trkpt>
      <trkpt lat="45.12175" lon="5.33632">
        <ele>231.43099975586</ele>
        <time>2010-04-20T13:15:21Z</time>
      </trkpt>
      <trkpt lat="45.1216" lon="5.33617">
        <ele>232.29299926758</ele>
        <time>2010-04-20T13:15:27Z</time>
      </trkpt>
      <trkpt lat="45.12145" lon="5.336">
        <ele>234.01899719238</ele>
        <time>2010-04-20T13:15:33Z</time>
      </trkpt>
      <trkpt lat="45.12122" lon="5.33579">
        <ele>236.02499389648</ele>
        <time>2010-04-20T13:15:41Z</time>
      </trkpt>
      <trkpt lat="45.1211" lon="5.33568">
        <ele>237.00300598144</ele>
        <time>2010-04-20T13:15:45Z</time>
      </trkpt>
      <trkpt lat="45.12096" lon="5.33558">
        <ele>238.07000732422</ele>
        <time>2010-04-20T13:15:49Z</time>
      </trkpt>
      <trkpt lat="45.12089" lon="5.33555">
        <ele>238.98500061035</ele>
        <time>2010-04-20T13:15:51Z</time>
      </trkpt>
      <trkpt lat="45.1207" lon="5.33548">
        <ele>240.33200073242</ele>
        <time>2010-04-20T13:15:56Z</time>
      </trkpt>
      <trkpt lat="45.12052" lon="5.33531">
        <ele>242.17999267578</ele>
        <time>2010-04-20T13:16:02Z</time>
      </trkpt>
      <trkpt lat="45.12049" lon="5.33526">
        <ele>242.21699523926</ele>
        <time>2010-04-20T13:16:03Z</time>
      </trkpt>
      <trkpt lat="45.12045" lon="5.33516">
        <ele>242.64700317383</ele>
        <time>2010-04-20T13:16:05Z</time>
      </trkpt>
      <trkpt lat="45.12033" lon="5.33503">
        <ele>243.57299804688</ele>
        <time>2010-04-20T13:16:09Z</time>
      </trkpt>
      <trkpt lat="45.12028" lon="5.33512">
        <ele>244.58500671387</ele>
        <time>2010-04-20T13:16:11Z</time>
      </trkpt>
      <trkpt lat="45.12031" lon="5.33525">
        <ele>244.88400268555</ele>
        <time>2010-04-20T13:16:13Z</time>
      </trkpt>
      <trkpt lat="45.12039" lon="5.33543">
        <ele>246.49299621582</ele>
        <time>2010-04-20T13:16:16Z</time>
      </trkpt>
      <trkpt lat="45.12048" lon="5.33558">
        <ele>247.29499816894</ele>
        <time>2010-04-20T13:16:19Z</time>
      </trkpt>
      <trkpt lat="45.12061" lon="5.33574">
        <ele>248.56599426269</ele>
        <time>2010-04-20T13:16:23Z</time>
      </trkpt>
      <trkpt lat="45.12082" lon="5.33594">
        <ele>250.94500732422</ele>
        <time>2010-04-20T13:16:30Z</time>
      </trkpt>
      <trkpt lat="45.121" lon="5.33613">
        <ele>252.12699890137</ele>
        <time>2010-04-20T13:16:37Z</time>
      </trkpt>
      <trkpt lat="45.12115" lon="5.33638">
        <ele>254.40199279785</ele>
        <time>2010-04-20T13:16:45Z</time>
      </trkpt>
      <trkpt lat="45.12116" lon="5.33656">
        <ele>255.70500183106</ele>
        <time>2010-04-20T13:16:49Z</time>
      </trkpt>
      <trkpt lat="45.12109" lon="5.33674">
        <ele>257.34698486328</ele>
        <time>2010-04-20T13:16:54Z</time>
      </trkpt>
      <trkpt lat="45.12103" lon="5.33691">
        <ele>258.39001464844</ele>
        <time>2010-04-20T13:17:00Z</time>
      </trkpt>
      <trkpt lat="45.12102" lon="5.33712">
        <ele>259.4880065918</ele>
        <time>2010-04-20T13:17:06Z</time>
      </trkpt>
      <trkpt lat="45.1211" lon="5.33727">
        <ele>259.9880065918</ele>
        <time>2010-04-20T13:17:11Z</time>
      </trkpt>
      <trkpt lat="45.1212" lon="5.33752">
        <ele>260.03698730469</ele>
        <time>2010-04-20T13:17:17Z</time>
      </trkpt>
      <trkpt lat="45.12116" lon="5.3378">
        <ele>260.50201416016</ele>
        <time>2010-04-20T13:17:22Z</time>
      </trkpt>
      <trkpt lat="45.12111" lon="5.33803">
        <ele>260.78201293945</ele>
        <time>2010-04-20T13:17:26Z</time>
      </trkpt>
      <trkpt lat="45.12104" lon="5.33827">
        <ele>260.81698608398</ele>
        <time>2010-04-20T13:17:30Z</time>
      </trkpt>
      <trkpt lat="45.12096" lon="5.33864">
        <ele>260.86199951172</ele>
        <time>2010-04-20T13:17:36Z</time>
      </trkpt>
      <trkpt lat="45.12086" lon="5.33905">
        <ele>261.29299926758</ele>
        <time>2010-04-20T13:17:43Z</time>
      </trkpt>
      <trkpt lat="45.12079" lon="5.33932">
        <ele>262.18301391602</ele>
        <time>2010-04-20T13:17:48Z</time>
      </trkpt>
      <trkpt lat="45.12077" lon="5.33941">
        <ele>262.48901367188</ele>
        <time>2010-04-20T13:17:51Z</time>
      </trkpt>
      <trkpt lat="45.12077" lon="5.33947">
        <ele>262.31298828125</ele>
        <time>2010-04-20T13:17:54Z</time>
      </trkpt>
      <trkpt lat="45.12073" lon="5.33974">
        <ele>262.83801269531</ele>
        <time>2010-04-20T13:18:00Z</time>
      </trkpt>
      <trkpt lat="45.12072" lon="5.33985">
        <ele>263.21701049805</ele>
        <time>2010-04-20T13:18:02Z</time>
      </trkpt>
      <trkpt lat="45.12069" lon="5.3402">
        <ele>264.33898925781</ele>
        <time>2010-04-20T13:18:08Z</time>
      </trkpt>
      <trkpt lat="45.12064" lon="5.34066">
        <ele>266.87799072266</ele>
        <time>2010-04-20T13:18:16Z</time>
      </trkpt>
      <trkpt lat="45.12062" lon="5.34098">
        <ele>269.06500244141</ele>
        <time>2010-04-20T13:18:22Z</time>
      </trkpt>
      <trkpt lat="45.12063" lon="5.34119">
        <ele>269.88299560547</ele>
        <time>2010-04-20T13:18:27Z</time>
      </trkpt>
      <trkpt lat="45.12071" lon="5.34155">
        <ele>272.08700561523</ele>
        <time>2010-04-20T13:18:34Z</time>
      </trkpt>
      <trkpt lat="45.12077" lon="5.34206">
        <ele>273.44000244141</ele>
        <time>2010-04-20T13:18:43Z</time>
      </trkpt>
      <trkpt lat="45.12077" lon="5.34228">
        <ele>275.20098876953</ele>
        <time>2010-04-20T13:18:47Z</time>
      </trkpt>
      <trkpt lat="45.12071" lon="5.34251">
        <ele>276.31399536133</ele>
        <time>2010-04-20T13:18:51Z</time>
      </trkpt>
      <trkpt lat="45.12048" lon="5.34286">
        <ele>278.85900878906</ele>
        <time>2010-04-20T13:18:59Z</time>
      </trkpt>
      <trkpt lat="45.1203" lon="5.34307">
        <ele>281.06600952148</ele>
        <time>2010-04-20T13:19:05Z</time>
      </trkpt>
      <trkpt lat="45.12006" lon="5.34336">
        <ele>283.5719909668</ele>
        <time>2010-04-20T13:19:14Z</time>
      </trkpt>
      <trkpt lat="45.11987" lon="5.34362">
        <ele>285.83700561523</ele>
        <time>2010-04-20T13:19:22Z</time>
      </trkpt>
      <trkpt lat="45.11969" lon="5.34392">
        <ele>288.37298583984</ele>
        <time>2010-04-20T13:19:31Z</time>
      </trkpt>
      <trkpt lat="45.1196" lon="5.34414">
        <ele>290.23901367188</ele>
        <time>2010-04-20T13:19:37Z</time>
      </trkpt>
      <trkpt lat="45.1196" lon="5.34436">
        <ele>292.18899536133</ele>
        <time>2010-04-20T13:19:43Z</time>
      </trkpt>
      <trkpt lat="45.11964" lon="5.34452">
        <ele>292.9469909668</ele>
        <time>2010-04-20T13:19:48Z</time>
      </trkpt>
      <trkpt lat="45.11976" lon="5.34477">
        <ele>294.6960144043</ele>
        <time>2010-04-20T13:19:56Z</time>
      </trkpt>
      <trkpt lat="45.11978" lon="5.34496">
        <ele>295.67999267578</ele>
        <time>2010-04-20T13:20:01Z</time>
      </trkpt>
      <trkpt lat="45.11972" lon="5.34513">
        <ele>296.84600830078</ele>
        <time>2010-04-20T13:20:06Z</time>
      </trkpt>
      <trkpt lat="45.11969" lon="5.34518">
        <ele>297.58599853516</ele>
        <time>2010-04-20T13:20:08Z</time>
      </trkpt>
      <trkpt lat="45.11958" lon="5.34535">
        <ele>299.39300537109</ele>
        <time>2010-04-20T13:20:14Z</time>
      </trkpt>
      <trkpt lat="45.11948" lon="5.34559">
        <ele>301.52600097656</ele>
        <time>2010-04-20T13:20:22Z</time>
      </trkpt>
      <trkpt lat="45.11944" lon="5.34578">
        <ele>302.9169921875</ele>
        <time>2010-04-20T13:20:27Z</time>
      </trkpt>
      <trkpt lat="45.11945" lon="5.34602">
        <ele>304.15798950195</ele>
        <time>2010-04-20T13:20:33Z</time>
      </trkpt>
      <trkpt lat="45.1195" lon="5.34625">
        <ele>305.73300170898</ele>
        <time>2010-04-20T13:20:39Z</time>
      </trkpt>
      <trkpt lat="45.11954" lon="5.34653">
        <ele>307.30599975586</ele>
        <time>2010-04-20T13:20:46Z</time>
      </trkpt>
      <trkpt lat="45.1195" lon="5.34672">
        <ele>308.73699951172</ele>
        <time>2010-04-20T13:20:51Z</time>
      </trkpt>
      <trkpt lat="45.1194" lon="5.34691">
        <ele>310.85900878906</ele>
        <time>2010-04-20T13:20:57Z</time>
      </trkpt>
      <trkpt lat="45.11926" lon="5.34712">
        <ele>312.27899169922</ele>
        <time>2010-04-20T13:21:04Z</time>
      </trkpt>
      <trkpt lat="45.11922" lon="5.34741">
        <ele>313.83999633789</ele>
        <time>2010-04-20T13:21:11Z</time>
      </trkpt>
      <trkpt lat="45.11921" lon="5.34761">
        <ele>315.51699829102</ele>
        <time>2010-04-20T13:21:16Z</time>
      </trkpt>
      <trkpt lat="45.11918" lon="5.34779">
        <ele>316.65701293945</ele>
        <time>2010-04-20T13:21:21Z</time>
      </trkpt>
      <trkpt lat="45.11918" lon="5.34806">
        <ele>318.44299316406</ele>
        <time>2010-04-20T13:21:28Z</time>
      </trkpt>
      <trkpt lat="45.11926" lon="5.34832">
        <ele>320.1960144043</ele>
        <time>2010-04-20T13:21:35Z</time>
      </trkpt>
      <trkpt lat="45.11933" lon="5.34849">
        <ele>321.24301147461</ele>
        <time>2010-04-20T13:21:40Z</time>
      </trkpt>
      <trkpt lat="45.11941" lon="5.34874">
        <ele>322.95999145508</ele>
        <time>2010-04-20T13:21:47Z</time>
      </trkpt>
      <trkpt lat="45.11951" lon="5.34915">
        <ele>324.74200439453</ele>
        <time>2010-04-20T13:21:57Z</time>
      </trkpt>
      <trkpt lat="45.11949" lon="5.34936">
        <ele>325.09698486328</ele>
        <time>2010-04-20T13:22:02Z</time>
      </trkpt>
      <trkpt lat="45.11938" lon="5.34957">
        <ele>325.57299804688</ele>
        <time>2010-04-20T13:22:07Z</time>
      </trkpt>
      <trkpt lat="45.11926" lon="5.34978">
        <ele>326.0530090332</ele>
        <time>2010-04-20T13:22:12Z</time>
      </trkpt>
      <trkpt lat="45.1191" lon="5.35016">
        <ele>326.64099121094</ele>
        <time>2010-04-20T13:22:20Z</time>
      </trkpt>
      <trkpt lat="45.11903" lon="5.35031">
        <ele>326.97698974609</ele>
        <time>2010-04-20T13:22:23Z</time>
      </trkpt>
      <trkpt lat="45.11876" lon="5.35072">
        <ele>328.72500610352</ele>
        <time>2010-04-20T13:22:32Z</time>
      </trkpt>
      <trkpt lat="45.11841" lon="5.35125">
        <ele>329.93899536133</ele>
        <time>2010-04-20T13:22:43Z</time>
      </trkpt>
      <trkpt lat="45.11814" lon="5.35165">
        <ele>330.75</ele>
        <time>2010-04-20T13:22:51Z</time>
      </trkpt>
      <trkpt lat="45.11791" lon="5.35201">
        <ele>332.45199584961</ele>
        <time>2010-04-20T13:22:58Z</time>
      </trkpt>
      <trkpt lat="45.11785" lon="5.35212">
        <ele>333.06600952148</ele>
        <time>2010-04-20T13:23:00Z</time>
      </trkpt>
      <trkpt lat="45.11778" lon="5.35231">
        <ele>334.40701293945</ele>
        <time>2010-04-20T13:23:03Z</time>
      </trkpt>
      <trkpt lat="45.11777" lon="5.35253">
        <ele>335.87399291992</ele>
        <time>2010-04-20T13:23:06Z</time>
      </trkpt>
      <trkpt lat="45.11783" lon="5.35287">
        <ele>336.3039855957</ele>
        <time>2010-04-20T13:23:11Z</time>
      </trkpt>
      <trkpt lat="45.1179" lon="5.35311">
        <ele>337.0830078125</ele>
        <time>2010-04-20T13:23:15Z</time>
      </trkpt>
      <trkpt lat="45.11802" lon="5.35353">
        <ele>339.70001220703</ele>
        <time>2010-04-20T13:23:23Z</time>
      </trkpt>
      <trkpt lat="45.11811" lon="5.35391">
        <ele>341.77600097656</ele>
        <time>2010-04-20T13:23:31Z</time>
      </trkpt>
      <trkpt lat="45.11819" lon="5.35422">
        <ele>343.16598510742</ele>
        <time>2010-04-20T13:23:38Z</time>
      </trkpt>
      <trkpt lat="45.11827" lon="5.35462">
        <ele>346.01998901367</ele>
        <time>2010-04-20T13:23:47Z</time>
      </trkpt>
      <trkpt lat="45.1183" lon="5.35495">
        <ele>347.77899169922</ele>
        <time>2010-04-20T13:23:55Z</time>
      </trkpt>
      <trkpt lat="45.11824" lon="5.35517">
        <ele>349.03298950195</ele>
        <time>2010-04-20T13:24:01Z</time>
      </trkpt>
      <trkpt lat="45.11811" lon="5.35529">
        <ele>350.31698608398</ele>
        <time>2010-04-20T13:24:06Z</time>
      </trkpt>
      <trkpt lat="45.11797" lon="5.35527">
        <ele>351.8330078125</ele>
        <time>2010-04-20T13:24:11Z</time>
      </trkpt>
      <trkpt lat="45.11781" lon="5.35508">
        <ele>353.52301025391</ele>
        <time>2010-04-20T13:24:19Z</time>
      </trkpt>
      <trkpt lat="45.11765" lon="5.35486">
        <ele>355.39498901367</ele>
        <time>2010-04-20T13:24:27Z</time>
      </trkpt>
      <trkpt lat="45.11755" lon="5.3547">
        <ele>356.56399536133</ele>
        <time>2010-04-20T13:24:32Z</time>
      </trkpt>
      <trkpt lat="45.11744" lon="5.35455">
        <ele>357.80999755859</ele>
        <time>2010-04-20T13:24:37Z</time>
      </trkpt>
      <trkpt lat="45.1173" lon="5.35433">
        <ele>359.94400024414</ele>
        <time>2010-04-20T13:24:45Z</time>
      </trkpt>
      <trkpt lat="45.11718" lon="5.35421">
        <ele>361.83401489258</ele>
        <time>2010-04-20T13:24:51Z</time>
      </trkpt>
      <trkpt lat="45.11706" lon="5.35417">
        <ele>362.78298950195</ele>
        <time>2010-04-20T13:24:56Z</time>
      </trkpt>
      <trkpt lat="45.11694" lon="5.35415">
        <ele>364.34698486328</ele>
        <time>2010-04-20T13:25:02Z</time>
      </trkpt>
      <trkpt lat="45.11678" lon="5.35411">
        <ele>366.37298583984</ele>
        <time>2010-04-20T13:25:09Z</time>
      </trkpt>
      <trkpt lat="45.11666" lon="5.35403">
        <ele>367.67599487305</ele>
        <time>2010-04-20T13:25:15Z</time>
      </trkpt>
      <trkpt lat="45.11656" lon="5.35389">
        <ele>368.89999389648</ele>
        <time>2010-04-20T13:25:21Z</time>
      </trkpt>
      <trkpt lat="45.11649" lon="5.35368">
        <ele>370.38400268555</ele>
        <time>2010-04-20T13:25:27Z</time>
      </trkpt>
      <trkpt lat="45.11642" lon="5.35353">
        <ele>371.36898803711</ele>
        <time>2010-04-20T13:25:32Z</time>
      </trkpt>
      <trkpt lat="45.11631" lon="5.35334">
        <ele>373.15200805664</ele>
        <time>2010-04-20T13:25:39Z</time>
      </trkpt>
      <trkpt lat="45.11618" lon="5.35318">
        <ele>374.56399536133</ele>
        <time>2010-04-20T13:25:46Z</time>
      </trkpt>
      <trkpt lat="45.11608" lon="5.35303">
        <ele>376.35598754883</ele>
        <time>2010-04-20T13:25:52Z</time>
      </trkpt>
      <trkpt lat="45.11594" lon="5.35288">
        <ele>377.80200195312</ele>
        <time>2010-04-20T13:25:59Z</time>
      </trkpt>
      <trkpt lat="45.1158" lon="5.3528">
        <ele>379.03100585938</ele>
        <time>2010-04-20T13:26:05Z</time>
      </trkpt>
      <trkpt lat="45.11564" lon="5.35278">
        <ele>380.78399658203</ele>
        <time>2010-04-20T13:26:11Z</time>
      </trkpt>
      <trkpt lat="45.11541" lon="5.35286">
        <ele>382.9169921875</ele>
        <time>2010-04-20T13:26:19Z</time>
      </trkpt>
      <trkpt lat="45.11523" lon="5.35295">
        <ele>384.76400756836</ele>
        <time>2010-04-20T13:26:26Z</time>
      </trkpt>
      <trkpt lat="45.11507" lon="5.35304">
        <ele>386.72198486328</ele>
        <time>2010-04-20T13:26:33Z</time>
      </trkpt>
      <trkpt lat="45.11492" lon="5.35311">
        <ele>388.28100585938</ele>
        <time>2010-04-20T13:26:39Z</time>
      </trkpt>
      <trkpt lat="45.11476" lon="5.35319">
        <ele>390.23199462891</ele>
        <time>2010-04-20T13:26:46Z</time>
      </trkpt>
      <trkpt lat="45.11465" lon="5.35325">
        <ele>391.9280090332</ele>
        <time>2010-04-20T13:26:51Z</time>
      </trkpt>
      <trkpt lat="45.11448" lon="5.3533">
        <ele>393.38598632812</ele>
        <time>2010-04-20T13:26:58Z</time>
      </trkpt>
      <trkpt lat="45.11433" lon="5.35334">
        <ele>394.98400878906</ele>
        <time>2010-04-20T13:27:04Z</time>
      </trkpt>
      <trkpt lat="45.11417" lon="5.35341">
        <ele>396.75299072266</ele>
        <time>2010-04-20T13:27:11Z</time>
      </trkpt>
      <trkpt lat="45.11402" lon="5.35353">
        <ele>398.45001220703</ele>
        <time>2010-04-20T13:27:18Z</time>
      </trkpt>
      <trkpt lat="45.11389" lon="5.35372">
        <ele>400.47698974609</ele>
        <time>2010-04-20T13:27:26Z</time>
      </trkpt>
      <trkpt lat="45.11378" lon="5.35393">
        <ele>402.06100463867</ele>
        <time>2010-04-20T13:27:33Z</time>
      </trkpt>
      <trkpt lat="45.11367" lon="5.35418">
        <ele>403.9469909668</ele>
        <time>2010-04-20T13:27:40Z</time>
      </trkpt>
      <trkpt lat="45.11363" lon="5.35447">
        <ele>405.79299926758</ele>
        <time>2010-04-20T13:27:47Z</time>
      </trkpt>
      <trkpt lat="45.11367" lon="5.35473">
        <ele>407.40899658203</ele>
        <time>2010-04-20T13:27:53Z</time>
      </trkpt>
      <trkpt lat="45.11374" lon="5.35512">
        <ele>410.40399169922</ele>
        <time>2010-04-20T13:28:02Z</time>
      </trkpt>
      <trkpt lat="45.11377" lon="5.35539">
        <ele>412.44100952148</ele>
        <time>2010-04-20T13:28:09Z</time>
      </trkpt>
      <trkpt lat="45.11377" lon="5.35565">
        <ele>414.45599365234</ele>
        <time>2010-04-20T13:28:16Z</time>
      </trkpt>
      <trkpt lat="45.11373" lon="5.3559">
        <ele>416.05200195312</ele>
        <time>2010-04-20T13:28:23Z</time>
      </trkpt>
      <trkpt lat="45.11372" lon="5.35605">
        <ele>417.43399047852</ele>
        <time>2010-04-20T13:28:28Z</time>
      </trkpt>
      <trkpt lat="45.11372" lon="5.35608">
        <ele>417.69900512695</ele>
        <time>2010-04-20T13:28:29Z</time>
      </trkpt>
      <trkpt lat="45.11369" lon="5.35621">
        <ele>418.34899902344</ele>
        <time>2010-04-20T13:28:33Z</time>
      </trkpt>
      <trkpt lat="45.11364" lon="5.35637">
        <ele>419.73098754883</ele>
        <time>2010-04-20T13:28:38Z</time>
      </trkpt>
      <trkpt lat="45.11354" lon="5.35657">
        <ele>421.10501098633</ele>
        <time>2010-04-20T13:28:44Z</time>
      </trkpt>
      <trkpt lat="45.11341" lon="5.35675">
        <ele>422.77499389648</ele>
        <time>2010-04-20T13:28:50Z</time>
      </trkpt>
      <trkpt lat="45.11333" lon="5.35691">
        <ele>424.02200317383</ele>
        <time>2010-04-20T13:28:55Z</time>
      </trkpt>
      <trkpt lat="45.11324" lon="5.35711">
        <ele>425.72399902344</ele>
        <time>2010-04-20T13:29:01Z</time>
      </trkpt>
      <trkpt lat="45.1131" lon="5.35722">
        <ele>427.12899780273</ele>
        <time>2010-04-20T13:29:06Z</time>
      </trkpt>
      <trkpt lat="45.11302" lon="5.35708">
        <ele>428.1669921875</ele>
        <time>2010-04-20T13:29:11Z</time>
      </trkpt>
      <trkpt lat="45.11303" lon="5.35696">
        <ele>429.31600952148</ele>
        <time>2010-04-20T13:29:14Z</time>
      </trkpt>
      <trkpt lat="45.11307" lon="5.35663">
        <ele>430.99899291992</ele>
        <time>2010-04-20T13:29:22Z</time>
      </trkpt>
      <trkpt lat="45.11301" lon="5.35647">
        <ele>431.90100097656</ele>
        <time>2010-04-20T13:29:26Z</time>
      </trkpt>
      <trkpt lat="45.11287" lon="5.35637">
        <ele>433.45901489258</ele>
        <time>2010-04-20T13:29:31Z</time>
      </trkpt>
      <trkpt lat="45.11266" lon="5.35639">
        <ele>435.43899536133</ele>
        <time>2010-04-20T13:29:37Z</time>
      </trkpt>
      <trkpt lat="45.11249" lon="5.35654">
        <ele>437.22100830078</ele>
        <time>2010-04-20T13:29:43Z</time>
      </trkpt>
      <trkpt lat="45.11239" lon="5.35672">
        <ele>438.99398803711</ele>
        <time>2010-04-20T13:29:48Z</time>
      </trkpt>
      <trkpt lat="45.11221" lon="5.35698">
        <ele>441.28201293945</ele>
        <time>2010-04-20T13:29:56Z</time>
      </trkpt>
      <trkpt lat="45.11208" lon="5.35717">
        <ele>443.0710144043</ele>
        <time>2010-04-20T13:30:03Z</time>
      </trkpt>
      <trkpt lat="45.11197" lon="5.35732">
        <ele>444.7380065918</ele>
        <time>2010-04-20T13:30:09Z</time>
      </trkpt>
      <trkpt lat="45.1119" lon="5.35744">
        <ele>445.66500854492</ele>
        <time>2010-04-20T13:30:14Z</time>
      </trkpt>
      <trkpt lat="45.11183" lon="5.35762">
        <ele>447.55499267578</ele>
        <time>2010-04-20T13:30:22Z</time>
      </trkpt>
      <trkpt lat="45.11171" lon="5.35765">
        <ele>448.95098876953</ele>
        <time>2010-04-20T13:30:28Z</time>
      </trkpt>
      <trkpt lat="45.11162" lon="5.35755">
        <ele>449.64401245117</ele>
        <time>2010-04-20T13:30:33Z</time>
      </trkpt>
      <trkpt lat="45.1115" lon="5.3574">
        <ele>451.39001464844</ele>
        <time>2010-04-20T13:30:39Z</time>
      </trkpt>
      <trkpt lat="45.11132" lon="5.35735">
        <ele>452.60501098633</ele>
        <time>2010-04-20T13:30:45Z</time>
      </trkpt>
      <trkpt lat="45.11113" lon="5.35745">
        <ele>454.68200683594</ele>
        <time>2010-04-20T13:30:52Z</time>
      </trkpt>
      <trkpt lat="45.11101" lon="5.35763">
        <ele>456.3210144043</ele>
        <time>2010-04-20T13:30:58Z</time>
      </trkpt>
      <trkpt lat="45.11083" lon="5.35777">
        <ele>458.19100952148</ele>
        <time>2010-04-20T13:31:05Z</time>
      </trkpt>
      <trkpt lat="45.11065" lon="5.35773">
        <ele>459.95999145508</ele>
        <time>2010-04-20T13:31:11Z</time>
      </trkpt>
      <trkpt lat="45.11045" lon="5.35757">
        <ele>461.60101318359</ele>
        <time>2010-04-20T13:31:18Z</time>
      </trkpt>
      <trkpt lat="45.11027" lon="5.35744">
        <ele>463.75</ele>
        <time>2010-04-20T13:31:25Z</time>
      </trkpt>
      <trkpt lat="45.11014" lon="5.35736">
        <ele>465.41299438477</ele>
        <time>2010-04-20T13:31:30Z</time>
      </trkpt>
      <trkpt lat="45.10997" lon="5.35732">
        <ele>466.83801269531</ele>
        <time>2010-04-20T13:31:36Z</time>
      </trkpt>
      <trkpt lat="45.10977" lon="5.35735">
        <ele>468.62899780273</ele>
        <time>2010-04-20T13:31:43Z</time>
      </trkpt>
      <trkpt lat="45.10957" lon="5.35739">
        <ele>470.44100952148</ele>
        <time>2010-04-20T13:31:50Z</time>
      </trkpt>
      <trkpt lat="45.10938" lon="5.35743">
        <ele>472.39001464844</ele>
        <time>2010-04-20T13:31:57Z</time>
      </trkpt>
      <trkpt lat="45.10918" lon="5.35747">
        <ele>474.04998779297</ele>
        <time>2010-04-20T13:32:04Z</time>
      </trkpt>
      <trkpt lat="45.10891" lon="5.35751">
        <ele>476.81900024414</ele>
        <time>2010-04-20T13:32:13Z</time>
      </trkpt>
      <trkpt lat="45.10875" lon="5.35755">
        <ele>478.32998657227</ele>
        <time>2010-04-20T13:32:19Z</time>
      </trkpt>
      <trkpt lat="45.10875" lon="5.35765">
        <ele>479.0119934082</ele>
        <time>2010-04-20T13:32:23Z</time>
      </trkpt>
      <trkpt lat="45.10889" lon="5.35761">
        <ele>479.62701416016</ele>
        <time>2010-04-20T13:32:28Z</time>
      </trkpt>
      <trkpt lat="45.10892" lon="5.35761">
        <ele>480.11999511719</ele>
        <time>2010-04-20T13:32:29Z</time>
      </trkpt>
      <trkpt lat="45.10914" lon="5.35762">
        <ele>481.39801025391</ele>
        <time>2010-04-20T13:32:36Z</time>
      </trkpt>
      <trkpt lat="45.10932" lon="5.35767">
        <ele>483.5830078125</ele>
        <time>2010-04-20T13:32:42Z</time>
      </trkpt>
      <trkpt lat="45.10954" lon="5.35774">
        <ele>485.00900268555</ele>
        <time>2010-04-20T13:32:50Z</time>
      </trkpt>
      <trkpt lat="45.10957" lon="5.35775">
        <ele>485.84698486328</ele>
        <time>2010-04-20T13:32:52Z</time>
      </trkpt>
      <trkpt lat="45.10966" lon="5.35773">
        <ele>487.36199951172</ele>
        <time>2010-04-20T13:32:57Z</time>
      </trkpt>
      <trkpt lat="45.10968" lon="5.35773">
        <ele>487.64599609375</ele>
        <time>2010-04-20T13:32:58Z</time>
      </trkpt>
      <trkpt lat="45.10978" lon="5.35777">
        <ele>488.48498535156</ele>
        <time>2010-04-20T13:33:03Z</time>
      </trkpt>
      <trkpt lat="45.10987" lon="5.35788">
        <ele>489.66799926758</ele>
        <time>2010-04-20T13:33:08Z</time>
      </trkpt>
      <trkpt lat="45.11002" lon="5.35808">
        <ele>490.57400512695</ele>
        <time>2010-04-20T13:33:15Z</time>
      </trkpt>
      <trkpt lat="45.11016" lon="5.35827">
        <ele>490.86599731445</ele>
        <time>2010-04-20T13:33:21Z</time>
      </trkpt>
      <trkpt lat="45.11026" lon="5.35841">
        <ele>492.05700683594</ele>
        <time>2010-04-20T13:33:26Z</time>
      </trkpt>
      <trkpt lat="45.11032" lon="5.35853">
        <ele>492.91198730469</ele>
        <time>2010-04-20T13:33:30Z</time>
      </trkpt>
      <trkpt lat="45.11052" lon="5.35881">
        <ele>493.65701293945</ele>
        <time>2010-04-20T13:33:39Z</time>
      </trkpt>
      <trkpt lat="45.11073" lon="5.35889">
        <ele>493.86898803711</ele>
        <time>2010-04-20T13:33:45Z</time>
      </trkpt>
      <trkpt lat="45.11089" lon="5.35893">
        <ele>493.89099121094</ele>
        <time>2010-04-20T13:33:49Z</time>
      </trkpt>
      <trkpt lat="45.11111" lon="5.35903">
        <ele>495.57000732422</ele>
        <time>2010-04-20T13:33:55Z</time>
      </trkpt>
      <trkpt lat="45.11118" lon="5.35907">
        <ele>495.66400146484</ele>
        <time>2010-04-20T13:33:57Z</time>
      </trkpt>
      <trkpt lat="45.11132" lon="5.3592">
        <ele>495.81298828125</ele>
        <time>2010-04-20T13:34:01Z</time>
      </trkpt>
      <trkpt lat="45.11138" lon="5.35928">
        <ele>496.08401489258</ele>
        <time>2010-04-20T13:34:03Z</time>
      </trkpt>
      <trkpt lat="45.11154" lon="5.35966">
        <ele>496.1369934082</ele>
        <time>2010-04-20T13:34:11Z</time>
      </trkpt>
      <trkpt lat="45.11169" lon="5.35986">
        <ele>495.20999145508</ele>
        <time>2010-04-20T13:34:16Z</time>
      </trkpt>
      <trkpt lat="45.11191" lon="5.36001">
        <ele>493.39300537109</ele>
        <time>2010-04-20T13:34:21Z</time>
      </trkpt>
      <trkpt lat="45.11205" lon="5.3601">
        <ele>492.23699951172</ele>
        <time>2010-04-20T13:34:24Z</time>
      </trkpt>
      <trkpt lat="45.11236" lon="5.36018">
        <ele>489.88900756836</ele>
        <time>2010-04-20T13:34:29Z</time>
      </trkpt>
      <trkpt lat="45.1126" lon="5.36023">
        <ele>488.69299316406</ele>
        <time>2010-04-20T13:34:33Z</time>
      </trkpt>
      <trkpt lat="45.11269" lon="5.36024">
        <ele>488.74499511719</ele>
        <time>2010-04-20T13:34:35Z</time>
      </trkpt>
      <trkpt lat="45.11283" lon="5.36024">
        <ele>488.06900024414</ele>
        <time>2010-04-20T13:34:40Z</time>
      </trkpt>
      <trkpt lat="45.11299" lon="5.36026">
        <ele>486.64999389648</ele>
        <time>2010-04-20T13:34:45Z</time>
      </trkpt>
      <trkpt lat="45.11303" lon="5.36026">
        <ele>486.00900268555</ele>
        <time>2010-04-20T13:34:46Z</time>
      </trkpt>
      <trkpt lat="45.11329" lon="5.3602">
        <ele>484.54098510742</ele>
        <time>2010-04-20T13:34:51Z</time>
      </trkpt>
      <trkpt lat="45.11346" lon="5.36011">
        <ele>483.58099365234</ele>
        <time>2010-04-20T13:34:54Z</time>
      </trkpt>
      <trkpt lat="45.11372" lon="5.35986">
        <ele>482.33999633789</ele>
        <time>2010-04-20T13:34:59Z</time>
      </trkpt>
      <trkpt lat="45.1139" lon="5.35956">
        <ele>480.27700805664</ele>
        <time>2010-04-20T13:35:03Z</time>
      </trkpt>
      <trkpt lat="45.11398" lon="5.35942">
        <ele>479.52600097656</ele>
        <time>2010-04-20T13:35:05Z</time>
      </trkpt>
      <trkpt lat="45.11399" lon="5.35913">
        <ele>477.9280090332</ele>
        <time>2010-04-20T13:35:09Z</time>
      </trkpt>
      <trkpt lat="45.11395" lon="5.35905">
        <ele>477.0719909668</ele>
        <time>2010-04-20T13:35:10Z</time>
      </trkpt>
      <trkpt lat="45.11375" lon="5.35872">
        <ele>474.35800170898</ele>
        <time>2010-04-20T13:35:16Z</time>
      </trkpt>
      <trkpt lat="45.11362" lon="5.35863">
        <ele>473.38198852539</ele>
        <time>2010-04-20T13:35:21Z</time>
      </trkpt>
      <trkpt lat="45.11361" lon="5.35862">
        <ele>473.3450012207</ele>
        <time>2010-04-20T13:35:22Z</time>
      </trkpt>
      <trkpt lat="45.11359" lon="5.35858">
        <ele>473.18701171875</ele>
        <time>2010-04-20T13:35:26Z</time>
      </trkpt>
      <trkpt lat="45.11359" lon="5.35859">
        <ele>473.17001342773</ele>
        <time>2010-04-20T13:35:34Z</time>
      </trkpt>
      <trkpt lat="45.11366" lon="5.35864">
        <ele>473.3450012207</ele>
        <time>2010-04-20T13:35:39Z</time>
      </trkpt>
      <trkpt lat="45.11377" lon="5.35877">
        <ele>474.4469909668</ele>
        <time>2010-04-20T13:35:45Z</time>
      </trkpt>
      <trkpt lat="45.1139" lon="5.35899">
        <ele>476.55899047852</ele>
        <time>2010-04-20T13:35:52Z</time>
      </trkpt>
      <trkpt lat="45.11398" lon="5.3592">
        <ele>478.30899047852</ele>
        <time>2010-04-20T13:35:58Z</time>
      </trkpt>
      <trkpt lat="45.11398" lon="5.35937">
        <ele>479.62799072266</ele>
        <time>2010-04-20T13:36:03Z</time>
      </trkpt>
      <trkpt lat="45.1139" lon="5.35952">
        <ele>480.81900024414</ele>
        <time>2010-04-20T13:36:08Z</time>
      </trkpt>
      <trkpt lat="45.11378" lon="5.35973">
        <ele>482.77600097656</ele>
        <time>2010-04-20T13:36:15Z</time>
      </trkpt>
      <trkpt lat="45.11364" lon="5.35991">
        <ele>483.71899414062</ele>
        <time>2010-04-20T13:36:21Z</time>
      </trkpt>
      <trkpt lat="45.11338" lon="5.36013">
        <ele>484.50900268555</ele>
        <time>2010-04-20T13:36:29Z</time>
      </trkpt>
      <trkpt lat="45.11312" lon="5.36023">
        <ele>485.48098754883</ele>
        <time>2010-04-20T13:36:36Z</time>
      </trkpt>
      <trkpt lat="45.11288" lon="5.36021">
        <ele>487.74301147461</ele>
        <time>2010-04-20T13:36:44Z</time>
      </trkpt>
      <trkpt lat="45.11272" lon="5.3602">
        <ele>488.74600219727</ele>
        <time>2010-04-20T13:36:50Z</time>
      </trkpt>
      <trkpt lat="45.11256" lon="5.36018">
        <ele>489.52600097656</ele>
        <time>2010-04-20T13:36:55Z</time>
      </trkpt>
      <trkpt lat="45.11225" lon="5.36011">
        <ele>490.77200317383</ele>
        <time>2010-04-20T13:37:04Z</time>
      </trkpt>
      <trkpt lat="45.11206" lon="5.36007">
        <ele>492.26998901367</ele>
        <time>2010-04-20T13:37:10Z</time>
      </trkpt>
      <trkpt lat="45.11193" lon="5.35999">
        <ele>493.57998657227</ele>
        <time>2010-04-20T13:37:15Z</time>
      </trkpt>
      <trkpt lat="45.11179" lon="5.3599">
        <ele>495.07800292969</ele>
        <time>2010-04-20T13:37:21Z</time>
      </trkpt>
      <trkpt lat="45.11168" lon="5.35983">
        <ele>496.06698608398</ele>
        <time>2010-04-20T13:37:25Z</time>
      </trkpt>
      <trkpt lat="45.11153" lon="5.35959">
        <ele>497.08099365234</ele>
        <time>2010-04-20T13:37:32Z</time>
      </trkpt>
      <trkpt lat="45.11135" lon="5.35921">
        <ele>496.56201171875</ele>
        <time>2010-04-20T13:37:40Z</time>
      </trkpt>
      <trkpt lat="45.11119" lon="5.35903">
        <ele>495.78100585938</ele>
        <time>2010-04-20T13:37:44Z</time>
      </trkpt>
      <trkpt lat="45.11082" lon="5.35886">
        <ele>494.40600585938</ele>
        <time>2010-04-20T13:37:51Z</time>
      </trkpt>
      <trkpt lat="45.11058" lon="5.35879">
        <ele>493.77301025391</ele>
        <time>2010-04-20T13:37:55Z</time>
      </trkpt>
      <trkpt lat="45.11038" lon="5.35859">
        <ele>492.83200073242</ele>
        <time>2010-04-20T13:37:59Z</time>
      </trkpt>
      <trkpt lat="45.11021" lon="5.35828">
        <ele>491.39700317383</ele>
        <time>2010-04-20T13:38:03Z</time>
      </trkpt>
      <trkpt lat="45.1101" lon="5.35812">
        <ele>490.68399047852</ele>
        <time>2010-04-20T13:38:05Z</time>
      </trkpt>
      <trkpt lat="45.10981" lon="5.35776">
        <ele>489.6969909668</ele>
        <time>2010-04-20T13:38:10Z</time>
      </trkpt>
      <trkpt lat="45.10951" lon="5.35768">
        <ele>486.01501464844</ele>
        <time>2010-04-20T13:38:14Z</time>
      </trkpt>
      <trkpt lat="45.10941" lon="5.35766">
        <ele>484.53799438477</ele>
        <time>2010-04-20T13:38:15Z</time>
      </trkpt>
      <trkpt lat="45.10889" lon="5.35756">
        <ele>479.91900634766</ele>
        <time>2010-04-20T13:38:20Z</time>
      </trkpt>
      <trkpt lat="45.10872" lon="5.35759">
        <ele>479.18499755859</ele>
        <time>2010-04-20T13:38:22Z</time>
      </trkpt>
      <trkpt lat="45.10836" lon="5.35774">
        <ele>482.35800170898</ele>
        <time>2010-04-20T13:38:27Z</time>
      </trkpt>
      <trkpt lat="45.1083" lon="5.35781">
        <ele>483.64801025391</ele>
        <time>2010-04-20T13:38:29Z</time>
      </trkpt>
      <trkpt lat="45.10818" lon="5.35796">
        <ele>485.17300415039</ele>
        <time>2010-04-20T13:38:33Z</time>
      </trkpt>
      <trkpt lat="45.1081" lon="5.3581">
        <ele>486.00201416016</ele>
        <time>2010-04-20T13:38:36Z</time>
      </trkpt>
      <trkpt lat="45.10807" lon="5.35815">
        <ele>486.37899780273</ele>
        <time>2010-04-20T13:38:37Z</time>
      </trkpt>
      <trkpt lat="45.10801" lon="5.35836">
        <ele>488.29598999023</ele>
        <time>2010-04-20T13:38:41Z</time>
      </trkpt>
      <trkpt lat="45.10801" lon="5.35841">
        <ele>488.58499145508</ele>
        <time>2010-04-20T13:38:42Z</time>
      </trkpt>
      <trkpt lat="45.10796" lon="5.35873">
        <ele>490.41000366211</ele>
        <time>2010-04-20T13:38:48Z</time>
      </trkpt>
      <trkpt lat="45.10788" lon="5.35903">
        <ele>492.41400146484</ele>
        <time>2010-04-20T13:38:55Z</time>
      </trkpt>
      <trkpt lat="45.10779" lon="5.35924">
        <ele>494.2080078125</ele>
        <time>2010-04-20T13:39:02Z</time>
      </trkpt>
      <trkpt lat="45.10773" lon="5.35937">
        <ele>495.59298706055</ele>
        <time>2010-04-20T13:39:07Z</time>
      </trkpt>
      <trkpt lat="45.1076" lon="5.35944">
        <ele>496.33200073242</ele>
        <time>2010-04-20T13:39:12Z</time>
      </trkpt>
      <trkpt lat="45.10741" lon="5.35944">
        <ele>497.87899780273</ele>
        <time>2010-04-20T13:39:19Z</time>
      </trkpt>
      <trkpt lat="45.10736" lon="5.35944">
        <ele>498.65701293945</ele>
        <time>2010-04-20T13:39:21Z</time>
      </trkpt>
      <trkpt lat="45.10726" lon="5.35944">
        <ele>499.98199462891</ele>
        <time>2010-04-20T13:39:25Z</time>
      </trkpt>
      <trkpt lat="45.10714" lon="5.3595">
        <ele>501.25201416016</ele>
        <time>2010-04-20T13:39:31Z</time>
      </trkpt>
      <trkpt lat="45.107" lon="5.35957">
        <ele>503.95001220703</ele>
        <time>2010-04-20T13:39:38Z</time>
      </trkpt>
      <trkpt lat="45.1069" lon="5.35967">
        <ele>505.81500244141</ele>
        <time>2010-04-20T13:39:44Z</time>
      </trkpt>
      <trkpt lat="45.10683" lon="5.3598">
        <ele>507.66799926758</ele>
        <time>2010-04-20T13:39:50Z</time>
      </trkpt>
      <trkpt lat="45.10675" lon="5.3599">
        <ele>509.38500976562</ele>
        <time>2010-04-20T13:39:56Z</time>
      </trkpt>
      <trkpt lat="45.10669" lon="5.36">
        <ele>510.56900024414</ele>
        <time>2010-04-20T13:40:01Z</time>
      </trkpt>
      <trkpt lat="45.1067" lon="5.36014">
        <ele>511.62899780273</ele>
        <time>2010-04-20T13:40:07Z</time>
      </trkpt>
      <trkpt lat="45.10681" lon="5.36033">
        <ele>514.60400390625</ele>
        <time>2010-04-20T13:40:17Z</time>
      </trkpt>
      <trkpt lat="45.10689" lon="5.36046">
        <ele>516.61297607422</ele>
        <time>2010-04-20T13:40:24Z</time>
      </trkpt>
      <trkpt lat="45.10693" lon="5.36056">
        <ele>518.29699707031</ele>
        <time>2010-04-20T13:40:30Z</time>
      </trkpt>
      <trkpt lat="45.10701" lon="5.36074">
        <ele>521.09399414062</ele>
        <time>2010-04-20T13:40:39Z</time>
      </trkpt>
      <trkpt lat="45.10707" lon="5.36088">
        <ele>523.26202392578</ele>
        <time>2010-04-20T13:40:46Z</time>
      </trkpt>
      <trkpt lat="45.10712" lon="5.36102">
        <ele>525.60900878906</ele>
        <time>2010-04-20T13:40:53Z</time>
      </trkpt>
      <trkpt lat="45.10717" lon="5.36118">
        <ele>525.67797851562</ele>
        <time>2010-04-20T13:41:00Z</time>
      </trkpt>
      <trkpt lat="45.10721" lon="5.3613">
        <ele>529.42700195312</ele>
        <time>2010-04-20T13:41:06Z</time>
      </trkpt>
      <trkpt lat="45.10723" lon="5.36136">
        <ele>530.12200927734</ele>
        <time>2010-04-20T13:41:09Z</time>
      </trkpt>
      <trkpt lat="45.10725" lon="5.36144">
        <ele>531.14202880859</ele>
        <time>2010-04-20T13:41:13Z</time>
      </trkpt>
      <trkpt lat="45.10729" lon="5.36162">
        <ele>533.25500488281</ele>
        <time>2010-04-20T13:41:21Z</time>
      </trkpt>
      <trkpt lat="45.1073" lon="5.36178">
        <ele>534.18798828125</ele>
        <time>2010-04-20T13:41:28Z</time>
      </trkpt>
      <trkpt lat="45.10732" lon="5.36194">
        <ele>536.60900878906</ele>
        <time>2010-04-20T13:41:35Z</time>
      </trkpt>
      <trkpt lat="45.10733" lon="5.36196">
        <ele>536.33502197266</ele>
        <time>2010-04-20T13:41:36Z</time>
      </trkpt>
      <trkpt lat="45.10734" lon="5.36215">
        <ele>539.24597167969</ele>
        <time>2010-04-20T13:41:44Z</time>
      </trkpt>
      <trkpt lat="45.10736" lon="5.36234">
        <ele>541.30700683594</ele>
        <time>2010-04-20T13:41:52Z</time>
      </trkpt>
      <trkpt lat="45.10738" lon="5.36255">
        <ele>543.47698974609</ele>
        <time>2010-04-20T13:42:01Z</time>
      </trkpt>
      <trkpt lat="45.10738" lon="5.36271">
        <ele>545.80603027344</ele>
        <time>2010-04-20T13:42:08Z</time>
      </trkpt>
      <trkpt lat="45.10737" lon="5.36284">
        <ele>547.33599853516</ele>
        <time>2010-04-20T13:42:14Z</time>
      </trkpt>
      <trkpt lat="45.10733" lon="5.36304">
        <ele>549.32397460938</ele>
        <time>2010-04-20T13:42:22Z</time>
      </trkpt>
      <trkpt lat="45.10728" lon="5.36315">
        <ele>550.375</ele>
        <time>2010-04-20T13:42:29Z</time>
      </trkpt>
      <trkpt lat="45.10725" lon="5.36321">
        <ele>550.875</ele>
        <time>2010-04-20T13:42:32Z</time>
      </trkpt>
      <trkpt lat="45.10727" lon="5.36325">
        <ele>551.45397949219</ele>
        <time>2010-04-20T13:42:37Z</time>
      </trkpt>
      <trkpt lat="45.10725" lon="5.36325">
        <ele>551.39898681641</ele>
        <time>2010-04-20T13:43:02Z</time>
      </trkpt>
      <trkpt lat="45.10725" lon="5.36317">
        <ele>550.70397949219</ele>
        <time>2010-04-20T13:43:07Z</time>
      </trkpt>
      <trkpt lat="45.10725" lon="5.36315">
        <ele>550.7509765625</ele>
        <time>2010-04-20T13:43:10Z</time>
      </trkpt>
      <trkpt lat="45.10728" lon="5.36312">
        <ele>550.15002441406</ele>
        <time>2010-04-20T13:43:56Z</time>
      </trkpt>
      <trkpt lat="45.10729" lon="5.3631">
        <ele>549.77502441406</ele>
        <time>2010-04-20T13:43:57Z</time>
      </trkpt>
      <trkpt lat="45.10733" lon="5.36293">
        <ele>547.93103027344</ele>
        <time>2010-04-20T13:44:02Z</time>
      </trkpt>
      <trkpt lat="45.10736" lon="5.3627">
        <ele>545.41900634766</ele>
        <time>2010-04-20T13:44:07Z</time>
      </trkpt>
      <trkpt lat="45.10733" lon="5.36234">
        <ele>541.07202148438</ele>
        <time>2010-04-20T13:44:12Z</time>
      </trkpt>
      <trkpt lat="45.1073" lon="5.362">
        <ele>536.96099853516</ele>
        <time>2010-04-20T13:44:16Z</time>
      </trkpt>
      <trkpt lat="45.10725" lon="5.3615">
        <ele>531.37799072266</ele>
        <time>2010-04-20T13:44:21Z</time>
      </trkpt>
      <trkpt lat="45.10711" lon="5.36101">
        <ele>524.74298095703</ele>
        <time>2010-04-20T13:44:26Z</time>
      </trkpt>
      <trkpt lat="45.10703" lon="5.3608">
        <ele>521.36999511719</ele>
        <time>2010-04-20T13:44:28Z</time>
      </trkpt>
      <trkpt lat="45.10685" lon="5.36042">
        <ele>515.98797607422</ele>
        <time>2010-04-20T13:44:32Z</time>
      </trkpt>
      <trkpt lat="45.10676" lon="5.36029">
        <ele>513.10198974609</ele>
        <time>2010-04-20T13:44:34Z</time>
      </trkpt>
      <trkpt lat="45.10668" lon="5.36016">
        <ele>511.45001220703</ele>
        <time>2010-04-20T13:44:36Z</time>
      </trkpt>
      <trkpt lat="45.10667" lon="5.35998">
        <ele>509.01699829102</ele>
        <time>2010-04-20T13:44:39Z</time>
      </trkpt>
      <trkpt lat="45.10673" lon="5.35988">
        <ele>508.22399902344</ele>
        <time>2010-04-20T13:44:41Z</time>
      </trkpt>
      <trkpt lat="45.10682" lon="5.35979">
        <ele>506.82501220703</ele>
        <time>2010-04-20T13:44:43Z</time>
      </trkpt>
      <trkpt lat="45.10691" lon="5.3597">
        <ele>505.33898925781</ele>
        <time>2010-04-20T13:44:45Z</time>
      </trkpt>
      <trkpt lat="45.10708" lon="5.35962">
        <ele>500.60598754883</ele>
        <time>2010-04-20T13:44:48Z</time>
      </trkpt>
      <trkpt lat="45.10723" lon="5.35955">
        <ele>498.27700805664</ele>
        <time>2010-04-20T13:44:50Z</time>
      </trkpt>
      <trkpt lat="45.10749" lon="5.3595">
        <ele>495.42599487305</ele>
        <time>2010-04-20T13:44:53Z</time>
      </trkpt>
      <trkpt lat="45.10768" lon="5.35933">
        <ele>494.31201171875</ele>
        <time>2010-04-20T13:44:56Z</time>
      </trkpt>
      <trkpt lat="45.10773" lon="5.35924">
        <ele>492.84600830078</ele>
        <time>2010-04-20T13:44:57Z</time>
      </trkpt>
      <trkpt lat="45.10785" lon="5.35905">
        <ele>490.63400268555</ele>
        <time>2010-04-20T13:44:59Z</time>
      </trkpt>
      <trkpt lat="45.10801" lon="5.35838">
        <ele>487.20199584961</ele>
        <time>2010-04-20T13:45:04Z</time>
      </trkpt>
      <trkpt lat="45.10818" lon="5.35798">
        <ele>483.91400146484</ele>
        <time>2010-04-20T13:45:08Z</time>
      </trkpt>
      <trkpt lat="45.10847" lon="5.35769">
        <ele>480.18301391602</ele>
        <time>2010-04-20T13:45:12Z</time>
      </trkpt>
      <trkpt lat="45.10873" lon="5.35755">
        <ele>477.87298583984</ele>
        <time>2010-04-20T13:45:15Z</time>
      </trkpt>
      <trkpt lat="45.10921" lon="5.35744">
        <ele>471.82699584961</ele>
        <time>2010-04-20T13:45:20Z</time>
      </trkpt>
      <trkpt lat="45.1099" lon="5.35731">
        <ele>465.83700561523</ele>
        <time>2010-04-20T13:45:26Z</time>
      </trkpt>
      <trkpt lat="45.11031" lon="5.35745">
        <ele>461.97900390625</ele>
        <time>2010-04-20T13:45:30Z</time>
      </trkpt>
      <trkpt lat="45.11061" lon="5.35768">
        <ele>458.67599487305</ele>
        <time>2010-04-20T13:45:33Z</time>
      </trkpt>
      <trkpt lat="45.1109" lon="5.35773">
        <ele>456.63500976562</ele>
        <time>2010-04-20T13:45:36Z</time>
      </trkpt>
      <trkpt lat="45.11106" lon="5.35755">
        <ele>454.89498901367</ele>
        <time>2010-04-20T13:45:38Z</time>
      </trkpt>
      <trkpt lat="45.11131" lon="5.35736">
        <ele>451.97399902344</ele>
        <time>2010-04-20T13:45:41Z</time>
      </trkpt>
      <trkpt lat="45.11148" lon="5.35741">
        <ele>450.13299560547</ele>
        <time>2010-04-20T13:45:43Z</time>
      </trkpt>
      <trkpt lat="45.11156" lon="5.35749">
        <ele>449.19198608398</ele>
        <time>2010-04-20T13:45:44Z</time>
      </trkpt>
      <trkpt lat="45.11179" lon="5.35767">
        <ele>448.27200317383</ele>
        <time>2010-04-20T13:45:48Z</time>
      </trkpt>
      <trkpt lat="45.11188" lon="5.35748">
        <ele>446.41198730469</ele>
        <time>2010-04-20T13:45:50Z</time>
      </trkpt>
      <trkpt lat="45.11198" lon="5.35729">
        <ele>443.59298706055</ele>
        <time>2010-04-20T13:45:52Z</time>
      </trkpt>
      <trkpt lat="45.11242" lon="5.35667">
        <ele>436.79000854492</ele>
        <time>2010-04-20T13:45:58Z</time>
      </trkpt>
      <trkpt lat="45.11248" lon="5.35655">
        <ele>436.41500854492</ele>
        <time>2010-04-20T13:45:59Z</time>
      </trkpt>
      <trkpt lat="45.11274" lon="5.35632">
        <ele>433.5710144043</ele>
        <time>2010-04-20T13:46:02Z</time>
      </trkpt>
      <trkpt lat="45.11293" lon="5.35638">
        <ele>432.21701049805</ele>
        <time>2010-04-20T13:46:04Z</time>
      </trkpt>
      <trkpt lat="45.11304" lon="5.35657">
        <ele>430.53500366211</ele>
        <time>2010-04-20T13:46:06Z</time>
      </trkpt>
      <trkpt lat="45.11307" lon="5.35689">
        <ele>429.23300170898</ele>
        <time>2010-04-20T13:46:09Z</time>
      </trkpt>
      <trkpt lat="45.11317" lon="5.35725">
        <ele>428.11199951172</ele>
        <time>2010-04-20T13:46:13Z</time>
      </trkpt>
      <trkpt lat="45.11326" lon="5.35713">
        <ele>426.18899536133</ele>
        <time>2010-04-20T13:46:15Z</time>
      </trkpt>
      <trkpt lat="45.11336" lon="5.35697">
        <ele>425.03298950195</ele>
        <time>2010-04-20T13:46:17Z</time>
      </trkpt>
      <trkpt lat="45.11358" lon="5.35655">
        <ele>419.8039855957</ele>
        <time>2010-04-20T13:46:21Z</time>
      </trkpt>
      <trkpt lat="45.11375" lon="5.35594">
        <ele>413.9469909668</ele>
        <time>2010-04-20T13:46:25Z</time>
      </trkpt>
      <trkpt lat="45.11377" lon="5.35543">
        <ele>410.93600463867</ele>
        <time>2010-04-20T13:46:28Z</time>
      </trkpt>
      <trkpt lat="45.11371" lon="5.35488">
        <ele>406.35299682617</ele>
        <time>2010-04-20T13:46:31Z</time>
      </trkpt>
      <trkpt lat="45.11364" lon="5.35453">
        <ele>405.26998901367</ele>
        <time>2010-04-20T13:46:33Z</time>
      </trkpt>
      <trkpt lat="45.11367" lon="5.35409">
        <ele>402.97399902344</ele>
        <time>2010-04-20T13:46:36Z</time>
      </trkpt>
      <trkpt lat="45.11386" lon="5.3537">
        <ele>399.125</ele>
        <time>2010-04-20T13:46:39Z</time>
      </trkpt>
      <trkpt lat="45.11412" lon="5.35341">
        <ele>395.23400878906</ele>
        <time>2010-04-20T13:46:42Z</time>
      </trkpt>
      <trkpt lat="45.11449" lon="5.35332">
        <ele>390.76300048828</ele>
        <time>2010-04-20T13:46:45Z</time>
      </trkpt>
      <trkpt lat="45.11475" lon="5.35324">
        <ele>388.01300048828</ele>
        <time>2010-04-20T13:46:47Z</time>
      </trkpt>
      <trkpt lat="45.11537" lon="5.35291">
        <ele>381.91299438477</ele>
        <time>2010-04-20T13:46:52Z</time>
      </trkpt>
      <trkpt lat="45.11556" lon="5.35283">
        <ele>380.28500366211</ele>
        <time>2010-04-20T13:46:54Z</time>
      </trkpt>
      <trkpt lat="45.11597" lon="5.35293">
        <ele>375.32000732422</ele>
        <time>2010-04-20T13:46:58Z</time>
      </trkpt>
      <trkpt lat="45.11614" lon="5.35313">
        <ele>373.04000854492</ele>
        <time>2010-04-20T13:47:00Z</time>
      </trkpt>
      <trkpt lat="45.1164" lon="5.3535">
        <ele>369.25799560547</ele>
        <time>2010-04-20T13:47:03Z</time>
      </trkpt>
      <trkpt lat="45.11673" lon="5.35419">
        <ele>363.93701171875</ele>
        <time>2010-04-20T13:47:08Z</time>
      </trkpt>
      <trkpt lat="45.11721" lon="5.35431">
        <ele>358.92300415039</ele>
        <time>2010-04-20T13:47:12Z</time>
      </trkpt>
      <trkpt lat="45.1174" lon="5.35451">
        <ele>356.18798828125</ele>
        <time>2010-04-20T13:47:14Z</time>
      </trkpt>
      <trkpt lat="45.11789" lon="5.35523">
        <ele>351.04800415039</ele>
        <time>2010-04-20T13:47:20Z</time>
      </trkpt>
      <trkpt lat="45.11816" lon="5.35528">
        <ele>348.68200683594</ele>
        <time>2010-04-20T13:47:23Z</time>
      </trkpt>
      <trkpt lat="45.11832" lon="5.35503">
        <ele>347.28201293945</ele>
        <time>2010-04-20T13:47:25Z</time>
      </trkpt>
      <trkpt lat="45.11833" lon="5.35472">
        <ele>346.19400024414</ele>
        <time>2010-04-20T13:47:27Z</time>
      </trkpt>
      <trkpt lat="45.11831" lon="5.35456">
        <ele>344.95199584961</ele>
        <time>2010-04-20T13:47:28Z</time>
      </trkpt>
      <trkpt lat="45.11807" lon="5.3536">
        <ele>339.04098510742</ele>
        <time>2010-04-20T13:47:34Z</time>
      </trkpt>
      <trkpt lat="45.11783" lon="5.35277">
        <ele>334.85000610352</ele>
        <time>2010-04-20T13:47:39Z</time>
      </trkpt>
      <trkpt lat="45.11779" lon="5.35228">
        <ele>332.93499755859</ele>
        <time>2010-04-20T13:47:42Z</time>
      </trkpt>
      <trkpt lat="45.1179" lon="5.35198">
        <ele>330.56799316406</ele>
        <time>2010-04-20T13:47:44Z</time>
      </trkpt>
      <trkpt lat="45.11798" lon="5.35186">
        <ele>330.3630065918</ele>
        <time>2010-04-20T13:47:45Z</time>
      </trkpt>
      <trkpt lat="45.11838" lon="5.35127">
        <ele>328.87399291992</ele>
        <time>2010-04-20T13:47:50Z</time>
      </trkpt>
      <trkpt lat="45.11861" lon="5.35093">
        <ele>327.60000610352</ele>
        <time>2010-04-20T13:47:53Z</time>
      </trkpt>
      <trkpt lat="45.11905" lon="5.35028">
        <ele>326.08999633789</ele>
        <time>2010-04-20T13:47:59Z</time>
      </trkpt>
      <trkpt lat="45.11933" lon="5.34968">
        <ele>324.54098510742</ele>
        <time>2010-04-20T13:48:04Z</time>
      </trkpt>
      <trkpt lat="45.11945" lon="5.34947">
        <ele>324.09201049805</ele>
        <time>2010-04-20T13:48:06Z</time>
      </trkpt>
      <trkpt lat="45.11955" lon="5.34898">
        <ele>322.53799438477</ele>
        <time>2010-04-20T13:48:10Z</time>
      </trkpt>
      <trkpt lat="45.11946" lon="5.34871">
        <ele>321.60699462891</ele>
        <time>2010-04-20T13:48:12Z</time>
      </trkpt>
      <trkpt lat="45.11942" lon="5.34858">
        <ele>321.35198974609</ele>
        <time>2010-04-20T13:48:13Z</time>
      </trkpt>
      <trkpt lat="45.11925" lon="5.34818">
        <ele>318.32998657227</ele>
        <time>2010-04-20T13:48:16Z</time>
      </trkpt>
      <trkpt lat="45.11917" lon="5.34778">
        <ele>315.23400878906</ele>
        <time>2010-04-20T13:48:19Z</time>
      </trkpt>
      <trkpt lat="45.11923" lon="5.34733">
        <ele>311.73001098633</ele>
        <time>2010-04-20T13:48:22Z</time>
      </trkpt>
      <trkpt lat="45.11935" lon="5.34697">
        <ele>309.69799804688</ele>
        <time>2010-04-20T13:48:25Z</time>
      </trkpt>
      <trkpt lat="45.11956" lon="5.34664">
        <ele>306.97299194336</ele>
        <time>2010-04-20T13:48:28Z</time>
      </trkpt>
      <trkpt lat="45.11952" lon="5.34618">
        <ele>302.86898803711</ele>
        <time>2010-04-20T13:48:31Z</time>
      </trkpt>
      <trkpt lat="45.11947" lon="5.34587">
        <ele>302.53298950195</ele>
        <time>2010-04-20T13:48:33Z</time>
      </trkpt>
      <trkpt lat="45.11955" lon="5.34541">
        <ele>299.23300170898</ele>
        <time>2010-04-20T13:48:37Z</time>
      </trkpt>
      <trkpt lat="45.11967" lon="5.34517">
        <ele>295.85998535156</ele>
        <time>2010-04-20T13:48:39Z</time>
      </trkpt>
      <trkpt lat="45.11978" lon="5.34467">
        <ele>292.56399536133</ele>
        <time>2010-04-20T13:48:43Z</time>
      </trkpt>
      <trkpt lat="45.11972" lon="5.34454">
        <ele>291.31600952148</ele>
        <time>2010-04-20T13:48:44Z</time>
      </trkpt>
      <trkpt lat="45.11963" lon="5.34431">
        <ele>290.82699584961</ele>
        <time>2010-04-20T13:48:46Z</time>
      </trkpt>
      <trkpt lat="45.11966" lon="5.34398">
        <ele>287.8450012207</ele>
        <time>2010-04-20T13:48:49Z</time>
      </trkpt>
      <trkpt lat="45.11983" lon="5.3437">
        <ele>285.22198486328</ele>
        <time>2010-04-20T13:48:52Z</time>
      </trkpt>
      <trkpt lat="45.12028" lon="5.34311">
        <ele>278.91900634766</ele>
        <time>2010-04-20T13:48:58Z</time>
      </trkpt>
      <trkpt lat="45.12061" lon="5.34268">
        <ele>274.73699951172</ele>
        <time>2010-04-20T13:49:02Z</time>
      </trkpt>
      <trkpt lat="45.1208" lon="5.34227">
        <ele>272.22198486328</ele>
        <time>2010-04-20T13:49:05Z</time>
      </trkpt>
      <trkpt lat="45.1208" lon="5.34177">
        <ele>269.78201293945</ele>
        <time>2010-04-20T13:49:08Z</time>
      </trkpt>
      <trkpt lat="45.12077" lon="5.34161">
        <ele>269.7200012207</ele>
        <time>2010-04-20T13:49:09Z</time>
      </trkpt>
      <trkpt lat="45.12066" lon="5.34112">
        <ele>267.41299438477</ele>
        <time>2010-04-20T13:49:12Z</time>
      </trkpt>
      <trkpt lat="45.12069" lon="5.34044">
        <ele>264.13800048828</ele>
        <time>2010-04-20T13:49:16Z</time>
      </trkpt>
      <trkpt lat="45.1208" lon="5.33939">
        <ele>258.45901489258</ele>
        <time>2010-04-20T13:49:22Z</time>
      </trkpt>
      <trkpt lat="45.12099" lon="5.3386">
        <ele>258.33801269531</ele>
        <time>2010-04-20T13:49:27Z</time>
      </trkpt>
      <trkpt lat="45.12115" lon="5.3379">
        <ele>258.53601074219</ele>
        <time>2010-04-20T13:49:32Z</time>
      </trkpt>
      <trkpt lat="45.12122" lon="5.33765">
        <ele>258.00299072266</ele>
        <time>2010-04-20T13:49:34Z</time>
      </trkpt>
      <trkpt lat="45.12119" lon="5.33728">
        <ele>258.04098510742</ele>
        <time>2010-04-20T13:49:37Z</time>
      </trkpt>
      <trkpt lat="45.12104" lon="5.337">
        <ele>257.67300415039</ele>
        <time>2010-04-20T13:49:40Z</time>
      </trkpt>
      <trkpt lat="45.1211" lon="5.33679">
        <ele>256.3219909668</ele>
        <time>2010-04-20T13:49:42Z</time>
      </trkpt>
      <trkpt lat="45.12119" lon="5.33657">
        <ele>254.24699401856</ele>
        <time>2010-04-20T13:49:44Z</time>
      </trkpt>
      <trkpt lat="45.1212" lon="5.33632">
        <ele>253.12600708008</ele>
        <time>2010-04-20T13:49:46Z</time>
      </trkpt>
      <trkpt lat="45.12109" lon="5.33609">
        <ele>250.93400573731</ele>
        <time>2010-04-20T13:49:48Z</time>
      </trkpt>
      <trkpt lat="45.12101" lon="5.336">
        <ele>249.68600463867</ele>
        <time>2010-04-20T13:49:49Z</time>
      </trkpt>
      <trkpt lat="45.12083" lon="5.33581">
        <ele>247.93899536133</ele>
        <time>2010-04-20T13:49:51Z</time>
      </trkpt>
      <trkpt lat="45.12053" lon="5.33552">
        <ele>244.15199279785</ele>
        <time>2010-04-20T13:49:54Z</time>
      </trkpt>
      <trkpt lat="45.12033" lon="5.33517">
        <ele>243.01499938965</ele>
        <time>2010-04-20T13:49:57Z</time>
      </trkpt>
      <trkpt lat="45.12028" lon="5.33501">
        <ele>243.61700439453</ele>
        <time>2010-04-20T13:49:59Z</time>
      </trkpt>
      <trkpt lat="45.12033" lon="5.33499">
        <ele>243.19799804688</ele>
        <time>2010-04-20T13:50:00Z</time>
      </trkpt>
      <trkpt lat="45.12044" lon="5.33509">
        <ele>241.83799743652</ele>
        <time>2010-04-20T13:50:02Z</time>
      </trkpt>
      <trkpt lat="45.12048" lon="5.33518">
        <ele>241.19099426269</ele>
        <time>2010-04-20T13:50:03Z</time>
      </trkpt>
      <trkpt lat="45.12064" lon="5.33542">
        <ele>239.19200134277</ele>
        <time>2010-04-20T13:50:06Z</time>
      </trkpt>
      <trkpt lat="45.12088" lon="5.33555">
        <ele>236.68200683594</ele>
        <time>2010-04-20T13:50:09Z</time>
      </trkpt>
      <trkpt lat="45.12098" lon="5.33559">
        <ele>235.55499267578</ele>
        <time>2010-04-20T13:50:10Z</time>
      </trkpt>
      <trkpt lat="45.12135" lon="5.33589">
        <ele>231.99600219727</ele>
        <time>2010-04-20T13:50:14Z</time>
      </trkpt>
      <trkpt lat="45.1218" lon="5.33638">
        <ele>227</ele>
        <time>2010-04-20T13:50:19Z</time>
      </trkpt>
      <trkpt lat="45.12189" lon="5.33649">
        <ele>225.7380065918</ele>
        <time>2010-04-20T13:50:20Z</time>
      </trkpt>
      <trkpt lat="45.12214" lon="5.33685">
        <ele>223.59100341797</ele>
        <time>2010-04-20T13:50:23Z</time>
      </trkpt>
      <trkpt lat="45.12257" lon="5.33747">
        <ele>217.75300598144</ele>
        <time>2010-04-20T13:50:28Z</time>
      </trkpt>
      <trkpt lat="45.12276" lon="5.33771">
        <ele>215.82099914551</ele>
        <time>2010-04-20T13:50:30Z</time>
      </trkpt>
      <trkpt lat="45.12316" lon="5.33816">
        <ele>212.16900634766</ele>
        <time>2010-04-20T13:50:34Z</time>
      </trkpt>
      <trkpt lat="45.12352" lon="5.33827">
        <ele>208.71200561523</ele>
        <time>2010-04-20T13:50:37Z</time>
      </trkpt>
      <trkpt lat="45.12365" lon="5.3382">
        <ele>208.47300720215</ele>
        <time>2010-04-20T13:50:38Z</time>
      </trkpt>
      <trkpt lat="45.12389" lon="5.338">
        <ele>207.52699279785</ele>
        <time>2010-04-20T13:50:40Z</time>
      </trkpt>
      <trkpt lat="45.12407" lon="5.33772">
        <ele>205.84100341797</ele>
        <time>2010-04-20T13:50:42Z</time>
      </trkpt>
      <trkpt lat="45.12419" lon="5.33739">
        <ele>203.60299682617</ele>
        <time>2010-04-20T13:50:44Z</time>
      </trkpt>
      <trkpt lat="45.12434" lon="5.33712">
        <ele>202.50999450684</ele>
        <time>2010-04-20T13:50:46Z</time>
      </trkpt>
      <trkpt lat="45.12453" lon="5.337">
        <ele>201.94099426269</ele>
        <time>2010-04-20T13:50:48Z</time>
      </trkpt>
      <trkpt lat="45.12479" lon="5.33693">
        <ele>201.42700195312</ele>
        <time>2010-04-20T13:50:53Z</time>
      </trkpt>
      <trkpt lat="45.12483" lon="5.33706">
        <ele>201.5</ele>
        <time>2010-04-20T13:50:55Z</time>
      </trkpt>
      <trkpt lat="45.12488" lon="5.33746">
        <ele>201.37899780273</ele>
        <time>2010-04-20T13:51:00Z</time>
      </trkpt>
      <trkpt lat="45.12493" lon="5.33783">
        <ele>201.23699951172</ele>
        <time>2010-04-20T13:51:04Z</time>
      </trkpt>
      <trkpt lat="45.12495" lon="5.33802">
        <ele>201.53399658203</ele>
        <time>2010-04-20T13:51:06Z</time>
      </trkpt>
      <trkpt lat="45.12506" lon="5.33885">
        <ele>201.98599243164</ele>
        <time>2010-04-20T13:51:15Z</time>
      </trkpt>
      <trkpt lat="45.12508" lon="5.33894">
        <ele>201.99200439453</ele>
        <time>2010-04-20T13:51:16Z</time>
      </trkpt>
      <trkpt lat="45.12505" lon="5.33918">
        <ele>202.26499938965</ele>
        <time>2010-04-20T13:51:19Z</time>
      </trkpt>
      <trkpt lat="45.1249" lon="5.33922">
        <ele>204.98500061035</ele>
        <time>2010-04-20T13:51:22Z</time>
      </trkpt>
      <trkpt lat="45.12482" lon="5.3392">
        <ele>205.60600280762</ele>
        <time>2010-04-20T13:51:24Z</time>
      </trkpt>
      <trkpt lat="45.12461" lon="5.33913">
        <ele>207.51400756836</ele>
        <time>2010-04-20T13:51:30Z</time>
      </trkpt>
      <trkpt lat="45.12444" lon="5.33915">
        <ele>208.25700378418</ele>
        <time>2010-04-20T13:51:35Z</time>
      </trkpt>
      <trkpt lat="45.12425" lon="5.3393">
        <ele>209.74200439453</ele>
        <time>2010-04-20T13:51:41Z</time>
      </trkpt>
      <trkpt lat="45.12415" lon="5.33949">
        <ele>210.92300415039</ele>
        <time>2010-04-20T13:51:46Z</time>
      </trkpt>
      <trkpt lat="45.12409" lon="5.33972">
        <ele>212.13000488281</ele>
        <time>2010-04-20T13:51:52Z</time>
      </trkpt>
      <trkpt lat="45.12407" lon="5.33989">
        <ele>212.76300048828</ele>
        <time>2010-04-20T13:51:58Z</time>
      </trkpt>
      <trkpt lat="45.1241" lon="5.34013">
        <ele>214.08799743652</ele>
        <time>2010-04-20T13:52:04Z</time>
      </trkpt>
      <trkpt lat="45.12413" lon="5.34038">
        <ele>215.23199462891</ele>
        <time>2010-04-20T13:52:10Z</time>
      </trkpt>
      <trkpt lat="45.12418" lon="5.34069">
        <ele>217.02000427246</ele>
        <time>2010-04-20T13:52:18Z</time>
      </trkpt>
      <trkpt lat="45.12423" lon="5.34098">
        <ele>218.75799560547</ele>
        <time>2010-04-20T13:52:25Z</time>
      </trkpt>
      <trkpt lat="45.12424" lon="5.34132">
        <ele>220.66499328613</ele>
        <time>2010-04-20T13:52:33Z</time>
      </trkpt>
      <trkpt lat="45.12425" lon="5.3416">
        <ele>222.51499938965</ele>
        <time>2010-04-20T13:52:40Z</time>
      </trkpt>
      <trkpt lat="45.12424" lon="5.34183">
        <ele>223.81700134277</ele>
        <time>2010-04-20T13:52:46Z</time>
      </trkpt>
      <trkpt lat="45.12428" lon="5.34211">
        <ele>225.85400390625</ele>
        <time>2010-04-20T13:52:53Z</time>
      </trkpt>
      <trkpt lat="45.12433" lon="5.34234">
        <ele>227.29899597168</ele>
        <time>2010-04-20T13:52:59Z</time>
      </trkpt>
      <trkpt lat="45.12444" lon="5.34264">
        <ele>229.14300537109</ele>
        <time>2010-04-20T13:53:07Z</time>
      </trkpt>
      <trkpt lat="45.12448" lon="5.3428">
        <ele>230.21899414062</ele>
        <time>2010-04-20T13:53:12Z</time>
      </trkpt>
      <trkpt lat="45.12456" lon="5.34304">
        <ele>231.62199401856</ele>
        <time>2010-04-20T13:53:19Z</time>
      </trkpt>
      <trkpt lat="45.12465" lon="5.34329">
        <ele>233.41799926758</ele>
        <time>2010-04-20T13:53:26Z</time>
      </trkpt>
      <trkpt lat="45.12474" lon="5.34358">
        <ele>235.48399353027</ele>
        <time>2010-04-20T13:53:34Z</time>
      </trkpt>
      <trkpt lat="45.12481" lon="5.34377">
        <ele>236.68099975586</ele>
        <time>2010-04-20T13:53:40Z</time>
      </trkpt>
      <trkpt lat="45.12489" lon="5.34396">
        <ele>238.52699279785</ele>
        <time>2010-04-20T13:53:46Z</time>
      </trkpt>
      <trkpt lat="45.12496" lon="5.34414">
        <ele>239.22399902344</ele>
        <time>2010-04-20T13:53:51Z</time>
      </trkpt>
      <trkpt lat="45.12505" lon="5.3444">
        <ele>240.73199462891</ele>
        <time>2010-04-20T13:53:58Z</time>
      </trkpt>
      <trkpt lat="45.12517" lon="5.34468">
        <ele>242.55599975586</ele>
        <time>2010-04-20T13:54:06Z</time>
      </trkpt>
      <trkpt lat="45.12529" lon="5.34501">
        <ele>244.5</ele>
        <time>2010-04-20T13:54:15Z</time>
      </trkpt>
      <trkpt lat="45.12538" lon="5.34533">
        <ele>246.26100158691</ele>
        <time>2010-04-20T13:54:23Z</time>
      </trkpt>
      <trkpt lat="45.12537" lon="5.3456">
        <ele>247.66000366211</ele>
        <time>2010-04-20T13:54:29Z</time>
      </trkpt>
      <trkpt lat="45.12537" lon="5.34564">
        <ele>247.78500366211</ele>
        <time>2010-04-20T13:54:30Z</time>
      </trkpt>
      <trkpt lat="45.12539" lon="5.3459">
        <ele>247.81799316406</ele>
        <time>2010-04-20T13:54:36Z</time>
      </trkpt>
      <trkpt lat="45.12542" lon="5.3462">
        <ele>247.84399414062</ele>
        <time>2010-04-20T13:54:43Z</time>
      </trkpt>
      <trkpt lat="45.12545" lon="5.34648">
        <ele>252.16000366211</ele>
        <time>2010-04-20T13:54:50Z</time>
      </trkpt>
      <trkpt lat="45.12546" lon="5.34659">
        <ele>253.60200500488</ele>
        <time>2010-04-20T13:54:53Z</time>
      </trkpt>
      <trkpt lat="45.12547" lon="5.34682">
        <ele>254.72700500488</ele>
        <time>2010-04-20T13:54:59Z</time>
      </trkpt>
      <trkpt lat="45.12546" lon="5.34686">
        <ele>254.9940032959</ele>
        <time>2010-04-20T13:55:00Z</time>
      </trkpt>
      <trkpt lat="45.12542" lon="5.34716">
        <ele>255.5299987793</ele>
        <time>2010-04-20T13:55:08Z</time>
      </trkpt>
      <trkpt lat="45.12528" lon="5.34746">
        <ele>255.54200744629</ele>
        <time>2010-04-20T13:55:17Z</time>
      </trkpt>
      <trkpt lat="45.12524" lon="5.34772">
        <ele>258.76300048828</ele>
        <time>2010-04-20T13:55:24Z</time>
      </trkpt>
      <trkpt lat="45.12529" lon="5.34795">
        <ele>261.41400146484</ele>
        <time>2010-04-20T13:55:30Z</time>
      </trkpt>
      <trkpt lat="45.12534" lon="5.34822">
        <ele>262.51599121094</ele>
        <time>2010-04-20T13:55:37Z</time>
      </trkpt>
      <trkpt lat="45.12535" lon="5.34845">
        <ele>264.17098999023</ele>
        <time>2010-04-20T13:55:43Z</time>
      </trkpt>
      <trkpt lat="45.12529" lon="5.34873">
        <ele>265.98400878906</ele>
        <time>2010-04-20T13:55:51Z</time>
      </trkpt>
      <trkpt lat="45.12528" lon="5.34887">
        <ele>267.30700683594</ele>
        <time>2010-04-20T13:55:55Z</time>
      </trkpt>
      <trkpt lat="45.12528" lon="5.34897">
        <ele>267.10000610352</ele>
        <time>2010-04-20T13:55:58Z</time>
      </trkpt>
      <trkpt lat="45.1253" lon="5.34919">
        <ele>268.82598876953</ele>
        <time>2010-04-20T13:56:04Z</time>
      </trkpt>
      <trkpt lat="45.12529" lon="5.3493">
        <ele>268.99499511719</ele>
        <time>2010-04-20T13:56:07Z</time>
      </trkpt>
      <trkpt lat="45.12529" lon="5.34943">
        <ele>269.80899047852</ele>
        <time>2010-04-20T13:56:11Z</time>
      </trkpt>
      <trkpt lat="45.1253" lon="5.34967">
        <ele>271.05700683594</ele>
        <time>2010-04-20T13:56:18Z</time>
      </trkpt>
      <trkpt lat="45.12539" lon="5.34991">
        <ele>272.13598632812</ele>
        <time>2010-04-20T13:56:25Z</time>
      </trkpt>
      <trkpt lat="45.12549" lon="5.35015">
        <ele>273.73400878906</ele>
        <time>2010-04-20T13:56:32Z</time>
      </trkpt>
      <trkpt lat="45.12556" lon="5.35036">
        <ele>274.85501098633</ele>
        <time>2010-04-20T13:56:38Z</time>
      </trkpt>
      <trkpt lat="45.12558" lon="5.35064">
        <ele>276.42498779297</ele>
        <time>2010-04-20T13:56:45Z</time>
      </trkpt>
      <trkpt lat="45.1256" lon="5.35085">
        <ele>277.80599975586</ele>
        <time>2010-04-20T13:56:51Z</time>
      </trkpt>
      <trkpt lat="45.12559" lon="5.35108">
        <ele>278.92599487305</ele>
        <time>2010-04-20T13:56:57Z</time>
      </trkpt>
      <trkpt lat="45.12553" lon="5.35133">
        <ele>280.82699584961</ele>
        <time>2010-04-20T13:57:04Z</time>
      </trkpt>
      <trkpt lat="45.12548" lon="5.35156">
        <ele>282.14099121094</ele>
        <time>2010-04-20T13:57:10Z</time>
      </trkpt>
      <trkpt lat="45.12548" lon="5.35182">
        <ele>283.65600585938</ele>
        <time>2010-04-20T13:57:17Z</time>
      </trkpt>
      <trkpt lat="45.12555" lon="5.35196">
        <ele>284.64401245117</ele>
        <time>2010-04-20T13:57:22Z</time>
      </trkpt>
      <trkpt lat="45.12569" lon="5.35211">
        <ele>285.94100952148</ele>
        <time>2010-04-20T13:57:28Z</time>
      </trkpt>
      <trkpt lat="45.12587" lon="5.35228">
        <ele>287.58898925781</ele>
        <time>2010-04-20T13:57:36Z</time>
      </trkpt>
      <trkpt lat="45.126" lon="5.35253">
        <ele>289.47399902344</ele>
        <time>2010-04-20T13:57:44Z</time>
      </trkpt>
      <trkpt lat="45.12605" lon="5.35274">
        <ele>290.74301147461</ele>
        <time>2010-04-20T13:57:50Z</time>
      </trkpt>
      <trkpt lat="45.12609" lon="5.35294">
        <ele>292.18200683594</ele>
        <time>2010-04-20T13:57:56Z</time>
      </trkpt>
      <trkpt lat="45.12611" lon="5.35315">
        <ele>293.60501098633</ele>
        <time>2010-04-20T13:58:02Z</time>
      </trkpt>
      <trkpt lat="45.12609" lon="5.35339">
        <ele>294.71499633789</ele>
        <time>2010-04-20T13:58:08Z</time>
      </trkpt>
      <trkpt lat="45.12621" lon="5.35361">
        <ele>296.16299438477</ele>
        <time>2010-04-20T13:58:15Z</time>
      </trkpt>
      <trkpt lat="45.1264" lon="5.35381">
        <ele>298.00299072266</ele>
        <time>2010-04-20T13:58:23Z</time>
      </trkpt>
      <trkpt lat="45.12654" lon="5.35412">
        <ele>299.85000610352</ele>
        <time>2010-04-20T13:58:32Z</time>
      </trkpt>
      <trkpt lat="45.12663" lon="5.35436">
        <ele>301.38500976562</ele>
        <time>2010-04-20T13:58:39Z</time>
      </trkpt>
      <trkpt lat="45.12673" lon="5.35464">
        <ele>303.08099365234</ele>
        <time>2010-04-20T13:58:47Z</time>
      </trkpt>
      <trkpt lat="45.12679" lon="5.35482">
        <ele>304.37100219727</ele>
        <time>2010-04-20T13:58:52Z</time>
      </trkpt>
      <trkpt lat="45.12688" lon="5.35497">
        <ele>305.26300048828</ele>
        <time>2010-04-20T13:58:57Z</time>
      </trkpt>
      <trkpt lat="45.12698" lon="5.35527">
        <ele>307.31900024414</ele>
        <time>2010-04-20T13:59:05Z</time>
      </trkpt>
      <trkpt lat="45.12699" lon="5.35531">
        <ele>307.42401123047</ele>
        <time>2010-04-20T13:59:06Z</time>
      </trkpt>
      <trkpt lat="45.12695" lon="5.35564">
        <ele>309.67199707031</ele>
        <time>2010-04-20T13:59:14Z</time>
      </trkpt>
      <trkpt lat="45.127" lon="5.35586">
        <ele>310.88299560547</ele>
        <time>2010-04-20T13:59:20Z</time>
      </trkpt>
      <trkpt lat="45.12705" lon="5.35605">
        <ele>312.13299560547</ele>
        <time>2010-04-20T13:59:26Z</time>
      </trkpt>
      <trkpt lat="45.12698" lon="5.35623">
        <ele>313.88400268555</ele>
        <time>2010-04-20T13:59:32Z</time>
      </trkpt>
      <trkpt lat="45.12686" lon="5.35634">
        <ele>314.94799804688</ele>
        <time>2010-04-20T13:59:39Z</time>
      </trkpt>
      <trkpt lat="45.12684" lon="5.35635">
        <ele>315.27801513672</ele>
        <time>2010-04-20T13:59:40Z</time>
      </trkpt>
      <trkpt lat="45.12674" lon="5.3565">
        <ele>316.73999023438</ele>
        <time>2010-04-20T13:59:47Z</time>
      </trkpt>
      <trkpt lat="45.12664" lon="5.35668">
        <ele>318.0119934082</ele>
        <time>2010-04-20T13:59:54Z</time>
      </trkpt>
      <trkpt lat="45.12654" lon="5.35686">
        <ele>319.02398681641</ele>
        <time>2010-04-20T14:00:00Z</time>
      </trkpt>
      <trkpt lat="45.12644" lon="5.35703">
        <ele>320.33401489258</ele>
        <time>2010-04-20T14:00:06Z</time>
      </trkpt>
      <trkpt lat="45.12631" lon="5.3572">
        <ele>321.37799072266</ele>
        <time>2010-04-20T14:00:12Z</time>
      </trkpt>
      <trkpt lat="45.12623" lon="5.35742">
        <ele>323.12100219727</ele>
        <time>2010-04-20T14:00:19Z</time>
      </trkpt>
      <trkpt lat="45.12622" lon="5.35763">
        <ele>324.25698852539</ele>
        <time>2010-04-20T14:00:24Z</time>
      </trkpt>
      <trkpt lat="45.12618" lon="5.35794">
        <ele>326.05599975586</ele>
        <time>2010-04-20T14:00:31Z</time>
      </trkpt>
      <trkpt lat="45.12607" lon="5.35822">
        <ele>327.49899291992</ele>
        <time>2010-04-20T14:00:38Z</time>
      </trkpt>
      <trkpt lat="45.126" lon="5.35841">
        <ele>328.85198974609</ele>
        <time>2010-04-20T14:00:43Z</time>
      </trkpt>
      <trkpt lat="45.12592" lon="5.35864">
        <ele>330.22100830078</ele>
        <time>2010-04-20T14:00:49Z</time>
      </trkpt>
      <trkpt lat="45.12577" lon="5.35885">
        <ele>331.89999389648</ele>
        <time>2010-04-20T14:00:56Z</time>
      </trkpt>
      <trkpt lat="45.12553" lon="5.35893">
        <ele>334.19799804688</ele>
        <time>2010-04-20T14:01:04Z</time>
      </trkpt>
      <trkpt lat="45.12532" lon="5.35898">
        <ele>335.70999145508</ele>
        <time>2010-04-20T14:01:11Z</time>
      </trkpt>
      <trkpt lat="45.12514" lon="5.35902">
        <ele>337.05700683594</ele>
        <time>2010-04-20T14:01:17Z</time>
      </trkpt>
      <trkpt lat="45.1249" lon="5.35907">
        <ele>338.93099975586</ele>
        <time>2010-04-20T14:01:25Z</time>
      </trkpt>
      <trkpt lat="45.12462" lon="5.35911">
        <ele>340.98001098633</ele>
        <time>2010-04-20T14:01:34Z</time>
      </trkpt>
      <trkpt lat="45.12434" lon="5.35915">
        <ele>342.90100097656</ele>
        <time>2010-04-20T14:01:43Z</time>
      </trkpt>
      <trkpt lat="45.12407" lon="5.35921">
        <ele>344.70700073242</ele>
        <time>2010-04-20T14:01:52Z</time>
      </trkpt>
      <trkpt lat="45.1238" lon="5.35925">
        <ele>345.98498535156</ele>
        <time>2010-04-20T14:02:00Z</time>
      </trkpt>
      <trkpt lat="45.12342" lon="5.35931">
        <ele>347.89599609375</ele>
        <time>2010-04-20T14:02:10Z</time>
      </trkpt>
      <trkpt lat="45.12327" lon="5.35933">
        <ele>348.52899169922</ele>
        <time>2010-04-20T14:02:14Z</time>
      </trkpt>
      <trkpt lat="45.12315" lon="5.35936">
        <ele>348.93798828125</ele>
        <time>2010-04-20T14:02:17Z</time>
      </trkpt>
      <trkpt lat="45.12279" lon="5.35941">
        <ele>348.93399047852</ele>
        <time>2010-04-20T14:02:26Z</time>
      </trkpt>
      <trkpt lat="45.12252" lon="5.35946">
        <ele>352.40100097656</ele>
        <time>2010-04-20T14:02:33Z</time>
      </trkpt>
      <trkpt lat="45.12225" lon="5.35949">
        <ele>353.53201293945</ele>
        <time>2010-04-20T14:02:40Z</time>
      </trkpt>
      <trkpt lat="45.12198" lon="5.35957">
        <ele>354.3030090332</ele>
        <time>2010-04-20T14:02:47Z</time>
      </trkpt>
      <trkpt lat="45.12181" lon="5.35971">
        <ele>356.2200012207</ele>
        <time>2010-04-20T14:02:52Z</time>
      </trkpt>
      <trkpt lat="45.12156" lon="5.35999">
        <ele>357.39199829102</ele>
        <time>2010-04-20T14:03:00Z</time>
      </trkpt>
      <trkpt lat="45.12135" lon="5.3603">
        <ele>358.8450012207</ele>
        <time>2010-04-20T14:03:08Z</time>
      </trkpt>
      <trkpt lat="45.12129" lon="5.36045">
        <ele>359.05899047852</ele>
        <time>2010-04-20T14:03:11Z</time>
      </trkpt>
      <trkpt lat="45.12127" lon="5.36056">
        <ele>359.40200805664</ele>
        <time>2010-04-20T14:03:13Z</time>
      </trkpt>
      <trkpt lat="45.12121" lon="5.36071">
        <ele>359.74499511719</ele>
        <time>2010-04-20T14:03:16Z</time>
      </trkpt>
      <trkpt lat="45.12112" lon="5.36114">
        <ele>361.62100219727</ele>
        <time>2010-04-20T14:03:24Z</time>
      </trkpt>
      <trkpt lat="45.12107" lon="5.36151">
        <ele>362.63500976562</ele>
        <time>2010-04-20T14:03:31Z</time>
      </trkpt>
      <trkpt lat="45.12102" lon="5.36167">
        <ele>363.05999755859</ele>
        <time>2010-04-20T14:03:34Z</time>
      </trkpt>
      <trkpt lat="45.12085" lon="5.36192">
        <ele>364.16400146484</ele>
        <time>2010-04-20T14:03:40Z</time>
      </trkpt>
      <trkpt lat="45.12069" lon="5.36219">
        <ele>365.58999633789</ele>
        <time>2010-04-20T14:03:46Z</time>
      </trkpt>
      <trkpt lat="45.12062" lon="5.36235">
        <ele>365.97399902344</ele>
        <time>2010-04-20T14:03:49Z</time>
      </trkpt>
      <trkpt lat="45.1206" lon="5.3627">
        <ele>367.14001464844</ele>
        <time>2010-04-20T14:03:55Z</time>
      </trkpt>
      <trkpt lat="45.1206" lon="5.363">
        <ele>368.58401489258</ele>
        <time>2010-04-20T14:04:01Z</time>
      </trkpt>
      <trkpt lat="45.12061" lon="5.36324">
        <ele>368.91400146484</ele>
        <time>2010-04-20T14:04:06Z</time>
      </trkpt>
      <trkpt lat="45.12061" lon="5.36351">
        <ele>370.59201049805</ele>
        <time>2010-04-20T14:04:12Z</time>
      </trkpt>
      <trkpt lat="45.12062" lon="5.3638">
        <ele>372.08099365234</ele>
        <time>2010-04-20T14:04:18Z</time>
      </trkpt>
      <trkpt lat="45.12062" lon="5.36403">
        <ele>372.86700439453</ele>
        <time>2010-04-20T14:04:23Z</time>
      </trkpt>
      <trkpt lat="45.12059" lon="5.36446">
        <ele>374.56698608398</ele>
        <time>2010-04-20T14:04:32Z</time>
      </trkpt>
      <trkpt lat="45.12049" lon="5.3648">
        <ele>375.87399291992</ele>
        <time>2010-04-20T14:04:39Z</time>
      </trkpt>
      <trkpt lat="45.12041" lon="5.36521">
        <ele>377.60299682617</ele>
        <time>2010-04-20T14:04:47Z</time>
      </trkpt>
      <trkpt lat="45.12045" lon="5.36566">
        <ele>379.24899291992</ele>
        <time>2010-04-20T14:04:55Z</time>
      </trkpt>
      <trkpt lat="45.12046" lon="5.36581">
        <ele>380.05700683594</ele>
        <time>2010-04-20T14:04:58Z</time>
      </trkpt>
      <trkpt lat="45.12036" lon="5.3659">
        <ele>381.4049987793</ele>
        <time>2010-04-20T14:05:02Z</time>
      </trkpt>
      <trkpt lat="45.12028" lon="5.36582">
        <ele>382.14498901367</ele>
        <time>2010-04-20T14:05:05Z</time>
      </trkpt>
      <trkpt lat="45.12008" lon="5.36555">
        <ele>384.78799438477</ele>
        <time>2010-04-20T14:05:13Z</time>
      </trkpt>
      <trkpt lat="45.11997" lon="5.36539">
        <ele>386.21200561523</ele>
        <time>2010-04-20T14:05:19Z</time>
      </trkpt>
      <trkpt lat="45.1198" lon="5.36514">
        <ele>388.11700439453</ele>
        <time>2010-04-20T14:05:27Z</time>
      </trkpt>
      <trkpt lat="45.11965" lon="5.36492">
        <ele>390.35299682617</ele>
        <time>2010-04-20T14:05:34Z</time>
      </trkpt>
      <trkpt lat="45.1195" lon="5.36469">
        <ele>392.07000732422</ele>
        <time>2010-04-20T14:05:41Z</time>
      </trkpt>
      <trkpt lat="45.11933" lon="5.36455">
        <ele>394.06100463867</ele>
        <time>2010-04-20T14:05:48Z</time>
      </trkpt>
      <trkpt lat="45.11921" lon="5.36451">
        <ele>395.25799560547</ele>
        <time>2010-04-20T14:05:53Z</time>
      </trkpt>
      <trkpt lat="45.11901" lon="5.36445">
        <ele>397.50299072266</ele>
        <time>2010-04-20T14:06:01Z</time>
      </trkpt>
      <trkpt lat="45.11887" lon="5.3644">
        <ele>398.86499023438</ele>
        <time>2010-04-20T14:06:07Z</time>
      </trkpt>
      <trkpt lat="45.11866" lon="5.36433">
        <ele>400.70498657227</ele>
        <time>2010-04-20T14:06:16Z</time>
      </trkpt>
      <trkpt lat="45.11861" lon="5.36431">
        <ele>401.52700805664</ele>
        <time>2010-04-20T14:06:18Z</time>
      </trkpt>
      <trkpt lat="45.11848" lon="5.36425">
        <ele>401.56201171875</ele>
        <time>2010-04-20T14:06:24Z</time>
      </trkpt>
      <trkpt lat="45.11835" lon="5.36422">
        <ele>401.58401489258</ele>
        <time>2010-04-20T14:06:30Z</time>
      </trkpt>
      <trkpt lat="45.11819" lon="5.36417">
        <ele>401.61999511719</ele>
        <time>2010-04-20T14:06:38Z</time>
      </trkpt>
      <trkpt lat="45.11802" lon="5.36411">
        <ele>401.66598510742</ele>
        <time>2010-04-20T14:06:47Z</time>
      </trkpt>
      <trkpt lat="45.11789" lon="5.36408">
        <ele>401.70599365234</ele>
        <time>2010-04-20T14:06:54Z</time>
      </trkpt>
      <trkpt lat="45.11777" lon="5.36404">
        <ele>409.77499389648</ele>
        <time>2010-04-20T14:07:00Z</time>
      </trkpt>
      <trkpt lat="45.11765" lon="5.36401">
        <ele>411.58801269531</ele>
        <time>2010-04-20T14:07:07Z</time>
      </trkpt>
      <trkpt lat="45.11747" lon="5.36399">
        <ele>413.41400146484</ele>
        <time>2010-04-20T14:07:15Z</time>
      </trkpt>
      <trkpt lat="45.11729" lon="5.36398">
        <ele>414.99301147461</ele>
        <time>2010-04-20T14:07:22Z</time>
      </trkpt>
      <trkpt lat="45.11713" lon="5.36395">
        <ele>416.79299926758</ele>
        <time>2010-04-20T14:07:29Z</time>
      </trkpt>
      <trkpt lat="45.11696" lon="5.3639">
        <ele>418.49398803711</ele>
        <time>2010-04-20T14:07:36Z</time>
      </trkpt>
      <trkpt lat="45.11679" lon="5.36386">
        <ele>420.18899536133</ele>
        <time>2010-04-20T14:07:43Z</time>
      </trkpt>
      <trkpt lat="45.11663" lon="5.36379">
        <ele>421.89498901367</ele>
        <time>2010-04-20T14:07:50Z</time>
      </trkpt>
      <trkpt lat="45.11645" lon="5.36375">
        <ele>423.86898803711</ele>
        <time>2010-04-20T14:07:57Z</time>
      </trkpt>
      <trkpt lat="45.1163" lon="5.36371">
        <ele>425.39199829102</ele>
        <time>2010-04-20T14:08:03Z</time>
      </trkpt>
      <trkpt lat="45.11617" lon="5.36374">
        <ele>426.45300292969</ele>
        <time>2010-04-20T14:08:08Z</time>
      </trkpt>
      <trkpt lat="45.11604" lon="5.36381">
        <ele>427.87799072266</ele>
        <time>2010-04-20T14:08:14Z</time>
      </trkpt>
      <trkpt lat="45.11594" lon="5.3639">
        <ele>429.37600708008</ele>
        <time>2010-04-20T14:08:20Z</time>
      </trkpt>
      <trkpt lat="45.11586" lon="5.36401">
        <ele>430.31100463867</ele>
        <time>2010-04-20T14:08:25Z</time>
      </trkpt>
      <trkpt lat="45.11577" lon="5.36412">
        <ele>431.39001464844</ele>
        <time>2010-04-20T14:08:30Z</time>
      </trkpt>
      <trkpt lat="45.11565" lon="5.36429">
        <ele>433.32598876953</ele>
        <time>2010-04-20T14:08:37Z</time>
      </trkpt>
      <trkpt lat="45.11554" lon="5.36445">
        <ele>435.2200012207</ele>
        <time>2010-04-20T14:08:44Z</time>
      </trkpt>
      <trkpt lat="45.11548" lon="5.36458">
        <ele>436.42700195312</ele>
        <time>2010-04-20T14:08:49Z</time>
      </trkpt>
      <trkpt lat="45.11538" lon="5.36476">
        <ele>437.8869934082</ele>
        <time>2010-04-20T14:08:56Z</time>
      </trkpt>
      <trkpt lat="45.11528" lon="5.3649">
        <ele>439.19900512695</ele>
        <time>2010-04-20T14:09:02Z</time>
      </trkpt>
      <trkpt lat="45.11518" lon="5.36499">
        <ele>440.47198486328</ele>
        <time>2010-04-20T14:09:08Z</time>
      </trkpt>
      <trkpt lat="45.11511" lon="5.36502">
        <ele>441.28799438477</ele>
        <time>2010-04-20T14:09:13Z</time>
      </trkpt>
      <trkpt lat="45.11505" lon="5.36507">
        <ele>442.07501220703</ele>
        <time>2010-04-20T14:09:17Z</time>
      </trkpt>
      <trkpt lat="45.11497" lon="5.3651">
        <ele>442.42999267578</ele>
        <time>2010-04-20T14:09:21Z</time>
      </trkpt>
      <trkpt lat="45.11491" lon="5.36517">
        <ele>443.29501342773</ele>
        <time>2010-04-20T14:09:25Z</time>
      </trkpt>
      <trkpt lat="45.11488" lon="5.3652">
        <ele>443.77398681641</ele>
        <time>2010-04-20T14:09:27Z</time>
      </trkpt>
      <trkpt lat="45.11473" lon="5.36537">
        <ele>444.91598510742</ele>
        <time>2010-04-20T14:09:35Z</time>
      </trkpt>
      <trkpt lat="45.11464" lon="5.36545">
        <ele>446.29598999023</ele>
        <time>2010-04-20T14:09:40Z</time>
      </trkpt>
      <trkpt lat="45.11452" lon="5.3655">
        <ele>447.99600219727</ele>
        <time>2010-04-20T14:09:46Z</time>
      </trkpt>
      <trkpt lat="45.11436" lon="5.36556">
        <ele>449.18200683594</ele>
        <time>2010-04-20T14:09:53Z</time>
      </trkpt>
      <trkpt lat="45.11421" lon="5.36562">
        <ele>450.95498657227</ele>
        <time>2010-04-20T14:10:00Z</time>
      </trkpt>
      <trkpt lat="45.11409" lon="5.36562">
        <ele>452.06201171875</ele>
        <time>2010-04-20T14:10:06Z</time>
      </trkpt>
      <trkpt lat="45.11394" lon="5.3656">
        <ele>453.80700683594</ele>
        <time>2010-04-20T14:10:13Z</time>
      </trkpt>
      <trkpt lat="45.11381" lon="5.36556">
        <ele>455.20901489258</ele>
        <time>2010-04-20T14:10:19Z</time>
      </trkpt>
      <trkpt lat="45.11378" lon="5.36559">
        <ele>455.47299194336</ele>
        <time>2010-04-20T14:10:21Z</time>
      </trkpt>
      <trkpt lat="45.11377" lon="5.36572">
        <ele>456.00100708008</ele>
        <time>2010-04-20T14:10:26Z</time>
      </trkpt>
      <trkpt lat="45.11386" lon="5.36577">
        <ele>457.06500244141</ele>
        <time>2010-04-20T14:10:31Z</time>
      </trkpt>
      <trkpt lat="45.11395" lon="5.36578">
        <ele>457.82000732422</ele>
        <time>2010-04-20T14:10:36Z</time>
      </trkpt>
      <trkpt lat="45.11404" lon="5.36579">
        <ele>458.39801025391</ele>
        <time>2010-04-20T14:10:41Z</time>
      </trkpt>
      <trkpt lat="45.11418" lon="5.36577">
        <ele>459.88900756836</ele>
        <time>2010-04-20T14:10:47Z</time>
      </trkpt>
      <trkpt lat="45.11432" lon="5.36571">
        <ele>460.0419921875</ele>
        <time>2010-04-20T14:10:53Z</time>
      </trkpt>
      <trkpt lat="45.11445" lon="5.36568">
        <ele>460.12100219727</ele>
        <time>2010-04-20T14:10:59Z</time>
      </trkpt>
      <trkpt lat="45.11454" lon="5.3657">
        <ele>464.5710144043</ele>
        <time>2010-04-20T14:11:05Z</time>
      </trkpt>
      <trkpt lat="45.11456" lon="5.3657">
        <ele>464.70098876953</ele>
        <time>2010-04-20T14:11:06Z</time>
      </trkpt>
      <trkpt lat="45.11464" lon="5.36572">
        <ele>465.80801391602</ele>
        <time>2010-04-20T14:11:11Z</time>
      </trkpt>
      <trkpt lat="45.11475" lon="5.36572">
        <ele>467.25100708008</ele>
        <time>2010-04-20T14:11:16Z</time>
      </trkpt>
      <trkpt lat="45.11489" lon="5.36571">
        <ele>468.19900512695</ele>
        <time>2010-04-20T14:11:23Z</time>
      </trkpt>
      <trkpt lat="45.11501" lon="5.36573">
        <ele>469.74398803711</ele>
        <time>2010-04-20T14:11:29Z</time>
      </trkpt>
      <trkpt lat="45.11514" lon="5.36572">
        <ele>469.86099243164</ele>
        <time>2010-04-20T14:11:36Z</time>
      </trkpt>
      <trkpt lat="45.11532" lon="5.36567">
        <ele>472.8869934082</ele>
        <time>2010-04-20T14:11:44Z</time>
      </trkpt>
      <trkpt lat="45.11545" lon="5.36558">
        <ele>474.81900024414</ele>
        <time>2010-04-20T14:11:52Z</time>
      </trkpt>
      <trkpt lat="45.11562" lon="5.3655">
        <ele>476.74798583984</ele>
        <time>2010-04-20T14:12:00Z</time>
      </trkpt>
      <trkpt lat="45.11577" lon="5.36545">
        <ele>478.07598876953</ele>
        <time>2010-04-20T14:12:07Z</time>
      </trkpt>
      <trkpt lat="45.11588" lon="5.36547">
        <ele>479.5119934082</ele>
        <time>2010-04-20T14:12:12Z</time>
      </trkpt>
      <trkpt lat="45.116" lon="5.36554">
        <ele>480.78601074219</ele>
        <time>2010-04-20T14:12:18Z</time>
      </trkpt>
      <trkpt lat="45.1161" lon="5.36561">
        <ele>482.17401123047</ele>
        <time>2010-04-20T14:12:23Z</time>
      </trkpt>
      <trkpt lat="45.11617" lon="5.36574">
        <ele>483.40301513672</ele>
        <time>2010-04-20T14:12:28Z</time>
      </trkpt>
      <trkpt lat="45.11628" lon="5.36591">
        <ele>485.16299438477</ele>
        <time>2010-04-20T14:12:35Z</time>
      </trkpt>
      <trkpt lat="45.11639" lon="5.36606">
        <ele>486.45599365234</ele>
        <time>2010-04-20T14:12:42Z</time>
      </trkpt>
      <trkpt lat="45.11651" lon="5.36617">
        <ele>487.79098510742</ele>
        <time>2010-04-20T14:12:49Z</time>
      </trkpt>
      <trkpt lat="45.11664" lon="5.36626">
        <ele>489.42599487305</ele>
        <time>2010-04-20T14:12:56Z</time>
      </trkpt>
      <trkpt lat="45.11667" lon="5.36629">
        <ele>489.68499755859</ele>
        <time>2010-04-20T14:12:58Z</time>
      </trkpt>
      <trkpt lat="45.11679" lon="5.36639">
        <ele>490.84298706055</ele>
        <time>2010-04-20T14:13:05Z</time>
      </trkpt>
      <trkpt lat="45.11694" lon="5.36652">
        <ele>492.80099487305</ele>
        <time>2010-04-20T14:13:13Z</time>
      </trkpt>
      <trkpt lat="45.11697" lon="5.36659">
        <ele>493.31201171875</ele>
        <time>2010-04-20T14:13:16Z</time>
      </trkpt>
      <trkpt lat="45.11701" lon="5.36683">
        <ele>495.15600585938</ele>
        <time>2010-04-20T14:13:25Z</time>
      </trkpt>
      <trkpt lat="45.11704" lon="5.36698">
        <ele>496.2200012207</ele>
        <time>2010-04-20T14:13:31Z</time>
      </trkpt>
      <trkpt lat="45.11707" lon="5.36718">
        <ele>498.09399414062</ele>
        <time>2010-04-20T14:13:38Z</time>
      </trkpt>
      <trkpt lat="45.11708" lon="5.36733">
        <ele>498.99301147461</ele>
        <time>2010-04-20T14:13:44Z</time>
      </trkpt>
      <trkpt lat="45.11713" lon="5.36746">
        <ele>500.3450012207</ele>
        <time>2010-04-20T14:13:49Z</time>
      </trkpt>
      <trkpt lat="45.11721" lon="5.36758">
        <ele>501.37200927734</ele>
        <time>2010-04-20T14:13:54Z</time>
      </trkpt>
      <trkpt lat="45.11726" lon="5.36774">
        <ele>502.65301513672</ele>
        <time>2010-04-20T14:14:00Z</time>
      </trkpt>
      <trkpt lat="45.11727" lon="5.3678">
        <ele>502.97601318359</ele>
        <time>2010-04-20T14:14:02Z</time>
      </trkpt>
      <trkpt lat="45.11722" lon="5.36788">
        <ele>503.98300170898</ele>
        <time>2010-04-20T14:14:06Z</time>
      </trkpt>
      <trkpt lat="45.11715" lon="5.36781">
        <ele>504.78698730469</ele>
        <time>2010-04-20T14:14:10Z</time>
      </trkpt>
      <trkpt lat="45.11709" lon="5.36769">
        <ele>505.25500488281</ele>
        <time>2010-04-20T14:14:15Z</time>
      </trkpt>
      <trkpt lat="45.117" lon="5.3675">
        <ele>507.0299987793</ele>
        <time>2010-04-20T14:14:22Z</time>
      </trkpt>
      <trkpt lat="45.11691" lon="5.36737">
        <ele>508.12200927734</ele>
        <time>2010-04-20T14:14:28Z</time>
      </trkpt>
      <trkpt lat="45.11678" lon="5.36718">
        <ele>510.38000488281</ele>
        <time>2010-04-20T14:14:35Z</time>
      </trkpt>
      <trkpt lat="45.11665" lon="5.36704">
        <ele>512.14001464844</ele>
        <time>2010-04-20T14:14:41Z</time>
      </trkpt>
      <trkpt lat="45.11647" lon="5.36694">
        <ele>514.25</ele>
        <time>2010-04-20T14:14:48Z</time>
      </trkpt>
      <trkpt lat="45.11637" lon="5.36688">
        <ele>515.38897705078</ele>
        <time>2010-04-20T14:14:52Z</time>
      </trkpt>
      <trkpt lat="45.11621" lon="5.3668">
        <ele>517.03002929688</ele>
        <time>2010-04-20T14:14:59Z</time>
      </trkpt>
      <trkpt lat="45.11614" lon="5.36677">
        <ele>517.87200927734</ele>
        <time>2010-04-20T14:15:02Z</time>
      </trkpt>
      <trkpt lat="45.11596" lon="5.3667">
        <ele>519.72998046875</ele>
        <time>2010-04-20T14:15:10Z</time>
      </trkpt>
      <trkpt lat="45.11575" lon="5.36665">
        <ele>522.02398681641</ele>
        <time>2010-04-20T14:15:19Z</time>
      </trkpt>
      <trkpt lat="45.11553" lon="5.3666">
        <ele>524.53497314453</ele>
        <time>2010-04-20T14:15:28Z</time>
      </trkpt>
      <trkpt lat="45.1153" lon="5.36656">
        <ele>526.80200195312</ele>
        <time>2010-04-20T14:15:37Z</time>
      </trkpt>
      <trkpt lat="45.11509" lon="5.36661">
        <ele>528.83001708984</ele>
        <time>2010-04-20T14:15:45Z</time>
      </trkpt>
      <trkpt lat="45.11491" lon="5.36664">
        <ele>530.64300537109</ele>
        <time>2010-04-20T14:15:52Z</time>
      </trkpt>
      <trkpt lat="45.11472" lon="5.36675">
        <ele>533.125</ele>
        <time>2010-04-20T14:16:00Z</time>
      </trkpt>
      <trkpt lat="45.11457" lon="5.3668">
        <ele>534.83502197266</ele>
        <time>2010-04-20T14:16:06Z</time>
      </trkpt>
      <trkpt lat="45.1144" lon="5.36681">
        <ele>536.48101806641</ele>
        <time>2010-04-20T14:16:13Z</time>
      </trkpt>
      <trkpt lat="45.11426" lon="5.36689">
        <ele>538.15899658203</ele>
        <time>2010-04-20T14:16:20Z</time>
      </trkpt>
      <trkpt lat="45.11415" lon="5.36704">
        <ele>539.72100830078</ele>
        <time>2010-04-20T14:16:27Z</time>
      </trkpt>
      <trkpt lat="45.11408" lon="5.36716">
        <ele>540.52099609375</ele>
        <time>2010-04-20T14:16:33Z</time>
      </trkpt>
      <trkpt lat="45.11398" lon="5.36732">
        <ele>542.03698730469</ele>
        <time>2010-04-20T14:16:40Z</time>
      </trkpt>
      <trkpt lat="45.11386" lon="5.36749">
        <ele>543.66998291016</ele>
        <time>2010-04-20T14:16:48Z</time>
      </trkpt>
      <trkpt lat="45.11371" lon="5.36764">
        <ele>545.69702148438</ele>
        <time>2010-04-20T14:16:56Z</time>
      </trkpt>
      <trkpt lat="45.11353" lon="5.36773">
        <ele>547.42700195312</ele>
        <time>2010-04-20T14:17:04Z</time>
      </trkpt>
      <trkpt lat="45.11328" lon="5.36784">
        <ele>549.72302246094</ele>
        <time>2010-04-20T14:17:14Z</time>
      </trkpt>
      <trkpt lat="45.11311" lon="5.36788">
        <ele>551.59899902344</ele>
        <time>2010-04-20T14:17:21Z</time>
      </trkpt>
      <trkpt lat="45.11298" lon="5.36789">
        <ele>552.97601318359</ele>
        <time>2010-04-20T14:17:27Z</time>
      </trkpt>
      <trkpt lat="45.11287" lon="5.36796">
        <ele>554.53002929688</ele>
        <time>2010-04-20T14:17:32Z</time>
      </trkpt>
      <trkpt lat="45.11282" lon="5.36809">
        <ele>556.46899414062</ele>
        <time>2010-04-20T14:17:38Z</time>
      </trkpt>
      <trkpt lat="45.11282" lon="5.36829">
        <ele>558.11401367188</ele>
        <time>2010-04-20T14:17:45Z</time>
      </trkpt>
      <trkpt lat="45.11282" lon="5.36857">
        <ele>560.16900634766</ele>
        <time>2010-04-20T14:17:54Z</time>
      </trkpt>
      <trkpt lat="45.11282" lon="5.36879">
        <ele>561.82702636719</ele>
        <time>2010-04-20T14:18:01Z</time>
      </trkpt>
      <trkpt lat="45.11283" lon="5.36898">
        <ele>563.38397216797</ele>
        <time>2010-04-20T14:18:07Z</time>
      </trkpt>
      <trkpt lat="45.11285" lon="5.36915">
        <ele>564.67498779297</ele>
        <time>2010-04-20T14:18:12Z</time>
      </trkpt>
      <trkpt lat="45.11284" lon="5.36938">
        <ele>566.32098388672</ele>
        <time>2010-04-20T14:18:18Z</time>
      </trkpt>
      <trkpt lat="45.11285" lon="5.36972">
        <ele>568.03698730469</ele>
        <time>2010-04-20T14:18:27Z</time>
      </trkpt>
      <trkpt lat="45.11284" lon="5.37">
        <ele>569.69598388672</ele>
        <time>2010-04-20T14:18:34Z</time>
      </trkpt>
      <trkpt lat="45.11281" lon="5.37028">
        <ele>571.33898925781</ele>
        <time>2010-04-20T14:18:41Z</time>
      </trkpt>
      <trkpt lat="45.11279" lon="5.37049">
        <ele>572.56896972656</ele>
        <time>2010-04-20T14:18:46Z</time>
      </trkpt>
      <trkpt lat="45.11283" lon="5.37079">
        <ele>574.21697998047</ele>
        <time>2010-04-20T14:18:53Z</time>
      </trkpt>
      <trkpt lat="45.11283" lon="5.37112">
        <ele>576.31201171875</ele>
        <time>2010-04-20T14:19:01Z</time>
      </trkpt>
      <trkpt lat="45.11276" lon="5.37138">
        <ele>577.51202392578</ele>
        <time>2010-04-20T14:19:08Z</time>
      </trkpt>
      <trkpt lat="45.11266" lon="5.37173">
        <ele>579.65197753906</ele>
        <time>2010-04-20T14:19:17Z</time>
      </trkpt>
      <trkpt lat="45.11262" lon="5.37196">
        <ele>580.79498291016</ele>
        <time>2010-04-20T14:19:23Z</time>
      </trkpt>
      <trkpt lat="45.11256" lon="5.37218">
        <ele>582.32202148438</ele>
        <time>2010-04-20T14:19:29Z</time>
      </trkpt>
      <trkpt lat="45.11251" lon="5.37241">
        <ele>583.6669921875</ele>
        <time>2010-04-20T14:19:35Z</time>
      </trkpt>
      <trkpt lat="45.11249" lon="5.37265">
        <ele>584.97198486328</ele>
        <time>2010-04-20T14:19:41Z</time>
      </trkpt>
      <trkpt lat="45.11248" lon="5.37293">
        <ele>586.30102539062</ele>
        <time>2010-04-20T14:19:48Z</time>
      </trkpt>
      <trkpt lat="45.11257" lon="5.37299">
        <ele>587.1669921875</ele>
        <time>2010-04-20T14:19:52Z</time>
      </trkpt>
      <trkpt lat="45.11262" lon="5.37283">
        <ele>587.25897216797</ele>
        <time>2010-04-20T14:19:56Z</time>
      </trkpt>
      <trkpt lat="45.11262" lon="5.37279">
        <ele>587.37799072266</ele>
        <time>2010-04-20T14:19:57Z</time>
      </trkpt>
      <trkpt lat="45.11266" lon="5.37237">
        <ele>588.99298095703</ele>
        <time>2010-04-20T14:20:06Z</time>
      </trkpt>
      <trkpt lat="45.11275" lon="5.3721">
        <ele>590.5</ele>
        <time>2010-04-20T14:20:13Z</time>
      </trkpt>
      <trkpt lat="45.11286" lon="5.3718">
        <ele>592.00402832031</ele>
        <time>2010-04-20T14:20:21Z</time>
      </trkpt>
      <trkpt lat="45.11296" lon="5.37156">
        <ele>593.72302246094</ele>
        <time>2010-04-20T14:20:28Z</time>
      </trkpt>
      <trkpt lat="45.11311" lon="5.37123">
        <ele>597.43499755859</ele>
        <time>2010-04-20T14:20:37Z</time>
      </trkpt>
      <trkpt lat="45.11314" lon="5.37098">
        <ele>597.97998046875</ele>
        <time>2010-04-20T14:20:43Z</time>
      </trkpt>
      <trkpt lat="45.11311" lon="5.37068">
        <ele>599.33898925781</ele>
        <time>2010-04-20T14:20:50Z</time>
      </trkpt>
      <trkpt lat="45.11319" lon="5.37041">
        <ele>601.64099121094</ele>
        <time>2010-04-20T14:20:57Z</time>
      </trkpt>
      <trkpt lat="45.1132" lon="5.37037">
        <ele>601.77197265625</ele>
        <time>2010-04-20T14:20:58Z</time>
      </trkpt>
      <trkpt lat="45.11326" lon="5.37014">
        <ele>602.11798095703</ele>
        <time>2010-04-20T14:21:04Z</time>
      </trkpt>
      <trkpt lat="45.11331" lon="5.36986">
        <ele>603.64697265625</ele>
        <time>2010-04-20T14:21:11Z</time>
      </trkpt>
      <trkpt lat="45.11332" lon="5.36982">
        <ele>603.91497802734</ele>
        <time>2010-04-20T14:21:12Z</time>
      </trkpt>
      <trkpt lat="45.1134" lon="5.36984">
        <ele>605.24597167969</ele>
        <time>2010-04-20T14:21:16Z</time>
      </trkpt>
      <trkpt lat="45.11339" lon="5.36991">
        <ele>605.69097900391</ele>
        <time>2010-04-20T14:21:18Z</time>
      </trkpt>
      <trkpt lat="45.11331" lon="5.37023">
        <ele>607.16802978516</ele>
        <time>2010-04-20T14:21:26Z</time>
      </trkpt>
      <trkpt lat="45.11325" lon="5.37052">
        <ele>608.95501708984</ele>
        <time>2010-04-20T14:21:33Z</time>
      </trkpt>
      <trkpt lat="45.11326" lon="5.37077">
        <ele>610.78802490234</ele>
        <time>2010-04-20T14:21:39Z</time>
      </trkpt>
      <trkpt lat="45.11332" lon="5.37106">
        <ele>612.33599853516</ele>
        <time>2010-04-20T14:21:46Z</time>
      </trkpt>
      <trkpt lat="45.11332" lon="5.37132">
        <ele>613.69299316406</ele>
        <time>2010-04-20T14:21:52Z</time>
      </trkpt>
      <trkpt lat="45.11324" lon="5.37156">
        <ele>615.6259765625</ele>
        <time>2010-04-20T14:21:58Z</time>
      </trkpt>
      <trkpt lat="45.11321" lon="5.37163">
        <ele>616.78900146484</ele>
        <time>2010-04-20T14:22:00Z</time>
      </trkpt>
      <trkpt lat="45.11314" lon="5.37191">
        <ele>618.96801757812</ele>
        <time>2010-04-20T14:22:07Z</time>
      </trkpt>
      <trkpt lat="45.11313" lon="5.37195">
        <ele>619.27197265625</ele>
        <time>2010-04-20T14:22:08Z</time>
      </trkpt>
      <trkpt lat="45.11309" lon="5.37211">
        <ele>620.78698730469</ele>
        <time>2010-04-20T14:22:12Z</time>
      </trkpt>
      <trkpt lat="45.11306" lon="5.37238">
        <ele>622.28497314453</ele>
        <time>2010-04-20T14:22:19Z</time>
      </trkpt>
      <trkpt lat="45.11307" lon="5.37269">
        <ele>624.03100585938</ele>
        <time>2010-04-20T14:22:27Z</time>
      </trkpt>
      <trkpt lat="45.11308" lon="5.3729">
        <ele>625.71502685547</ele>
        <time>2010-04-20T14:22:33Z</time>
      </trkpt>
      <trkpt lat="45.1131" lon="5.37297">
        <ele>626.81500244141</ele>
        <time>2010-04-20T14:22:36Z</time>
      </trkpt>
      <trkpt lat="45.11312" lon="5.37323">
        <ele>627.94299316406</ele>
        <time>2010-04-20T14:22:45Z</time>
      </trkpt>
      <trkpt lat="45.11312" lon="5.37344">
        <ele>629.32800292969</ele>
        <time>2010-04-20T14:22:52Z</time>
      </trkpt>
      <trkpt lat="45.11313" lon="5.37368">
        <ele>631.166015625</ele>
        <time>2010-04-20T14:23:00Z</time>
      </trkpt>
      <trkpt lat="45.11319" lon="5.37386">
        <ele>632.23297119141</ele>
        <time>2010-04-20T14:23:06Z</time>
      </trkpt>
      <trkpt lat="45.11328" lon="5.37408">
        <ele>634.10198974609</ele>
        <time>2010-04-20T14:23:14Z</time>
      </trkpt>
      <trkpt lat="45.11333" lon="5.3743">
        <ele>635.82800292969</ele>
        <time>2010-04-20T14:23:22Z</time>
      </trkpt>
      <trkpt lat="45.11337" lon="5.37453">
        <ele>635.82897949219</ele>
        <time>2010-04-20T14:23:29Z</time>
      </trkpt>
      <trkpt lat="45.11344" lon="5.37473">
        <ele>638.93103027344</ele>
        <time>2010-04-20T14:23:36Z</time>
      </trkpt>
      <trkpt lat="45.1135" lon="5.37494">
        <ele>640.82202148438</ele>
        <time>2010-04-20T14:23:43Z</time>
      </trkpt>
      <trkpt lat="45.11353" lon="5.37513">
        <ele>642.24597167969</ele>
        <time>2010-04-20T14:23:49Z</time>
      </trkpt>
      <trkpt lat="45.1136" lon="5.37543">
        <ele>644.16900634766</ele>
        <time>2010-04-20T14:23:58Z</time>
      </trkpt>
      <trkpt lat="45.11369" lon="5.37573">
        <ele>646.25598144531</ele>
        <time>2010-04-20T14:24:07Z</time>
      </trkpt>
      <trkpt lat="45.1138" lon="5.37605">
        <ele>648.958984375</ele>
        <time>2010-04-20T14:24:17Z</time>
      </trkpt>
      <trkpt lat="45.11384" lon="5.37628">
        <ele>650.84002685547</ele>
        <time>2010-04-20T14:24:24Z</time>
      </trkpt>
      <trkpt lat="45.11382" lon="5.37653">
        <ele>652.74597167969</ele>
        <time>2010-04-20T14:24:31Z</time>
      </trkpt>
      <trkpt lat="45.11373" lon="5.3768">
        <ele>654.69500732422</ele>
        <time>2010-04-20T14:24:38Z</time>
      </trkpt>
      <trkpt lat="45.11365" lon="5.37699">
        <ele>656.43701171875</ele>
        <time>2010-04-20T14:24:45Z</time>
      </trkpt>
      <trkpt lat="45.11356" lon="5.37708">
        <ele>657.64898681641</ele>
        <time>2010-04-20T14:24:51Z</time>
      </trkpt>
      <trkpt lat="45.11344" lon="5.37716">
        <ele>659.34301757812</ele>
        <time>2010-04-20T14:24:58Z</time>
      </trkpt>
      <trkpt lat="45.11333" lon="5.37729">
        <ele>660.62298583984</ele>
        <time>2010-04-20T14:25:05Z</time>
      </trkpt>
      <trkpt lat="45.11322" lon="5.37741">
        <ele>661.73400878906</ele>
        <time>2010-04-20T14:25:12Z</time>
      </trkpt>
      <trkpt lat="45.11305" lon="5.37749">
        <ele>663.67797851562</ele>
        <time>2010-04-20T14:25:20Z</time>
      </trkpt>
      <trkpt lat="45.11287" lon="5.37749">
        <ele>665.65197753906</ele>
        <time>2010-04-20T14:25:28Z</time>
      </trkpt>
      <trkpt lat="45.11268" lon="5.3775">
        <ele>667.65698242188</ele>
        <time>2010-04-20T14:25:36Z</time>
      </trkpt>
      <trkpt lat="45.11253" lon="5.37752">
        <ele>669.25402832031</ele>
        <time>2010-04-20T14:25:42Z</time>
      </trkpt>
      <trkpt lat="45.11237" lon="5.37755">
        <ele>670.83898925781</ele>
        <time>2010-04-20T14:25:49Z</time>
      </trkpt>
      <trkpt lat="45.1122" lon="5.37759">
        <ele>672.80102539062</ele>
        <time>2010-04-20T14:25:57Z</time>
      </trkpt>
      <trkpt lat="45.11203" lon="5.37764">
        <ele>674.40502929688</ele>
        <time>2010-04-20T14:26:04Z</time>
      </trkpt>
      <trkpt lat="45.11191" lon="5.37767">
        <ele>675.5</ele>
        <time>2010-04-20T14:26:10Z</time>
      </trkpt>
      <trkpt lat="45.1118" lon="5.37772">
        <ele>677.18402099609</ele>
        <time>2010-04-20T14:26:16Z</time>
      </trkpt>
      <trkpt lat="45.11168" lon="5.37779">
        <ele>678.44097900391</ele>
        <time>2010-04-20T14:26:22Z</time>
      </trkpt>
      <trkpt lat="45.11152" lon="5.37793">
        <ele>680.92999267578</ele>
        <time>2010-04-20T14:26:30Z</time>
      </trkpt>
      <trkpt lat="45.11143" lon="5.37811">
        <ele>682.24102783203</ele>
        <time>2010-04-20T14:26:37Z</time>
      </trkpt>
      <trkpt lat="45.11141" lon="5.37824">
        <ele>683.20697021484</ele>
        <time>2010-04-20T14:26:42Z</time>
      </trkpt>
      <trkpt lat="45.11136" lon="5.37851">
        <ele>685.37902832031</ele>
        <time>2010-04-20T14:26:50Z</time>
      </trkpt>
      <trkpt lat="45.11128" lon="5.37874">
        <ele>686.81402587891</ele>
        <time>2010-04-20T14:26:57Z</time>
      </trkpt>
      <trkpt lat="45.11117" lon="5.37893">
        <ele>687.7919921875</ele>
        <time>2010-04-20T14:27:04Z</time>
      </trkpt>
      <trkpt lat="45.11118" lon="5.37908">
        <ele>690.21099853516</ele>
        <time>2010-04-20T14:27:08Z</time>
      </trkpt>
      <trkpt lat="45.11129" lon="5.3792">
        <ele>691.76202392578</ele>
        <time>2010-04-20T14:27:13Z</time>
      </trkpt>
      <trkpt lat="45.11147" lon="5.37934">
        <ele>693.91497802734</ele>
        <time>2010-04-20T14:27:21Z</time>
      </trkpt>
      <trkpt lat="45.11163" lon="5.37948">
        <ele>695.94299316406</ele>
        <time>2010-04-20T14:27:28Z</time>
      </trkpt>
      <trkpt lat="45.11176" lon="5.3796">
        <ele>697.43701171875</ele>
        <time>2010-04-20T14:27:34Z</time>
      </trkpt>
      <trkpt lat="45.11189" lon="5.37976">
        <ele>697.45697021484</ele>
        <time>2010-04-20T14:27:40Z</time>
      </trkpt>
      <trkpt lat="45.11198" lon="5.37997">
        <ele>697.84899902344</ele>
        <time>2010-04-20T14:27:45Z</time>
      </trkpt>
      <trkpt lat="45.112" lon="5.38023">
        <ele>697.7509765625</ele>
        <time>2010-04-20T14:27:50Z</time>
      </trkpt>
      <trkpt lat="45.11197" lon="5.3804">
        <ele>698.07299804688</ele>
        <time>2010-04-20T14:27:53Z</time>
      </trkpt>
      <trkpt lat="45.11188" lon="5.38061">
        <ele>698.17401123047</ele>
        <time>2010-04-20T14:27:57Z</time>
      </trkpt>
      <trkpt lat="45.11174" lon="5.3808">
        <ele>698.61999511719</ele>
        <time>2010-04-20T14:28:01Z</time>
      </trkpt>
      <trkpt lat="45.1116" lon="5.38097">
        <ele>698.38500976562</ele>
        <time>2010-04-20T14:28:05Z</time>
      </trkpt>
      <trkpt lat="45.11147" lon="5.38124">
        <ele>699.13800048828</ele>
        <time>2010-04-20T14:28:10Z</time>
      </trkpt>
      <trkpt lat="45.11127" lon="5.38155">
        <ele>700.06701660156</ele>
        <time>2010-04-20T14:28:16Z</time>
      </trkpt>
      <trkpt lat="45.111" lon="5.38188">
        <ele>700.27001953125</ele>
        <time>2010-04-20T14:28:23Z</time>
      </trkpt>
      <trkpt lat="45.11086" lon="5.38218">
        <ele>700.63598632812</ele>
        <time>2010-04-20T14:28:29Z</time>
      </trkpt>
      <trkpt lat="45.11068" lon="5.38263">
        <ele>701.00201416016</ele>
        <time>2010-04-20T14:28:36Z</time>
      </trkpt>
      <trkpt lat="45.11062" lon="5.38277">
        <ele>700.97998046875</ele>
        <time>2010-04-20T14:28:38Z</time>
      </trkpt>
      <trkpt lat="45.11044" lon="5.38297">
        <ele>701.09802246094</ele>
        <time>2010-04-20T14:28:42Z</time>
      </trkpt>
      <trkpt lat="45.11039" lon="5.38299">
        <ele>701.21997070312</ele>
        <time>2010-04-20T14:28:43Z</time>
      </trkpt>
      <trkpt lat="45.11028" lon="5.38303">
        <ele>701.31597900391</ele>
        <time>2010-04-20T14:28:45Z</time>
      </trkpt>
      <trkpt lat="45.11013" lon="5.38295">
        <ele>701.41497802734</ele>
        <time>2010-04-20T14:28:48Z</time>
      </trkpt>
      <trkpt lat="45.11012" lon="5.38276">
        <ele>702.48498535156</ele>
        <time>2010-04-20T14:28:51Z</time>
      </trkpt>
      <trkpt lat="45.11016" lon="5.38273">
        <ele>702.66900634766</ele>
        <time>2010-04-20T14:28:52Z</time>
      </trkpt>
      <trkpt lat="45.11034" lon="5.3824">
        <ele>703.88397216797</ele>
        <time>2010-04-20T14:28:58Z</time>
      </trkpt>
      <trkpt lat="45.11039" lon="5.38213">
        <ele>705.55401611328</ele>
        <time>2010-04-20T14:29:03Z</time>
      </trkpt>
      <trkpt lat="45.11044" lon="5.38188">
        <ele>706.92401123047</ele>
        <time>2010-04-20T14:29:08Z</time>
      </trkpt>
      <trkpt lat="45.11044" lon="5.38179">
        <ele>707.21899414062</ele>
        <time>2010-04-20T14:29:10Z</time>
      </trkpt>
      <trkpt lat="45.11047" lon="5.38152">
        <ele>709.166015625</ele>
        <time>2010-04-20T14:29:16Z</time>
      </trkpt>
      <trkpt lat="45.11049" lon="5.38124">
        <ele>710.57000732422</ele>
        <time>2010-04-20T14:29:21Z</time>
      </trkpt>
      <trkpt lat="45.11053" lon="5.38097">
        <ele>711.99700927734</ele>
        <time>2010-04-20T14:29:26Z</time>
      </trkpt>
      <trkpt lat="45.11056" lon="5.38078">
        <ele>713.07501220703</ele>
        <time>2010-04-20T14:29:30Z</time>
      </trkpt>
      <trkpt lat="45.11054" lon="5.3806">
        <ele>714.08697509766</ele>
        <time>2010-04-20T14:29:34Z</time>
      </trkpt>
      <trkpt lat="45.11042" lon="5.38047">
        <ele>715.34002685547</ele>
        <time>2010-04-20T14:29:39Z</time>
      </trkpt>
      <trkpt lat="45.11034" lon="5.38042">
        <ele>716.33801269531</ele>
        <time>2010-04-20T14:29:43Z</time>
      </trkpt>
      <trkpt lat="45.11017" lon="5.38028">
        <ele>718.08502197266</ele>
        <time>2010-04-20T14:29:51Z</time>
      </trkpt>
      <trkpt lat="45.11002" lon="5.38024">
        <ele>719.59997558594</ele>
        <time>2010-04-20T14:29:57Z</time>
      </trkpt>
      <trkpt lat="45.10987" lon="5.38025">
        <ele>720.82299804688</ele>
        <time>2010-04-20T14:30:03Z</time>
      </trkpt>
      <trkpt lat="45.10973" lon="5.38026">
        <ele>722.19897460938</ele>
        <time>2010-04-20T14:30:09Z</time>
      </trkpt>
      <trkpt lat="45.10952" lon="5.38023">
        <ele>724.15100097656</ele>
        <time>2010-04-20T14:30:18Z</time>
      </trkpt>
      <trkpt lat="45.1094" lon="5.38013">
        <ele>725.36199951172</ele>
        <time>2010-04-20T14:30:24Z</time>
      </trkpt>
      <trkpt lat="45.10926" lon="5.37991">
        <ele>727.44097900391</ele>
        <time>2010-04-20T14:30:32Z</time>
      </trkpt>
      <trkpt lat="45.1091" lon="5.37971">
        <ele>728.58001708984</ele>
        <time>2010-04-20T14:30:40Z</time>
      </trkpt>
      <trkpt lat="45.10892" lon="5.37955">
        <ele>730.00299072266</ele>
        <time>2010-04-20T14:30:47Z</time>
      </trkpt>
      <trkpt lat="45.10872" lon="5.37944">
        <ele>731.70001220703</ele>
        <time>2010-04-20T14:30:54Z</time>
      </trkpt>
      <trkpt lat="45.10853" lon="5.37942">
        <ele>732.96002197266</ele>
        <time>2010-04-20T14:31:00Z</time>
      </trkpt>
      <trkpt lat="45.10836" lon="5.37955">
        <ele>734.94598388672</ele>
        <time>2010-04-20T14:31:07Z</time>
      </trkpt>
      <trkpt lat="45.10818" lon="5.37965">
        <ele>736.39501953125</ele>
        <time>2010-04-20T14:31:14Z</time>
      </trkpt>
      <trkpt lat="45.10803" lon="5.37959">
        <ele>737.98498535156</ele>
        <time>2010-04-20T14:31:20Z</time>
      </trkpt>
      <trkpt lat="45.10779" lon="5.3794">
        <ele>739.84899902344</ele>
        <time>2010-04-20T14:31:29Z</time>
      </trkpt>
      <trkpt lat="45.10759" lon="5.37929">
        <ele>741.53698730469</ele>
        <time>2010-04-20T14:31:36Z</time>
      </trkpt>
      <trkpt lat="45.10732" lon="5.3792">
        <ele>743.45300292969</ele>
        <time>2010-04-20T14:31:45Z</time>
      </trkpt>
      <trkpt lat="45.10721" lon="5.37921">
        <ele>744.50701904297</ele>
        <time>2010-04-20T14:31:49Z</time>
      </trkpt>
      <trkpt lat="45.10706" lon="5.37923">
        <ele>745.58502197266</ele>
        <time>2010-04-20T14:31:55Z</time>
      </trkpt>
      <trkpt lat="45.10695" lon="5.37913">
        <ele>746.88897705078</ele>
        <time>2010-04-20T14:32:00Z</time>
      </trkpt>
      <trkpt lat="45.10688" lon="5.37897">
        <ele>747.73101806641</ele>
        <time>2010-04-20T14:32:05Z</time>
      </trkpt>
      <trkpt lat="45.10679" lon="5.37883">
        <ele>748.72198486328</ele>
        <time>2010-04-20T14:32:10Z</time>
      </trkpt>
      <trkpt lat="45.10666" lon="5.37875">
        <ele>749.71398925781</ele>
        <time>2010-04-20T14:32:15Z</time>
      </trkpt>
      <trkpt lat="45.10648" lon="5.37871">
        <ele>750.40698242188</ele>
        <time>2010-04-20T14:32:21Z</time>
      </trkpt>
      <trkpt lat="45.10622" lon="5.37866">
        <ele>751.57598876953</ele>
        <time>2010-04-20T14:32:29Z</time>
      </trkpt>
      <trkpt lat="45.10607" lon="5.37865">
        <ele>753.125</ele>
        <time>2010-04-20T14:32:35Z</time>
      </trkpt>
      <trkpt lat="45.10593" lon="5.37863">
        <ele>753.72497558594</ele>
        <time>2010-04-20T14:32:40Z</time>
      </trkpt>
      <trkpt lat="45.10585" lon="5.37853">
        <ele>754.01898193359</ele>
        <time>2010-04-20T14:32:43Z</time>
      </trkpt>
      <trkpt lat="45.10587" lon="5.37844">
        <ele>754.68597412109</ele>
        <time>2010-04-20T14:32:46Z</time>
      </trkpt>
      <trkpt lat="45.1059" lon="5.3783">
        <ele>755.94799804688</ele>
        <time>2010-04-20T14:32:52Z</time>
      </trkpt>
      <trkpt lat="45.1059" lon="5.37801">
        <ele>758.125</ele>
        <time>2010-04-20T14:33:00Z</time>
      </trkpt>
      <trkpt lat="45.1059" lon="5.3778">
        <ele>758.97497558594</ele>
        <time>2010-04-20T14:33:06Z</time>
      </trkpt>
      <trkpt lat="45.10591" lon="5.3776">
        <ele>760.13201904297</ele>
        <time>2010-04-20T14:33:12Z</time>
      </trkpt>
      <trkpt lat="45.1059" lon="5.37753">
        <ele>760.73699951172</ele>
        <time>2010-04-20T14:33:14Z</time>
      </trkpt>
      <trkpt lat="45.10591" lon="5.37727">
        <ele>762.64300537109</ele>
        <time>2010-04-20T14:33:22Z</time>
      </trkpt>
      <trkpt lat="45.10593" lon="5.37708">
        <ele>763.57000732422</ele>
        <time>2010-04-20T14:33:28Z</time>
      </trkpt>
      <trkpt lat="45.10591" lon="5.37694">
        <ele>764.47998046875</ele>
        <time>2010-04-20T14:33:32Z</time>
      </trkpt>
      <trkpt lat="45.10586" lon="5.37675">
        <ele>765.47802734375</ele>
        <time>2010-04-20T14:33:38Z</time>
      </trkpt>
      <trkpt lat="45.10577" lon="5.37653">
        <ele>766.39300537109</ele>
        <time>2010-04-20T14:33:44Z</time>
      </trkpt>
      <trkpt lat="45.10568" lon="5.37629">
        <ele>767.70697021484</ele>
        <time>2010-04-20T14:33:51Z</time>
      </trkpt>
      <trkpt lat="45.10559" lon="5.37612">
        <ele>768.92999267578</ele>
        <time>2010-04-20T14:33:57Z</time>
      </trkpt>
      <trkpt lat="45.10547" lon="5.37595">
        <ele>770.53100585938</ele>
        <time>2010-04-20T14:34:04Z</time>
      </trkpt>
      <trkpt lat="45.10528" lon="5.37575">
        <ele>772.76000976562</ele>
        <time>2010-04-20T14:34:13Z</time>
      </trkpt>
      <trkpt lat="45.10513" lon="5.37556">
        <ele>774.43902587891</ele>
        <time>2010-04-20T14:34:21Z</time>
      </trkpt>
      <trkpt lat="45.10502" lon="5.37539">
        <ele>775.67602539062</ele>
        <time>2010-04-20T14:34:27Z</time>
      </trkpt>
      <trkpt lat="45.10491" lon="5.37519">
        <ele>777.25598144531</ele>
        <time>2010-04-20T14:34:33Z</time>
      </trkpt>
      <trkpt lat="45.10472" lon="5.37502">
        <ele>779.13098144531</ele>
        <time>2010-04-20T14:34:41Z</time>
      </trkpt>
      <trkpt lat="45.10467" lon="5.37499">
        <ele>779.70001220703</ele>
        <time>2010-04-20T14:34:44Z</time>
      </trkpt>
      <trkpt lat="45.10466" lon="5.37497">
        <ele>780.04302978516</ele>
        <time>2010-04-20T14:34:47Z</time>
      </trkpt>
      <trkpt lat="45.10462" lon="5.37495">
        <ele>781.04901123047</ele>
        <time>2010-04-20T14:36:22Z</time>
      </trkpt>
      <trkpt lat="45.10461" lon="5.37494">
        <ele>781.06500244141</ele>
        <time>2010-04-20T14:36:23Z</time>
      </trkpt>
      <trkpt lat="45.10454" lon="5.37491">
        <ele>781.97802734375</ele>
        <time>2010-04-20T14:36:29Z</time>
      </trkpt>
      <trkpt lat="45.10443" lon="5.37484">
        <ele>783.20098876953</ele>
        <time>2010-04-20T14:36:35Z</time>
      </trkpt>
      <trkpt lat="45.10431" lon="5.37472">
        <ele>784.47601318359</ele>
        <time>2010-04-20T14:36:41Z</time>
      </trkpt>
      <trkpt lat="45.10424" lon="5.3746">
        <ele>785.59899902344</ele>
        <time>2010-04-20T14:36:46Z</time>
      </trkpt>
      <trkpt lat="45.10414" lon="5.37443">
        <ele>786.81402587891</ele>
        <time>2010-04-20T14:36:52Z</time>
      </trkpt>
      <trkpt lat="45.10401" lon="5.37425">
        <ele>788.48101806641</ele>
        <time>2010-04-20T14:36:59Z</time>
      </trkpt>
      <trkpt lat="45.10389" lon="5.37406">
        <ele>790.15100097656</ele>
        <time>2010-04-20T14:37:06Z</time>
      </trkpt>
      <trkpt lat="45.10375" lon="5.37385">
        <ele>792.03100585938</ele>
        <time>2010-04-20T14:37:13Z</time>
      </trkpt>
      <trkpt lat="45.10367" lon="5.3737">
        <ele>793.41497802734</ele>
        <time>2010-04-20T14:37:18Z</time>
      </trkpt>
      <trkpt lat="45.1036" lon="5.37356">
        <ele>794.61297607422</ele>
        <time>2010-04-20T14:37:24Z</time>
      </trkpt>
      <trkpt lat="45.10357" lon="5.37339">
        <ele>795.84002685547</ele>
        <time>2010-04-20T14:37:30Z</time>
      </trkpt>
      <trkpt lat="45.10353" lon="5.3732">
        <ele>796.59197998047</ele>
        <time>2010-04-20T14:37:36Z</time>
      </trkpt>
      <trkpt lat="45.10345" lon="5.37311">
        <ele>797.67297363281</ele>
        <time>2010-04-20T14:37:40Z</time>
      </trkpt>
      <trkpt lat="45.1033" lon="5.37314">
        <ele>799.01800537109</ele>
        <time>2010-04-20T14:37:46Z</time>
      </trkpt>
      <trkpt lat="45.10307" lon="5.37329">
        <ele>800.85302734375</ele>
        <time>2010-04-20T14:37:55Z</time>
      </trkpt>
      <trkpt lat="45.10291" lon="5.3734">
        <ele>802.39398193359</ele>
        <time>2010-04-20T14:38:01Z</time>
      </trkpt>
      <trkpt lat="45.10276" lon="5.37351">
        <ele>803.69598388672</ele>
        <time>2010-04-20T14:38:07Z</time>
      </trkpt>
      <trkpt lat="45.10249" lon="5.37372">
        <ele>806.67797851562</ele>
        <time>2010-04-20T14:38:18Z</time>
      </trkpt>
      <trkpt lat="45.10234" lon="5.37382">
        <ele>808.25299072266</ele>
        <time>2010-04-20T14:38:25Z</time>
      </trkpt>
      <trkpt lat="45.10215" lon="5.3739">
        <ele>809.77801513672</ele>
        <time>2010-04-20T14:38:33Z</time>
      </trkpt>
      <trkpt lat="45.10201" lon="5.37395">
        <ele>811.08898925781</ele>
        <time>2010-04-20T14:38:39Z</time>
      </trkpt>
      <trkpt lat="45.10173" lon="5.37401">
        <ele>813.55902099609</ele>
        <time>2010-04-20T14:38:50Z</time>
      </trkpt>
      <trkpt lat="45.10152" lon="5.37399">
        <ele>815.375</ele>
        <time>2010-04-20T14:38:58Z</time>
      </trkpt>
      <trkpt lat="45.10132" lon="5.37388">
        <ele>817.24597167969</ele>
        <time>2010-04-20T14:39:06Z</time>
      </trkpt>
      <trkpt lat="45.10122" lon="5.37373">
        <ele>818.73297119141</ele>
        <time>2010-04-20T14:39:12Z</time>
      </trkpt>
      <trkpt lat="45.10119" lon="5.37352">
        <ele>820.09698486328</ele>
        <time>2010-04-20T14:39:18Z</time>
      </trkpt>
      <trkpt lat="45.10118" lon="5.37321">
        <ele>821.89300537109</ele>
        <time>2010-04-20T14:39:26Z</time>
      </trkpt>
      <trkpt lat="45.10114" lon="5.37303">
        <ele>822.89300537109</ele>
        <time>2010-04-20T14:39:31Z</time>
      </trkpt>
      <trkpt lat="45.10101" lon="5.37286">
        <ele>824.42401123047</ele>
        <time>2010-04-20T14:39:37Z</time>
      </trkpt>
      <trkpt lat="45.10087" lon="5.37282">
        <ele>825.52001953125</ele>
        <time>2010-04-20T14:39:42Z</time>
      </trkpt>
      <trkpt lat="45.10064" lon="5.3728">
        <ele>827.58898925781</ele>
        <time>2010-04-20T14:39:50Z</time>
      </trkpt>
      <trkpt lat="45.10043" lon="5.3728">
        <ele>829.24700927734</ele>
        <time>2010-04-20T14:39:57Z</time>
      </trkpt>
      <trkpt lat="45.10028" lon="5.3729">
        <ele>830.83502197266</ele>
        <time>2010-04-20T14:40:03Z</time>
      </trkpt>
      <trkpt lat="45.10007" lon="5.37313">
        <ele>833.06500244141</ele>
        <time>2010-04-20T14:40:12Z</time>
      </trkpt>
      <trkpt lat="45.09989" lon="5.37318">
        <ele>834.76397705078</ele>
        <time>2010-04-20T14:40:19Z</time>
      </trkpt>
      <trkpt lat="45.09977" lon="5.37314">
        <ele>836.10101318359</ele>
        <time>2010-04-20T14:40:24Z</time>
      </trkpt>
      <trkpt lat="45.09968" lon="5.373">
        <ele>837.39501953125</ele>
        <time>2010-04-20T14:40:29Z</time>
      </trkpt>
      <trkpt lat="45.09956" lon="5.37273">
        <ele>839.17498779297</ele>
        <time>2010-04-20T14:40:37Z</time>
      </trkpt>
      <trkpt lat="45.09944" lon="5.3725">
        <ele>840.86199951172</ele>
        <time>2010-04-20T14:40:44Z</time>
      </trkpt>
      <trkpt lat="45.09932" lon="5.37245">
        <ele>842.02301025391</ele>
        <time>2010-04-20T14:40:49Z</time>
      </trkpt>
      <trkpt lat="45.09913" lon="5.37248">
        <ele>843.58502197266</ele>
        <time>2010-04-20T14:40:56Z</time>
      </trkpt>
      <trkpt lat="45.09895" lon="5.37254">
        <ele>845.46197509766</ele>
        <time>2010-04-20T14:41:03Z</time>
      </trkpt>
      <trkpt lat="45.09871" lon="5.37264">
        <ele>847.37097167969</ele>
        <time>2010-04-20T14:41:12Z</time>
      </trkpt>
      <trkpt lat="45.09852" lon="5.37275">
        <ele>849.43499755859</ele>
        <time>2010-04-20T14:41:20Z</time>
      </trkpt>
      <trkpt lat="45.09831" lon="5.37286">
        <ele>851.07098388672</ele>
        <time>2010-04-20T14:41:28Z</time>
      </trkpt>
      <trkpt lat="45.09816" lon="5.37292">
        <ele>852.51202392578</ele>
        <time>2010-04-20T14:41:34Z</time>
      </trkpt>
      <trkpt lat="45.09803" lon="5.37293">
        <ele>853.34600830078</ele>
        <time>2010-04-20T14:41:39Z</time>
      </trkpt>
      <trkpt lat="45.09793" lon="5.37282">
        <ele>854.04602050781</ele>
        <time>2010-04-20T14:41:44Z</time>
      </trkpt>
      <trkpt lat="45.09793" lon="5.37272">
        <ele>855.29699707031</ele>
        <time>2010-04-20T14:41:47Z</time>
      </trkpt>
      <trkpt lat="45.09798" lon="5.37256">
        <ele>856.33697509766</ele>
        <time>2010-04-20T14:41:52Z</time>
      </trkpt>
      <trkpt lat="45.09803" lon="5.3724">
        <ele>857.46801757812</ele>
        <time>2010-04-20T14:41:57Z</time>
      </trkpt>
      <trkpt lat="45.09804" lon="5.37215">
        <ele>859.15899658203</ele>
        <time>2010-04-20T14:42:04Z</time>
      </trkpt>
      <trkpt lat="45.09798" lon="5.37195">
        <ele>860.26202392578</ele>
        <time>2010-04-20T14:42:09Z</time>
      </trkpt>
      <trkpt lat="45.09797" lon="5.37178">
        <ele>861.71398925781</ele>
        <time>2010-04-20T14:42:14Z</time>
      </trkpt>
      <trkpt lat="45.09803" lon="5.37155">
        <ele>863.2919921875</ele>
        <time>2010-04-20T14:42:22Z</time>
      </trkpt>
      <trkpt lat="45.09809" lon="5.37137">
        <ele>864.28601074219</ele>
        <time>2010-04-20T14:42:28Z</time>
      </trkpt>
      <trkpt lat="45.0981" lon="5.37118">
        <ele>865.58099365234</ele>
        <time>2010-04-20T14:42:34Z</time>
      </trkpt>
      <trkpt lat="45.09808" lon="5.37098">
        <ele>866.94598388672</ele>
        <time>2010-04-20T14:42:40Z</time>
      </trkpt>
      <trkpt lat="45.09805" lon="5.37074">
        <ele>868.50701904297</ele>
        <time>2010-04-20T14:42:47Z</time>
      </trkpt>
      <trkpt lat="45.098" lon="5.3705">
        <ele>870.15197753906</ele>
        <time>2010-04-20T14:42:54Z</time>
      </trkpt>
      <trkpt lat="45.09787" lon="5.37031">
        <ele>871.26000976562</ele>
        <time>2010-04-20T14:43:01Z</time>
      </trkpt>
      <trkpt lat="45.09772" lon="5.37022">
        <ele>873.36999511719</ele>
        <time>2010-04-20T14:43:07Z</time>
      </trkpt>
      <trkpt lat="45.0976" lon="5.37008">
        <ele>874.71899414062</ele>
        <time>2010-04-20T14:43:14Z</time>
      </trkpt>
      <trkpt lat="45.09756" lon="5.36992">
        <ele>876.208984375</ele>
        <time>2010-04-20T14:43:20Z</time>
      </trkpt>
      <trkpt lat="45.09747" lon="5.36975">
        <ele>877.52600097656</ele>
        <time>2010-04-20T14:43:27Z</time>
      </trkpt>
      <trkpt lat="45.0974" lon="5.36969">
        <ele>878.21502685547</ele>
        <time>2010-04-20T14:43:31Z</time>
      </trkpt>
      <trkpt lat="45.09736" lon="5.36963">
        <ele>879.0009765625</ele>
        <time>2010-04-20T14:43:36Z</time>
      </trkpt>
      <trkpt lat="45.0975" lon="5.36981">
        <ele>877.20098876953</ele>
        <time>2010-04-20T14:43:58Z</time>
      </trkpt>
      <trkpt lat="45.09757" lon="5.37004">
        <ele>875.99798583984</ele>
        <time>2010-04-20T14:44:05Z</time>
      </trkpt>
      <trkpt lat="45.09764" lon="5.37016">
        <ele>874.11297607422</ele>
        <time>2010-04-20T14:44:09Z</time>
      </trkpt>
      <trkpt lat="45.09782" lon="5.3703">
        <ele>872.92102050781</ele>
        <time>2010-04-20T14:44:14Z</time>
      </trkpt>
      <trkpt lat="45.0979" lon="5.37038">
        <ele>872.10797119141</ele>
        <time>2010-04-20T14:44:18Z</time>
      </trkpt>
      <trkpt lat="45.09797" lon="5.37046">
        <ele>871.33898925781</ele>
        <time>2010-04-20T14:44:22Z</time>
      </trkpt>
      <trkpt lat="45.09801" lon="5.37051">
        <ele>871.07397460938</ele>
        <time>2010-04-20T14:44:27Z</time>
      </trkpt>
      <trkpt lat="45.09797" lon="5.37045">
        <ele>871.29302978516</ele>
        <time>2010-04-20T14:44:31Z</time>
      </trkpt>
      <trkpt lat="45.09794" lon="5.3704">
        <ele>871.52301025391</ele>
        <time>2010-04-20T14:44:33Z</time>
      </trkpt>
      <trkpt lat="45.09782" lon="5.37029">
        <ele>873.24798583984</ele>
        <time>2010-04-20T14:44:39Z</time>
      </trkpt>
      <trkpt lat="45.09766" lon="5.37019">
        <ele>874.60198974609</ele>
        <time>2010-04-20T14:44:46Z</time>
      </trkpt>
      <trkpt lat="45.09759" lon="5.37006">
        <ele>875.94299316406</ele>
        <time>2010-04-20T14:44:51Z</time>
      </trkpt>
      <trkpt lat="45.09752" lon="5.36985">
        <ele>877.35198974609</ele>
        <time>2010-04-20T14:44:58Z</time>
      </trkpt>
      <trkpt lat="45.09751" lon="5.36983">
        <ele>877.95397949219</ele>
        <time>2010-04-20T14:44:59Z</time>
      </trkpt>
      <trkpt lat="45.09751" lon="5.36983">
        <ele>877.66802978516</ele>
        <time>2010-04-20T14:45:01Z</time>
      </trkpt>
      <trkpt lat="45.09747" lon="5.36975">
        <ele>879.12799072266</ele>
        <time>2010-04-20T14:47:11Z</time>
      </trkpt>
      <trkpt lat="45.09745" lon="5.36972">
        <ele>879.48400878906</ele>
        <time>2010-04-20T14:47:13Z</time>
      </trkpt>
      <trkpt lat="45.09735" lon="5.36962">
        <ele>880.46002197266</ele>
        <time>2010-04-20T14:47:18Z</time>
      </trkpt>
      <trkpt lat="45.09714" lon="5.36941">
        <ele>882.84100341797</ele>
        <time>2010-04-20T14:47:27Z</time>
      </trkpt>
      <trkpt lat="45.097" lon="5.3693">
        <ele>884.47601318359</ele>
        <time>2010-04-20T14:47:32Z</time>
      </trkpt>
      <trkpt lat="45.09694" lon="5.3693">
        <ele>884.86602783203</ele>
        <time>2010-04-20T14:47:34Z</time>
      </trkpt>
      <trkpt lat="45.09688" lon="5.36941">
        <ele>885.87200927734</ele>
        <time>2010-04-20T14:47:38Z</time>
      </trkpt>
      <trkpt lat="45.09698" lon="5.36957">
        <ele>886.35601806641</ele>
        <time>2010-04-20T14:47:45Z</time>
      </trkpt>
      <trkpt lat="45.09715" lon="5.36974">
        <ele>887.39697265625</ele>
        <time>2010-04-20T14:47:52Z</time>
      </trkpt>
      <trkpt lat="45.09723" lon="5.36995">
        <ele>888.14001464844</ele>
        <time>2010-04-20T14:47:58Z</time>
      </trkpt>
      <trkpt lat="45.09723" lon="5.37015">
        <ele>890.13500976562</ele>
        <time>2010-04-20T14:48:04Z</time>
      </trkpt>
      <trkpt lat="45.09728" lon="5.37042">
        <ele>891.60400390625</ele>
        <time>2010-04-20T14:48:12Z</time>
      </trkpt>
      <trkpt lat="45.09737" lon="5.3707">
        <ele>893.90399169922</ele>
        <time>2010-04-20T14:48:21Z</time>
      </trkpt>
      <trkpt lat="45.09739" lon="5.37095">
        <ele>895.38299560547</ele>
        <time>2010-04-20T14:48:28Z</time>
      </trkpt>
      <trkpt lat="45.09732" lon="5.37123">
        <ele>897.47601318359</ele>
        <time>2010-04-20T14:48:36Z</time>
      </trkpt>
      <trkpt lat="45.09725" lon="5.37136">
        <ele>898.51599121094</ele>
        <time>2010-04-20T14:48:41Z</time>
      </trkpt>
      <trkpt lat="45.0971" lon="5.37159">
        <ele>900.67297363281</ele>
        <time>2010-04-20T14:48:50Z</time>
      </trkpt>
      <trkpt lat="45.09697" lon="5.37181">
        <ele>902.91101074219</ele>
        <time>2010-04-20T14:48:57Z</time>
      </trkpt>
      <trkpt lat="45.09692" lon="5.37193">
        <ele>904.01898193359</ele>
        <time>2010-04-20T14:49:01Z</time>
      </trkpt>
      <trkpt lat="45.0969" lon="5.3721">
        <ele>905.19598388672</ele>
        <time>2010-04-20T14:49:06Z</time>
      </trkpt>
      <trkpt lat="45.09692" lon="5.37234">
        <ele>906.56298828125</ele>
        <time>2010-04-20T14:49:12Z</time>
      </trkpt>
      <trkpt lat="45.09695" lon="5.3725">
        <ele>907.83801269531</ele>
        <time>2010-04-20T14:49:17Z</time>
      </trkpt>
      <trkpt lat="45.09696" lon="5.37271">
        <ele>909.03100585938</ele>
        <time>2010-04-20T14:49:23Z</time>
      </trkpt>
      <trkpt lat="45.09698" lon="5.3729">
        <ele>910.20202636719</ele>
        <time>2010-04-20T14:49:28Z</time>
      </trkpt>
      <trkpt lat="45.09698" lon="5.37297">
        <ele>911.27899169922</ele>
        <time>2010-04-20T14:49:30Z</time>
      </trkpt>
      <trkpt lat="45.09697" lon="5.37319">
        <ele>912.97497558594</ele>
        <time>2010-04-20T14:49:36Z</time>
      </trkpt>
      <trkpt lat="45.09696" lon="5.37344">
        <ele>915.05603027344</ele>
        <time>2010-04-20T14:49:42Z</time>
      </trkpt>
      <trkpt lat="45.09697" lon="5.37365">
        <ele>916.17602539062</ele>
        <time>2010-04-20T14:49:47Z</time>
      </trkpt>
      <trkpt lat="45.09698" lon="5.37369">
        <ele>916.70501708984</ele>
        <time>2010-04-20T14:49:48Z</time>
      </trkpt>
      <trkpt lat="45.09701" lon="5.37394">
        <ele>917.86297607422</ele>
        <time>2010-04-20T14:49:55Z</time>
      </trkpt>
      <trkpt lat="45.09704" lon="5.3741">
        <ele>918.83697509766</ele>
        <time>2010-04-20T14:50:00Z</time>
      </trkpt>
      <trkpt lat="45.09707" lon="5.37429">
        <ele>920.56799316406</ele>
        <time>2010-04-20T14:50:05Z</time>
      </trkpt>
      <trkpt lat="45.09715" lon="5.3745">
        <ele>921.68298339844</ele>
        <time>2010-04-20T14:50:11Z</time>
      </trkpt>
      <trkpt lat="45.09722" lon="5.37458">
        <ele>922.99499511719</ele>
        <time>2010-04-20T14:50:16Z</time>
      </trkpt>
      <trkpt lat="45.09731" lon="5.37464">
        <ele>924.11401367188</ele>
        <time>2010-04-20T14:50:21Z</time>
      </trkpt>
      <trkpt lat="45.09745" lon="5.37468">
        <ele>925.65100097656</ele>
        <time>2010-04-20T14:50:26Z</time>
      </trkpt>
      <trkpt lat="45.09748" lon="5.37469">
        <ele>925.87799072266</ele>
        <time>2010-04-20T14:50:27Z</time>
      </trkpt>
      <trkpt lat="45.09767" lon="5.37471">
        <ele>927.45202636719</ele>
        <time>2010-04-20T14:50:34Z</time>
      </trkpt>
      <trkpt lat="45.09782" lon="5.37471">
        <ele>928.85900878906</ele>
        <time>2010-04-20T14:50:39Z</time>
      </trkpt>
      <trkpt lat="45.098" lon="5.37471">
        <ele>930.0830078125</ele>
        <time>2010-04-20T14:50:46Z</time>
      </trkpt>
      <trkpt lat="45.09815" lon="5.37474">
        <ele>931.75201416016</ele>
        <time>2010-04-20T14:50:52Z</time>
      </trkpt>
      <trkpt lat="45.0983" lon="5.37491">
        <ele>933.45202636719</ele>
        <time>2010-04-20T14:50:59Z</time>
      </trkpt>
      <trkpt lat="45.0984" lon="5.37508">
        <ele>935.14599609375</ele>
        <time>2010-04-20T14:51:05Z</time>
      </trkpt>
      <trkpt lat="45.09848" lon="5.37522">
        <ele>936.07800292969</ele>
        <time>2010-04-20T14:51:10Z</time>
      </trkpt>
      <trkpt lat="45.09855" lon="5.37532">
        <ele>937.12701416016</ele>
        <time>2010-04-20T14:51:14Z</time>
      </trkpt>
      <trkpt lat="45.09866" lon="5.37549">
        <ele>938.92999267578</ele>
        <time>2010-04-20T14:51:21Z</time>
      </trkpt>
      <trkpt lat="45.0988" lon="5.37569">
        <ele>940.07501220703</ele>
        <time>2010-04-20T14:51:28Z</time>
      </trkpt>
      <trkpt lat="45.0989" lon="5.37582">
        <ele>941.46398925781</ele>
        <time>2010-04-20T14:51:33Z</time>
      </trkpt>
      <trkpt lat="45.09905" lon="5.37594">
        <ele>942.95397949219</ele>
        <time>2010-04-20T14:51:39Z</time>
      </trkpt>
      <trkpt lat="45.09919" lon="5.37601">
        <ele>943.73498535156</ele>
        <time>2010-04-20T14:51:45Z</time>
      </trkpt>
      <trkpt lat="45.0992" lon="5.37601">
        <ele>944.1259765625</ele>
        <time>2010-04-20T14:51:48Z</time>
      </trkpt>
      <trkpt lat="45.09928" lon="5.37612">
        <ele>943.83801269531</ele>
        <time>2010-04-20T14:53:28Z</time>
      </trkpt>
      <trkpt lat="45.09933" lon="5.3763">
        <ele>943.11199951172</ele>
        <time>2010-04-20T14:53:32Z</time>
      </trkpt>
      <trkpt lat="45.09941" lon="5.37668">
        <ele>940.31201171875</ele>
        <time>2010-04-20T14:53:37Z</time>
      </trkpt>
      <trkpt lat="45.09945" lon="5.37687">
        <ele>938.92901611328</ele>
        <time>2010-04-20T14:53:39Z</time>
      </trkpt>
      <trkpt lat="45.09961" lon="5.37723">
        <ele>937.64898681641</ele>
        <time>2010-04-20T14:53:43Z</time>
      </trkpt>
      <trkpt lat="45.09968" lon="5.3773">
        <ele>937.77899169922</ele>
        <time>2010-04-20T14:53:45Z</time>
      </trkpt>
      <trkpt lat="45.09972" lon="5.37732">
        <ele>937.17999267578</ele>
        <time>2010-04-20T14:54:19Z</time>
      </trkpt>
      <trkpt lat="45.09986" lon="5.37745">
        <ele>935.36401367188</ele>
        <time>2010-04-20T14:54:23Z</time>
      </trkpt>
      <trkpt lat="45.10011" lon="5.37763">
        <ele>933.25299072266</ele>
        <time>2010-04-20T14:54:27Z</time>
      </trkpt>
      <trkpt lat="45.10025" lon="5.37774">
        <ele>931.72302246094</ele>
        <time>2010-04-20T14:54:29Z</time>
      </trkpt>
      <trkpt lat="45.10043" lon="5.378">
        <ele>929.46697998047</ele>
        <time>2010-04-20T14:54:32Z</time>
      </trkpt>
      <trkpt lat="45.10046" lon="5.37813">
        <ele>927.97900390625</ele>
        <time>2010-04-20T14:54:33Z</time>
      </trkpt>
      <trkpt lat="45.1004" lon="5.37866">
        <ele>925.15399169922</ele>
        <time>2010-04-20T14:54:37Z</time>
      </trkpt>
      <trkpt lat="45.10015" lon="5.37886">
        <ele>921.72998046875</ele>
        <time>2010-04-20T14:54:40Z</time>
      </trkpt>
      <trkpt lat="45.10004" lon="5.3789">
        <ele>921.58801269531</ele>
        <time>2010-04-20T14:54:41Z</time>
      </trkpt>
      <trkpt lat="45.09973" lon="5.37898">
        <ele>919.12701416016</ele>
        <time>2010-04-20T14:54:44Z</time>
      </trkpt>
      <trkpt lat="45.09933" lon="5.37926">
        <ele>914.71099853516</ele>
        <time>2010-04-20T14:54:48Z</time>
      </trkpt>
      <trkpt lat="45.09909" lon="5.37962">
        <ele>912.27600097656</ele>
        <time>2010-04-20T14:54:51Z</time>
      </trkpt>
      <trkpt lat="45.09887" lon="5.37974">
        <ele>910.36798095703</ele>
        <time>2010-04-20T14:54:53Z</time>
      </trkpt>
      <trkpt lat="45.09816" lon="5.38">
        <ele>904.64398193359</ele>
        <time>2010-04-20T14:54:59Z</time>
      </trkpt>
      <trkpt lat="45.0976" lon="5.38045">
        <ele>900.29302978516</ele>
        <time>2010-04-20T14:55:04Z</time>
      </trkpt>
      <trkpt lat="45.09693" lon="5.38098">
        <ele>895.84899902344</ele>
        <time>2010-04-20T14:55:10Z</time>
      </trkpt>
      <trkpt lat="45.09621" lon="5.38147">
        <ele>888.86798095703</ele>
        <time>2010-04-20T14:55:16Z</time>
      </trkpt>
      <trkpt lat="45.09597" lon="5.38163">
        <ele>887.77697753906</ele>
        <time>2010-04-20T14:55:18Z</time>
      </trkpt>
      <trkpt lat="45.0952" lon="5.38188">
        <ele>883.375</ele>
        <time>2010-04-20T14:55:24Z</time>
      </trkpt>
      <trkpt lat="45.09465" lon="5.38191">
        <ele>879.44201660156</ele>
        <time>2010-04-20T14:55:28Z</time>
      </trkpt>
      <trkpt lat="45.09355" lon="5.38201">
        <ele>871.21002197266</ele>
        <time>2010-04-20T14:55:36Z</time>
      </trkpt>
      <trkpt lat="45.09275" lon="5.38213">
        <ele>866.68701171875</ele>
        <time>2010-04-20T14:55:42Z</time>
      </trkpt>
      <trkpt lat="45.09263" lon="5.38214">
        <ele>866.32397460938</ele>
        <time>2010-04-20T14:55:43Z</time>
      </trkpt>
      <trkpt lat="45.0923" lon="5.38226">
        <ele>866.125</ele>
        <time>2010-04-20T14:55:47Z</time>
      </trkpt>
      <trkpt lat="45.09211" lon="5.38252">
        <ele>864.59802246094</ele>
        <time>2010-04-20T14:55:51Z</time>
      </trkpt>
      <trkpt lat="45.09195" lon="5.38262">
        <ele>863.40802001953</ele>
        <time>2010-04-20T14:55:54Z</time>
      </trkpt>
      <trkpt lat="45.09184" lon="5.3826">
        <ele>862.92102050781</ele>
        <time>2010-04-20T14:55:56Z</time>
      </trkpt>
      <trkpt lat="45.09157" lon="5.38252">
        <ele>861.17797851562</ele>
        <time>2010-04-20T14:56:01Z</time>
      </trkpt>
      <trkpt lat="45.09153" lon="5.38252">
        <ele>860.80700683594</ele>
        <time>2010-04-20T14:56:02Z</time>
      </trkpt>
      <trkpt lat="45.09146" lon="5.38257">
        <ele>859.68499755859</ele>
        <time>2010-04-20T14:56:08Z</time>
      </trkpt>
      <trkpt lat="45.09146" lon="5.38257">
        <ele>860.07299804688</ele>
        <time>2010-04-20T14:56:12Z</time>
      </trkpt>
      <trkpt lat="45.09134" lon="5.38247">
        <ele>858.11499023438</ele>
        <time>2010-04-20T14:56:43Z</time>
      </trkpt>
      <trkpt lat="45.09129" lon="5.38247">
        <ele>857.04901123047</ele>
        <time>2010-04-20T14:56:44Z</time>
      </trkpt>
      <trkpt lat="45.09122" lon="5.38249">
        <ele>855.92999267578</ele>
        <time>2010-04-20T14:56:45Z</time>
      </trkpt>
      <trkpt lat="45.091" lon="5.38236">
        <ele>853.54302978516</ele>
        <time>2010-04-20T14:56:48Z</time>
      </trkpt>
      <trkpt lat="45.09094" lon="5.38228">
        <ele>853.37298583984</ele>
        <time>2010-04-20T14:56:49Z</time>
      </trkpt>
      <trkpt lat="45.09061" lon="5.38212">
        <ele>852.63000488281</ele>
        <time>2010-04-20T14:56:53Z</time>
      </trkpt>
      <trkpt lat="45.09052" lon="5.38213">
        <ele>851.93597412109</ele>
        <time>2010-04-20T14:56:54Z</time>
      </trkpt>
      <trkpt lat="45.09001" lon="5.38233">
        <ele>847.40100097656</ele>
        <time>2010-04-20T14:56:59Z</time>
      </trkpt>
      <trkpt lat="45.0898" lon="5.38244">
        <ele>846.51000976562</ele>
        <time>2010-04-20T14:57:01Z</time>
      </trkpt>
      <trkpt lat="45.08933" lon="5.38254">
        <ele>843.71301269531</ele>
        <time>2010-04-20T14:57:05Z</time>
      </trkpt>
      <trkpt lat="45.08896" lon="5.38258">
        <ele>841.64501953125</ele>
        <time>2010-04-20T14:57:08Z</time>
      </trkpt>
      <trkpt lat="45.08859" lon="5.38262">
        <ele>839.83599853516</ele>
        <time>2010-04-20T14:57:11Z</time>
      </trkpt>
      <trkpt lat="45.08808" lon="5.38254">
        <ele>838.55999755859</ele>
        <time>2010-04-20T14:57:15Z</time>
      </trkpt>
      <trkpt lat="45.08745" lon="5.38239">
        <ele>835.44897460938</ele>
        <time>2010-04-20T14:57:20Z</time>
      </trkpt>
      <trkpt lat="45.08619" lon="5.38218">
        <ele>831.09497070312</ele>
        <time>2010-04-20T14:57:30Z</time>
      </trkpt>
      <trkpt lat="45.08553" lon="5.38204">
        <ele>828.46398925781</ele>
        <time>2010-04-20T14:57:35Z</time>
      </trkpt>
      <trkpt lat="45.08514" lon="5.38188">
        <ele>826.55700683594</ele>
        <time>2010-04-20T14:57:38Z</time>
      </trkpt>
      <trkpt lat="45.08425" lon="5.38149">
        <ele>823.71398925781</ele>
        <time>2010-04-20T14:57:45Z</time>
      </trkpt>
      <trkpt lat="45.08398" lon="5.38138">
        <ele>823.72198486328</ele>
        <time>2010-04-20T14:57:48Z</time>
      </trkpt>
      <trkpt lat="45.08381" lon="5.3813">
        <ele>824.2919921875</ele>
        <time>2010-04-20T14:57:51Z</time>
      </trkpt>
      <trkpt lat="45.08362" lon="5.38121">
        <ele>824.01599121094</ele>
        <time>2010-04-20T14:57:57Z</time>
      </trkpt>
      <trkpt lat="45.08351" lon="5.38117">
        <ele>823.52899169922</ele>
        <time>2010-04-20T14:58:01Z</time>
      </trkpt>
      <trkpt lat="45.08322" lon="5.38104">
        <ele>822.70202636719</ele>
        <time>2010-04-20T14:58:07Z</time>
      </trkpt>
      <trkpt lat="45.083" lon="5.38094">
        <ele>822.01898193359</ele>
        <time>2010-04-20T14:58:12Z</time>
      </trkpt>
      <trkpt lat="45.08282" lon="5.38086">
        <ele>822.03497314453</ele>
        <time>2010-04-20T14:58:18Z</time>
      </trkpt>
      <trkpt lat="45.08281" lon="5.38087">
        <ele>822.27697753906</ele>
        <time>2010-04-20T14:58:19Z</time>
      </trkpt>
      <trkpt lat="45.0829" lon="5.3809">
        <ele>821.73602294922</ele>
        <time>2010-04-20T14:58:24Z</time>
      </trkpt>
      <trkpt lat="45.083" lon="5.38096">
        <ele>822.31298828125</ele>
        <time>2010-04-20T14:58:27Z</time>
      </trkpt>
      <trkpt lat="45.08308" lon="5.381">
        <ele>822.05401611328</ele>
        <time>2010-04-20T14:58:29Z</time>
      </trkpt>
      <trkpt lat="45.08339" lon="5.38113">
        <ele>821.46398925781</ele>
        <time>2010-04-20T14:58:35Z</time>
      </trkpt>
      <trkpt lat="45.08372" lon="5.38127">
        <ele>822.875</ele>
        <time>2010-04-20T14:58:41Z</time>
      </trkpt>
      <trkpt lat="45.08405" lon="5.38142">
        <ele>824.08801269531</ele>
        <time>2010-04-20T14:58:47Z</time>
      </trkpt>
      <trkpt lat="45.08443" lon="5.38158">
        <ele>825.35101318359</ele>
        <time>2010-04-20T14:58:54Z</time>
      </trkpt>
      <trkpt lat="45.08488" lon="5.38178">
        <ele>826.68103027344</ele>
        <time>2010-04-20T14:59:03Z</time>
      </trkpt>
      <trkpt lat="45.08493" lon="5.3818">
        <ele>827.33697509766</ele>
        <time>2010-04-20T14:59:04Z</time>
      </trkpt>
      <trkpt lat="45.08525" lon="5.38193">
        <ele>828.88397216797</ele>
        <time>2010-04-20T14:59:11Z</time>
      </trkpt>
      <trkpt lat="45.08533" lon="5.38197">
        <ele>829.54901123047</ele>
        <time>2010-04-20T14:59:13Z</time>
      </trkpt>
      <trkpt lat="45.08543" lon="5.38215">
        <ele>830.49200439453</ele>
        <time>2010-04-20T14:59:17Z</time>
      </trkpt>
      <trkpt lat="45.08543" lon="5.38235">
        <ele>830</ele>
        <time>2010-04-20T14:59:20Z</time>
      </trkpt>
      <trkpt lat="45.08544" lon="5.38248">
        <ele>829.85601806641</ele>
        <time>2010-04-20T14:59:22Z</time>
      </trkpt>
      <trkpt lat="45.08544" lon="5.38261">
        <ele>829.90100097656</ele>
        <time>2010-04-20T14:59:24Z</time>
      </trkpt>
      <trkpt lat="45.08545" lon="5.38276">
        <ele>830.00201416016</ele>
        <time>2010-04-20T14:59:26Z</time>
      </trkpt>
      <trkpt lat="45.08542" lon="5.38316">
        <ele>830.36602783203</ele>
        <time>2010-04-20T14:59:31Z</time>
      </trkpt>
      <trkpt lat="45.08539" lon="5.38341">
        <ele>830.81896972656</ele>
        <time>2010-04-20T14:59:34Z</time>
      </trkpt>
      <trkpt lat="45.0853" lon="5.38366">
        <ele>832.75299072266</ele>
        <time>2010-04-20T14:59:38Z</time>
      </trkpt>
      <trkpt lat="45.08518" lon="5.38373">
        <ele>834.23400878906</ele>
        <time>2010-04-20T14:59:41Z</time>
      </trkpt>
      <trkpt lat="45.08496" lon="5.38375">
        <ele>835.73101806641</ele>
        <time>2010-04-20T14:59:46Z</time>
      </trkpt>
      <trkpt lat="45.08466" lon="5.38384">
        <ele>836.90100097656</ele>
        <time>2010-04-20T14:59:52Z</time>
      </trkpt>
      <trkpt lat="45.08431" lon="5.38391">
        <ele>838.90301513672</ele>
        <time>2010-04-20T14:59:59Z</time>
      </trkpt>
      <trkpt lat="45.08401" lon="5.38398">
        <ele>840.45098876953</ele>
        <time>2010-04-20T15:00:05Z</time>
      </trkpt>
      <trkpt lat="45.08371" lon="5.38407">
        <ele>842.12902832031</ele>
        <time>2010-04-20T15:00:12Z</time>
      </trkpt>
      <trkpt lat="45.08363" lon="5.3841">
        <ele>842.7509765625</ele>
        <time>2010-04-20T15:00:14Z</time>
      </trkpt>
      <trkpt lat="45.08337" lon="5.38409">
        <ele>844.06597900391</ele>
        <time>2010-04-20T15:00:21Z</time>
      </trkpt>
      <trkpt lat="45.08307" lon="5.38412">
        <ele>845.77899169922</ele>
        <time>2010-04-20T15:00:29Z</time>
      </trkpt>
      <trkpt lat="45.08299" lon="5.38416">
        <ele>845.76000976562</ele>
        <time>2010-04-20T15:00:31Z</time>
      </trkpt>
      <trkpt lat="45.08286" lon="5.38427">
        <ele>846.69299316406</ele>
        <time>2010-04-20T15:00:35Z</time>
      </trkpt>
      <trkpt lat="45.08271" lon="5.38456">
        <ele>848.42498779297</ele>
        <time>2010-04-20T15:00:42Z</time>
      </trkpt>
      <trkpt lat="45.08261" lon="5.38486">
        <ele>848.61901855469</ele>
        <time>2010-04-20T15:00:48Z</time>
      </trkpt>
      <trkpt lat="45.08243" lon="5.38526">
        <ele>849.98199462891</ele>
        <time>2010-04-20T15:00:56Z</time>
      </trkpt>
      <trkpt lat="45.08241" lon="5.38556">
        <ele>850.78302001953</ele>
        <time>2010-04-20T15:01:01Z</time>
      </trkpt>
      <trkpt lat="45.08248" lon="5.38582">
        <ele>850.32000732422</ele>
        <time>2010-04-20T15:01:05Z</time>
      </trkpt>
      <trkpt lat="45.08249" lon="5.38616">
        <ele>851.57299804688</ele>
        <time>2010-04-20T15:01:10Z</time>
      </trkpt>
      <trkpt lat="45.08247" lon="5.38623">
        <ele>851.09698486328</ele>
        <time>2010-04-20T15:01:11Z</time>
      </trkpt>
      <trkpt lat="45.08237" lon="5.38671">
        <ele>852.60797119141</ele>
        <time>2010-04-20T15:01:18Z</time>
      </trkpt>
      <trkpt lat="45.08244" lon="5.38704">
        <ele>853.79998779297</ele>
        <time>2010-04-20T15:01:23Z</time>
      </trkpt>
      <trkpt lat="45.08263" lon="5.38715">
        <ele>853.50299072266</ele>
        <time>2010-04-20T15:01:27Z</time>
      </trkpt>
      <trkpt lat="45.08278" lon="5.38718">
        <ele>853.66302490234</ele>
        <time>2010-04-20T15:01:30Z</time>
      </trkpt>
      <trkpt lat="45.08289" lon="5.38719">
        <ele>853.97302246094</ele>
        <time>2010-04-20T15:01:32Z</time>
      </trkpt>
      <trkpt lat="45.08326" lon="5.38729">
        <ele>854.71398925781</ele>
        <time>2010-04-20T15:01:39Z</time>
      </trkpt>
      <trkpt lat="45.08331" lon="5.38731">
        <ele>854.95300292969</ele>
        <time>2010-04-20T15:01:40Z</time>
      </trkpt>
      <trkpt lat="45.08346" lon="5.3874">
        <ele>855.61499023438</ele>
        <time>2010-04-20T15:01:43Z</time>
      </trkpt>
      <trkpt lat="45.08364" lon="5.38759">
        <ele>855.98699951172</ele>
        <time>2010-04-20T15:01:47Z</time>
      </trkpt>
      <trkpt lat="45.08374" lon="5.38785">
        <ele>855.96697998047</ele>
        <time>2010-04-20T15:01:51Z</time>
      </trkpt>
      <trkpt lat="45.08371" lon="5.38799">
        <ele>856.29901123047</ele>
        <time>2010-04-20T15:01:53Z</time>
      </trkpt>
      <trkpt lat="45.08354" lon="5.38839">
        <ele>857.21301269531</ele>
        <time>2010-04-20T15:01:59Z</time>
      </trkpt>
      <trkpt lat="45.08342" lon="5.38899">
        <ele>858.02001953125</ele>
        <time>2010-04-20T15:02:07Z</time>
      </trkpt>
      <trkpt lat="45.08345" lon="5.38965">
        <ele>859.69702148438</ele>
        <time>2010-04-20T15:02:16Z</time>
      </trkpt>
      <trkpt lat="45.08347" lon="5.38987">
        <ele>859.55200195312</ele>
        <time>2010-04-20T15:02:19Z</time>
      </trkpt>
      <trkpt lat="45.0835" lon="5.39002">
        <ele>859.80499267578</ele>
        <time>2010-04-20T15:02:21Z</time>
      </trkpt>
      <trkpt lat="45.08367" lon="5.39036">
        <ele>860.33099365234</ele>
        <time>2010-04-20T15:02:27Z</time>
      </trkpt>
      <trkpt lat="45.0838" lon="5.39055">
        <ele>861.57098388672</ele>
        <time>2010-04-20T15:02:31Z</time>
      </trkpt>
      <trkpt lat="45.08389" lon="5.39088">
        <ele>862.04797363281</ele>
        <time>2010-04-20T15:02:36Z</time>
      </trkpt>
      <trkpt lat="45.08384" lon="5.39116">
        <ele>861.88397216797</ele>
        <time>2010-04-20T15:02:40Z</time>
      </trkpt>
      <trkpt lat="45.08374" lon="5.39134">
        <ele>862.43103027344</ele>
        <time>2010-04-20T15:02:43Z</time>
      </trkpt>
      <trkpt lat="45.08365" lon="5.39144">
        <ele>862.86401367188</ele>
        <time>2010-04-20T15:02:45Z</time>
      </trkpt>
      <trkpt lat="45.0835" lon="5.39166">
        <ele>862.70098876953</ele>
        <time>2010-04-20T15:02:49Z</time>
      </trkpt>
      <trkpt lat="45.08341" lon="5.39186">
        <ele>863.59899902344</ele>
        <time>2010-04-20T15:02:52Z</time>
      </trkpt>
      <trkpt lat="45.08338" lon="5.39222">
        <ele>864.20501708984</ele>
        <time>2010-04-20T15:02:57Z</time>
      </trkpt>
      <trkpt lat="45.08343" lon="5.39237">
        <ele>864.27600097656</ele>
        <time>2010-04-20T15:02:59Z</time>
      </trkpt>
      <trkpt lat="45.0835" lon="5.3926">
        <ele>864.05499267578</ele>
        <time>2010-04-20T15:03:02Z</time>
      </trkpt>
      <trkpt lat="45.08355" lon="5.39291">
        <ele>864.09698486328</ele>
        <time>2010-04-20T15:03:06Z</time>
      </trkpt>
      <trkpt lat="45.0835" lon="5.39333">
        <ele>863.70697021484</ele>
        <time>2010-04-20T15:03:11Z</time>
      </trkpt>
      <trkpt lat="45.08333" lon="5.39361">
        <ele>863.9169921875</ele>
        <time>2010-04-20T15:03:15Z</time>
      </trkpt>
      <trkpt lat="45.08321" lon="5.39373">
        <ele>863.57702636719</ele>
        <time>2010-04-20T15:03:17Z</time>
      </trkpt>
      <trkpt lat="45.08313" lon="5.39407">
        <ele>863.57702636719</ele>
        <time>2010-04-20T15:03:21Z</time>
      </trkpt>
      <trkpt lat="45.08318" lon="5.39414">
        <ele>863.44097900391</ele>
        <time>2010-04-20T15:03:22Z</time>
      </trkpt>
      <trkpt lat="45.08325" lon="5.3942">
        <ele>862.61499023438</ele>
        <time>2010-04-20T15:03:23Z</time>
      </trkpt>
      <trkpt lat="45.08332" lon="5.39425">
        <ele>861.76599121094</ele>
        <time>2010-04-20T15:03:24Z</time>
      </trkpt>
      <trkpt lat="45.08341" lon="5.39429">
        <ele>861.37799072266</ele>
        <time>2010-04-20T15:03:25Z</time>
      </trkpt>
      <trkpt lat="45.08349" lon="5.39436">
        <ele>860.71197509766</ele>
        <time>2010-04-20T15:03:26Z</time>
      </trkpt>
      <trkpt lat="45.08376" lon="5.39474">
        <ele>857.60797119141</ele>
        <time>2010-04-20T15:03:30Z</time>
      </trkpt>
      <trkpt lat="45.08396" lon="5.39535">
        <ele>858.75</ele>
        <time>2010-04-20T15:03:35Z</time>
      </trkpt>
      <trkpt lat="45.08404" lon="5.39558">
        <ele>858.05401611328</ele>
        <time>2010-04-20T15:03:37Z</time>
      </trkpt>
      <trkpt lat="45.08413" lon="5.39593">
        <ele>857.63098144531</ele>
        <time>2010-04-20T15:03:40Z</time>
      </trkpt>
      <trkpt lat="45.08408" lon="5.39638">
        <ele>859.87799072266</ele>
        <time>2010-04-20T15:03:44Z</time>
      </trkpt>
      <trkpt lat="45.08397" lon="5.3967">
        <ele>862.31799316406</ele>
        <time>2010-04-20T15:03:48Z</time>
      </trkpt>
      <trkpt lat="45.08395" lon="5.39677">
        <ele>862.53399658203</ele>
        <time>2010-04-20T15:03:49Z</time>
      </trkpt>
      <trkpt lat="45.08394" lon="5.39707">
        <ele>863.55999755859</ele>
        <time>2010-04-20T15:03:53Z</time>
      </trkpt>
      <trkpt lat="45.08397" lon="5.39721">
        <ele>863.73901367188</ele>
        <time>2010-04-20T15:03:55Z</time>
      </trkpt>
      <trkpt lat="45.08392" lon="5.39746">
        <ele>864.90399169922</ele>
        <time>2010-04-20T15:03:59Z</time>
      </trkpt>
      <trkpt lat="45.08378" lon="5.39757">
        <ele>866.76000976562</ele>
        <time>2010-04-20T15:04:03Z</time>
      </trkpt>
      <trkpt lat="45.0836" lon="5.39756">
        <ele>868.1240234375</ele>
        <time>2010-04-20T15:04:08Z</time>
      </trkpt>
      <trkpt lat="45.0835" lon="5.39749">
        <ele>869.28302001953</ele>
        <time>2010-04-20T15:04:11Z</time>
      </trkpt>
      <trkpt lat="45.08326" lon="5.39734">
        <ele>870.63299560547</ele>
        <time>2010-04-20T15:04:18Z</time>
      </trkpt>
      <trkpt lat="45.08311" lon="5.3973">
        <ele>871.78198242188</ele>
        <time>2010-04-20T15:04:22Z</time>
      </trkpt>
      <trkpt lat="45.08294" lon="5.39735">
        <ele>873.166015625</ele>
        <time>2010-04-20T15:04:28Z</time>
      </trkpt>
      <trkpt lat="45.08279" lon="5.39747">
        <ele>874.24597167969</ele>
        <time>2010-04-20T15:04:34Z</time>
      </trkpt>
      <trkpt lat="45.0827" lon="5.39761">
        <ele>875.75598144531</ele>
        <time>2010-04-20T15:04:39Z</time>
      </trkpt>
      <trkpt lat="45.08269" lon="5.39764">
        <ele>875.87097167969</ele>
        <time>2010-04-20T15:04:40Z</time>
      </trkpt>
      <trkpt lat="45.0827" lon="5.3977">
        <ele>876.63800048828</ele>
        <time>2010-04-20T15:04:42Z</time>
      </trkpt>
      <trkpt lat="45.08279" lon="5.3977">
        <ele>877.40301513672</ele>
        <time>2010-04-20T15:04:47Z</time>
      </trkpt>
      <trkpt lat="45.08281" lon="5.39769">
        <ele>877.67297363281</ele>
        <time>2010-04-20T15:04:48Z</time>
      </trkpt>
      <trkpt lat="45.08301" lon="5.39769">
        <ele>879.19702148438</ele>
        <time>2010-04-20T15:04:56Z</time>
      </trkpt>
      <trkpt lat="45.08316" lon="5.39775">
        <ele>880.43499755859</ele>
        <time>2010-04-20T15:05:03Z</time>
      </trkpt>
      <trkpt lat="45.08328" lon="5.39784">
        <ele>882.36499023438</ele>
        <time>2010-04-20T15:05:10Z</time>
      </trkpt>
      <trkpt lat="45.08335" lon="5.39796">
        <ele>883.41101074219</ele>
        <time>2010-04-20T15:05:16Z</time>
      </trkpt>
      <trkpt lat="45.08337" lon="5.39801">
        <ele>884.16198730469</ele>
        <time>2010-04-20T15:05:18Z</time>
      </trkpt>
      <trkpt lat="45.08338" lon="5.39804">
        <ele>884.33099365234</ele>
        <time>2010-04-20T15:05:19Z</time>
      </trkpt>
      <trkpt lat="45.08334" lon="5.39821">
        <ele>885.60198974609</ele>
        <time>2010-04-20T15:05:26Z</time>
      </trkpt>
      <trkpt lat="45.08329" lon="5.39827">
        <ele>886.62097167969</ele>
        <time>2010-04-20T15:05:29Z</time>
      </trkpt>
      <trkpt lat="45.08314" lon="5.39835">
        <ele>888.86602783203</ele>
        <time>2010-04-20T15:05:37Z</time>
      </trkpt>
      <trkpt lat="45.08304" lon="5.39845">
        <ele>889.70300292969</ele>
        <time>2010-04-20T15:05:42Z</time>
      </trkpt>
      <trkpt lat="45.08291" lon="5.39864">
        <ele>890.39501953125</ele>
        <time>2010-04-20T15:05:49Z</time>
      </trkpt>
      <trkpt lat="45.08278" lon="5.3989">
        <ele>890.39599609375</ele>
        <time>2010-04-20T15:05:56Z</time>
      </trkpt>
      <trkpt lat="45.08266" lon="5.39922">
        <ele>891.36798095703</ele>
        <time>2010-04-20T15:06:03Z</time>
      </trkpt>
      <trkpt lat="45.08253" lon="5.39958">
        <ele>892.6669921875</ele>
        <time>2010-04-20T15:06:11Z</time>
      </trkpt>
      <trkpt lat="45.08249" lon="5.39962">
        <ele>893.42901611328</ele>
        <time>2010-04-20T15:06:13Z</time>
      </trkpt>
      <trkpt lat="45.08233" lon="5.39974">
        <ele>895.2509765625</ele>
        <time>2010-04-20T15:06:20Z</time>
      </trkpt>
      <trkpt lat="45.08221" lon="5.3999">
        <ele>896.94500732422</ele>
        <time>2010-04-20T15:06:26Z</time>
      </trkpt>
      <trkpt lat="45.08216" lon="5.4001">
        <ele>897.14697265625</ele>
        <time>2010-04-20T15:06:31Z</time>
      </trkpt>
      <trkpt lat="45.08215" lon="5.40039">
        <ele>898.75897216797</ele>
        <time>2010-04-20T15:06:37Z</time>
      </trkpt>
      <trkpt lat="45.08205" lon="5.40064">
        <ele>900.08502197266</ele>
        <time>2010-04-20T15:06:43Z</time>
      </trkpt>
      <trkpt lat="45.08189" lon="5.40083">
        <ele>902.17999267578</ele>
        <time>2010-04-20T15:06:49Z</time>
      </trkpt>
      <trkpt lat="45.08175" lon="5.40104">
        <ele>904.10699462891</ele>
        <time>2010-04-20T15:06:56Z</time>
      </trkpt>
      <trkpt lat="45.08167" lon="5.40135">
        <ele>905.44897460938</ele>
        <time>2010-04-20T15:07:03Z</time>
      </trkpt>
      <trkpt lat="45.08168" lon="5.40177">
        <ele>906.7919921875</ele>
        <time>2010-04-20T15:07:11Z</time>
      </trkpt>
      <trkpt lat="45.08176" lon="5.40213">
        <ele>907.7490234375</ele>
        <time>2010-04-20T15:07:18Z</time>
      </trkpt>
      <trkpt lat="45.08178" lon="5.40218">
        <ele>907.63201904297</ele>
        <time>2010-04-20T15:07:19Z</time>
      </trkpt>
      <trkpt lat="45.0818" lon="5.40247">
        <ele>908.15802001953</ele>
        <time>2010-04-20T15:07:24Z</time>
      </trkpt>
      <trkpt lat="45.08183" lon="5.4028">
        <ele>907.85699462891</ele>
        <time>2010-04-20T15:07:29Z</time>
      </trkpt>
      <trkpt lat="45.08194" lon="5.40298">
        <ele>909.17401123047</ele>
        <time>2010-04-20T15:07:33Z</time>
      </trkpt>
      <trkpt lat="45.0822" lon="5.40308">
        <ele>911.68701171875</ele>
        <time>2010-04-20T15:07:40Z</time>
      </trkpt>
      <trkpt lat="45.08223" lon="5.4031">
        <ele>911.93701171875</ele>
        <time>2010-04-20T15:07:41Z</time>
      </trkpt>
      <trkpt lat="45.08232" lon="5.40315">
        <ele>913.20697021484</ele>
        <time>2010-04-20T15:07:44Z</time>
      </trkpt>
      <trkpt lat="45.08249" lon="5.40318">
        <ele>914.53302001953</ele>
        <time>2010-04-20T15:07:51Z</time>
      </trkpt>
      <trkpt lat="45.0826" lon="5.40308">
        <ele>916.49298095703</ele>
        <time>2010-04-20T15:07:57Z</time>
      </trkpt>
      <trkpt lat="45.08272" lon="5.40287">
        <ele>918.1669921875</ele>
        <time>2010-04-20T15:08:04Z</time>
      </trkpt>
      <trkpt lat="45.08285" lon="5.40262">
        <ele>919.74597167969</ele>
        <time>2010-04-20T15:08:11Z</time>
      </trkpt>
      <trkpt lat="45.08299" lon="5.40234">
        <ele>921.99298095703</ele>
        <time>2010-04-20T15:08:18Z</time>
      </trkpt>
      <trkpt lat="45.08316" lon="5.40211">
        <ele>923.39001464844</ele>
        <time>2010-04-20T15:08:25Z</time>
      </trkpt>
      <trkpt lat="45.08322" lon="5.40209">
        <ele>923.96502685547</ele>
        <time>2010-04-20T15:08:27Z</time>
      </trkpt>
      <trkpt lat="45.08336" lon="5.40227">
        <ele>925.88201904297</ele>
        <time>2010-04-20T15:08:33Z</time>
      </trkpt>
      <trkpt lat="45.08339" lon="5.40254">
        <ele>926.67498779297</ele>
        <time>2010-04-20T15:08:39Z</time>
      </trkpt>
      <trkpt lat="45.08339" lon="5.40263">
        <ele>927.02697753906</ele>
        <time>2010-04-20T15:08:41Z</time>
      </trkpt>
      <trkpt lat="45.08345" lon="5.40288">
        <ele>928.69097900391</ele>
        <time>2010-04-20T15:08:47Z</time>
      </trkpt>
      <trkpt lat="45.0835" lon="5.40295">
        <ele>929.4169921875</ele>
        <time>2010-04-20T15:08:49Z</time>
      </trkpt>
      <trkpt lat="45.08369" lon="5.40311">
        <ele>931.17602539062</ele>
        <time>2010-04-20T15:08:56Z</time>
      </trkpt>
      <trkpt lat="45.08381" lon="5.40307">
        <ele>931.68902587891</ele>
        <time>2010-04-20T15:09:00Z</time>
      </trkpt>
      <trkpt lat="45.08399" lon="5.40291">
        <ele>933.46502685547</ele>
        <time>2010-04-20T15:09:06Z</time>
      </trkpt>
      <trkpt lat="45.08423" lon="5.40269">
        <ele>935.58099365234</ele>
        <time>2010-04-20T15:09:14Z</time>
      </trkpt>
      <trkpt lat="45.08456" lon="5.40238">
        <ele>938.86602783203</ele>
        <time>2010-04-20T15:09:26Z</time>
      </trkpt>
      <trkpt lat="45.08478" lon="5.4022">
        <ele>941.03399658203</ele>
        <time>2010-04-20T15:09:34Z</time>
      </trkpt>
      <trkpt lat="45.08502" lon="5.40199">
        <ele>943.70397949219</ele>
        <time>2010-04-20T15:09:43Z</time>
      </trkpt>
      <trkpt lat="45.08522" lon="5.40189">
        <ele>945.48400878906</ele>
        <time>2010-04-20T15:09:50Z</time>
      </trkpt>
      <trkpt lat="45.08547" lon="5.40177">
        <ele>947.36999511719</ele>
        <time>2010-04-20T15:09:59Z</time>
      </trkpt>
      <trkpt lat="45.08566" lon="5.40165">
        <ele>948.77502441406</ele>
        <time>2010-04-20T15:10:06Z</time>
      </trkpt>
      <trkpt lat="45.08587" lon="5.40156">
        <ele>950.16497802734</ele>
        <time>2010-04-20T15:10:13Z</time>
      </trkpt>
      <trkpt lat="45.08595" lon="5.40154">
        <ele>951.47601318359</ele>
        <time>2010-04-20T15:10:16Z</time>
      </trkpt>
      <trkpt lat="45.08618" lon="5.40152">
        <ele>952.89898681641</ele>
        <time>2010-04-20T15:10:24Z</time>
      </trkpt>
      <trkpt lat="45.08642" lon="5.40153">
        <ele>955.32897949219</ele>
        <time>2010-04-20T15:10:33Z</time>
      </trkpt>
      <trkpt lat="45.08662" lon="5.40155">
        <ele>956.83001708984</ele>
        <time>2010-04-20T15:10:40Z</time>
      </trkpt>
      <trkpt lat="45.08688" lon="5.40164">
        <ele>959.11401367188</ele>
        <time>2010-04-20T15:10:50Z</time>
      </trkpt>
      <trkpt lat="45.08712" lon="5.4017">
        <ele>960.61297607422</ele>
        <time>2010-04-20T15:10:58Z</time>
      </trkpt>
      <trkpt lat="45.0873" lon="5.40169">
        <ele>961.51300048828</ele>
        <time>2010-04-20T15:11:04Z</time>
      </trkpt>
      <trkpt lat="45.08736" lon="5.40172">
        <ele>961.54602050781</ele>
        <time>2010-04-20T15:11:06Z</time>
      </trkpt>
      <trkpt lat="45.08739" lon="5.40188">
        <ele>962.61999511719</ele>
        <time>2010-04-20T15:11:10Z</time>
      </trkpt>
      <trkpt lat="45.08731" lon="5.40192">
        <ele>963.51397705078</ele>
        <time>2010-04-20T15:11:13Z</time>
      </trkpt>
      <trkpt lat="45.08707" lon="5.40185">
        <ele>964.78997802734</ele>
        <time>2010-04-20T15:11:20Z</time>
      </trkpt>
      <trkpt lat="45.08688" lon="5.40187">
        <ele>965.57800292969</ele>
        <time>2010-04-20T15:11:25Z</time>
      </trkpt>
      <trkpt lat="45.08676" lon="5.40192">
        <ele>965.89599609375</ele>
        <time>2010-04-20T15:11:28Z</time>
      </trkpt>
      <trkpt lat="45.08655" lon="5.40215">
        <ele>967.96301269531</ele>
        <time>2010-04-20T15:11:35Z</time>
      </trkpt>
      <trkpt lat="45.08645" lon="5.40238">
        <ele>969.96899414062</ele>
        <time>2010-04-20T15:11:40Z</time>
      </trkpt>
      <trkpt lat="45.08635" lon="5.40276">
        <ele>971.97198486328</ele>
        <time>2010-04-20T15:11:48Z</time>
      </trkpt>
      <trkpt lat="45.08625" lon="5.40303">
        <ele>974.083984375</ele>
        <time>2010-04-20T15:11:55Z</time>
      </trkpt>
      <trkpt lat="45.08616" lon="5.40328">
        <ele>975.70599365234</ele>
        <time>2010-04-20T15:12:01Z</time>
      </trkpt>
      <trkpt lat="45.08606" lon="5.40353">
        <ele>977.41497802734</ele>
        <time>2010-04-20T15:12:08Z</time>
      </trkpt>
      <trkpt lat="45.08598" lon="5.40377">
        <ele>978.63500976562</ele>
        <time>2010-04-20T15:12:15Z</time>
      </trkpt>
      <trkpt lat="45.0859" lon="5.40403">
        <ele>980.14801025391</ele>
        <time>2010-04-20T15:12:22Z</time>
      </trkpt>
      <trkpt lat="45.08585" lon="5.40436">
        <ele>982.3740234375</ele>
        <time>2010-04-20T15:12:31Z</time>
      </trkpt>
      <trkpt lat="45.08591" lon="5.40455">
        <ele>983.20697021484</ele>
        <time>2010-04-20T15:12:36Z</time>
      </trkpt>
      <trkpt lat="45.08601" lon="5.40472">
        <ele>984.70697021484</ele>
        <time>2010-04-20T15:12:41Z</time>
      </trkpt>
      <trkpt lat="45.0862" lon="5.40489">
        <ele>986.13800048828</ele>
        <time>2010-04-20T15:12:48Z</time>
      </trkpt>
      <trkpt lat="45.08633" lon="5.40499">
        <ele>987.05102539062</ele>
        <time>2010-04-20T15:12:53Z</time>
      </trkpt>
      <trkpt lat="45.0864" lon="5.40505">
        <ele>988.34497070312</ele>
        <time>2010-04-20T15:12:56Z</time>
      </trkpt>
      <trkpt lat="45.08667" lon="5.40524">
        <ele>990.60601806641</ele>
        <time>2010-04-20T15:13:06Z</time>
      </trkpt>
      <trkpt lat="45.0868" lon="5.40541">
        <ele>991.98999023438</ele>
        <time>2010-04-20T15:13:12Z</time>
      </trkpt>
      <trkpt lat="45.08683" lon="5.40556">
        <ele>992.32000732422</ele>
        <time>2010-04-20T15:13:16Z</time>
      </trkpt>
      <trkpt lat="45.08686" lon="5.4058">
        <ele>993.89898681641</ele>
        <time>2010-04-20T15:13:22Z</time>
      </trkpt>
      <trkpt lat="45.08694" lon="5.40606">
        <ele>995.166015625</ele>
        <time>2010-04-20T15:13:29Z</time>
      </trkpt>
      <trkpt lat="45.08705" lon="5.40633">
        <ele>997.09197998047</ele>
        <time>2010-04-20T15:13:37Z</time>
      </trkpt>
      <trkpt lat="45.08706" lon="5.4066">
        <ele>998.11199951172</ele>
        <time>2010-04-20T15:13:44Z</time>
      </trkpt>
      <trkpt lat="45.08699" lon="5.40677">
        <ele>999.375</ele>
        <time>2010-04-20T15:13:49Z</time>
      </trkpt>
      <trkpt lat="45.08687" lon="5.40699">
        <ele>1000.8800048828</ele>
        <time>2010-04-20T15:13:56Z</time>
      </trkpt>
      <trkpt lat="45.08674" lon="5.40721">
        <ele>1002.4219970703</ele>
        <time>2010-04-20T15:14:03Z</time>
      </trkpt>
      <trkpt lat="45.08664" lon="5.40737">
        <ele>1003.7290039062</ele>
        <time>2010-04-20T15:14:09Z</time>
      </trkpt>
      <trkpt lat="45.08655" lon="5.40756">
        <ele>1004.9609985352</ele>
        <time>2010-04-20T15:14:15Z</time>
      </trkpt>
      <trkpt lat="45.08648" lon="5.40783">
        <ele>1006.8419799805</ele>
        <time>2010-04-20T15:14:23Z</time>
      </trkpt>
      <trkpt lat="45.08644" lon="5.40803">
        <ele>1008.1079711914</ele>
        <time>2010-04-20T15:14:29Z</time>
      </trkpt>
      <trkpt lat="45.08644" lon="5.40822">
        <ele>1009.007019043</ele>
        <time>2010-04-20T15:14:34Z</time>
      </trkpt>
      <trkpt lat="45.08649" lon="5.40842">
        <ele>1010.2150268555</ele>
        <time>2010-04-20T15:14:39Z</time>
      </trkpt>
      <trkpt lat="45.08656" lon="5.40866">
        <ele>1011.1599731445</ele>
        <time>2010-04-20T15:14:45Z</time>
      </trkpt>
      <trkpt lat="45.08671" lon="5.40887">
        <ele>1011.8179931641</ele>
        <time>2010-04-20T15:14:52Z</time>
      </trkpt>
      <trkpt lat="45.08692" lon="5.40895">
        <ele>1013.8400268555</ele>
        <time>2010-04-20T15:14:59Z</time>
      </trkpt>
      <trkpt lat="45.08719" lon="5.40896">
        <ele>1015.1510009766</ele>
        <time>2010-04-20T15:15:07Z</time>
      </trkpt>
      <trkpt lat="45.08725" lon="5.40899">
        <ele>1015.3060302734</ele>
        <time>2010-04-20T15:15:09Z</time>
      </trkpt>
      <trkpt lat="45.08731" lon="5.40916">
        <ele>1016.5280151367</ele>
        <time>2010-04-20T15:15:13Z</time>
      </trkpt>
      <trkpt lat="45.08727" lon="5.40938">
        <ele>1017.5109863281</ele>
        <time>2010-04-20T15:15:18Z</time>
      </trkpt>
      <trkpt lat="45.08715" lon="5.4095">
        <ele>1017.9609985352</ele>
        <time>2010-04-20T15:15:22Z</time>
      </trkpt>
      <trkpt lat="45.08699" lon="5.40961">
        <ele>1019.2059936523</ele>
        <time>2010-04-20T15:15:27Z</time>
      </trkpt>
      <trkpt lat="45.08681" lon="5.4098">
        <ele>1020.1400146484</ele>
        <time>2010-04-20T15:15:33Z</time>
      </trkpt>
      <trkpt lat="45.08664" lon="5.41006">
        <ele>1021.283996582</ele>
        <time>2010-04-20T15:15:40Z</time>
      </trkpt>
      <trkpt lat="45.08652" lon="5.41034">
        <ele>1022.7940063477</ele>
        <time>2010-04-20T15:15:47Z</time>
      </trkpt>
      <trkpt lat="45.08654" lon="5.41061">
        <ele>1024.4139404297</ele>
        <time>2010-04-20T15:15:53Z</time>
      </trkpt>
      <trkpt lat="45.08662" lon="5.41089">
        <ele>1026.0240478516</ele>
        <time>2010-04-20T15:16:00Z</time>
      </trkpt>
      <trkpt lat="45.08664" lon="5.41109">
        <ele>1026.7659912109</ele>
        <time>2010-04-20T15:16:05Z</time>
      </trkpt>
      <trkpt lat="45.08667" lon="5.41136">
        <ele>1028.6070556641</ele>
        <time>2010-04-20T15:16:12Z</time>
      </trkpt>
      <trkpt lat="45.08678" lon="5.41159">
        <ele>1030.2559814453</ele>
        <time>2010-04-20T15:16:19Z</time>
      </trkpt>
      <trkpt lat="45.08689" lon="5.41171">
        <ele>1031.1140136719</ele>
        <time>2010-04-20T15:16:24Z</time>
      </trkpt>
      <trkpt lat="45.08707" lon="5.41193">
        <ele>1032.7230224609</ele>
        <time>2010-04-20T15:16:32Z</time>
      </trkpt>
      <trkpt lat="45.08721" lon="5.41212">
        <ele>1033.6979980469</ele>
        <time>2010-04-20T15:16:38Z</time>
      </trkpt>
      <trkpt lat="45.08742" lon="5.41238">
        <ele>1035.5059814453</ele>
        <time>2010-04-20T15:16:46Z</time>
      </trkpt>
      <trkpt lat="45.08762" lon="5.41256">
        <ele>1037.1469726562</ele>
        <time>2010-04-20T15:16:53Z</time>
      </trkpt>
      <trkpt lat="45.08783" lon="5.41273">
        <ele>1038.6810302734</ele>
        <time>2010-04-20T15:17:00Z</time>
      </trkpt>
      <trkpt lat="45.08793" lon="5.4129">
        <ele>1039.7399902344</ele>
        <time>2010-04-20T15:17:05Z</time>
      </trkpt>
      <trkpt lat="45.08797" lon="5.41316">
        <ele>1040.6629638672</ele>
        <time>2010-04-20T15:17:11Z</time>
      </trkpt>
      <trkpt lat="45.088" lon="5.41343">
        <ele>1042.4780273438</ele>
        <time>2010-04-20T15:17:18Z</time>
      </trkpt>
      <trkpt lat="45.08809" lon="5.41363">
        <ele>1043.9639892578</ele>
        <time>2010-04-20T15:17:24Z</time>
      </trkpt>
      <trkpt lat="45.08819" lon="5.41374">
        <ele>1044.9350585938</ele>
        <time>2010-04-20T15:17:29Z</time>
      </trkpt>
      <trkpt lat="45.08834" lon="5.41385">
        <ele>1046.8690185547</ele>
        <time>2010-04-20T15:17:36Z</time>
      </trkpt>
      <trkpt lat="45.0885" lon="5.414">
        <ele>1049.2509765625</ele>
        <time>2010-04-20T15:17:44Z</time>
      </trkpt>
      <trkpt lat="45.08865" lon="5.41414">
        <ele>1050.8919677734</ele>
        <time>2010-04-20T15:17:51Z</time>
      </trkpt>
      <trkpt lat="45.08879" lon="5.41432">
        <ele>1053.0989990234</ele>
        <time>2010-04-20T15:17:59Z</time>
      </trkpt>
      <trkpt lat="45.08891" lon="5.41446">
        <ele>1054.5379638672</ele>
        <time>2010-04-20T15:18:06Z</time>
      </trkpt>
      <trkpt lat="45.08899" lon="5.41457">
        <ele>1055.7280273438</ele>
        <time>2010-04-20T15:18:11Z</time>
      </trkpt>
      <trkpt lat="45.0891" lon="5.4147">
        <ele>1057.0150146484</ele>
        <time>2010-04-20T15:18:17Z</time>
      </trkpt>
      <trkpt lat="45.08924" lon="5.41486">
        <ele>1058.8000488281</ele>
        <time>2010-04-20T15:18:25Z</time>
      </trkpt>
      <trkpt lat="45.08928" lon="5.4149">
        <ele>1059.4720458984</ele>
        <time>2010-04-20T15:18:27Z</time>
      </trkpt>
      <trkpt lat="45.08937" lon="5.415">
        <ele>1060.5119628906</ele>
        <time>2010-04-20T15:18:32Z</time>
      </trkpt>
      <trkpt lat="45.08945" lon="5.4151">
        <ele>1061.4940185547</ele>
        <time>2010-04-20T15:18:37Z</time>
      </trkpt>
      <trkpt lat="45.08957" lon="5.41525">
        <ele>1063.5279541016</ele>
        <time>2010-04-20T15:18:44Z</time>
      </trkpt>
      <trkpt lat="45.08967" lon="5.41538">
        <ele>1065.0629882812</ele>
        <time>2010-04-20T15:18:50Z</time>
      </trkpt>
      <trkpt lat="45.08976" lon="5.41551">
        <ele>1066.2629394531</ele>
        <time>2010-04-20T15:18:56Z</time>
      </trkpt>
      <trkpt lat="45.08987" lon="5.41565">
        <ele>1067.3239746094</ele>
        <time>2010-04-20T15:19:02Z</time>
      </trkpt>
      <trkpt lat="45.09001" lon="5.4158">
        <ele>1069.1540527344</ele>
        <time>2010-04-20T15:19:09Z</time>
      </trkpt>
      <trkpt lat="45.09013" lon="5.41593">
        <ele>1070.5930175781</ele>
        <time>2010-04-20T15:19:15Z</time>
      </trkpt>
      <trkpt lat="45.09024" lon="5.41598">
        <ele>1071.9709472656</ele>
        <time>2010-04-20T15:19:20Z</time>
      </trkpt>
      <trkpt lat="45.09041" lon="5.41599">
        <ele>1073.0980224609</ele>
        <time>2010-04-20T15:19:27Z</time>
      </trkpt>
      <trkpt lat="45.09052" lon="5.41595">
        <ele>1074.3620605469</ele>
        <time>2010-04-20T15:19:32Z</time>
      </trkpt>
      <trkpt lat="45.09065" lon="5.41584">
        <ele>1076</ele>
        <time>2010-04-20T15:19:38Z</time>
      </trkpt>
      <trkpt lat="45.09084" lon="5.41575">
        <ele>1077.6779785156</ele>
        <time>2010-04-20T15:19:46Z</time>
      </trkpt>
      <trkpt lat="45.09099" lon="5.41567">
        <ele>1079.5959472656</ele>
        <time>2010-04-20T15:19:53Z</time>
      </trkpt>
      <trkpt lat="45.0911" lon="5.41562">
        <ele>1079.7530517578</ele>
        <time>2010-04-20T15:19:58Z</time>
      </trkpt>
      <trkpt lat="45.09121" lon="5.41558">
        <ele>1081.7550048828</ele>
        <time>2010-04-20T15:20:03Z</time>
      </trkpt>
      <trkpt lat="45.09138" lon="5.41551">
        <ele>1082.2170410156</ele>
        <time>2010-04-20T15:20:10Z</time>
      </trkpt>
      <trkpt lat="45.09152" lon="5.41545">
        <ele>1084.3649902344</ele>
        <time>2010-04-20T15:20:16Z</time>
      </trkpt>
      <trkpt lat="45.09175" lon="5.4154">
        <ele>1085.3909912109</ele>
        <time>2010-04-20T15:20:25Z</time>
      </trkpt>
      <trkpt lat="45.09189" lon="5.41537">
        <ele>1087.8780517578</ele>
        <time>2010-04-20T15:20:30Z</time>
      </trkpt>
      <trkpt lat="45.09211" lon="5.41534">
        <ele>1087.8010253906</ele>
        <time>2010-04-20T15:20:37Z</time>
      </trkpt>
      <trkpt lat="45.09224" lon="5.41534">
        <ele>1089.0439453125</ele>
        <time>2010-04-20T15:20:41Z</time>
      </trkpt>
      <trkpt lat="45.0925" lon="5.41537">
        <ele>1090.3020019531</ele>
        <time>2010-04-20T15:20:49Z</time>
      </trkpt>
      <trkpt lat="45.09282" lon="5.41547">
        <ele>1092.5439453125</ele>
        <time>2010-04-20T15:20:59Z</time>
      </trkpt>
      <trkpt lat="45.09304" lon="5.4156">
        <ele>1094.3280029297</ele>
        <time>2010-04-20T15:21:07Z</time>
      </trkpt>
      <trkpt lat="45.09319" lon="5.41569">
        <ele>1095.6159667969</ele>
        <time>2010-04-20T15:21:13Z</time>
      </trkpt>
      <trkpt lat="45.09336" lon="5.4158">
        <ele>1096.9539794922</ele>
        <time>2010-04-20T15:21:20Z</time>
      </trkpt>
      <trkpt lat="45.09353" lon="5.41593">
        <ele>1098.3680419922</ele>
        <time>2010-04-20T15:21:27Z</time>
      </trkpt>
      <trkpt lat="45.09364" lon="5.41603">
        <ele>1099.4260253906</ele>
        <time>2010-04-20T15:21:32Z</time>
      </trkpt>
      <trkpt lat="45.09376" lon="5.41616">
        <ele>1100.4940185547</ele>
        <time>2010-04-20T15:21:37Z</time>
      </trkpt>
      <trkpt lat="45.09392" lon="5.41632">
        <ele>1102.4739990234</ele>
        <time>2010-04-20T15:21:43Z</time>
      </trkpt>
      <trkpt lat="45.0941" lon="5.4165">
        <ele>1104.0780029297</ele>
        <time>2010-04-20T15:21:50Z</time>
      </trkpt>
      <trkpt lat="45.09424" lon="5.41665">
        <ele>1105.4919433594</ele>
        <time>2010-04-20T15:21:56Z</time>
      </trkpt>
      <trkpt lat="45.09436" lon="5.41675">
        <ele>1106.7719726562</ele>
        <time>2010-04-20T15:22:01Z</time>
      </trkpt>
      <trkpt lat="45.0945" lon="5.41684">
        <ele>1108.2039794922</ele>
        <time>2010-04-20T15:22:07Z</time>
      </trkpt>
      <trkpt lat="45.09459" lon="5.41689">
        <ele>1109.0290527344</ele>
        <time>2010-04-20T15:22:11Z</time>
      </trkpt>
      <trkpt lat="45.09474" lon="5.41706">
        <ele>1110.6440429688</ele>
        <time>2010-04-20T15:22:18Z</time>
      </trkpt>
      <trkpt lat="45.09481" lon="5.4172">
        <ele>1111.7120361328</ele>
        <time>2010-04-20T15:22:23Z</time>
      </trkpt>
      <trkpt lat="45.0949" lon="5.41737">
        <ele>1112.1140136719</ele>
        <time>2010-04-20T15:22:28Z</time>
      </trkpt>
      <trkpt lat="45.09505" lon="5.41762">
        <ele>1112.0479736328</ele>
        <time>2010-04-20T15:22:35Z</time>
      </trkpt>
      <trkpt lat="45.09519" lon="5.4178">
        <ele>1112.0780029297</ele>
        <time>2010-04-20T15:22:40Z</time>
      </trkpt>
      <trkpt lat="45.09539" lon="5.41797">
        <ele>1112.7349853516</ele>
        <time>2010-04-20T15:22:46Z</time>
      </trkpt>
      <trkpt lat="45.09553" lon="5.41807">
        <ele>1113.0629882812</ele>
        <time>2010-04-20T15:22:50Z</time>
      </trkpt>
      <trkpt lat="45.09567" lon="5.41818">
        <ele>1113.2020263672</ele>
        <time>2010-04-20T15:22:54Z</time>
      </trkpt>
      <trkpt lat="45.09575" lon="5.41823">
        <ele>1113.3029785156</ele>
        <time>2010-04-20T15:22:56Z</time>
      </trkpt>
      <trkpt lat="45.09595" lon="5.41846">
        <ele>1113.8709716797</ele>
        <time>2010-04-20T15:23:02Z</time>
      </trkpt>
      <trkpt lat="45.09598" lon="5.41849">
        <ele>1113.6080322266</ele>
        <time>2010-04-20T15:23:03Z</time>
      </trkpt>
      <trkpt lat="45.09613" lon="5.41873">
        <ele>1115.2569580078</ele>
        <time>2010-04-20T15:23:10Z</time>
      </trkpt>
      <trkpt lat="45.09624" lon="5.41887">
        <ele>1116.3229980469</ele>
        <time>2010-04-20T15:23:15Z</time>
      </trkpt>
      <trkpt lat="45.09634" lon="5.41902">
        <ele>1117.0999755859</ele>
        <time>2010-04-20T15:23:20Z</time>
      </trkpt>
      <trkpt lat="45.09644" lon="5.41914">
        <ele>1117.9310302734</ele>
        <time>2010-04-20T15:23:24Z</time>
      </trkpt>
      <trkpt lat="45.09656" lon="5.41928">
        <ele>1119.6049804688</ele>
        <time>2010-04-20T15:23:30Z</time>
      </trkpt>
      <trkpt lat="45.09655" lon="5.41936">
        <ele>1120.1309814453</ele>
        <time>2010-04-20T15:23:34Z</time>
      </trkpt>
      <trkpt lat="45.09651" lon="5.41939">
        <ele>1119.8079833984</ele>
        <time>2010-04-20T15:23:38Z</time>
      </trkpt>
      <trkpt lat="45.09655" lon="5.41946">
        <ele>1119.6979980469</ele>
        <time>2010-04-20T15:24:18Z</time>
      </trkpt>
      <trkpt lat="45.09661" lon="5.41943">
        <ele>1120.2189941406</ele>
        <time>2010-04-20T15:24:22Z</time>
      </trkpt>
      <trkpt lat="45.09663" lon="5.41942">
        <ele>1120.3239746094</ele>
        <time>2010-04-20T15:24:23Z</time>
      </trkpt>
      <trkpt lat="45.09675" lon="5.41956">
        <ele>1121.9110107422</ele>
        <time>2010-04-20T15:24:30Z</time>
      </trkpt>
      <trkpt lat="45.09685" lon="5.41966">
        <ele>1122.9940185547</ele>
        <time>2010-04-20T15:24:35Z</time>
      </trkpt>
      <trkpt lat="45.09698" lon="5.41977">
        <ele>1124.2800292969</ele>
        <time>2010-04-20T15:24:41Z</time>
      </trkpt>
      <trkpt lat="45.0971" lon="5.41986">
        <ele>1125.0620117188</ele>
        <time>2010-04-20T15:24:46Z</time>
      </trkpt>
      <trkpt lat="45.09717" lon="5.4199">
        <ele>1125.9460449219</ele>
        <time>2010-04-20T15:24:49Z</time>
      </trkpt>
      <trkpt lat="45.09731" lon="5.41991">
        <ele>1127.0689697266</ele>
        <time>2010-04-20T15:24:54Z</time>
      </trkpt>
      <trkpt lat="45.09738" lon="5.41985">
        <ele>1127.4520263672</ele>
        <time>2010-04-20T15:24:57Z</time>
      </trkpt>
      <trkpt lat="45.09748" lon="5.41975">
        <ele>1128.1120605469</ele>
        <time>2010-04-20T15:25:01Z</time>
      </trkpt>
      <trkpt lat="45.09766" lon="5.41952">
        <ele>1129.9129638672</ele>
        <time>2010-04-20T15:25:09Z</time>
      </trkpt>
      <trkpt lat="45.09781" lon="5.41935">
        <ele>1130.9069824219</ele>
        <time>2010-04-20T15:25:15Z</time>
      </trkpt>
      <trkpt lat="45.09794" lon="5.41922">
        <ele>1131.2540283203</ele>
        <time>2010-04-20T15:25:20Z</time>
      </trkpt>
      <trkpt lat="45.09809" lon="5.41904">
        <ele>1131.4310302734</ele>
        <time>2010-04-20T15:25:25Z</time>
      </trkpt>
      <trkpt lat="45.09815" lon="5.41896">
        <ele>1131.6500244141</ele>
        <time>2010-04-20T15:25:27Z</time>
      </trkpt>
      <trkpt lat="45.09831" lon="5.41884">
        <ele>1132.2390136719</ele>
        <time>2010-04-20T15:25:31Z</time>
      </trkpt>
      <trkpt lat="45.0985" lon="5.41872">
        <ele>1132.8540039062</ele>
        <time>2010-04-20T15:25:36Z</time>
      </trkpt>
      <trkpt lat="45.09869" lon="5.41865">
        <ele>1134.0649414062</ele>
        <time>2010-04-20T15:25:41Z</time>
      </trkpt>
      <trkpt lat="45.09882" lon="5.41864">
        <ele>1134.5720214844</ele>
        <time>2010-04-20T15:25:44Z</time>
      </trkpt>
      <trkpt lat="45.09898" lon="5.4187">
        <ele>1136.083984375</ele>
        <time>2010-04-20T15:25:48Z</time>
      </trkpt>
      <trkpt lat="45.09906" lon="5.41874">
        <ele>1136.4530029297</ele>
        <time>2010-04-20T15:25:50Z</time>
      </trkpt>
      <trkpt lat="45.09914" lon="5.41887">
        <ele>1137.7659912109</ele>
        <time>2010-04-20T15:25:54Z</time>
      </trkpt>
      <trkpt lat="45.09918" lon="5.41911">
        <ele>1138.8719482422</ele>
        <time>2010-04-20T15:25:58Z</time>
      </trkpt>
      <trkpt lat="45.09918" lon="5.41917">
        <ele>1138.958984375</ele>
        <time>2010-04-20T15:25:59Z</time>
      </trkpt>
      <trkpt lat="45.09911" lon="5.41953">
        <ele>1140.4940185547</ele>
        <time>2010-04-20T15:26:06Z</time>
      </trkpt>
      <trkpt lat="45.09904" lon="5.41979">
        <ele>1142.0219726562</ele>
        <time>2010-04-20T15:26:12Z</time>
      </trkpt>
      <trkpt lat="45.09895" lon="5.42009">
        <ele>1143.5500488281</ele>
        <time>2010-04-20T15:26:19Z</time>
      </trkpt>
      <trkpt lat="45.09887" lon="5.4203">
        <ele>1144.9649658203</ele>
        <time>2010-04-20T15:26:25Z</time>
      </trkpt>
      <trkpt lat="45.09877" lon="5.42048">
        <ele>1146.8039550781</ele>
        <time>2010-04-20T15:26:31Z</time>
      </trkpt>
      <trkpt lat="45.09869" lon="5.42069">
        <ele>1148.3780517578</ele>
        <time>2010-04-20T15:26:37Z</time>
      </trkpt>
      <trkpt lat="45.09866" lon="5.42093">
        <ele>1149.5080566406</ele>
        <time>2010-04-20T15:26:43Z</time>
      </trkpt>
      <trkpt lat="45.09863" lon="5.42113">
        <ele>1150.7130126953</ele>
        <time>2010-04-20T15:26:48Z</time>
      </trkpt>
      <trkpt lat="45.09851" lon="5.42126">
        <ele>1151.6839599609</ele>
        <time>2010-04-20T15:26:53Z</time>
      </trkpt>
      <trkpt lat="45.09835" lon="5.42128">
        <ele>1152.7220458984</ele>
        <time>2010-04-20T15:26:59Z</time>
      </trkpt>
      <trkpt lat="45.09818" lon="5.42128">
        <ele>1154.2419433594</ele>
        <time>2010-04-20T15:27:05Z</time>
      </trkpt>
      <trkpt lat="45.09804" lon="5.42129">
        <ele>1155.4060058594</ele>
        <time>2010-04-20T15:27:10Z</time>
      </trkpt>
      <trkpt lat="45.0979" lon="5.42133">
        <ele>1156.541015625</ele>
        <time>2010-04-20T15:27:15Z</time>
      </trkpt>
      <trkpt lat="45.09771" lon="5.4214">
        <ele>1158.3129882812</ele>
        <time>2010-04-20T15:27:22Z</time>
      </trkpt>
      <trkpt lat="45.09754" lon="5.42146">
        <ele>1159.7370605469</ele>
        <time>2010-04-20T15:27:29Z</time>
      </trkpt>
      <trkpt lat="45.09741" lon="5.42152">
        <ele>1160.8929443359</ele>
        <time>2010-04-20T15:27:34Z</time>
      </trkpt>
      <trkpt lat="45.09723" lon="5.4216">
        <ele>1162.2409667969</ele>
        <time>2010-04-20T15:27:40Z</time>
      </trkpt>
      <trkpt lat="45.09705" lon="5.42165">
        <ele>1163.4000244141</ele>
        <time>2010-04-20T15:27:46Z</time>
      </trkpt>
      <trkpt lat="45.09686" lon="5.42165">
        <ele>1164.7189941406</ele>
        <time>2010-04-20T15:27:52Z</time>
      </trkpt>
      <trkpt lat="45.09666" lon="5.42164">
        <ele>1166.5389404297</ele>
        <time>2010-04-20T15:27:59Z</time>
      </trkpt>
      <trkpt lat="45.09652" lon="5.42162">
        <ele>1167.7729492188</ele>
        <time>2010-04-20T15:28:04Z</time>
      </trkpt>
      <trkpt lat="45.09628" lon="5.42159">
        <ele>1169.4809570312</ele>
        <time>2010-04-20T15:28:12Z</time>
      </trkpt>
      <trkpt lat="45.09602" lon="5.42149">
        <ele>1171.5109863281</ele>
        <time>2010-04-20T15:28:20Z</time>
      </trkpt>
      <trkpt lat="45.09582" lon="5.4214">
        <ele>1173.3439941406</ele>
        <time>2010-04-20T15:28:26Z</time>
      </trkpt>
      <trkpt lat="45.09552" lon="5.42125">
        <ele>1175.625</ele>
        <time>2010-04-20T15:28:36Z</time>
      </trkpt>
      <trkpt lat="45.09531" lon="5.42115">
        <ele>1177.6429443359</ele>
        <time>2010-04-20T15:28:43Z</time>
      </trkpt>
      <trkpt lat="45.09513" lon="5.42105">
        <ele>1179.0450439453</ele>
        <time>2010-04-20T15:28:49Z</time>
      </trkpt>
      <trkpt lat="45.09513" lon="5.42105">
        <ele>1179.4079589844</ele>
        <time>2010-04-20T15:28:52Z</time>
      </trkpt>
      <trkpt lat="45.09505" lon="5.42102">
        <ele>1179.9580078125</ele>
        <time>2010-04-20T15:29:08Z</time>
      </trkpt>
      <trkpt lat="45.0949" lon="5.42096">
        <ele>1180.8160400391</ele>
        <time>2010-04-20T15:29:13Z</time>
      </trkpt>
      <trkpt lat="45.09477" lon="5.42088">
        <ele>1182.0200195312</ele>
        <time>2010-04-20T15:29:17Z</time>
      </trkpt>
      <trkpt lat="45.09446" lon="5.42072">
        <ele>1184.4110107422</ele>
        <time>2010-04-20T15:29:26Z</time>
      </trkpt>
      <trkpt lat="45.09416" lon="5.4206">
        <ele>1187.0739746094</ele>
        <time>2010-04-20T15:29:35Z</time>
      </trkpt>
      <trkpt lat="45.09393" lon="5.42051">
        <ele>1188.8909912109</ele>
        <time>2010-04-20T15:29:42Z</time>
      </trkpt>
      <trkpt lat="45.0937" lon="5.42033">
        <ele>1190.5670166016</ele>
        <time>2010-04-20T15:29:50Z</time>
      </trkpt>
      <trkpt lat="45.09352" lon="5.42017">
        <ele>1192.2239990234</ele>
        <time>2010-04-20T15:29:57Z</time>
      </trkpt>
      <trkpt lat="45.0934" lon="5.42006">
        <ele>1193.4079589844</ele>
        <time>2010-04-20T15:30:02Z</time>
      </trkpt>
      <trkpt lat="45.09327" lon="5.41996">
        <ele>1195.041015625</ele>
        <time>2010-04-20T15:30:08Z</time>
      </trkpt>
      <trkpt lat="45.09316" lon="5.41987">
        <ele>1196.0340576172</ele>
        <time>2010-04-20T15:30:13Z</time>
      </trkpt>
      <trkpt lat="45.093" lon="5.41975">
        <ele>1197.3940429688</ele>
        <time>2010-04-20T15:30:19Z</time>
      </trkpt>
      <trkpt lat="45.09281" lon="5.41962">
        <ele>1198.5520019531</ele>
        <time>2010-04-20T15:30:25Z</time>
      </trkpt>
      <trkpt lat="45.09265" lon="5.41954">
        <ele>1199.9610595703</ele>
        <time>2010-04-20T15:30:30Z</time>
      </trkpt>
      <trkpt lat="45.09238" lon="5.41948">
        <ele>1202.1810302734</ele>
        <time>2010-04-20T15:30:37Z</time>
      </trkpt>
      <trkpt lat="45.09216" lon="5.41953">
        <ele>1203.7409667969</ele>
        <time>2010-04-20T15:30:43Z</time>
      </trkpt>
      <trkpt lat="45.09199" lon="5.41964">
        <ele>1205.4279785156</ele>
        <time>2010-04-20T15:30:48Z</time>
      </trkpt>
      <trkpt lat="45.09178" lon="5.41996">
        <ele>1208.3070068359</ele>
        <time>2010-04-20T15:30:56Z</time>
      </trkpt>
      <trkpt lat="45.09163" lon="5.42023">
        <ele>1210.0899658203</ele>
        <time>2010-04-20T15:31:03Z</time>
      </trkpt>
      <trkpt lat="45.09148" lon="5.42053">
        <ele>1212.2719726562</ele>
        <time>2010-04-20T15:31:11Z</time>
      </trkpt>
      <trkpt lat="45.09138" lon="5.42073">
        <ele>1213.8819580078</ele>
        <time>2010-04-20T15:31:18Z</time>
      </trkpt>
      <trkpt lat="45.09128" lon="5.42092">
        <ele>1215.1560058594</ele>
        <time>2010-04-20T15:31:25Z</time>
      </trkpt>
      <trkpt lat="45.09116" lon="5.42113">
        <ele>1216.8509521484</ele>
        <time>2010-04-20T15:31:33Z</time>
      </trkpt>
      <trkpt lat="45.09104" lon="5.42136">
        <ele>1218.5629882812</ele>
        <time>2010-04-20T15:31:41Z</time>
      </trkpt>
      <trkpt lat="45.0909" lon="5.42159">
        <ele>1220.0329589844</ele>
        <time>2010-04-20T15:31:49Z</time>
      </trkpt>
      <trkpt lat="45.09077" lon="5.42179">
        <ele>1221.7180175781</ele>
        <time>2010-04-20T15:31:56Z</time>
      </trkpt>
      <trkpt lat="45.09066" lon="5.42195">
        <ele>1222.6850585938</ele>
        <time>2010-04-20T15:32:02Z</time>
      </trkpt>
      <trkpt lat="45.09051" lon="5.42215">
        <ele>1224.2490234375</ele>
        <time>2010-04-20T15:32:09Z</time>
      </trkpt>
      <trkpt lat="45.09035" lon="5.42239">
        <ele>1225.9219970703</ele>
        <time>2010-04-20T15:32:17Z</time>
      </trkpt>
      <trkpt lat="45.09028" lon="5.42249">
        <ele>1226.8599853516</ele>
        <time>2010-04-20T15:32:21Z</time>
      </trkpt>
      <trkpt lat="45.0902" lon="5.42264">
        <ele>1228.0050048828</ele>
        <time>2010-04-20T15:32:26Z</time>
      </trkpt>
      <trkpt lat="45.09011" lon="5.42281">
        <ele>1229.291015625</ele>
        <time>2010-04-20T15:32:32Z</time>
      </trkpt>
      <trkpt lat="45.09" lon="5.423">
        <ele>1230.79296875</ele>
        <time>2010-04-20T15:32:39Z</time>
      </trkpt>
      <trkpt lat="45.08992" lon="5.42313">
        <ele>1231.8170166016</ele>
        <time>2010-04-20T15:32:44Z</time>
      </trkpt>
      <trkpt lat="45.08982" lon="5.42331">
        <ele>1233.0939941406</ele>
        <time>2010-04-20T15:32:50Z</time>
      </trkpt>
      <trkpt lat="45.08972" lon="5.42346">
        <ele>1234.5439453125</ele>
        <time>2010-04-20T15:32:56Z</time>
      </trkpt>
      <trkpt lat="45.08962" lon="5.42362">
        <ele>1235.6529541016</ele>
        <time>2010-04-20T15:33:02Z</time>
      </trkpt>
      <trkpt lat="45.08953" lon="5.42378">
        <ele>1236.0970458984</ele>
        <time>2010-04-20T15:33:07Z</time>
      </trkpt>
      <trkpt lat="45.08944" lon="5.42395">
        <ele>1237.3399658203</ele>
        <time>2010-04-20T15:33:12Z</time>
      </trkpt>
      <trkpt lat="45.08937" lon="5.42415">
        <ele>1238.7370605469</ele>
        <time>2010-04-20T15:33:18Z</time>
      </trkpt>
      <trkpt lat="45.08929" lon="5.4244">
        <ele>1240.6689453125</ele>
        <time>2010-04-20T15:33:25Z</time>
      </trkpt>
      <trkpt lat="45.08921" lon="5.42452">
        <ele>1241.5749511719</ele>
        <time>2010-04-20T15:33:29Z</time>
      </trkpt>
      <trkpt lat="45.08907" lon="5.42463">
        <ele>1242.8640136719</ele>
        <time>2010-04-20T15:33:34Z</time>
      </trkpt>
      <trkpt lat="45.0889" lon="5.42472">
        <ele>1243.8459472656</ele>
        <time>2010-04-20T15:33:39Z</time>
      </trkpt>
      <trkpt lat="45.08873" lon="5.42483">
        <ele>1245.1009521484</ele>
        <time>2010-04-20T15:33:45Z</time>
      </trkpt>
      <trkpt lat="45.08867" lon="5.42492">
        <ele>1245.4909667969</ele>
        <time>2010-04-20T15:33:48Z</time>
      </trkpt>
      <trkpt lat="45.08863" lon="5.42514">
        <ele>1247.0830078125</ele>
        <time>2010-04-20T15:33:55Z</time>
      </trkpt>
      <trkpt lat="45.08867" lon="5.42532">
        <ele>1247.2299804688</ele>
        <time>2010-04-20T15:34:00Z</time>
      </trkpt>
      <trkpt lat="45.08867" lon="5.42537">
        <ele>1247.1929931641</ele>
        <time>2010-04-20T15:34:03Z</time>
      </trkpt>
      <trkpt lat="45.0887" lon="5.42547">
        <ele>1247.0639648438</ele>
        <time>2010-04-20T15:34:10Z</time>
      </trkpt>
      <trkpt lat="45.08877" lon="5.42561">
        <ele>1246.7230224609</ele>
        <time>2010-04-20T15:34:16Z</time>
      </trkpt>
      <trkpt lat="45.08879" lon="5.42565">
        <ele>1246.8179931641</ele>
        <time>2010-04-20T15:34:19Z</time>
      </trkpt>
      <trkpt lat="45.08879" lon="5.42575">
        <ele>1245.8869628906</ele>
        <time>2010-04-20T15:35:14Z</time>
      </trkpt>
      <trkpt lat="45.0888" lon="5.42578">
        <ele>1245.8640136719</ele>
        <time>2010-04-20T15:35:15Z</time>
      </trkpt>
      <trkpt lat="45.08885" lon="5.42597">
        <ele>1244.6729736328</ele>
        <time>2010-04-20T15:35:20Z</time>
      </trkpt>
      <trkpt lat="45.0889" lon="5.42608">
        <ele>1244.1529541016</ele>
        <time>2010-04-20T15:35:23Z</time>
      </trkpt>
      <trkpt lat="45.08903" lon="5.42621">
        <ele>1244.3719482422</ele>
        <time>2010-04-20T15:35:27Z</time>
      </trkpt>
      <trkpt lat="45.08918" lon="5.4263">
        <ele>1244.0570068359</ele>
        <time>2010-04-20T15:35:31Z</time>
      </trkpt>
      <trkpt lat="45.0893" lon="5.4264">
        <ele>1243.5780029297</ele>
        <time>2010-04-20T15:35:34Z</time>
      </trkpt>
      <trkpt lat="45.08941" lon="5.42655">
        <ele>1243.9260253906</ele>
        <time>2010-04-20T15:35:38Z</time>
      </trkpt>
      <trkpt lat="45.08942" lon="5.42672">
        <ele>1243.6810302734</ele>
        <time>2010-04-20T15:35:42Z</time>
      </trkpt>
      <trkpt lat="45.08932" lon="5.42695">
        <ele>1243.5959472656</ele>
        <time>2010-04-20T15:35:47Z</time>
      </trkpt>
      <trkpt lat="45.08918" lon="5.42703">
        <ele>1243.6070556641</ele>
        <time>2010-04-20T15:35:51Z</time>
      </trkpt>
      <trkpt lat="45.08912" lon="5.42702">
        <ele>1243.6120605469</ele>
        <time>2010-04-20T15:35:53Z</time>
      </trkpt>
      <trkpt lat="45.08898" lon="5.42696">
        <ele>1247.1500244141</ele>
        <time>2010-04-20T15:35:59Z</time>
      </trkpt>
      <trkpt lat="45.08885" lon="5.42688">
        <ele>1248.6140136719</ele>
        <time>2010-04-20T15:36:04Z</time>
      </trkpt>
      <trkpt lat="45.08876" lon="5.4268">
        <ele>1249.0560302734</ele>
        <time>2010-04-20T15:36:08Z</time>
      </trkpt>
      <trkpt lat="45.08871" lon="5.42676">
        <ele>1249.5419921875</ele>
        <time>2010-04-20T15:36:12Z</time>
      </trkpt>
      <trkpt lat="45.08867" lon="5.42673">
        <ele>1249.8530273438</ele>
        <time>2010-04-20T15:36:16Z</time>
      </trkpt>
      <trkpt lat="45.08863" lon="5.4267">
        <ele>1250.3699951172</ele>
        <time>2010-04-20T15:36:21Z</time>
      </trkpt>
      <trkpt lat="45.08853" lon="5.42664">
        <ele>1250.95703125</ele>
        <time>2010-04-20T15:36:27Z</time>
      </trkpt>
      <trkpt lat="45.08838" lon="5.42654">
        <ele>1252.2609863281</ele>
        <time>2010-04-20T15:36:33Z</time>
      </trkpt>
      <trkpt lat="45.08824" lon="5.42641">
        <ele>1253.4840087891</ele>
        <time>2010-04-20T15:36:39Z</time>
      </trkpt>
      <trkpt lat="45.08815" lon="5.42624">
        <ele>1254.4759521484</ele>
        <time>2010-04-20T15:36:45Z</time>
      </trkpt>
      <trkpt lat="45.08809" lon="5.42607">
        <ele>1255.6770019531</ele>
        <time>2010-04-20T15:36:50Z</time>
      </trkpt>
      <trkpt lat="45.08801" lon="5.42584">
        <ele>1257.2829589844</ele>
        <time>2010-04-20T15:36:57Z</time>
      </trkpt>
      <trkpt lat="45.08799" lon="5.42576">
        <ele>1258.0500488281</ele>
        <time>2010-04-20T15:37:00Z</time>
      </trkpt>
      <trkpt lat="45.08798" lon="5.42576">
        <ele>1258.0789794922</ele>
        <time>2010-04-20T15:37:02Z</time>
      </trkpt>
      <trkpt lat="45.08799" lon="5.42575">
        <ele>1258.7320556641</ele>
        <time>2010-04-20T15:37:40Z</time>
      </trkpt>
      <trkpt lat="45.08797" lon="5.42572">
        <ele>1259.1319580078</ele>
        <time>2010-04-20T15:37:42Z</time>
      </trkpt>
      <trkpt lat="45.08789" lon="5.42553">
        <ele>1260.125</ele>
        <time>2010-04-20T15:37:49Z</time>
      </trkpt>
      <trkpt lat="45.08775" lon="5.42536">
        <ele>1261.3489990234</ele>
        <time>2010-04-20T15:37:54Z</time>
      </trkpt>
      <trkpt lat="45.08759" lon="5.42527">
        <ele>1262.7860107422</ele>
        <time>2010-04-20T15:37:59Z</time>
      </trkpt>
      <trkpt lat="45.08731" lon="5.42524">
        <ele>1264.8199462891</ele>
        <time>2010-04-20T15:38:07Z</time>
      </trkpt>
      <trkpt lat="45.08715" lon="5.42527">
        <ele>1266.0849609375</ele>
        <time>2010-04-20T15:38:12Z</time>
      </trkpt>
      <trkpt lat="45.08703" lon="5.42537">
        <ele>1267.7259521484</ele>
        <time>2010-04-20T15:38:17Z</time>
      </trkpt>
      <trkpt lat="45.08688" lon="5.42552">
        <ele>1268.9119873047</ele>
        <time>2010-04-20T15:38:23Z</time>
      </trkpt>
      <trkpt lat="45.08677" lon="5.42562">
        <ele>1268.8819580078</ele>
        <time>2010-04-20T15:38:27Z</time>
      </trkpt>
      <trkpt lat="45.08663" lon="5.42572">
        <ele>1271.0949707031</ele>
        <time>2010-04-20T15:38:32Z</time>
      </trkpt>
      <trkpt lat="45.08643" lon="5.42572">
        <ele>1271.7440185547</ele>
        <time>2010-04-20T15:38:38Z</time>
      </trkpt>
      <trkpt lat="45.08624" lon="5.42557">
        <ele>1272.3559570312</ele>
        <time>2010-04-20T15:38:44Z</time>
      </trkpt>
      <trkpt lat="45.08611" lon="5.42544">
        <ele>1272.8050537109</ele>
        <time>2010-04-20T15:38:50Z</time>
      </trkpt>
      <trkpt lat="45.08611" lon="5.42543">
        <ele>1272.6049804688</ele>
        <time>2010-04-20T15:38:52Z</time>
      </trkpt>
      <trkpt lat="45.08606" lon="5.42536">
        <ele>1272.6479492188</ele>
        <time>2010-04-20T15:40:38Z</time>
      </trkpt>
      <trkpt lat="45.08596" lon="5.42524">
        <ele>1271.6800537109</ele>
        <time>2010-04-20T15:40:42Z</time>
      </trkpt>
      <trkpt lat="45.08588" lon="5.42514">
        <ele>1270.3780517578</ele>
        <time>2010-04-20T15:40:44Z</time>
      </trkpt>
      <trkpt lat="45.08584" lon="5.42508">
        <ele>1269.7509765625</ele>
        <time>2010-04-20T15:40:45Z</time>
      </trkpt>
      <trkpt lat="45.08569" lon="5.42489">
        <ele>1268.0100097656</ele>
        <time>2010-04-20T15:40:48Z</time>
      </trkpt>
      <trkpt lat="45.08558" lon="5.42471">
        <ele>1265.8489990234</ele>
        <time>2010-04-20T15:40:50Z</time>
      </trkpt>
      <trkpt lat="45.08529" lon="5.42438">
        <ele>1262.251953125</ele>
        <time>2010-04-20T15:40:54Z</time>
      </trkpt>
      <trkpt lat="45.08519" lon="5.42432">
        <ele>1260.4940185547</ele>
        <time>2010-04-20T15:40:55Z</time>
      </trkpt>
      <trkpt lat="45.08454" lon="5.424">
        <ele>1253.8020019531</ele>
        <time>2010-04-20T15:41:01Z</time>
      </trkpt>
      <trkpt lat="45.08443" lon="5.42394">
        <ele>1252.3680419922</ele>
        <time>2010-04-20T15:41:02Z</time>
      </trkpt>
      <trkpt lat="45.08397" lon="5.42389">
        <ele>1248.3929443359</ele>
        <time>2010-04-20T15:41:06Z</time>
      </trkpt>
      <trkpt lat="45.08377" lon="5.42392">
        <ele>1248.0629882812</ele>
        <time>2010-04-20T15:41:08Z</time>
      </trkpt>
      <trkpt lat="45.08355" lon="5.42384">
        <ele>1246.6839599609</ele>
        <time>2010-04-20T15:41:11Z</time>
      </trkpt>
      <trkpt lat="45.08338" lon="5.42379">
        <ele>1245.6169433594</ele>
        <time>2010-04-20T15:41:14Z</time>
      </trkpt>
      <trkpt lat="45.08335" lon="5.42398">
        <ele>1244.876953125</ele>
        <time>2010-04-20T15:41:16Z</time>
      </trkpt>
      <trkpt lat="45.08344" lon="5.42413">
        <ele>1243.7249755859</ele>
        <time>2010-04-20T15:41:18Z</time>
      </trkpt>
      <trkpt lat="45.0835" lon="5.42419">
        <ele>1243.5660400391</ele>
        <time>2010-04-20T15:41:19Z</time>
      </trkpt>
      <trkpt lat="45.08362" lon="5.42428">
        <ele>1242.6750488281</ele>
        <time>2010-04-20T15:41:21Z</time>
      </trkpt>
      <trkpt lat="45.08393" lon="5.42434">
        <ele>1241.4749755859</ele>
        <time>2010-04-20T15:41:25Z</time>
      </trkpt>
      <trkpt lat="45.08424" lon="5.42454">
        <ele>1237.5810546875</ele>
        <time>2010-04-20T15:41:29Z</time>
      </trkpt>
      <trkpt lat="45.08428" lon="5.42465">
        <ele>1237.5129394531</ele>
        <time>2010-04-20T15:41:30Z</time>
      </trkpt>
      <trkpt lat="45.08426" lon="5.42493">
        <ele>1235.6169433594</ele>
        <time>2010-04-20T15:41:32Z</time>
      </trkpt>
      <trkpt lat="45.08414" lon="5.42533">
        <ele>1232.7419433594</ele>
        <time>2010-04-20T15:41:35Z</time>
      </trkpt>
      <trkpt lat="45.08392" lon="5.42602">
        <ele>1227.6020507812</ele>
        <time>2010-04-20T15:41:40Z</time>
      </trkpt>
      <trkpt lat="45.08374" lon="5.42643">
        <ele>1225.2650146484</ele>
        <time>2010-04-20T15:41:43Z</time>
      </trkpt>
      <trkpt lat="45.08361" lon="5.4269">
        <ele>1221.9680175781</ele>
        <time>2010-04-20T15:41:46Z</time>
      </trkpt>
      <trkpt lat="45.08356" lon="5.42723">
        <ele>1220.4410400391</ele>
        <time>2010-04-20T15:41:48Z</time>
      </trkpt>
      <trkpt lat="45.08343" lon="5.42772">
        <ele>1216.4809570312</ele>
        <time>2010-04-20T15:41:51Z</time>
      </trkpt>
      <trkpt lat="45.08342" lon="5.42784">
        <ele>1216.5439453125</ele>
        <time>2010-04-20T15:41:52Z</time>
      </trkpt>
      <trkpt lat="45.08347" lon="5.42809">
        <ele>1215.9439697266</ele>
        <time>2010-04-20T15:41:54Z</time>
      </trkpt>
      <trkpt lat="45.08363" lon="5.42842">
        <ele>1215.8289794922</ele>
        <time>2010-04-20T15:41:57Z</time>
      </trkpt>
      <trkpt lat="45.08364" lon="5.42869">
        <ele>1212.6910400391</ele>
        <time>2010-04-20T15:41:59Z</time>
      </trkpt>
      <trkpt lat="45.08363" lon="5.42911">
        <ele>1212.6070556641</ele>
        <time>2010-04-20T15:42:02Z</time>
      </trkpt>
      <trkpt lat="45.08351" lon="5.42967">
        <ele>1206.4060058594</ele>
        <time>2010-04-20T15:42:06Z</time>
      </trkpt>
      <trkpt lat="45.08328" lon="5.42985">
        <ele>1204.6639404297</ele>
        <time>2010-04-20T15:42:08Z</time>
      </trkpt>
      <trkpt lat="45.08318" lon="5.42993">
        <ele>1203.7209472656</ele>
        <time>2010-04-20T15:42:09Z</time>
      </trkpt>
      <trkpt lat="45.08294" lon="5.43032">
        <ele>1200.4479980469</ele>
        <time>2010-04-20T15:42:12Z</time>
      </trkpt>
      <trkpt lat="45.08283" lon="5.43075">
        <ele>1198.0340576172</ele>
        <time>2010-04-20T15:42:15Z</time>
      </trkpt>
      <trkpt lat="45.08291" lon="5.43102">
        <ele>1197.1519775391</ele>
        <time>2010-04-20T15:42:17Z</time>
      </trkpt>
      <trkpt lat="45.0831" lon="5.43119">
        <ele>1196.208984375</ele>
        <time>2010-04-20T15:42:19Z</time>
      </trkpt>
      <trkpt lat="45.0832" lon="5.43125">
        <ele>1195.4809570312</ele>
        <time>2010-04-20T15:42:20Z</time>
      </trkpt>
      <trkpt lat="45.08356" lon="5.43155">
        <ele>1192.5520019531</ele>
        <time>2010-04-20T15:42:24Z</time>
      </trkpt>
      <trkpt lat="45.0836" lon="5.43169">
        <ele>1192.3549804688</ele>
        <time>2010-04-20T15:42:25Z</time>
      </trkpt>
      <trkpt lat="45.0836" lon="5.432">
        <ele>1191.0150146484</ele>
        <time>2010-04-20T15:42:27Z</time>
      </trkpt>
      <trkpt lat="45.08359" lon="5.43216">
        <ele>1190.0169677734</ele>
        <time>2010-04-20T15:42:28Z</time>
      </trkpt>
      <trkpt lat="45.08356" lon="5.43266">
        <ele>1186.58203125</ele>
        <time>2010-04-20T15:42:31Z</time>
      </trkpt>
      <trkpt lat="45.08346" lon="5.43317">
        <ele>1183.3869628906</ele>
        <time>2010-04-20T15:42:34Z</time>
      </trkpt>
      <trkpt lat="45.08328" lon="5.43364">
        <ele>1180.6290283203</ele>
        <time>2010-04-20T15:42:37Z</time>
      </trkpt>
      <trkpt lat="45.08319" lon="5.43405">
        <ele>1180.1710205078</ele>
        <time>2010-04-20T15:42:40Z</time>
      </trkpt>
      <trkpt lat="45.08335" lon="5.43437">
        <ele>1177.0670166016</ele>
        <time>2010-04-20T15:42:43Z</time>
      </trkpt>
      <trkpt lat="45.08344" lon="5.43446">
        <ele>1177.0670166016</ele>
        <time>2010-04-20T15:42:44Z</time>
      </trkpt>
      <trkpt lat="45.0835" lon="5.43453">
        <ele>1175.54296875</ele>
        <time>2010-04-20T15:42:45Z</time>
      </trkpt>
      <trkpt lat="45.08357" lon="5.43457">
        <ele>1175.54296875</ele>
        <time>2010-04-20T15:42:46Z</time>
      </trkpt>
      <trkpt lat="45.08379" lon="5.43457">
        <ele>1173.3640136719</ele>
        <time>2010-04-20T15:42:48Z</time>
      </trkpt>
      <trkpt lat="45.08404" lon="5.43467">
        <ele>1173.166015625</ele>
        <time>2010-04-20T15:42:50Z</time>
      </trkpt>
      <trkpt lat="45.0843" lon="5.435">
        <ele>1170.7049560547</ele>
        <time>2010-04-20T15:42:53Z</time>
      </trkpt>
      <trkpt lat="45.08452" lon="5.43521">
        <ele>1169.6770019531</ele>
        <time>2010-04-20T15:42:56Z</time>
      </trkpt>
      <trkpt lat="45.08462" lon="5.43523">
        <ele>1168.7700195312</ele>
        <time>2010-04-20T15:42:57Z</time>
      </trkpt>
      <trkpt lat="45.08488" lon="5.43536">
        <ele>1166.6400146484</ele>
        <time>2010-04-20T15:43:00Z</time>
      </trkpt>
      <trkpt lat="45.08495" lon="5.43553">
        <ele>1165.9010009766</ele>
        <time>2010-04-20T15:43:02Z</time>
      </trkpt>
      <trkpt lat="45.08487" lon="5.43576">
        <ele>1165.1330566406</ele>
        <time>2010-04-20T15:43:04Z</time>
      </trkpt>
      <trkpt lat="45.08473" lon="5.43598">
        <ele>1162.8330078125</ele>
        <time>2010-04-20T15:43:06Z</time>
      </trkpt>
      <trkpt lat="45.08461" lon="5.4362">
        <ele>1161.2569580078</ele>
        <time>2010-04-20T15:43:08Z</time>
      </trkpt>
      <trkpt lat="45.08428" lon="5.43678">
        <ele>1156.4580078125</ele>
        <time>2010-04-20T15:43:13Z</time>
      </trkpt>
      <trkpt lat="45.0842" lon="5.43689">
        <ele>1155.541015625</ele>
        <time>2010-04-20T15:43:14Z</time>
      </trkpt>
      <trkpt lat="45.08409" lon="5.43716">
        <ele>1154.4689941406</ele>
        <time>2010-04-20T15:43:16Z</time>
      </trkpt>
      <trkpt lat="45.08397" lon="5.43761">
        <ele>1151.4870605469</ele>
        <time>2010-04-20T15:43:19Z</time>
      </trkpt>
      <trkpt lat="45.08386" lon="5.43788">
        <ele>1149.8940429688</ele>
        <time>2010-04-20T15:43:21Z</time>
      </trkpt>
      <trkpt lat="45.08371" lon="5.43811">
        <ele>1147.1309814453</ele>
        <time>2010-04-20T15:43:23Z</time>
      </trkpt>
      <trkpt lat="45.08336" lon="5.43859">
        <ele>1144.0660400391</ele>
        <time>2010-04-20T15:43:27Z</time>
      </trkpt>
      <trkpt lat="45.08329" lon="5.43886">
        <ele>1143.4040527344</ele>
        <time>2010-04-20T15:43:29Z</time>
      </trkpt>
      <trkpt lat="45.08347" lon="5.43924">
        <ele>1142.2850341797</ele>
        <time>2010-04-20T15:43:32Z</time>
      </trkpt>
      <trkpt lat="45.08354" lon="5.43933">
        <ele>1141.4200439453</ele>
        <time>2010-04-20T15:43:33Z</time>
      </trkpt>
      <trkpt lat="45.08384" lon="5.43953">
        <ele>1138.6920166016</ele>
        <time>2010-04-20T15:43:36Z</time>
      </trkpt>
      <trkpt lat="45.08391" lon="5.43964">
        <ele>1137.708984375</ele>
        <time>2010-04-20T15:43:37Z</time>
      </trkpt>
      <trkpt lat="45.08412" lon="5.43989">
        <ele>1135.7239990234</ele>
        <time>2010-04-20T15:43:40Z</time>
      </trkpt>
      <trkpt lat="45.0843" lon="5.43996">
        <ele>1134.5469970703</ele>
        <time>2010-04-20T15:43:42Z</time>
      </trkpt>
      <trkpt lat="45.0846" lon="5.44014">
        <ele>1132.5729980469</ele>
        <time>2010-04-20T15:43:45Z</time>
      </trkpt>
      <trkpt lat="45.08461" lon="5.44044">
        <ele>1130.0959472656</ele>
        <time>2010-04-20T15:43:47Z</time>
      </trkpt>
      <trkpt lat="45.08482" lon="5.44094">
        <ele>1126.7399902344</ele>
        <time>2010-04-20T15:43:51Z</time>
      </trkpt>
      <trkpt lat="45.08503" lon="5.44132">
        <ele>1124.6070556641</ele>
        <time>2010-04-20T15:43:54Z</time>
      </trkpt>
      <trkpt lat="45.08519" lon="5.44173">
        <ele>1122.0749511719</ele>
        <time>2010-04-20T15:43:57Z</time>
      </trkpt>
      <trkpt lat="45.0854" lon="5.44211">
        <ele>1119.1789550781</ele>
        <time>2010-04-20T15:44:00Z</time>
      </trkpt>
      <trkpt lat="45.0857" lon="5.44225">
        <ele>1117.2390136719</ele>
        <time>2010-04-20T15:44:03Z</time>
      </trkpt>
      <trkpt lat="45.08583" lon="5.44216">
        <ele>1116.9139404297</ele>
        <time>2010-04-20T15:44:04Z</time>
      </trkpt>
      <trkpt lat="45.08593" lon="5.44206">
        <ele>1116.375</ele>
        <time>2010-04-20T15:44:05Z</time>
      </trkpt>
      <trkpt lat="45.08601" lon="5.44196">
        <ele>1115.9520263672</ele>
        <time>2010-04-20T15:44:06Z</time>
      </trkpt>
      <trkpt lat="45.08641" lon="5.44177">
        <ele>1113.9000244141</ele>
        <time>2010-04-20T15:44:11Z</time>
      </trkpt>
      <trkpt lat="45.08662" lon="5.44206">
        <ele>1113.4930419922</ele>
        <time>2010-04-20T15:44:14Z</time>
      </trkpt>
      <trkpt lat="45.08668" lon="5.44234">
        <ele>1113.4890136719</ele>
        <time>2010-04-20T15:44:16Z</time>
      </trkpt>
      <trkpt lat="45.08671" lon="5.44266">
        <ele>1108.9799804688</ele>
        <time>2010-04-20T15:44:18Z</time>
      </trkpt>
      <trkpt lat="45.0869" lon="5.44326">
        <ele>1102.8940429688</ele>
        <time>2010-04-20T15:44:22Z</time>
      </trkpt>
      <trkpt lat="45.08698" lon="5.4435">
        <ele>1102.2750244141</ele>
        <time>2010-04-20T15:44:24Z</time>
      </trkpt>
      <trkpt lat="45.08723" lon="5.44369">
        <ele>1100.1390380859</ele>
        <time>2010-04-20T15:44:28Z</time>
      </trkpt>
      <trkpt lat="45.08736" lon="5.44362">
        <ele>1099.8020019531</ele>
        <time>2010-04-20T15:44:30Z</time>
      </trkpt>
      <trkpt lat="45.08752" lon="5.44356">
        <ele>1099.2669677734</ele>
        <time>2010-04-20T15:44:32Z</time>
      </trkpt>
      <trkpt lat="45.08759" lon="5.44355">
        <ele>1098.8990478516</ele>
        <time>2010-04-20T15:44:33Z</time>
      </trkpt>
      <trkpt lat="45.08771" lon="5.44353">
        <ele>1097.1779785156</ele>
        <time>2010-04-20T15:44:35Z</time>
      </trkpt>
      <trkpt lat="45.08807" lon="5.44358">
        <ele>1094.9530029297</ele>
        <time>2010-04-20T15:44:39Z</time>
      </trkpt>
      <trkpt lat="45.08827" lon="5.44394">
        <ele>1092.9639892578</ele>
        <time>2010-04-20T15:44:43Z</time>
      </trkpt>
      <trkpt lat="45.08826" lon="5.44404">
        <ele>1092.1739501953</ele>
        <time>2010-04-20T15:44:44Z</time>
      </trkpt>
      <trkpt lat="45.08834" lon="5.44447">
        <ele>1090.1109619141</ele>
        <time>2010-04-20T15:44:47Z</time>
      </trkpt>
      <trkpt lat="45.08837" lon="5.44472">
        <ele>1088.9560546875</ele>
        <time>2010-04-20T15:44:49Z</time>
      </trkpt>
      <trkpt lat="45.08837" lon="5.44498">
        <ele>1087.6610107422</ele>
        <time>2010-04-20T15:44:51Z</time>
      </trkpt>
      <trkpt lat="45.08834" lon="5.44513">
        <ele>1087.0319824219</ele>
        <time>2010-04-20T15:44:52Z</time>
      </trkpt>
      <trkpt lat="45.08831" lon="5.44575">
        <ele>1084.6889648438</ele>
        <time>2010-04-20T15:44:56Z</time>
      </trkpt>
      <trkpt lat="45.08849" lon="5.44648">
        <ele>1081.3120117188</ele>
        <time>2010-04-20T15:45:01Z</time>
      </trkpt>
      <trkpt lat="45.0887" lon="5.4468">
        <ele>1080.7299804688</ele>
        <time>2010-04-20T15:45:04Z</time>
      </trkpt>
      <trkpt lat="45.08887" lon="5.44682">
        <ele>1079.8489990234</ele>
        <time>2010-04-20T15:45:06Z</time>
      </trkpt>
      <trkpt lat="45.08902" lon="5.44693">
        <ele>1078.7659912109</ele>
        <time>2010-04-20T15:45:08Z</time>
      </trkpt>
      <trkpt lat="45.08909" lon="5.44741">
        <ele>1077.1600341797</ele>
        <time>2010-04-20T15:45:13Z</time>
      </trkpt>
      <trkpt lat="45.08914" lon="5.44751">
        <ele>1076.5810546875</ele>
        <time>2010-04-20T15:45:14Z</time>
      </trkpt>
      <trkpt lat="45.08924" lon="5.44767">
        <ele>1075.7320556641</ele>
        <time>2010-04-20T15:45:16Z</time>
      </trkpt>
      <trkpt lat="45.08927" lon="5.44794">
        <ele>1074.8540039062</ele>
        <time>2010-04-20T15:45:21Z</time>
      </trkpt>
      <trkpt lat="45.08928" lon="5.44824">
        <ele>1073.3110351562</ele>
        <time>2010-04-20T15:45:26Z</time>
      </trkpt>
      <trkpt lat="45.08932" lon="5.44848">
        <ele>1071.3859863281</ele>
        <time>2010-04-20T15:45:29Z</time>
      </trkpt>
      <trkpt lat="45.08947" lon="5.44858">
        <ele>1069.8620605469</ele>
        <time>2010-04-20T15:45:32Z</time>
      </trkpt>
      <trkpt lat="45.08963" lon="5.44861">
        <ele>1068.6689453125</ele>
        <time>2010-04-20T15:45:35Z</time>
      </trkpt>
      <trkpt lat="45.08985" lon="5.44868">
        <ele>1067.4680175781</ele>
        <time>2010-04-20T15:45:38Z</time>
      </trkpt>
      <trkpt lat="45.09017" lon="5.44868">
        <ele>1064.9809570312</ele>
        <time>2010-04-20T15:45:42Z</time>
      </trkpt>
      <trkpt lat="45.09023" lon="5.44861">
        <ele>1064.6639404297</ele>
        <time>2010-04-20T15:45:43Z</time>
      </trkpt>
      <trkpt lat="45.09062" lon="5.44841">
        <ele>1061.1030273438</ele>
        <time>2010-04-20T15:45:48Z</time>
      </trkpt>
      <trkpt lat="45.09079" lon="5.44853">
        <ele>1060.5150146484</ele>
        <time>2010-04-20T15:45:50Z</time>
      </trkpt>
      <trkpt lat="45.09101" lon="5.44849">
        <ele>1059.0379638672</ele>
        <time>2010-04-20T15:45:53Z</time>
      </trkpt>
      <trkpt lat="45.09108" lon="5.44844">
        <ele>1058.3699951172</ele>
        <time>2010-04-20T15:45:54Z</time>
      </trkpt>
      <trkpt lat="45.09123" lon="5.44832">
        <ele>1057.2659912109</ele>
        <time>2010-04-20T15:45:56Z</time>
      </trkpt>
      <trkpt lat="45.09149" lon="5.44819">
        <ele>1054.7199707031</ele>
        <time>2010-04-20T15:45:59Z</time>
      </trkpt>
      <trkpt lat="45.09178" lon="5.44813">
        <ele>1053.1970214844</ele>
        <time>2010-04-20T15:46:02Z</time>
      </trkpt>
      <trkpt lat="45.09192" lon="5.44808">
        <ele>1053.1330566406</ele>
        <time>2010-04-20T15:46:04Z</time>
      </trkpt>
      <trkpt lat="45.09208" lon="5.44812">
        <ele>1051.8680419922</ele>
        <time>2010-04-20T15:46:07Z</time>
      </trkpt>
      <trkpt lat="45.0922" lon="5.4484">
        <ele>1050.8280029297</ele>
        <time>2010-04-20T15:46:11Z</time>
      </trkpt>
      <trkpt lat="45.09229" lon="5.44879">
        <ele>1048.3869628906</ele>
        <time>2010-04-20T15:46:15Z</time>
      </trkpt>
      <trkpt lat="45.09236" lon="5.44931">
        <ele>1045.4360351562</ele>
        <time>2010-04-20T15:46:19Z</time>
      </trkpt>
      <trkpt lat="45.09253" lon="5.44959">
        <ele>1045.3909912109</ele>
        <time>2010-04-20T15:46:22Z</time>
      </trkpt>
      <trkpt lat="45.09288" lon="5.44988">
        <ele>1040.0030517578</ele>
        <time>2010-04-20T15:46:27Z</time>
      </trkpt>
      <trkpt lat="45.09295" lon="5.44994">
        <ele>1039.7900390625</ele>
        <time>2010-04-20T15:46:28Z</time>
      </trkpt>
      <trkpt lat="45.09315" lon="5.45016">
        <ele>1039.3559570312</ele>
        <time>2010-04-20T15:46:31Z</time>
      </trkpt>
      <trkpt lat="45.09332" lon="5.45046">
        <ele>1037.1099853516</ele>
        <time>2010-04-20T15:46:34Z</time>
      </trkpt>
      <trkpt lat="45.09338" lon="5.45069">
        <ele>1036.3389892578</ele>
        <time>2010-04-20T15:46:36Z</time>
      </trkpt>
      <trkpt lat="45.09346" lon="5.45108">
        <ele>1033.9849853516</ele>
        <time>2010-04-20T15:46:39Z</time>
      </trkpt>
      <trkpt lat="45.09354" lon="5.45135">
        <ele>1032.6829833984</ele>
        <time>2010-04-20T15:46:41Z</time>
      </trkpt>
      <trkpt lat="45.09373" lon="5.45163">
        <ele>1032.9050292969</ele>
        <time>2010-04-20T15:46:45Z</time>
      </trkpt>
      <trkpt lat="45.09393" lon="5.45157">
        <ele>1031.4189453125</ele>
        <time>2010-04-20T15:46:48Z</time>
      </trkpt>
      <trkpt lat="45.09416" lon="5.4516">
        <ele>1030.0469970703</ele>
        <time>2010-04-20T15:46:51Z</time>
      </trkpt>
      <trkpt lat="45.09425" lon="5.45174">
        <ele>1028.9189453125</ele>
        <time>2010-04-20T15:46:53Z</time>
      </trkpt>
      <trkpt lat="45.09436" lon="5.45194">
        <ele>1027.6860351562</ele>
        <time>2010-04-20T15:46:56Z</time>
      </trkpt>
      <trkpt lat="45.09449" lon="5.45225">
        <ele>1025.5439453125</ele>
        <time>2010-04-20T15:46:59Z</time>
      </trkpt>
      <trkpt lat="45.09475" lon="5.45295">
        <ele>1021.3690185547</ele>
        <time>2010-04-20T15:47:04Z</time>
      </trkpt>
      <trkpt lat="45.09483" lon="5.4532">
        <ele>1019.2529907227</ele>
        <time>2010-04-20T15:47:06Z</time>
      </trkpt>
      <trkpt lat="45.09493" lon="5.45362">
        <ele>1017.2169799805</ele>
        <time>2010-04-20T15:47:09Z</time>
      </trkpt>
      <trkpt lat="45.09499" lon="5.45392">
        <ele>1015.2030029297</ele>
        <time>2010-04-20T15:47:11Z</time>
      </trkpt>
      <trkpt lat="45.0951" lon="5.45418">
        <ele>1014.0050048828</ele>
        <time>2010-04-20T15:47:13Z</time>
      </trkpt>
      <trkpt lat="45.09535" lon="5.45444">
        <ele>1012.4749755859</ele>
        <time>2010-04-20T15:47:16Z</time>
      </trkpt>
      <trkpt lat="45.09554" lon="5.45452">
        <ele>1011.0620117188</ele>
        <time>2010-04-20T15:47:18Z</time>
      </trkpt>
      <trkpt lat="45.09586" lon="5.45464">
        <ele>1008.1380004883</ele>
        <time>2010-04-20T15:47:21Z</time>
      </trkpt>
      <trkpt lat="45.09603" lon="5.45491">
        <ele>1007.4420166016</ele>
        <time>2010-04-20T15:47:24Z</time>
      </trkpt>
      <trkpt lat="45.09606" lon="5.45504">
        <ele>1006.4240112305</ele>
        <time>2010-04-20T15:47:25Z</time>
      </trkpt>
      <trkpt lat="45.09613" lon="5.45544">
        <ele>1004.8729858398</ele>
        <time>2010-04-20T15:47:28Z</time>
      </trkpt>
      <trkpt lat="45.09626" lon="5.45598">
        <ele>1001.333984375</ele>
        <time>2010-04-20T15:47:32Z</time>
      </trkpt>
      <trkpt lat="45.09629" lon="5.45612">
        <ele>1000.6610107422</ele>
        <time>2010-04-20T15:47:33Z</time>
      </trkpt>
      <trkpt lat="45.09653" lon="5.45665">
        <ele>996.24798583984</ele>
        <time>2010-04-20T15:47:37Z</time>
      </trkpt>
      <trkpt lat="45.0968" lon="5.45694">
        <ele>993.88201904297</ele>
        <time>2010-04-20T15:47:40Z</time>
      </trkpt>
      <trkpt lat="45.09701" lon="5.45706">
        <ele>991.80499267578</ele>
        <time>2010-04-20T15:47:42Z</time>
      </trkpt>
      <trkpt lat="45.09723" lon="5.45713">
        <ele>990.89001464844</ele>
        <time>2010-04-20T15:47:44Z</time>
      </trkpt>
      <trkpt lat="45.09732" lon="5.45716">
        <ele>990.2490234375</ele>
        <time>2010-04-20T15:47:45Z</time>
      </trkpt>
      <trkpt lat="45.09762" lon="5.45739">
        <ele>987.96301269531</ele>
        <time>2010-04-20T15:47:49Z</time>
      </trkpt>
      <trkpt lat="45.09801" lon="5.45779">
        <ele>983.42199707031</ele>
        <time>2010-04-20T15:47:54Z</time>
      </trkpt>
      <trkpt lat="45.09846" lon="5.45816">
        <ele>979.25897216797</ele>
        <time>2010-04-20T15:47:59Z</time>
      </trkpt>
      <trkpt lat="45.09898" lon="5.45853">
        <ele>974.95098876953</ele>
        <time>2010-04-20T15:48:04Z</time>
      </trkpt>
      <trkpt lat="45.0995" lon="5.45889">
        <ele>969.50299072266</ele>
        <time>2010-04-20T15:48:09Z</time>
      </trkpt>
      <trkpt lat="45.10012" lon="5.45936">
        <ele>964.38201904297</ele>
        <time>2010-04-20T15:48:14Z</time>
      </trkpt>
      <trkpt lat="45.10063" lon="5.45998">
        <ele>959.92102050781</ele>
        <time>2010-04-20T15:48:19Z</time>
      </trkpt>
      <trkpt lat="45.10107" lon="5.46041">
        <ele>953.62902832031</ele>
        <time>2010-04-20T15:48:23Z</time>
      </trkpt>
      <trkpt lat="45.10158" lon="5.46079">
        <ele>949.44799804688</ele>
        <time>2010-04-20T15:48:27Z</time>
      </trkpt>
      <trkpt lat="45.10208" lon="5.46118">
        <ele>945.52801513672</ele>
        <time>2010-04-20T15:48:31Z</time>
      </trkpt>
      <trkpt lat="45.1026" lon="5.46158">
        <ele>940.74401855469</ele>
        <time>2010-04-20T15:48:35Z</time>
      </trkpt>
      <trkpt lat="45.10282" lon="5.46183">
        <ele>938.38500976562</ele>
        <time>2010-04-20T15:48:37Z</time>
      </trkpt>
      <trkpt lat="45.10306" lon="5.46201">
        <ele>937.20697021484</ele>
        <time>2010-04-20T15:48:39Z</time>
      </trkpt>
      <trkpt lat="45.10334" lon="5.46227">
        <ele>935.62902832031</ele>
        <time>2010-04-20T15:48:42Z</time>
      </trkpt>
      <trkpt lat="45.10339" lon="5.46256">
        <ele>936.07598876953</ele>
        <time>2010-04-20T15:48:44Z</time>
      </trkpt>
      <trkpt lat="45.10326" lon="5.46295">
        <ele>937.42199707031</ele>
        <time>2010-04-20T15:48:47Z</time>
      </trkpt>
      <trkpt lat="45.10306" lon="5.46323">
        <ele>938.51599121094</ele>
        <time>2010-04-20T15:48:50Z</time>
      </trkpt>
      <trkpt lat="45.10269" lon="5.46369">
        <ele>936.91400146484</ele>
        <time>2010-04-20T15:48:55Z</time>
      </trkpt>
      <trkpt lat="45.10247" lon="5.46412">
        <ele>937.62799072266</ele>
        <time>2010-04-20T15:48:59Z</time>
      </trkpt>
      <trkpt lat="45.1025" lon="5.46444">
        <ele>939.083984375</ele>
        <time>2010-04-20T15:49:02Z</time>
      </trkpt>
      <trkpt lat="45.10269" lon="5.4646">
        <ele>939.84197998047</ele>
        <time>2010-04-20T15:49:05Z</time>
      </trkpt>
      <trkpt lat="45.10275" lon="5.46464">
        <ele>939.99499511719</ele>
        <time>2010-04-20T15:49:06Z</time>
      </trkpt>
      <trkpt lat="45.10298" lon="5.4648">
        <ele>938.48901367188</ele>
        <time>2010-04-20T15:49:09Z</time>
      </trkpt>
      <trkpt lat="45.10348" lon="5.46535">
        <ele>933.36999511719</ele>
        <time>2010-04-20T15:49:15Z</time>
      </trkpt>
      <trkpt lat="45.10377" lon="5.46561">
        <ele>929.28100585938</ele>
        <time>2010-04-20T15:49:18Z</time>
      </trkpt>
      <trkpt lat="45.10423" lon="5.46582">
        <ele>926.46301269531</ele>
        <time>2010-04-20T15:49:22Z</time>
      </trkpt>
      <trkpt lat="45.10477" lon="5.46601">
        <ele>921.81097412109</ele>
        <time>2010-04-20T15:49:26Z</time>
      </trkpt>
      <trkpt lat="45.10538" lon="5.46627">
        <ele>917.09002685547</ele>
        <time>2010-04-20T15:49:31Z</time>
      </trkpt>
      <trkpt lat="45.10592" lon="5.46636">
        <ele>913.74102783203</ele>
        <time>2010-04-20T15:49:35Z</time>
      </trkpt>
      <trkpt lat="45.10605" lon="5.46639">
        <ele>912.2919921875</ele>
        <time>2010-04-20T15:49:36Z</time>
      </trkpt>
      <trkpt lat="45.10657" lon="5.4667">
        <ele>905.8759765625</ele>
        <time>2010-04-20T15:49:40Z</time>
      </trkpt>
      <trkpt lat="45.1068" lon="5.46696">
        <ele>902.77502441406</ele>
        <time>2010-04-20T15:49:42Z</time>
      </trkpt>
      <trkpt lat="45.10737" lon="5.4675">
        <ele>898.86199951172</ele>
        <time>2010-04-20T15:49:47Z</time>
      </trkpt>
      <trkpt lat="45.10748" lon="5.46758">
        <ele>898.80902099609</ele>
        <time>2010-04-20T15:49:48Z</time>
      </trkpt>
      <trkpt lat="45.10796" lon="5.46772">
        <ele>895.06597900391</ele>
        <time>2010-04-20T15:49:52Z</time>
      </trkpt>
      <trkpt lat="45.10818" lon="5.46777">
        <ele>893.12701416016</ele>
        <time>2010-04-20T15:49:54Z</time>
      </trkpt>
      <trkpt lat="45.10843" lon="5.46774">
        <ele>892.20202636719</ele>
        <time>2010-04-20T15:49:56Z</time>
      </trkpt>
      <trkpt lat="45.10856" lon="5.46772">
        <ele>890.24200439453</ele>
        <time>2010-04-20T15:49:57Z</time>
      </trkpt>
      <trkpt lat="45.10897" lon="5.46774">
        <ele>887.10101318359</ele>
        <time>2010-04-20T15:50:00Z</time>
      </trkpt>
      <trkpt lat="45.10924" lon="5.46796">
        <ele>885.53997802734</ele>
        <time>2010-04-20T15:50:02Z</time>
      </trkpt>
      <trkpt lat="45.10941" lon="5.46828">
        <ele>882.79797363281</ele>
        <time>2010-04-20T15:50:04Z</time>
      </trkpt>
      <trkpt lat="45.10967" lon="5.46918">
        <ele>876.68499755859</ele>
        <time>2010-04-20T15:50:09Z</time>
      </trkpt>
      <trkpt lat="45.10981" lon="5.4695">
        <ele>876.0009765625</ele>
        <time>2010-04-20T15:50:11Z</time>
      </trkpt>
      <trkpt lat="45.10991" lon="5.47009">
        <ele>878.00701904297</ele>
        <time>2010-04-20T15:50:15Z</time>
      </trkpt>
      <trkpt lat="45.11" lon="5.47048">
        <ele>878.22601318359</ele>
        <time>2010-04-20T15:50:19Z</time>
      </trkpt>
      <trkpt lat="45.11019" lon="5.47067">
        <ele>876.32000732422</ele>
        <time>2010-04-20T15:50:22Z</time>
      </trkpt>
      <trkpt lat="45.11077" lon="5.47106">
        <ele>876.22198486328</ele>
        <time>2010-04-20T15:50:29Z</time>
      </trkpt>
      <trkpt lat="45.11116" lon="5.47133">
        <ele>866.02697753906</ele>
        <time>2010-04-20T15:50:33Z</time>
      </trkpt>
      <trkpt lat="45.11149" lon="5.47143">
        <ele>864.70001220703</ele>
        <time>2010-04-20T15:50:36Z</time>
      </trkpt>
      <trkpt lat="45.11163" lon="5.47143">
        <ele>864.69799804688</ele>
        <time>2010-04-20T15:50:38Z</time>
      </trkpt>
      <trkpt lat="45.11179" lon="5.47155">
        <ele>862.66802978516</ele>
        <time>2010-04-20T15:50:42Z</time>
      </trkpt>
      <trkpt lat="45.11179" lon="5.47177">
        <ele>862.06597900391</ele>
        <time>2010-04-20T15:50:45Z</time>
      </trkpt>
      <trkpt lat="45.11174" lon="5.472">
        <ele>861.541015625</ele>
        <time>2010-04-20T15:50:48Z</time>
      </trkpt>
      <trkpt lat="45.11171" lon="5.47217">
        <ele>860.69500732422</ele>
        <time>2010-04-20T15:50:50Z</time>
      </trkpt>
      <trkpt lat="45.11166" lon="5.47256">
        <ele>859.17999267578</ele>
        <time>2010-04-20T15:50:54Z</time>
      </trkpt>
      <trkpt lat="45.11166" lon="5.47267">
        <ele>858.26098632812</ele>
        <time>2010-04-20T15:50:55Z</time>
      </trkpt>
      <trkpt lat="45.11168" lon="5.47279">
        <ele>857.57702636719</ele>
        <time>2010-04-20T15:50:56Z</time>
      </trkpt>
      <trkpt lat="45.11171" lon="5.47293">
        <ele>857.01202392578</ele>
        <time>2010-04-20T15:50:57Z</time>
      </trkpt>
      <trkpt lat="45.11172" lon="5.47307">
        <ele>856.57202148438</ele>
        <time>2010-04-20T15:50:58Z</time>
      </trkpt>
      <trkpt lat="45.11163" lon="5.47341">
        <ele>855.48199462891</ele>
        <time>2010-04-20T15:51:00Z</time>
      </trkpt>
      <trkpt lat="45.11145" lon="5.47358">
        <ele>855.10400390625</ele>
        <time>2010-04-20T15:51:02Z</time>
      </trkpt>
      <trkpt lat="45.11124" lon="5.47387">
        <ele>852.17199707031</ele>
        <time>2010-04-20T15:51:05Z</time>
      </trkpt>
      <trkpt lat="45.11122" lon="5.47414">
        <ele>851.48602294922</ele>
        <time>2010-04-20T15:51:07Z</time>
      </trkpt>
      <trkpt lat="45.11122" lon="5.47455">
        <ele>848.99298095703</ele>
        <time>2010-04-20T15:51:10Z</time>
      </trkpt>
      <trkpt lat="45.11114" lon="5.47463">
        <ele>848.78100585938</ele>
        <time>2010-04-20T15:51:11Z</time>
      </trkpt>
      <trkpt lat="45.11097" lon="5.47458">
        <ele>849.26098632812</ele>
        <time>2010-04-20T15:51:13Z</time>
      </trkpt>
      <trkpt lat="45.11089" lon="5.47452">
        <ele>848.81799316406</ele>
        <time>2010-04-20T15:51:14Z</time>
      </trkpt>
      <trkpt lat="45.11072" lon="5.47437">
        <ele>848.15002441406</ele>
        <time>2010-04-20T15:51:16Z</time>
      </trkpt>
      <trkpt lat="45.11041" lon="5.47386">
        <ele>844.54797363281</ele>
        <time>2010-04-20T15:51:20Z</time>
      </trkpt>
      <trkpt lat="45.11005" lon="5.47336">
        <ele>842.15002441406</ele>
        <time>2010-04-20T15:51:25Z</time>
      </trkpt>
      <trkpt lat="45.10993" lon="5.4734">
        <ele>841.47601318359</ele>
        <time>2010-04-20T15:51:26Z</time>
      </trkpt>
      <trkpt lat="45.10958" lon="5.47339">
        <ele>838.51202392578</ele>
        <time>2010-04-20T15:51:29Z</time>
      </trkpt>
      <trkpt lat="45.1094" lon="5.47319">
        <ele>837.5</ele>
        <time>2010-04-20T15:51:31Z</time>
      </trkpt>
      <trkpt lat="45.1091" lon="5.47296">
        <ele>836.04797363281</ele>
        <time>2010-04-20T15:51:34Z</time>
      </trkpt>
      <trkpt lat="45.10875" lon="5.47283">
        <ele>834.11199951172</ele>
        <time>2010-04-20T15:51:37Z</time>
      </trkpt>
      <trkpt lat="45.10852" lon="5.47277">
        <ele>833.32897949219</ele>
        <time>2010-04-20T15:51:39Z</time>
      </trkpt>
      <trkpt lat="45.10827" lon="5.47278">
        <ele>832.07000732422</ele>
        <time>2010-04-20T15:51:41Z</time>
      </trkpt>
      <trkpt lat="45.10791" lon="5.4728">
        <ele>829.59497070312</ele>
        <time>2010-04-20T15:51:44Z</time>
      </trkpt>
      <trkpt lat="45.10756" lon="5.47266">
        <ele>828.67700195312</ele>
        <time>2010-04-20T15:51:47Z</time>
      </trkpt>
      <trkpt lat="45.10725" lon="5.4724">
        <ele>826.83697509766</ele>
        <time>2010-04-20T15:51:50Z</time>
      </trkpt>
      <trkpt lat="45.10696" lon="5.47207">
        <ele>825.27001953125</ele>
        <time>2010-04-20T15:51:53Z</time>
      </trkpt>
      <trkpt lat="45.10658" lon="5.47172">
        <ele>823.13702392578</ele>
        <time>2010-04-20T15:51:57Z</time>
      </trkpt>
      <trkpt lat="45.10633" lon="5.47198">
        <ele>821.48199462891</ele>
        <time>2010-04-20T15:52:00Z</time>
      </trkpt>
      <trkpt lat="45.10625" lon="5.4721">
        <ele>820.54901123047</ele>
        <time>2010-04-20T15:52:01Z</time>
      </trkpt>
      <trkpt lat="45.10565" lon="5.47258">
        <ele>816.82897949219</ele>
        <time>2010-04-20T15:52:07Z</time>
      </trkpt>
      <trkpt lat="45.1053" lon="5.47256">
        <ele>814.56201171875</ele>
        <time>2010-04-20T15:52:10Z</time>
      </trkpt>
      <trkpt lat="45.10518" lon="5.47252">
        <ele>814.31799316406</ele>
        <time>2010-04-20T15:52:11Z</time>
      </trkpt>
      <trkpt lat="45.10484" lon="5.47259">
        <ele>813.87200927734</ele>
        <time>2010-04-20T15:52:14Z</time>
      </trkpt>
      <trkpt lat="45.10455" lon="5.47281">
        <ele>812.94702148438</ele>
        <time>2010-04-20T15:52:17Z</time>
      </trkpt>
      <trkpt lat="45.10418" lon="5.47318">
        <ele>813.45697021484</ele>
        <time>2010-04-20T15:52:22Z</time>
      </trkpt>
      <trkpt lat="45.10402" lon="5.4732">
        <ele>814.09002685547</ele>
        <time>2010-04-20T15:52:24Z</time>
      </trkpt>
      <trkpt lat="45.10386" lon="5.47318">
        <ele>814.06597900391</ele>
        <time>2010-04-20T15:52:26Z</time>
      </trkpt>
      <trkpt lat="45.10343" lon="5.47301">
        <ele>812.42700195312</ele>
        <time>2010-04-20T15:52:31Z</time>
      </trkpt>
      <trkpt lat="45.10324" lon="5.4729">
        <ele>811.44000244141</ele>
        <time>2010-04-20T15:52:33Z</time>
      </trkpt>
      <trkpt lat="45.10283" lon="5.4725">
        <ele>810.26000976562</ele>
        <time>2010-04-20T15:52:38Z</time>
      </trkpt>
      <trkpt lat="45.10275" lon="5.47241">
        <ele>809.94702148438</ele>
        <time>2010-04-20T15:52:39Z</time>
      </trkpt>
      <trkpt lat="45.10228" lon="5.47208">
        <ele>809.03302001953</ele>
        <time>2010-04-20T15:52:44Z</time>
      </trkpt>
      <trkpt lat="45.10198" lon="5.47206">
        <ele>807.31298828125</ele>
        <time>2010-04-20T15:52:47Z</time>
      </trkpt>
      <trkpt lat="45.10188" lon="5.47213">
        <ele>807.03302001953</ele>
        <time>2010-04-20T15:52:48Z</time>
      </trkpt>
      <trkpt lat="45.10159" lon="5.47244">
        <ele>804.78002929688</ele>
        <time>2010-04-20T15:52:51Z</time>
      </trkpt>
      <trkpt lat="45.10147" lon="5.47278">
        <ele>803.26000976562</ele>
        <time>2010-04-20T15:52:53Z</time>
      </trkpt>
      <trkpt lat="45.10144" lon="5.47316">
        <ele>802.03698730469</ele>
        <time>2010-04-20T15:52:55Z</time>
      </trkpt>
      <trkpt lat="45.10143" lon="5.47354">
        <ele>800.65899658203</ele>
        <time>2010-04-20T15:52:57Z</time>
      </trkpt>
      <trkpt lat="45.10148" lon="5.4741">
        <ele>800.3330078125</ele>
        <time>2010-04-20T15:53:00Z</time>
      </trkpt>
      <trkpt lat="45.10143" lon="5.47464">
        <ele>798.61297607422</ele>
        <time>2010-04-20T15:53:03Z</time>
      </trkpt>
      <trkpt lat="45.10123" lon="5.47488">
        <ele>798.09197998047</ele>
        <time>2010-04-20T15:53:05Z</time>
      </trkpt>
      <trkpt lat="45.1011" lon="5.47494">
        <ele>797.77197265625</ele>
        <time>2010-04-20T15:53:06Z</time>
      </trkpt>
      <trkpt lat="45.10066" lon="5.47523">
        <ele>796.74700927734</ele>
        <time>2010-04-20T15:53:10Z</time>
      </trkpt>
      <trkpt lat="45.10034" lon="5.47524">
        <ele>793.78399658203</ele>
        <time>2010-04-20T15:53:13Z</time>
      </trkpt>
      <trkpt lat="45.10019" lon="5.47501">
        <ele>792.76397705078</ele>
        <time>2010-04-20T15:53:15Z</time>
      </trkpt>
      <trkpt lat="45.09983" lon="5.47481">
        <ele>792.63598632812</ele>
        <time>2010-04-20T15:53:18Z</time>
      </trkpt>
      <trkpt lat="45.09958" lon="5.47485">
        <ele>792.93499755859</ele>
        <time>2010-04-20T15:53:20Z</time>
      </trkpt>
      <trkpt lat="45.09937" lon="5.47506">
        <ele>791.10699462891</ele>
        <time>2010-04-20T15:53:22Z</time>
      </trkpt>
      <trkpt lat="45.09898" lon="5.47523">
        <ele>789.15600585938</ele>
        <time>2010-04-20T15:53:26Z</time>
      </trkpt>
      <trkpt lat="45.0988" lon="5.47496">
        <ele>787.71997070312</ele>
        <time>2010-04-20T15:53:28Z</time>
      </trkpt>
      <trkpt lat="45.09872" lon="5.47464">
        <ele>786.82098388672</ele>
        <time>2010-04-20T15:53:30Z</time>
      </trkpt>
      <trkpt lat="45.09862" lon="5.47436">
        <ele>786.10302734375</ele>
        <time>2010-04-20T15:53:32Z</time>
      </trkpt>
      <trkpt lat="45.09843" lon="5.47418">
        <ele>785.33099365234</ele>
        <time>2010-04-20T15:53:34Z</time>
      </trkpt>
      <trkpt lat="45.09799" lon="5.47386">
        <ele>783.88800048828</ele>
        <time>2010-04-20T15:53:38Z</time>
      </trkpt>
      <trkpt lat="45.09753" lon="5.4736">
        <ele>782.13702392578</ele>
        <time>2010-04-20T15:53:42Z</time>
      </trkpt>
      <trkpt lat="45.09741" lon="5.47331">
        <ele>782.10198974609</ele>
        <time>2010-04-20T15:53:44Z</time>
      </trkpt>
      <trkpt lat="45.09736" lon="5.47282">
        <ele>780.50500488281</ele>
        <time>2010-04-20T15:53:47Z</time>
      </trkpt>
      <trkpt lat="45.09727" lon="5.47234">
        <ele>779.53100585938</ele>
        <time>2010-04-20T15:53:50Z</time>
      </trkpt>
      <trkpt lat="45.09721" lon="5.47219">
        <ele>779.84899902344</ele>
        <time>2010-04-20T15:53:51Z</time>
      </trkpt>
      <trkpt lat="45.09674" lon="5.47115">
        <ele>775.15100097656</ele>
        <time>2010-04-20T15:53:58Z</time>
      </trkpt>
      <trkpt lat="45.09648" lon="5.47051">
        <ele>771.39599609375</ele>
        <time>2010-04-20T15:54:02Z</time>
      </trkpt>
      <trkpt lat="45.09607" lon="5.47001">
        <ele>766.50799560547</ele>
        <time>2010-04-20T15:54:06Z</time>
      </trkpt>
      <trkpt lat="45.09541" lon="5.46959">
        <ele>760.1669921875</ele>
        <time>2010-04-20T15:54:11Z</time>
      </trkpt>
      <trkpt lat="45.09465" lon="5.46936">
        <ele>754.00500488281</ele>
        <time>2010-04-20T15:54:16Z</time>
      </trkpt>
      <trkpt lat="45.0945" lon="5.46931">
        <ele>753.20397949219</ele>
        <time>2010-04-20T15:54:17Z</time>
      </trkpt>
      <trkpt lat="45.09379" lon="5.4688">
        <ele>746.2919921875</ele>
        <time>2010-04-20T15:54:22Z</time>
      </trkpt>
      <trkpt lat="45.09341" lon="5.46863">
        <ele>743.61297607422</ele>
        <time>2010-04-20T15:54:25Z</time>
      </trkpt>
      <trkpt lat="45.0932" lon="5.46871">
        <ele>742.88299560547</ele>
        <time>2010-04-20T15:54:27Z</time>
      </trkpt>
      <trkpt lat="45.09312" lon="5.46897">
        <ele>741.40399169922</ele>
        <time>2010-04-20T15:54:29Z</time>
      </trkpt>
      <trkpt lat="45.09321" lon="5.46923">
        <ele>739.89801025391</ele>
        <time>2010-04-20T15:54:31Z</time>
      </trkpt>
      <trkpt lat="45.09339" lon="5.46944">
        <ele>736.43103027344</ele>
        <time>2010-04-20T15:54:33Z</time>
      </trkpt>
      <trkpt lat="45.09346" lon="5.46959">
        <ele>735.68103027344</ele>
        <time>2010-04-20T15:54:34Z</time>
      </trkpt>
      <trkpt lat="45.09357" lon="5.46991">
        <ele>733.22302246094</ele>
        <time>2010-04-20T15:54:36Z</time>
      </trkpt>
      <trkpt lat="45.09389" lon="5.47072">
        <ele>727.55401611328</ele>
        <time>2010-04-20T15:54:41Z</time>
      </trkpt>
      <trkpt lat="45.09398" lon="5.47107">
        <ele>725.65197753906</ele>
        <time>2010-04-20T15:54:43Z</time>
      </trkpt>
      <trkpt lat="45.09399" lon="5.47142">
        <ele>724.70397949219</ele>
        <time>2010-04-20T15:54:45Z</time>
      </trkpt>
      <trkpt lat="45.09386" lon="5.47167">
        <ele>723.28802490234</ele>
        <time>2010-04-20T15:54:47Z</time>
      </trkpt>
      <trkpt lat="45.09364" lon="5.47175">
        <ele>721.12902832031</ele>
        <time>2010-04-20T15:54:49Z</time>
      </trkpt>
      <trkpt lat="45.09347" lon="5.47154">
        <ele>718.83001708984</ele>
        <time>2010-04-20T15:54:51Z</time>
      </trkpt>
      <trkpt lat="45.09343" lon="5.47138">
        <ele>717.17498779297</ele>
        <time>2010-04-20T15:54:52Z</time>
      </trkpt>
      <trkpt lat="45.0933" lon="5.47085">
        <ele>715.23101806641</ele>
        <time>2010-04-20T15:54:55Z</time>
      </trkpt>
      <trkpt lat="45.09305" lon="5.47039">
        <ele>710.80700683594</ele>
        <time>2010-04-20T15:54:58Z</time>
      </trkpt>
      <trkpt lat="45.0927" lon="5.47002">
        <ele>707.05499267578</ele>
        <time>2010-04-20T15:55:01Z</time>
      </trkpt>
      <trkpt lat="45.09228" lon="5.46984">
        <ele>703.09899902344</ele>
        <time>2010-04-20T15:55:04Z</time>
      </trkpt>
      <trkpt lat="45.09182" lon="5.46976">
        <ele>698.666015625</ele>
        <time>2010-04-20T15:55:07Z</time>
      </trkpt>
      <trkpt lat="45.09167" lon="5.4697">
        <ele>697.67700195312</ele>
        <time>2010-04-20T15:55:08Z</time>
      </trkpt>
      <trkpt lat="45.09058" lon="5.46924">
        <ele>686.64202880859</ele>
        <time>2010-04-20T15:55:15Z</time>
      </trkpt>
      <trkpt lat="45.08961" lon="5.46895">
        <ele>679.375</ele>
        <time>2010-04-20T15:55:21Z</time>
      </trkpt>
      <trkpt lat="45.08917" lon="5.46869">
        <ele>674.84197998047</ele>
        <time>2010-04-20T15:55:24Z</time>
      </trkpt>
      <trkpt lat="45.08904" lon="5.46861">
        <ele>675.13000488281</ele>
        <time>2010-04-20T15:55:25Z</time>
      </trkpt>
      <trkpt lat="45.08874" lon="5.46847">
        <ele>675.31298828125</ele>
        <time>2010-04-20T15:55:28Z</time>
      </trkpt>
      <trkpt lat="45.08839" lon="5.46835">
        <ele>673.34497070312</ele>
        <time>2010-04-20T15:55:32Z</time>
      </trkpt>
      <trkpt lat="45.08825" lon="5.46807">
        <ele>673.36297607422</ele>
        <time>2010-04-20T15:55:35Z</time>
      </trkpt>
      <trkpt lat="45.08813" lon="5.46771">
        <ele>672.54602050781</ele>
        <time>2010-04-20T15:55:38Z</time>
      </trkpt>
      <trkpt lat="45.08802" lon="5.46746">
        <ele>672.84100341797</ele>
        <time>2010-04-20T15:55:40Z</time>
      </trkpt>
      <trkpt lat="45.08775" lon="5.46676">
        <ele>673.17700195312</ele>
        <time>2010-04-20T15:55:46Z</time>
      </trkpt>
      <trkpt lat="45.08751" lon="5.46617">
        <ele>672.81097412109</ele>
        <time>2010-04-20T15:55:51Z</time>
      </trkpt>
      <trkpt lat="45.08739" lon="5.46594">
        <ele>671.84497070312</ele>
        <time>2010-04-20T15:55:53Z</time>
      </trkpt>
      <trkpt lat="45.08725" lon="5.46539">
        <ele>670.77697753906</ele>
        <time>2010-04-20T15:55:57Z</time>
      </trkpt>
      <trkpt lat="45.08727" lon="5.46493">
        <ele>670.22601318359</ele>
        <time>2010-04-20T15:56:00Z</time>
      </trkpt>
      <trkpt lat="45.08725" lon="5.46418">
        <ele>668.85998535156</ele>
        <time>2010-04-20T15:56:05Z</time>
      </trkpt>
      <trkpt lat="45.08706" lon="5.46338">
        <ele>668.77197265625</ele>
        <time>2010-04-20T15:56:11Z</time>
      </trkpt>
      <trkpt lat="45.08679" lon="5.46258">
        <ele>667.2919921875</ele>
        <time>2010-04-20T15:56:17Z</time>
      </trkpt>
      <trkpt lat="45.08677" lon="5.46243">
        <ele>667.59802246094</ele>
        <time>2010-04-20T15:56:18Z</time>
      </trkpt>
      <trkpt lat="45.08676" lon="5.46176">
        <ele>665.47497558594</ele>
        <time>2010-04-20T15:56:22Z</time>
      </trkpt>
      <trkpt lat="45.08662" lon="5.4612">
        <ele>665.62097167969</ele>
        <time>2010-04-20T15:56:26Z</time>
      </trkpt>
      <trkpt lat="45.08639" lon="5.46068">
        <ele>664.12799072266</ele>
        <time>2010-04-20T15:56:30Z</time>
      </trkpt>
      <trkpt lat="45.08607" lon="5.4603">
        <ele>665.25598144531</ele>
        <time>2010-04-20T15:56:34Z</time>
      </trkpt>
      <trkpt lat="45.08597" lon="5.46025">
        <ele>664.66802978516</ele>
        <time>2010-04-20T15:56:35Z</time>
      </trkpt>
      <trkpt lat="45.08549" lon="5.46001">
        <ele>664.26501464844</ele>
        <time>2010-04-20T15:56:40Z</time>
      </trkpt>
      <trkpt lat="45.08497" lon="5.45966">
        <ele>664.02398681641</ele>
        <time>2010-04-20T15:56:46Z</time>
      </trkpt>
      <trkpt lat="45.08455" lon="5.45936">
        <ele>663.47601318359</ele>
        <time>2010-04-20T15:56:51Z</time>
      </trkpt>
      <trkpt lat="45.08421" lon="5.4589">
        <ele>663.12200927734</ele>
        <time>2010-04-20T15:56:56Z</time>
      </trkpt>
      <trkpt lat="45.08414" lon="5.45881">
        <ele>662.95501708984</ele>
        <time>2010-04-20T15:56:57Z</time>
      </trkpt>
      <trkpt lat="45.08374" lon="5.45822">
        <ele>662.68902587891</ele>
        <time>2010-04-20T15:57:03Z</time>
      </trkpt>
      <trkpt lat="45.08333" lon="5.45793">
        <ele>661.59399414062</ele>
        <time>2010-04-20T15:57:08Z</time>
      </trkpt>
      <trkpt lat="45.08313" lon="5.45786">
        <ele>660.59698486328</ele>
        <time>2010-04-20T15:57:10Z</time>
      </trkpt>
      <trkpt lat="45.08283" lon="5.45769">
        <ele>660.37097167969</ele>
        <time>2010-04-20T15:57:14Z</time>
      </trkpt>
      <trkpt lat="45.08285" lon="5.45765">
        <ele>659.17199707031</ele>
        <time>2010-04-20T15:57:16Z</time>
      </trkpt>
      <trkpt lat="45.08268" lon="5.45761">
        <ele>657.958984375</ele>
        <time>2010-04-20T15:57:18Z</time>
      </trkpt>
      <trkpt lat="45.08236" lon="5.45753">
        <ele>656.43597412109</ele>
        <time>2010-04-20T15:57:21Z</time>
      </trkpt>
      <trkpt lat="45.08194" lon="5.4574">
        <ele>653.54797363281</ele>
        <time>2010-04-20T15:57:24Z</time>
      </trkpt>
      <trkpt lat="45.08131" lon="5.45719">
        <ele>650.04901123047</ele>
        <time>2010-04-20T15:57:30Z</time>
      </trkpt>
      <trkpt lat="45.08111" lon="5.45704">
        <ele>649.10400390625</ele>
        <time>2010-04-20T15:57:32Z</time>
      </trkpt>
      <trkpt lat="45.08066" lon="5.45674">
        <ele>645.92297363281</ele>
        <time>2010-04-20T15:57:36Z</time>
      </trkpt>
      <trkpt lat="45.08003" lon="5.45657">
        <ele>641.27099609375</ele>
        <time>2010-04-20T15:57:41Z</time>
      </trkpt>
      <trkpt lat="45.07989" lon="5.45554">
        <ele>636.76202392578</ele>
        <time>2010-04-20T15:57:45Z</time>
      </trkpt>
      <trkpt lat="45.07945" lon="5.45514">
        <ele>632.77001953125</ele>
        <time>2010-04-20T15:57:49Z</time>
      </trkpt>
      <trkpt lat="45.07926" lon="5.45484">
        <ele>630.97198486328</ele>
        <time>2010-04-20T15:57:51Z</time>
      </trkpt>
      <trkpt lat="45.07874" lon="5.45444">
        <ele>627.01397705078</ele>
        <time>2010-04-20T15:57:55Z</time>
      </trkpt>
      <trkpt lat="45.07849" lon="5.45423">
        <ele>626.34997558594</ele>
        <time>2010-04-20T15:57:57Z</time>
      </trkpt>
      <trkpt lat="45.07803" lon="5.45372">
        <ele>622.60797119141</ele>
        <time>2010-04-20T15:58:01Z</time>
      </trkpt>
      <trkpt lat="45.0778" lon="5.45346">
        <ele>620.65100097656</ele>
        <time>2010-04-20T15:58:03Z</time>
      </trkpt>
      <trkpt lat="45.0777" lon="5.45315">
        <ele>618.80200195312</ele>
        <time>2010-04-20T15:58:05Z</time>
      </trkpt>
      <trkpt lat="45.07769" lon="5.45301">
        <ele>618.80200195312</ele>
        <time>2010-04-20T15:58:06Z</time>
      </trkpt>
      <trkpt lat="45.07688" lon="5.45025">
        <ele>603.53497314453</ele>
        <time>2010-04-20T15:58:21Z</time>
      </trkpt>
      <trkpt lat="45.07647" lon="5.44973">
        <ele>600.21997070312</ele>
        <time>2010-04-20T15:58:25Z</time>
      </trkpt>
      <trkpt lat="45.0763" lon="5.44943">
        <ele>598.64801025391</ele>
        <time>2010-04-20T15:58:27Z</time>
      </trkpt>
      <trkpt lat="45.07605" lon="5.44924">
        <ele>596.69702148438</ele>
        <time>2010-04-20T15:58:29Z</time>
      </trkpt>
      <trkpt lat="45.07528" lon="5.44904">
        <ele>593.15899658203</ele>
        <time>2010-04-20T15:58:34Z</time>
      </trkpt>
      <trkpt lat="45.07478" lon="5.4487">
        <ele>590.09197998047</ele>
        <time>2010-04-20T15:58:38Z</time>
      </trkpt>
      <trkpt lat="45.0743" lon="5.44838">
        <ele>587.24597167969</ele>
        <time>2010-04-20T15:58:42Z</time>
      </trkpt>
      <trkpt lat="45.07405" lon="5.4478">
        <ele>583.94299316406</ele>
        <time>2010-04-20T15:58:46Z</time>
      </trkpt>
      <trkpt lat="45.07396" lon="5.44766">
        <ele>583.42102050781</ele>
        <time>2010-04-20T15:58:47Z</time>
      </trkpt>
      <trkpt lat="45.07363" lon="5.44735">
        <ele>580.875</ele>
        <time>2010-04-20T15:58:50Z</time>
      </trkpt>
      <trkpt lat="45.07342" lon="5.4472">
        <ele>580.24298095703</ele>
        <time>2010-04-20T15:58:52Z</time>
      </trkpt>
      <trkpt lat="45.07282" lon="5.44696">
        <ele>578.09899902344</ele>
        <time>2010-04-20T15:58:57Z</time>
      </trkpt>
      <trkpt lat="45.07237" lon="5.44561">
        <ele>568.54699707031</ele>
        <time>2010-04-20T15:59:08Z</time>
      </trkpt>
      <trkpt lat="45.07234" lon="5.44543">
        <ele>567.65399169922</ele>
        <time>2010-04-20T15:59:09Z</time>
      </trkpt>
      <trkpt lat="45.07229" lon="5.44511">
        <ele>565.97399902344</ele>
        <time>2010-04-20T15:59:11Z</time>
      </trkpt>
      <trkpt lat="45.07214" lon="5.44479">
        <ele>564.53399658203</ele>
        <time>2010-04-20T15:59:13Z</time>
      </trkpt>
      <trkpt lat="45.07166" lon="5.4441">
        <ele>561.45300292969</ele>
        <time>2010-04-20T15:59:19Z</time>
      </trkpt>
      <trkpt lat="45.07107" lon="5.44314">
        <ele>554.54302978516</ele>
        <time>2010-04-20T15:59:30Z</time>
      </trkpt>
      <trkpt lat="45.07101" lon="5.44305">
        <ele>553.29400634766</ele>
        <time>2010-04-20T15:59:31Z</time>
      </trkpt>
      <trkpt lat="45.07081" lon="5.44282">
        <ele>551.93298339844</ele>
        <time>2010-04-20T15:59:34Z</time>
      </trkpt>
      <trkpt lat="45.07055" lon="5.44268">
        <ele>550.72497558594</ele>
        <time>2010-04-20T15:59:38Z</time>
      </trkpt>
      <trkpt lat="45.0705" lon="5.44263">
        <ele>549.54901123047</ele>
        <time>2010-04-20T15:59:39Z</time>
      </trkpt>
      <trkpt lat="45.07047" lon="5.44041">
        <ele>542.22497558594</ele>
        <time>2010-04-20T15:59:49Z</time>
      </trkpt>
      <trkpt lat="45.07024" lon="5.44004">
        <ele>539.21002197266</ele>
        <time>2010-04-20T15:59:52Z</time>
      </trkpt>
      <trkpt lat="45.06988" lon="5.43954">
        <ele>535.72698974609</ele>
        <time>2010-04-20T15:59:56Z</time>
      </trkpt>
      <trkpt lat="45.06954" lon="5.4387">
        <ele>531.6240234375</ele>
        <time>2010-04-20T16:00:01Z</time>
      </trkpt>
      <trkpt lat="45.06928" lon="5.43781">
        <ele>527.49200439453</ele>
        <time>2010-04-20T16:00:06Z</time>
      </trkpt>
      <trkpt lat="45.06885" lon="5.43682">
        <ele>522.22601318359</ele>
        <time>2010-04-20T16:00:12Z</time>
      </trkpt>
      <trkpt lat="45.06878" lon="5.43665">
        <ele>521.96197509766</ele>
        <time>2010-04-20T16:00:13Z</time>
      </trkpt>
      <trkpt lat="45.06857" lon="5.43614">
        <ele>520.07397460938</ele>
        <time>2010-04-20T16:00:16Z</time>
      </trkpt>
      <trkpt lat="45.06836" lon="5.43543">
        <ele>516.56701660156</ele>
        <time>2010-04-20T16:00:20Z</time>
      </trkpt>
      <trkpt lat="45.06831" lon="5.43525">
        <ele>516.49700927734</ele>
        <time>2010-04-20T16:00:21Z</time>
      </trkpt>
      <trkpt lat="45.06822" lon="5.4345">
        <ele>513.52197265625</ele>
        <time>2010-04-20T16:00:25Z</time>
      </trkpt>
      <trkpt lat="45.06823" lon="5.43375">
        <ele>510.04699707031</ele>
        <time>2010-04-20T16:00:29Z</time>
      </trkpt>
      <trkpt lat="45.06811" lon="5.43304">
        <ele>507.60400390625</ele>
        <time>2010-04-20T16:00:33Z</time>
      </trkpt>
      <trkpt lat="45.06794" lon="5.43255">
        <ele>506.27200317383</ele>
        <time>2010-04-20T16:00:36Z</time>
      </trkpt>
      <trkpt lat="45.06762" lon="5.43176">
        <ele>502.99700927734</ele>
        <time>2010-04-20T16:00:41Z</time>
      </trkpt>
      <trkpt lat="45.06747" lon="5.43146">
        <ele>501.61199951172</ele>
        <time>2010-04-20T16:00:43Z</time>
      </trkpt>
      <trkpt lat="45.06731" lon="5.43117">
        <ele>500.39599609375</ele>
        <time>2010-04-20T16:00:45Z</time>
      </trkpt>
      <trkpt lat="45.06701" lon="5.43084">
        <ele>499.18899536133</ele>
        <time>2010-04-20T16:00:48Z</time>
      </trkpt>
      <trkpt lat="45.06672" lon="5.43023">
        <ele>495.33499145508</ele>
        <time>2010-04-20T16:00:52Z</time>
      </trkpt>
      <trkpt lat="45.06633" lon="5.42973">
        <ele>492.08099365234</ele>
        <time>2010-04-20T16:00:56Z</time>
      </trkpt>
      <trkpt lat="45.06623" lon="5.42962">
        <ele>491.99499511719</ele>
        <time>2010-04-20T16:00:57Z</time>
      </trkpt>
      <trkpt lat="45.06589" lon="5.42931">
        <ele>490.38800048828</ele>
        <time>2010-04-20T16:01:00Z</time>
      </trkpt>
      <trkpt lat="45.06549" lon="5.42883">
        <ele>487.86401367188</ele>
        <time>2010-04-20T16:01:04Z</time>
      </trkpt>
      <trkpt lat="45.06519" lon="5.42822">
        <ele>483.70901489258</ele>
        <time>2010-04-20T16:01:08Z</time>
      </trkpt>
      <trkpt lat="45.06506" lon="5.42788">
        <ele>481.72698974609</ele>
        <time>2010-04-20T16:01:10Z</time>
      </trkpt>
      <trkpt lat="45.06469" lon="5.42733">
        <ele>479.65600585938</ele>
        <time>2010-04-20T16:01:14Z</time>
      </trkpt>
      <trkpt lat="45.06456" lon="5.42729">
        <ele>479.55599975586</ele>
        <time>2010-04-20T16:01:15Z</time>
      </trkpt>
      <trkpt lat="45.06418" lon="5.42712">
        <ele>476.83898925781</ele>
        <time>2010-04-20T16:01:18Z</time>
      </trkpt>
      <trkpt lat="45.06395" lon="5.42692">
        <ele>475.54400634766</ele>
        <time>2010-04-20T16:01:20Z</time>
      </trkpt>
      <trkpt lat="45.06379" lon="5.4267">
        <ele>475.62600708008</ele>
        <time>2010-04-20T16:01:22Z</time>
      </trkpt>
      <trkpt lat="45.06371" lon="5.42654">
        <ele>475.88800048828</ele>
        <time>2010-04-20T16:01:24Z</time>
      </trkpt>
      <trkpt lat="45.06369" lon="5.42649">
        <ele>475.75201416016</ele>
        <time>2010-04-20T16:01:25Z</time>
      </trkpt>
      <trkpt lat="45.06364" lon="5.42648">
        <ele>475.33599853516</ele>
        <time>2010-04-20T16:01:28Z</time>
      </trkpt>
      <trkpt lat="45.06364" lon="5.42651">
        <ele>475.73699951172</ele>
        <time>2010-04-20T16:01:30Z</time>
      </trkpt>
      <trkpt lat="45.06365" lon="5.42654">
        <ele>475.5119934082</ele>
        <time>2010-04-20T16:01:34Z</time>
      </trkpt>
      <trkpt lat="45.06366" lon="5.42655">
        <ele>475.61898803711</ele>
        <time>2010-04-20T16:01:36Z</time>
      </trkpt>
      <trkpt lat="45.06371" lon="5.42647">
        <ele>474.63400268555</ele>
        <time>2010-04-20T16:02:20Z</time>
      </trkpt>
      <trkpt lat="45.06364" lon="5.42614">
        <ele>472.85000610352</ele>
        <time>2010-04-20T16:02:25Z</time>
      </trkpt>
      <trkpt lat="45.06358" lon="5.42578">
        <ele>471.13500976562</ele>
        <time>2010-04-20T16:02:29Z</time>
      </trkpt>
      <trkpt lat="45.06349" lon="5.42522">
        <ele>468.14300537109</ele>
        <time>2010-04-20T16:02:34Z</time>
      </trkpt>
      <trkpt lat="45.06344" lon="5.42497">
        <ele>466.7919921875</ele>
        <time>2010-04-20T16:02:36Z</time>
      </trkpt>
      <trkpt lat="45.06334" lon="5.42427">
        <ele>463.0539855957</ele>
        <time>2010-04-20T16:02:41Z</time>
      </trkpt>
      <trkpt lat="45.06328" lon="5.42347">
        <ele>458.67401123047</ele>
        <time>2010-04-20T16:02:46Z</time>
      </trkpt>
      <trkpt lat="45.06325" lon="5.42313">
        <ele>457.09399414062</ele>
        <time>2010-04-20T16:02:48Z</time>
      </trkpt>
      <trkpt lat="45.06323" lon="5.42296">
        <ele>455.59698486328</ele>
        <time>2010-04-20T16:02:49Z</time>
      </trkpt>
      <trkpt lat="45.06321" lon="5.42278">
        <ele>455.38101196289</ele>
        <time>2010-04-20T16:02:50Z</time>
      </trkpt>
      <trkpt lat="45.06308" lon="5.4217">
        <ele>450.08898925781</ele>
        <time>2010-04-20T16:02:56Z</time>
      </trkpt>
      <trkpt lat="45.06299" lon="5.42115">
        <ele>447.8210144043</ele>
        <time>2010-04-20T16:02:59Z</time>
      </trkpt>
      <trkpt lat="45.06277" lon="5.42068">
        <ele>445.04800415039</ele>
        <time>2010-04-20T16:03:02Z</time>
      </trkpt>
      <trkpt lat="45.06266" lon="5.42056">
        <ele>443.65899658203</ele>
        <time>2010-04-20T16:03:03Z</time>
      </trkpt>
      <trkpt lat="45.06224" lon="5.42006">
        <ele>442.18200683594</ele>
        <time>2010-04-20T16:03:07Z</time>
      </trkpt>
      <trkpt lat="45.0615" lon="5.41909">
        <ele>434.75698852539</ele>
        <time>2010-04-20T16:03:14Z</time>
      </trkpt>
      <trkpt lat="45.0613" lon="5.41877">
        <ele>432.3630065918</ele>
        <time>2010-04-20T16:03:16Z</time>
      </trkpt>
      <trkpt lat="45.06107" lon="5.41802">
        <ele>428.26300048828</ele>
        <time>2010-04-20T16:03:20Z</time>
      </trkpt>
      <trkpt lat="45.06105" lon="5.41782">
        <ele>428.09201049805</ele>
        <time>2010-04-20T16:03:21Z</time>
      </trkpt>
      <trkpt lat="45.061" lon="5.41741">
        <ele>426.64700317383</ele>
        <time>2010-04-20T16:03:23Z</time>
      </trkpt>
      <trkpt lat="45.06092" lon="5.41703">
        <ele>425.5539855957</ele>
        <time>2010-04-20T16:03:25Z</time>
      </trkpt>
      <trkpt lat="45.06082" lon="5.41666">
        <ele>423.07998657227</ele>
        <time>2010-04-20T16:03:27Z</time>
      </trkpt>
      <trkpt lat="45.06078" lon="5.41588">
        <ele>420.08499145508</ele>
        <time>2010-04-20T16:03:31Z</time>
      </trkpt>
      <trkpt lat="45.06082" lon="5.41531">
        <ele>417.65600585938</ele>
        <time>2010-04-20T16:03:34Z</time>
      </trkpt>
      <trkpt lat="45.0607" lon="5.41499">
        <ele>416.5950012207</ele>
        <time>2010-04-20T16:03:36Z</time>
      </trkpt>
      <trkpt lat="45.06049" lon="5.41479">
        <ele>415.07901000977</ele>
        <time>2010-04-20T16:03:38Z</time>
      </trkpt>
      <trkpt lat="45.0603" lon="5.41453">
        <ele>413.62399291992</ele>
        <time>2010-04-20T16:03:40Z</time>
      </trkpt>
      <trkpt lat="45.06022" lon="5.4142">
        <ele>412.54699707031</ele>
        <time>2010-04-20T16:03:42Z</time>
      </trkpt>
      <trkpt lat="45.06023" lon="5.41401">
        <ele>412.26599121094</ele>
        <time>2010-04-20T16:03:43Z</time>
      </trkpt>
      <trkpt lat="45.06018" lon="5.41349">
        <ele>411.10198974609</ele>
        <time>2010-04-20T16:03:46Z</time>
      </trkpt>
      <trkpt lat="45.06006" lon="5.41317">
        <ele>409.36099243164</ele>
        <time>2010-04-20T16:03:48Z</time>
      </trkpt>
      <trkpt lat="45.05983" lon="5.41235">
        <ele>406.06799316406</ele>
        <time>2010-04-20T16:03:53Z</time>
      </trkpt>
      <trkpt lat="45.05979" lon="5.41182">
        <ele>404.69799804688</ele>
        <time>2010-04-20T16:03:56Z</time>
      </trkpt>
      <trkpt lat="45.05973" lon="5.41148">
        <ele>402.92001342773</ele>
        <time>2010-04-20T16:03:58Z</time>
      </trkpt>
      <trkpt lat="45.05963" lon="5.41119">
        <ele>401.24200439453</ele>
        <time>2010-04-20T16:04:00Z</time>
      </trkpt>
      <trkpt lat="45.05952" lon="5.4111">
        <ele>401.03201293945</ele>
        <time>2010-04-20T16:04:01Z</time>
      </trkpt>
      <trkpt lat="45.05941" lon="5.41104">
        <ele>400.89999389648</ele>
        <time>2010-04-20T16:04:02Z</time>
      </trkpt>
      <trkpt lat="45.05888" lon="5.41065">
        <ele>397.28399658203</ele>
        <time>2010-04-20T16:04:07Z</time>
      </trkpt>
      <trkpt lat="45.0588" lon="5.41053">
        <ele>397.08499145508</ele>
        <time>2010-04-20T16:04:08Z</time>
      </trkpt>
      <trkpt lat="45.05862" lon="5.41009">
        <ele>395.30599975586</ele>
        <time>2010-04-20T16:04:11Z</time>
      </trkpt>
      <trkpt lat="45.05862" lon="5.40992">
        <ele>395.0119934082</ele>
        <time>2010-04-20T16:04:12Z</time>
      </trkpt>
      <trkpt lat="45.05887" lon="5.40947">
        <ele>391.03698730469</ele>
        <time>2010-04-20T16:04:15Z</time>
      </trkpt>
      <trkpt lat="45.05899" lon="5.40917">
        <ele>389.01599121094</ele>
        <time>2010-04-20T16:04:17Z</time>
      </trkpt>
      <trkpt lat="45.059" lon="5.40899">
        <ele>389.12298583984</ele>
        <time>2010-04-20T16:04:18Z</time>
      </trkpt>
      <trkpt lat="45.05922" lon="5.40834">
        <ele>387.6130065918</ele>
        <time>2010-04-20T16:04:22Z</time>
      </trkpt>
      <trkpt lat="45.05942" lon="5.40816">
        <ele>384.99600219727</ele>
        <time>2010-04-20T16:04:24Z</time>
      </trkpt>
      <trkpt lat="45.06019" lon="5.4075">
        <ele>379.6669921875</ele>
        <time>2010-04-20T16:04:31Z</time>
      </trkpt>
      <trkpt lat="45.0603" lon="5.40739">
        <ele>378.98400878906</ele>
        <time>2010-04-20T16:04:32Z</time>
      </trkpt>
      <trkpt lat="45.06047" lon="5.40712">
        <ele>378.27899169922</ele>
        <time>2010-04-20T16:04:34Z</time>
      </trkpt>
      <trkpt lat="45.06068" lon="5.40666">
        <ele>374.98300170898</ele>
        <time>2010-04-20T16:04:37Z</time>
      </trkpt>
      <trkpt lat="45.06091" lon="5.40648">
        <ele>372.99099731445</ele>
        <time>2010-04-20T16:04:39Z</time>
      </trkpt>
      <trkpt lat="45.0612" lon="5.40643">
        <ele>371.35900878906</ele>
        <time>2010-04-20T16:04:41Z</time>
      </trkpt>
      <trkpt lat="45.06156" lon="5.40606">
        <ele>370.24099731445</ele>
        <time>2010-04-20T16:04:45Z</time>
      </trkpt>
      <trkpt lat="45.06171" lon="5.40579">
        <ele>368.11898803711</ele>
        <time>2010-04-20T16:04:47Z</time>
      </trkpt>
      <trkpt lat="45.06175" lon="5.40537">
        <ele>366.08898925781</ele>
        <time>2010-04-20T16:04:50Z</time>
      </trkpt>
      <trkpt lat="45.06165" lon="5.40486">
        <ele>363.66299438477</ele>
        <time>2010-04-20T16:04:53Z</time>
      </trkpt>
      <trkpt lat="45.06171" lon="5.40453">
        <ele>361.73901367188</ele>
        <time>2010-04-20T16:04:55Z</time>
      </trkpt>
      <trkpt lat="45.06191" lon="5.4037">
        <ele>358.8030090332</ele>
        <time>2010-04-20T16:05:00Z</time>
      </trkpt>
      <trkpt lat="45.06197" lon="5.40352">
        <ele>357.70401000977</ele>
        <time>2010-04-20T16:05:01Z</time>
      </trkpt>
      <trkpt lat="45.06227" lon="5.40303">
        <ele>355.19500732422</ele>
        <time>2010-04-20T16:05:04Z</time>
      </trkpt>
      <trkpt lat="45.06235" lon="5.4029">
        <ele>354.46099853516</ele>
        <time>2010-04-20T16:05:05Z</time>
      </trkpt>
      <trkpt lat="45.06248" lon="5.40242">
        <ele>351.6130065918</ele>
        <time>2010-04-20T16:05:08Z</time>
      </trkpt>
      <trkpt lat="45.06247" lon="5.40184">
        <ele>347.52499389648</ele>
        <time>2010-04-20T16:05:11Z</time>
      </trkpt>
      <trkpt lat="45.0626" lon="5.40094">
        <ele>342.76098632812</ele>
        <time>2010-04-20T16:05:16Z</time>
      </trkpt>
      <trkpt lat="45.06271" lon="5.40061">
        <ele>340.98901367188</ele>
        <time>2010-04-20T16:05:18Z</time>
      </trkpt>
      <trkpt lat="45.06295" lon="5.40015">
        <ele>339.30599975586</ele>
        <time>2010-04-20T16:05:21Z</time>
      </trkpt>
      <trkpt lat="45.06318" lon="5.39993">
        <ele>339.05700683594</ele>
        <time>2010-04-20T16:05:23Z</time>
      </trkpt>
      <trkpt lat="45.06377" lon="5.39941">
        <ele>333.85598754883</ele>
        <time>2010-04-20T16:05:28Z</time>
      </trkpt>
      <trkpt lat="45.06422" lon="5.39897">
        <ele>329.25399780273</ele>
        <time>2010-04-20T16:05:32Z</time>
      </trkpt>
      <trkpt lat="45.06463" lon="5.39842">
        <ele>325.2799987793</ele>
        <time>2010-04-20T16:05:36Z</time>
      </trkpt>
      <trkpt lat="45.06472" lon="5.39826">
        <ele>324.99899291992</ele>
        <time>2010-04-20T16:05:37Z</time>
      </trkpt>
      <trkpt lat="45.06491" lon="5.39795">
        <ele>323.1369934082</ele>
        <time>2010-04-20T16:05:39Z</time>
      </trkpt>
      <trkpt lat="45.06525" lon="5.39732">
        <ele>319.87701416016</ele>
        <time>2010-04-20T16:05:43Z</time>
      </trkpt>
      <trkpt lat="45.06555" lon="5.39685">
        <ele>317.57901000977</ele>
        <time>2010-04-20T16:05:46Z</time>
      </trkpt>
      <trkpt lat="45.06565" lon="5.39622">
        <ele>314.37100219727</ele>
        <time>2010-04-20T16:05:50Z</time>
      </trkpt>
      <trkpt lat="45.06563" lon="5.39603">
        <ele>312.52200317383</ele>
        <time>2010-04-20T16:05:51Z</time>
      </trkpt>
      <trkpt lat="45.06552" lon="5.39488">
        <ele>307.87200927734</ele>
        <time>2010-04-20T16:05:57Z</time>
      </trkpt>
      <trkpt lat="45.06566" lon="5.39418">
        <ele>304.18099975586</ele>
        <time>2010-04-20T16:06:01Z</time>
      </trkpt>
      <trkpt lat="45.06581" lon="5.39387">
        <ele>303.04800415039</ele>
        <time>2010-04-20T16:06:03Z</time>
      </trkpt>
      <trkpt lat="45.06591" lon="5.39374">
        <ele>301.50100708008</ele>
        <time>2010-04-20T16:06:04Z</time>
      </trkpt>
      <trkpt lat="45.06617" lon="5.39337">
        <ele>301.62799072266</ele>
        <time>2010-04-20T16:06:07Z</time>
      </trkpt>
      <trkpt lat="45.06647" lon="5.39288">
        <ele>300.56298828125</ele>
        <time>2010-04-20T16:06:11Z</time>
      </trkpt>
      <trkpt lat="45.06657" lon="5.3928">
        <ele>300.29598999023</ele>
        <time>2010-04-20T16:06:12Z</time>
      </trkpt>
      <trkpt lat="45.06689" lon="5.39277">
        <ele>300.77899169922</ele>
        <time>2010-04-20T16:06:15Z</time>
      </trkpt>
      <trkpt lat="45.06715" lon="5.39247">
        <ele>300.01998901367</ele>
        <time>2010-04-20T16:06:19Z</time>
      </trkpt>
      <trkpt lat="45.06708" lon="5.39223">
        <ele>299.38101196289</ele>
        <time>2010-04-20T16:06:21Z</time>
      </trkpt>
      <trkpt lat="45.06695" lon="5.39178">
        <ele>300.625</ele>
        <time>2010-04-20T16:06:25Z</time>
      </trkpt>
      <trkpt lat="45.06694" lon="5.39168">
        <ele>300.70001220703</ele>
        <time>2010-04-20T16:06:26Z</time>
      </trkpt>
      <trkpt lat="45.06697" lon="5.39119">
        <ele>301.54998779297</ele>
        <time>2010-04-20T16:06:31Z</time>
      </trkpt>
      <trkpt lat="45.06692" lon="5.39097">
        <ele>300.99798583984</ele>
        <time>2010-04-20T16:06:34Z</time>
      </trkpt>
      <trkpt lat="45.0669" lon="5.39075">
        <ele>300.39498901367</ele>
        <time>2010-04-20T16:06:37Z</time>
      </trkpt>
      <trkpt lat="45.06691" lon="5.39066">
        <ele>300.31600952148</ele>
        <time>2010-04-20T16:06:38Z</time>
      </trkpt>
      <trkpt lat="45.06692" lon="5.39047">
        <ele>300.06698608398</ele>
        <time>2010-04-20T16:06:40Z</time>
      </trkpt>
      <trkpt lat="45.06688" lon="5.38976">
        <ele>298.03799438477</ele>
        <time>2010-04-20T16:06:47Z</time>
      </trkpt>
      <trkpt lat="45.06687" lon="5.38964">
        <ele>297.64199829102</ele>
        <time>2010-04-20T16:06:48Z</time>
      </trkpt>
      <trkpt lat="45.06702" lon="5.38919">
        <ele>296.38101196289</ele>
        <time>2010-04-20T16:06:52Z</time>
      </trkpt>
      <trkpt lat="45.06701" lon="5.389">
        <ele>295.36898803711</ele>
        <time>2010-04-20T16:06:55Z</time>
      </trkpt>
      <trkpt lat="45.06715" lon="5.38887">
        <ele>294.78399658203</ele>
        <time>2010-04-20T16:06:59Z</time>
      </trkpt>
      <trkpt lat="45.06738" lon="5.38878">
        <ele>294.23400878906</ele>
        <time>2010-04-20T16:07:03Z</time>
      </trkpt>
      <trkpt lat="45.06752" lon="5.38857">
        <ele>293.14999389648</ele>
        <time>2010-04-20T16:07:06Z</time>
      </trkpt>
      <trkpt lat="45.06754" lon="5.38818">
        <ele>292.14001464844</ele>
        <time>2010-04-20T16:07:10Z</time>
      </trkpt>
      <trkpt lat="45.06754" lon="5.38807">
        <ele>291.78399658203</ele>
        <time>2010-04-20T16:07:11Z</time>
      </trkpt>
      <trkpt lat="45.06752" lon="5.38786">
        <ele>290.8219909668</ele>
        <time>2010-04-20T16:07:13Z</time>
      </trkpt>
      <trkpt lat="45.0675" lon="5.38765">
        <ele>290.5419921875</ele>
        <time>2010-04-20T16:07:15Z</time>
      </trkpt>
      <trkpt lat="45.06758" lon="5.38724">
        <ele>289.98001098633</ele>
        <time>2010-04-20T16:07:19Z</time>
      </trkpt>
      <trkpt lat="45.06765" lon="5.38705">
        <ele>288.96701049805</ele>
        <time>2010-04-20T16:07:21Z</time>
      </trkpt>
      <trkpt lat="45.06776" lon="5.38644">
        <ele>287.09799194336</ele>
        <time>2010-04-20T16:07:27Z</time>
      </trkpt>
      <trkpt lat="45.0678" lon="5.38624">
        <ele>286.62298583984</ele>
        <time>2010-04-20T16:07:29Z</time>
      </trkpt>
      <trkpt lat="45.06802" lon="5.3856">
        <ele>286.20599365234</ele>
        <time>2010-04-20T16:07:36Z</time>
      </trkpt>
      <trkpt lat="45.06804" lon="5.38549">
        <ele>285.6780090332</ele>
        <time>2010-04-20T16:07:37Z</time>
      </trkpt>
      <trkpt lat="45.06813" lon="5.38477">
        <ele>283.58401489258</ele>
        <time>2010-04-20T16:07:43Z</time>
      </trkpt>
      <trkpt lat="45.06806" lon="5.38424">
        <ele>282.22900390625</ele>
        <time>2010-04-20T16:07:47Z</time>
      </trkpt>
      <trkpt lat="45.06785" lon="5.38327">
        <ele>279.89401245117</ele>
        <time>2010-04-20T16:07:54Z</time>
      </trkpt>
      <trkpt lat="45.06776" lon="5.38256">
        <ele>277.96099853516</ele>
        <time>2010-04-20T16:07:59Z</time>
      </trkpt>
      <trkpt lat="45.06776" lon="5.38241">
        <ele>277.74200439453</ele>
        <time>2010-04-20T16:08:00Z</time>
      </trkpt>
      <trkpt lat="45.06775" lon="5.38199">
        <ele>276.93200683594</ele>
        <time>2010-04-20T16:08:03Z</time>
      </trkpt>
      <trkpt lat="45.06762" lon="5.38132">
        <ele>275.18099975586</ele>
        <time>2010-04-20T16:08:08Z</time>
      </trkpt>
      <trkpt lat="45.06759" lon="5.38119">
        <ele>275.17098999023</ele>
        <time>2010-04-20T16:08:09Z</time>
      </trkpt>
      <trkpt lat="45.06736" lon="5.38028">
        <ele>272.94900512695</ele>
        <time>2010-04-20T16:08:16Z</time>
      </trkpt>
      <trkpt lat="45.06726" lon="5.37962">
        <ele>271.07901000977</ele>
        <time>2010-04-20T16:08:21Z</time>
      </trkpt>
      <trkpt lat="45.06724" lon="5.37908">
        <ele>270.03298950195</ele>
        <time>2010-04-20T16:08:25Z</time>
      </trkpt>
      <trkpt lat="45.06717" lon="5.37828">
        <ele>268.71499633789</ele>
        <time>2010-04-20T16:08:31Z</time>
      </trkpt>
      <trkpt lat="45.0672" lon="5.3776">
        <ele>267.9580078125</ele>
        <time>2010-04-20T16:08:36Z</time>
      </trkpt>
      <trkpt lat="45.0672" lon="5.37706">
        <ele>267.13198852539</ele>
        <time>2010-04-20T16:08:40Z</time>
      </trkpt>
      <trkpt lat="45.06709" lon="5.3764">
        <ele>265.47900390625</ele>
        <time>2010-04-20T16:08:45Z</time>
      </trkpt>
      <trkpt lat="45.06706" lon="5.37575">
        <ele>265.47698974609</ele>
        <time>2010-04-20T16:08:50Z</time>
      </trkpt>
      <trkpt lat="45.06711" lon="5.37484">
        <ele>264.42700195312</ele>
        <time>2010-04-20T16:08:57Z</time>
      </trkpt>
      <trkpt lat="45.06704" lon="5.37421">
        <ele>264.94100952148</ele>
        <time>2010-04-20T16:09:02Z</time>
      </trkpt>
      <trkpt lat="45.06692" lon="5.37372">
        <ele>264.51000976562</ele>
        <time>2010-04-20T16:09:06Z</time>
      </trkpt>
      <trkpt lat="45.06667" lon="5.37333">
        <ele>264.02600097656</ele>
        <time>2010-04-20T16:09:10Z</time>
      </trkpt>
      <trkpt lat="45.0664" lon="5.37319">
        <ele>263.62799072266</ele>
        <time>2010-04-20T16:09:13Z</time>
      </trkpt>
      <trkpt lat="45.06554" lon="5.37291">
        <ele>261.89300537109</ele>
        <time>2010-04-20T16:09:22Z</time>
      </trkpt>
      <trkpt lat="45.0652" lon="5.37274">
        <ele>261.39599609375</ele>
        <time>2010-04-20T16:09:26Z</time>
      </trkpt>
      <trkpt lat="45.0649" lon="5.37246">
        <ele>260.77700805664</ele>
        <time>2010-04-20T16:09:30Z</time>
      </trkpt>
      <trkpt lat="45.06485" lon="5.37224">
        <ele>260.99099731445</ele>
        <time>2010-04-20T16:09:32Z</time>
      </trkpt>
      <trkpt lat="45.06478" lon="5.37203">
        <ele>261.39099121094</ele>
        <time>2010-04-20T16:09:34Z</time>
      </trkpt>
      <trkpt lat="45.06475" lon="5.37155">
        <ele>260.89498901367</ele>
        <time>2010-04-20T16:09:38Z</time>
      </trkpt>
      <trkpt lat="45.06492" lon="5.37127">
        <ele>260.73599243164</ele>
        <time>2010-04-20T16:09:41Z</time>
      </trkpt>
      <trkpt lat="45.06559" lon="5.37051">
        <ele>260.40798950195</ele>
        <time>2010-04-20T16:09:51Z</time>
      </trkpt>
      <trkpt lat="45.066" lon="5.36985">
        <ele>258.75</ele>
        <time>2010-04-20T16:09:58Z</time>
      </trkpt>
      <trkpt lat="45.06636" lon="5.36919">
        <ele>258.32000732422</ele>
        <time>2010-04-20T16:10:05Z</time>
      </trkpt>
      <trkpt lat="45.06675" lon="5.3686">
        <ele>258.3869934082</ele>
        <time>2010-04-20T16:10:12Z</time>
      </trkpt>
      <trkpt lat="45.06707" lon="5.36807">
        <ele>258.30599975586</ele>
        <time>2010-04-20T16:10:18Z</time>
      </trkpt>
      <trkpt lat="45.06721" lon="5.36765">
        <ele>257.31799316406</ele>
        <time>2010-04-20T16:10:22Z</time>
      </trkpt>
      <trkpt lat="45.06725" lon="5.36685">
        <ele>257.01699829102</ele>
        <time>2010-04-20T16:10:29Z</time>
      </trkpt>
      <trkpt lat="45.06722" lon="5.36661">
        <ele>257.06399536133</ele>
        <time>2010-04-20T16:10:31Z</time>
      </trkpt>
      <trkpt lat="45.06704" lon="5.36608">
        <ele>256.59100341797</ele>
        <time>2010-04-20T16:10:36Z</time>
      </trkpt>
      <trkpt lat="45.06699" lon="5.36598">
        <ele>256.67498779297</ele>
        <time>2010-04-20T16:10:37Z</time>
      </trkpt>
      <trkpt lat="45.06667" lon="5.36553">
        <ele>256.64401245117</ele>
        <time>2010-04-20T16:10:42Z</time>
      </trkpt>
      <trkpt lat="45.06659" lon="5.36547">
        <ele>256.35400390625</ele>
        <time>2010-04-20T16:10:43Z</time>
      </trkpt>
      <trkpt lat="45.06627" lon="5.36504">
        <ele>255.59399414062</ele>
        <time>2010-04-20T16:10:48Z</time>
      </trkpt>
      <trkpt lat="45.06625" lon="5.36492">
        <ele>255.69500732422</ele>
        <time>2010-04-20T16:10:49Z</time>
      </trkpt>
      <trkpt lat="45.06611" lon="5.36407">
        <ele>255.41900634766</ele>
        <time>2010-04-20T16:10:56Z</time>
      </trkpt>
      <trkpt lat="45.06607" lon="5.36346">
        <ele>254.16600036621</ele>
        <time>2010-04-20T16:11:01Z</time>
      </trkpt>
      <trkpt lat="45.06618" lon="5.36278">
        <ele>254.57600402832</ele>
        <time>2010-04-20T16:11:07Z</time>
      </trkpt>
      <trkpt lat="45.06637" lon="5.36181">
        <ele>254.48399353027</ele>
        <time>2010-04-20T16:11:16Z</time>
      </trkpt>
      <trkpt lat="45.06652" lon="5.36093">
        <ele>254.04899597168</ele>
        <time>2010-04-20T16:11:24Z</time>
      </trkpt>
      <trkpt lat="45.06659" lon="5.36035">
        <ele>253.64500427246</ele>
        <time>2010-04-20T16:11:29Z</time>
      </trkpt>
      <trkpt lat="45.06655" lon="5.35952">
        <ele>253.10499572754</ele>
        <time>2010-04-20T16:11:36Z</time>
      </trkpt>
      <trkpt lat="45.06644" lon="5.3586">
        <ele>252.31900024414</ele>
        <time>2010-04-20T16:11:44Z</time>
      </trkpt>
      <trkpt lat="45.06627" lon="5.35805">
        <ele>252.13000488281</ele>
        <time>2010-04-20T16:11:49Z</time>
      </trkpt>
      <trkpt lat="45.06601" lon="5.35774">
        <ele>252.19900512695</ele>
        <time>2010-04-20T16:11:53Z</time>
      </trkpt>
      <trkpt lat="45.06592" lon="5.35771">
        <ele>252.0119934082</ele>
        <time>2010-04-20T16:11:54Z</time>
      </trkpt>
      <trkpt lat="45.06537" lon="5.35756">
        <ele>251.72999572754</ele>
        <time>2010-04-20T16:12:00Z</time>
      </trkpt>
      <trkpt lat="45.06508" lon="5.35732">
        <ele>250.50799560547</ele>
        <time>2010-04-20T16:12:04Z</time>
      </trkpt>
      <trkpt lat="45.06496" lon="5.35713">
        <ele>250.93899536133</ele>
        <time>2010-04-20T16:12:06Z</time>
      </trkpt>
      <trkpt lat="45.06488" lon="5.35668">
        <ele>251.34899902344</ele>
        <time>2010-04-20T16:12:10Z</time>
      </trkpt>
      <trkpt lat="45.06485" lon="5.35637">
        <ele>250.66299438477</ele>
        <time>2010-04-20T16:12:13Z</time>
      </trkpt>
      <trkpt lat="45.06491" lon="5.35588">
        <ele>250.50199890137</ele>
        <time>2010-04-20T16:12:17Z</time>
      </trkpt>
      <trkpt lat="45.06501" lon="5.3554">
        <ele>250.77000427246</ele>
        <time>2010-04-20T16:12:21Z</time>
      </trkpt>
      <trkpt lat="45.06512" lon="5.3547">
        <ele>250.80599975586</ele>
        <time>2010-04-20T16:12:27Z</time>
      </trkpt>
      <trkpt lat="45.06514" lon="5.35431">
        <ele>250.77499389648</ele>
        <time>2010-04-20T16:12:30Z</time>
      </trkpt>
      <trkpt lat="45.06497" lon="5.35404">
        <ele>249.94999694824</ele>
        <time>2010-04-20T16:12:34Z</time>
      </trkpt>
      <trkpt lat="45.06486" lon="5.3539">
        <ele>249.54200744629</ele>
        <time>2010-04-20T16:12:36Z</time>
      </trkpt>
      <trkpt lat="45.06475" lon="5.3536">
        <ele>249.61399841309</ele>
        <time>2010-04-20T16:12:39Z</time>
      </trkpt>
      <trkpt lat="45.06473" lon="5.35349">
        <ele>249.79800415039</ele>
        <time>2010-04-20T16:12:40Z</time>
      </trkpt>
      <trkpt lat="45.06465" lon="5.35269">
        <ele>247.84800720215</ele>
        <time>2010-04-20T16:12:46Z</time>
      </trkpt>
      <trkpt lat="45.06459" lon="5.352">
        <ele>246.76600646973</ele>
        <time>2010-04-20T16:12:51Z</time>
      </trkpt>
      <trkpt lat="45.06433" lon="5.35152">
        <ele>245.1369934082</ele>
        <time>2010-04-20T16:12:55Z</time>
      </trkpt>
      <trkpt lat="45.06403" lon="5.35062">
        <ele>242.85600280762</ele>
        <time>2010-04-20T16:13:02Z</time>
      </trkpt>
      <trkpt lat="45.06388" lon="5.35026">
        <ele>242.6130065918</ele>
        <time>2010-04-20T16:13:05Z</time>
      </trkpt>
      <trkpt lat="45.06345" lon="5.34985">
        <ele>241.57499694824</ele>
        <time>2010-04-20T16:13:10Z</time>
      </trkpt>
      <trkpt lat="45.06269" lon="5.34952">
        <ele>239.55900573731</ele>
        <time>2010-04-20T16:13:17Z</time>
      </trkpt>
      <trkpt lat="45.06204" lon="5.34928">
        <ele>238.58399963379</ele>
        <time>2010-04-20T16:13:23Z</time>
      </trkpt>
      <trkpt lat="45.06158" lon="5.349">
        <ele>237.35499572754</ele>
        <time>2010-04-20T16:13:28Z</time>
      </trkpt>
      <trkpt lat="45.06151" lon="5.34894">
        <ele>236.74099731445</ele>
        <time>2010-04-20T16:13:29Z</time>
      </trkpt>
      <trkpt lat="45.06143" lon="5.34861">
        <ele>237.20500183106</ele>
        <time>2010-04-20T16:13:32Z</time>
      </trkpt>
      <trkpt lat="45.06116" lon="5.34836">
        <ele>236.22599792481</ele>
        <time>2010-04-20T16:13:35Z</time>
      </trkpt>
      <trkpt lat="45.06085" lon="5.34798">
        <ele>236.04299926758</ele>
        <time>2010-04-20T16:13:39Z</time>
      </trkpt>
      <trkpt lat="45.06065" lon="5.34758">
        <ele>235.06900024414</ele>
        <time>2010-04-20T16:13:43Z</time>
      </trkpt>
      <trkpt lat="45.0606" lon="5.34749">
        <ele>234.76100158691</ele>
        <time>2010-04-20T16:13:44Z</time>
      </trkpt>
      <trkpt lat="45.0605" lon="5.34733">
        <ele>235.11799621582</ele>
        <time>2010-04-20T16:13:46Z</time>
      </trkpt>
      <trkpt lat="45.0604" lon="5.34693">
        <ele>234.22200012207</ele>
        <time>2010-04-20T16:13:50Z</time>
      </trkpt>
      <trkpt lat="45.06039" lon="5.34656">
        <ele>234.72300720215</ele>
        <time>2010-04-20T16:13:54Z</time>
      </trkpt>
      <trkpt lat="45.06053" lon="5.34642">
        <ele>233.7859954834</ele>
        <time>2010-04-20T16:13:56Z</time>
      </trkpt>
      <trkpt lat="45.06087" lon="5.34618">
        <ele>229.85099792481</ele>
        <time>2010-04-20T16:14:00Z</time>
      </trkpt>
      <trkpt lat="45.06105" lon="5.34584">
        <ele>230.22399902344</ele>
        <time>2010-04-20T16:14:03Z</time>
      </trkpt>
      <trkpt lat="45.06116" lon="5.34559">
        <ele>229.62699890137</ele>
        <time>2010-04-20T16:14:05Z</time>
      </trkpt>
      <trkpt lat="45.06116" lon="5.34516">
        <ele>228.16900634766</ele>
        <time>2010-04-20T16:14:09Z</time>
      </trkpt>
      <trkpt lat="45.06105" lon="5.3446">
        <ele>225.63000488281</ele>
        <time>2010-04-20T16:14:14Z</time>
      </trkpt>
      <trkpt lat="45.06109" lon="5.34449">
        <ele>225.53700256348</ele>
        <time>2010-04-20T16:14:15Z</time>
      </trkpt>
      <trkpt lat="45.06123" lon="5.34407">
        <ele>225.07299804688</ele>
        <time>2010-04-20T16:14:19Z</time>
      </trkpt>
      <trkpt lat="45.06131" lon="5.34391">
        <ele>225.82000732422</ele>
        <time>2010-04-20T16:14:21Z</time>
      </trkpt>
      <trkpt lat="45.0614" lon="5.34373">
        <ele>226.52099609375</ele>
        <time>2010-04-20T16:14:23Z</time>
      </trkpt>
      <trkpt lat="45.06149" lon="5.34353">
        <ele>227.82000732422</ele>
        <time>2010-04-20T16:14:25Z</time>
      </trkpt>
      <trkpt lat="45.06165" lon="5.34331">
        <ele>228.34700012207</ele>
        <time>2010-04-20T16:14:28Z</time>
      </trkpt>
      <trkpt lat="45.06179" lon="5.34304">
        <ele>227.53399658203</ele>
        <time>2010-04-20T16:14:31Z</time>
      </trkpt>
      <trkpt lat="45.06199" lon="5.34237">
        <ele>225.43099975586</ele>
        <time>2010-04-20T16:14:37Z</time>
      </trkpt>
      <trkpt lat="45.0622" lon="5.34162">
        <ele>224.02699279785</ele>
        <time>2010-04-20T16:14:43Z</time>
      </trkpt>
      <trkpt lat="45.06232" lon="5.34098">
        <ele>223.17900085449</ele>
        <time>2010-04-20T16:14:48Z</time>
      </trkpt>
      <trkpt lat="45.06235" lon="5.34085">
        <ele>223.08700561523</ele>
        <time>2010-04-20T16:14:49Z</time>
      </trkpt>
      <trkpt lat="45.06247" lon="5.34059">
        <ele>221.98199462891</ele>
        <time>2010-04-20T16:14:51Z</time>
      </trkpt>
      <trkpt lat="45.06266" lon="5.34">
        <ele>221.36700439453</ele>
        <time>2010-04-20T16:14:56Z</time>
      </trkpt>
      <trkpt lat="45.06291" lon="5.33932">
        <ele>222.02400207519</ele>
        <time>2010-04-20T16:15:02Z</time>
      </trkpt>
      <trkpt lat="45.06321" lon="5.33858">
        <ele>221.36500549316</ele>
        <time>2010-04-20T16:15:09Z</time>
      </trkpt>
      <trkpt lat="45.06353" lon="5.33801">
        <ele>220.99800109863</ele>
        <time>2010-04-20T16:15:15Z</time>
      </trkpt>
      <trkpt lat="45.06383" lon="5.33747">
        <ele>220.16799926758</ele>
        <time>2010-04-20T16:15:21Z</time>
      </trkpt>
      <trkpt lat="45.06418" lon="5.33679">
        <ele>221.02699279785</ele>
        <time>2010-04-20T16:15:29Z</time>
      </trkpt>
      <trkpt lat="45.06427" lon="5.33661">
        <ele>220.7619934082</ele>
        <time>2010-04-20T16:15:31Z</time>
      </trkpt>
      <trkpt lat="45.06449" lon="5.33587">
        <ele>221.29400634766</ele>
        <time>2010-04-20T16:15:39Z</time>
      </trkpt>
      <trkpt lat="45.0645" lon="5.33577">
        <ele>221.31500244141</ele>
        <time>2010-04-20T16:15:40Z</time>
      </trkpt>
      <trkpt lat="45.06446" lon="5.33541">
        <ele>222.06799316406</ele>
        <time>2010-04-20T16:15:44Z</time>
      </trkpt>
      <trkpt lat="45.06429" lon="5.33513">
        <ele>222.88499450684</ele>
        <time>2010-04-20T16:15:48Z</time>
      </trkpt>
      <trkpt lat="45.06377" lon="5.33471">
        <ele>223.93099975586</ele>
        <time>2010-04-20T16:15:57Z</time>
      </trkpt>
      <trkpt lat="45.06359" lon="5.33461">
        <ele>224.48399353027</ele>
        <time>2010-04-20T16:16:00Z</time>
      </trkpt>
      <trkpt lat="45.06346" lon="5.33457">
        <ele>224.81500244141</ele>
        <time>2010-04-20T16:16:02Z</time>
      </trkpt>
      <trkpt lat="45.06302" lon="5.3346">
        <ele>225.49200439453</ele>
        <time>2010-04-20T16:16:08Z</time>
      </trkpt>
      <trkpt lat="45.06283" lon="5.33459">
        <ele>225.96600341797</ele>
        <time>2010-04-20T16:16:11Z</time>
      </trkpt>
      <trkpt lat="45.06253" lon="5.33451">
        <ele>226.52200317383</ele>
        <time>2010-04-20T16:16:16Z</time>
      </trkpt>
      <trkpt lat="45.06237" lon="5.33434">
        <ele>227.62899780273</ele>
        <time>2010-04-20T16:16:20Z</time>
      </trkpt>
      <trkpt lat="45.06218" lon="5.33402">
        <ele>227.33999633789</ele>
        <time>2010-04-20T16:16:25Z</time>
      </trkpt>
      <trkpt lat="45.06189" lon="5.33349">
        <ele>226.88900756836</ele>
        <time>2010-04-20T16:16:32Z</time>
      </trkpt>
      <trkpt lat="45.06181" lon="5.33333">
        <ele>227.12199401856</ele>
        <time>2010-04-20T16:16:34Z</time>
      </trkpt>
      <trkpt lat="45.06158" lon="5.33263">
        <ele>227.67599487305</ele>
        <time>2010-04-20T16:16:42Z</time>
      </trkpt>
      <trkpt lat="45.06137" lon="5.33193">
        <ele>229.03399658203</ele>
        <time>2010-04-20T16:16:50Z</time>
      </trkpt>
      <trkpt lat="45.06121" lon="5.33132">
        <ele>229.64300537109</ele>
        <time>2010-04-20T16:16:57Z</time>
      </trkpt>
      <trkpt lat="45.06112" lon="5.33085">
        <ele>230.10400390625</ele>
        <time>2010-04-20T16:17:02Z</time>
      </trkpt>
      <trkpt lat="45.06094" lon="5.33025">
        <ele>230.98199462891</ele>
        <time>2010-04-20T16:17:09Z</time>
      </trkpt>
      <trkpt lat="45.0607" lon="5.32958">
        <ele>231.04299926758</ele>
        <time>2010-04-20T16:17:17Z</time>
      </trkpt>
      <trkpt lat="45.0607" lon="5.32903">
        <ele>232.41400146484</ele>
        <time>2010-04-20T16:17:23Z</time>
      </trkpt>
      <trkpt lat="45.06067" lon="5.32841">
        <ele>233.17599487305</ele>
        <time>2010-04-20T16:17:30Z</time>
      </trkpt>
      <trkpt lat="45.06062" lon="5.32824">
        <ele>233.49200439453</ele>
        <time>2010-04-20T16:17:32Z</time>
      </trkpt>
      <trkpt lat="45.06028" lon="5.32752">
        <ele>234.5059967041</ele>
        <time>2010-04-20T16:17:41Z</time>
      </trkpt>
      <trkpt lat="45.05999" lon="5.32711">
        <ele>235.03399658203</ele>
        <time>2010-04-20T16:17:47Z</time>
      </trkpt>
      <trkpt lat="45.05974" lon="5.32682">
        <ele>235.83200073242</ele>
        <time>2010-04-20T16:17:52Z</time>
      </trkpt>
      <trkpt lat="45.05958" lon="5.32667">
        <ele>236.31900024414</ele>
        <time>2010-04-20T16:17:55Z</time>
      </trkpt>
      <trkpt lat="45.05933" lon="5.32655">
        <ele>236.62800598144</ele>
        <time>2010-04-20T16:17:59Z</time>
      </trkpt>
      <trkpt lat="45.05914" lon="5.32651">
        <ele>237.12600708008</ele>
        <time>2010-04-20T16:18:02Z</time>
      </trkpt>
      <trkpt lat="45.0589" lon="5.32632">
        <ele>237.38600158691</ele>
        <time>2010-04-20T16:18:06Z</time>
      </trkpt>
      <trkpt lat="45.05884" lon="5.32603">
        <ele>237.99499511719</ele>
        <time>2010-04-20T16:18:09Z</time>
      </trkpt>
      <trkpt lat="45.05889" lon="5.32572">
        <ele>238.25999450684</ele>
        <time>2010-04-20T16:18:12Z</time>
      </trkpt>
      <trkpt lat="45.05898" lon="5.32534">
        <ele>238.60000610352</ele>
        <time>2010-04-20T16:18:16Z</time>
      </trkpt>
      <trkpt lat="45.05901" lon="5.32478">
        <ele>239.08299255371</ele>
        <time>2010-04-20T16:18:22Z</time>
      </trkpt>
      <trkpt lat="45.059" lon="5.32384">
        <ele>240.39599609375</ele>
        <time>2010-04-20T16:18:32Z</time>
      </trkpt>
      <trkpt lat="45.05893" lon="5.32322">
        <ele>241.14300537109</ele>
        <time>2010-04-20T16:18:39Z</time>
      </trkpt>
      <trkpt lat="45.05879" lon="5.3228">
        <ele>241.96899414062</ele>
        <time>2010-04-20T16:18:44Z</time>
      </trkpt>
      <trkpt lat="45.05871" lon="5.32265">
        <ele>242.35400390625</ele>
        <time>2010-04-20T16:18:46Z</time>
      </trkpt>
      <trkpt lat="45.0584" lon="5.3223">
        <ele>242.62100219727</ele>
        <time>2010-04-20T16:18:52Z</time>
      </trkpt>
      <trkpt lat="45.05817" lon="5.32193">
        <ele>243.15299987793</ele>
        <time>2010-04-20T16:18:57Z</time>
      </trkpt>
      <trkpt lat="45.05813" lon="5.32156">
        <ele>243.32699584961</ele>
        <time>2010-04-20T16:19:01Z</time>
      </trkpt>
      <trkpt lat="45.0582" lon="5.32095">
        <ele>245.11099243164</ele>
        <time>2010-04-20T16:19:08Z</time>
      </trkpt>
      <trkpt lat="45.05815" lon="5.32051">
        <ele>245.3450012207</ele>
        <time>2010-04-20T16:19:13Z</time>
      </trkpt>
      <trkpt lat="45.05807" lon="5.32035">
        <ele>245.89900207519</ele>
        <time>2010-04-20T16:19:15Z</time>
      </trkpt>
      <trkpt lat="45.05774" lon="5.31981">
        <ele>245.22099304199</ele>
        <time>2010-04-20T16:19:22Z</time>
      </trkpt>
      <trkpt lat="45.05734" lon="5.31922">
        <ele>244.55400085449</ele>
        <time>2010-04-20T16:19:29Z</time>
      </trkpt>
      <trkpt lat="45.05708" lon="5.31894">
        <ele>244.42700195312</ele>
        <time>2010-04-20T16:19:33Z</time>
      </trkpt>
      <trkpt lat="45.05661" lon="5.31871">
        <ele>243.58799743652</ele>
        <time>2010-04-20T16:19:39Z</time>
      </trkpt>
      <trkpt lat="45.05588" lon="5.31849">
        <ele>241.55099487305</ele>
        <time>2010-04-20T16:19:47Z</time>
      </trkpt>
      <trkpt lat="45.0556" lon="5.31841">
        <ele>240.98199462891</ele>
        <time>2010-04-20T16:19:50Z</time>
      </trkpt>
      <trkpt lat="45.05533" lon="5.3182">
        <ele>239.56199645996</ele>
        <time>2010-04-20T16:19:53Z</time>
      </trkpt>
      <trkpt lat="45.0552" lon="5.31781">
        <ele>238.81300354004</ele>
        <time>2010-04-20T16:19:56Z</time>
      </trkpt>
      <trkpt lat="45.05519" lon="5.31751">
        <ele>238.44099426269</ele>
        <time>2010-04-20T16:19:58Z</time>
      </trkpt>
      <trkpt lat="45.05526" lon="5.31631">
        <ele>236.39100646973</ele>
        <time>2010-04-20T16:20:06Z</time>
      </trkpt>
      <trkpt lat="45.05523" lon="5.31525">
        <ele>234.35499572754</ele>
        <time>2010-04-20T16:20:13Z</time>
      </trkpt>
      <trkpt lat="45.05502" lon="5.31454">
        <ele>233.68200683594</ele>
        <time>2010-04-20T16:20:18Z</time>
      </trkpt>
      <trkpt lat="45.05471" lon="5.31372">
        <ele>232.03399658203</ele>
        <time>2010-04-20T16:20:24Z</time>
      </trkpt>
      <trkpt lat="45.05459" lon="5.3133">
        <ele>231.4640045166</ele>
        <time>2010-04-20T16:20:27Z</time>
      </trkpt>
      <trkpt lat="45.05454" lon="5.31271">
        <ele>230.63000488281</ele>
        <time>2010-04-20T16:20:31Z</time>
      </trkpt>
      <trkpt lat="45.0546" lon="5.31167">
        <ele>228.00100708008</ele>
        <time>2010-04-20T16:20:38Z</time>
      </trkpt>
      <trkpt lat="45.05461" lon="5.31152">
        <ele>227.86099243164</ele>
        <time>2010-04-20T16:20:39Z</time>
      </trkpt>
      <trkpt lat="45.05473" lon="5.311">
        <ele>227.17300415039</ele>
        <time>2010-04-20T16:20:43Z</time>
      </trkpt>
      <trkpt lat="45.05512" lon="5.30993">
        <ele>225.53100585938</ele>
        <time>2010-04-20T16:20:51Z</time>
      </trkpt>
      <trkpt lat="45.05559" lon="5.30881">
        <ele>222.59100341797</ele>
        <time>2010-04-20T16:21:00Z</time>
      </trkpt>
      <trkpt lat="45.05592" lon="5.30847">
        <ele>222.87899780273</ele>
        <time>2010-04-20T16:21:04Z</time>
      </trkpt>
      <trkpt lat="45.05602" lon="5.30842">
        <ele>222.82899475098</ele>
        <time>2010-04-20T16:21:05Z</time>
      </trkpt>
      <trkpt lat="45.05658" lon="5.30821">
        <ele>221.84700012207</ele>
        <time>2010-04-20T16:21:11Z</time>
      </trkpt>
      <trkpt lat="45.05706" lon="5.30823">
        <ele>220.16700744629</ele>
        <time>2010-04-20T16:21:16Z</time>
      </trkpt>
      <trkpt lat="45.05765" lon="5.30847">
        <ele>221.29899597168</ele>
        <time>2010-04-20T16:21:23Z</time>
      </trkpt>
      <trkpt lat="45.05806" lon="5.30868">
        <ele>220.64599609375</ele>
        <time>2010-04-20T16:21:28Z</time>
      </trkpt>
      <trkpt lat="45.05849" lon="5.3088">
        <ele>220.23300170898</ele>
        <time>2010-04-20T16:21:33Z</time>
      </trkpt>
      <trkpt lat="45.05875" lon="5.3087">
        <ele>219.7380065918</ele>
        <time>2010-04-20T16:21:36Z</time>
      </trkpt>
      <trkpt lat="45.05883" lon="5.30864">
        <ele>219.60000610352</ele>
        <time>2010-04-20T16:21:37Z</time>
      </trkpt>
      <trkpt lat="45.05906" lon="5.30846">
        <ele>219.56399536133</ele>
        <time>2010-04-20T16:21:40Z</time>
      </trkpt>
      <trkpt lat="45.05951" lon="5.30832">
        <ele>218.66600036621</ele>
        <time>2010-04-20T16:21:45Z</time>
      </trkpt>
      <trkpt lat="45.0596" lon="5.30829">
        <ele>218.68099975586</ele>
        <time>2010-04-20T16:21:46Z</time>
      </trkpt>
      <trkpt lat="45.0601" lon="5.30797">
        <ele>217.18699645996</ele>
        <time>2010-04-20T16:21:52Z</time>
      </trkpt>
      <trkpt lat="45.06062" lon="5.30749">
        <ele>216.57200622559</ele>
        <time>2010-04-20T16:21:59Z</time>
      </trkpt>
      <trkpt lat="45.06104" lon="5.30686">
        <ele>215.71499633789</ele>
        <time>2010-04-20T16:22:06Z</time>
      </trkpt>
      <trkpt lat="45.06143" lon="5.30601">
        <ele>214.74099731445</ele>
        <time>2010-04-20T16:22:14Z</time>
      </trkpt>
      <trkpt lat="45.06156" lon="5.30567">
        <ele>214.28399658203</ele>
        <time>2010-04-20T16:22:17Z</time>
      </trkpt>
      <trkpt lat="45.06179" lon="5.30494">
        <ele>213.47900390625</ele>
        <time>2010-04-20T16:22:23Z</time>
      </trkpt>
      <trkpt lat="45.0622" lon="5.30423">
        <ele>212.00500488281</ele>
        <time>2010-04-20T16:22:30Z</time>
      </trkpt>
      <trkpt lat="45.06258" lon="5.30351">
        <ele>211.01499938965</ele>
        <time>2010-04-20T16:22:37Z</time>
      </trkpt>
      <trkpt lat="45.06273" lon="5.30293">
        <ele>211.14199829102</ele>
        <time>2010-04-20T16:22:42Z</time>
      </trkpt>
      <trkpt lat="45.06281" lon="5.3026">
        <ele>210.12100219727</ele>
        <time>2010-04-20T16:22:45Z</time>
      </trkpt>
      <trkpt lat="45.06292" lon="5.30223">
        <ele>211.06900024414</ele>
        <time>2010-04-20T16:22:49Z</time>
      </trkpt>
      <trkpt lat="45.06313" lon="5.30173">
        <ele>210.01300048828</ele>
        <time>2010-04-20T16:22:54Z</time>
      </trkpt>
      <trkpt lat="45.06337" lon="5.30106">
        <ele>209.19999694824</ele>
        <time>2010-04-20T16:23:00Z</time>
      </trkpt>
      <trkpt lat="45.06364" lon="5.30051">
        <ele>207.44999694824</ele>
        <time>2010-04-20T16:23:06Z</time>
      </trkpt>
      <trkpt lat="45.06379" lon="5.29992">
        <ele>205.70899963379</ele>
        <time>2010-04-20T16:23:11Z</time>
      </trkpt>
      <trkpt lat="45.06385" lon="5.29899">
        <ele>202.68800354004</ele>
        <time>2010-04-20T16:23:18Z</time>
      </trkpt>
      <trkpt lat="45.06385" lon="5.29886">
        <ele>202.46000671387</ele>
        <time>2010-04-20T16:23:19Z</time>
      </trkpt>
      <trkpt lat="45.06389" lon="5.29791">
        <ele>200.96200561523</ele>
        <time>2010-04-20T16:23:26Z</time>
      </trkpt>
      <trkpt lat="45.06392" lon="5.29697">
        <ele>200.91499328613</ele>
        <time>2010-04-20T16:23:33Z</time>
      </trkpt>
      <trkpt lat="45.06395" lon="5.29607">
        <ele>200.63499450684</ele>
        <time>2010-04-20T16:23:40Z</time>
      </trkpt>
      <trkpt lat="45.06398" lon="5.29529">
        <ele>199.79299926758</ele>
        <time>2010-04-20T16:23:46Z</time>
      </trkpt>
      <trkpt lat="45.06403" lon="5.29399">
        <ele>199.59199523926</ele>
        <time>2010-04-20T16:23:56Z</time>
      </trkpt>
      <trkpt lat="45.06408" lon="5.293">
        <ele>200.54400634766</ele>
        <time>2010-04-20T16:24:04Z</time>
      </trkpt>
      <trkpt lat="45.06412" lon="5.29227">
        <ele>199.56199645996</ele>
        <time>2010-04-20T16:24:10Z</time>
      </trkpt>
      <trkpt lat="45.06403" lon="5.29154">
        <ele>199.35000610352</ele>
        <time>2010-04-20T16:24:16Z</time>
      </trkpt>
      <trkpt lat="45.06384" lon="5.29075">
        <ele>199.19999694824</ele>
        <time>2010-04-20T16:24:23Z</time>
      </trkpt>
      <trkpt lat="45.06365" lon="5.29035">
        <ele>199.42300415039</ele>
        <time>2010-04-20T16:24:27Z</time>
      </trkpt>
      <trkpt lat="45.06327" lon="5.2899">
        <ele>199.33200073242</ele>
        <time>2010-04-20T16:24:33Z</time>
      </trkpt>
      <trkpt lat="45.06289" lon="5.28968">
        <ele>199.27200317383</ele>
        <time>2010-04-20T16:24:38Z</time>
      </trkpt>
      <trkpt lat="45.06251" lon="5.28946">
        <ele>198.7559967041</ele>
        <time>2010-04-20T16:24:43Z</time>
      </trkpt>
      <trkpt lat="45.06226" lon="5.28915">
        <ele>198.37600708008</ele>
        <time>2010-04-20T16:24:47Z</time>
      </trkpt>
      <trkpt lat="45.06169" lon="5.28815">
        <ele>198.32899475098</ele>
        <time>2010-04-20T16:24:58Z</time>
      </trkpt>
      <trkpt lat="45.06136" lon="5.28748">
        <ele>197.53500366211</ele>
        <time>2010-04-20T16:25:05Z</time>
      </trkpt>
      <trkpt lat="45.06114" lon="5.28676">
        <ele>198.10000610352</ele>
        <time>2010-04-20T16:25:12Z</time>
      </trkpt>
      <trkpt lat="45.06085" lon="5.28557">
        <ele>197.62699890137</ele>
        <time>2010-04-20T16:25:23Z</time>
      </trkpt>
      <trkpt lat="45.06072" lon="5.28477">
        <ele>197.17500305176</ele>
        <time>2010-04-20T16:25:30Z</time>
      </trkpt>
      <trkpt lat="45.06074" lon="5.28415">
        <ele>197.11099243164</ele>
        <time>2010-04-20T16:25:35Z</time>
      </trkpt>
      <trkpt lat="45.06084" lon="5.28341">
        <ele>196.71000671387</ele>
        <time>2010-04-20T16:25:41Z</time>
      </trkpt>
      <trkpt lat="45.06104" lon="5.28267">
        <ele>195.76100158691</ele>
        <time>2010-04-20T16:25:47Z</time>
      </trkpt>
      <trkpt lat="45.06108" lon="5.2821">
        <ele>194.43499755859</ele>
        <time>2010-04-20T16:25:51Z</time>
      </trkpt>
      <trkpt lat="45.0612" lon="5.28113">
        <ele>193.05400085449</ele>
        <time>2010-04-20T16:25:58Z</time>
      </trkpt>
      <trkpt lat="45.06138" lon="5.28007">
        <ele>192.22300720215</ele>
        <time>2010-04-20T16:26:06Z</time>
      </trkpt>
      <trkpt lat="45.06152" lon="5.27925">
        <ele>192.53399658203</ele>
        <time>2010-04-20T16:26:13Z</time>
      </trkpt>
      <trkpt lat="45.06144" lon="5.27881">
        <ele>192.89999389648</ele>
        <time>2010-04-20T16:26:17Z</time>
      </trkpt>
      <trkpt lat="45.0614" lon="5.27872">
        <ele>192.61500549316</ele>
        <time>2010-04-20T16:26:18Z</time>
      </trkpt>
      <trkpt lat="45.06126" lon="5.27844">
        <ele>193.97900390625</ele>
        <time>2010-04-20T16:26:21Z</time>
      </trkpt>
      <trkpt lat="45.06107" lon="5.27764">
        <ele>194.99600219727</ele>
        <time>2010-04-20T16:26:29Z</time>
      </trkpt>
      <trkpt lat="45.061" lon="5.27714">
        <ele>196.17999267578</ele>
        <time>2010-04-20T16:26:34Z</time>
      </trkpt>
      <trkpt lat="45.06101" lon="5.27676">
        <ele>196.74899291992</ele>
        <time>2010-04-20T16:26:38Z</time>
      </trkpt>
      <trkpt lat="45.06099" lon="5.27617">
        <ele>197.67700195312</ele>
        <time>2010-04-20T16:26:44Z</time>
      </trkpt>
      <trkpt lat="45.06084" lon="5.27554">
        <ele>199.67100524902</ele>
        <time>2010-04-20T16:26:51Z</time>
      </trkpt>
      <trkpt lat="45.06081" lon="5.27492">
        <ele>201.12600708008</ele>
        <time>2010-04-20T16:26:58Z</time>
      </trkpt>
      <trkpt lat="45.06083" lon="5.27458">
        <ele>201.98500061035</ele>
        <time>2010-04-20T16:27:02Z</time>
      </trkpt>
      <trkpt lat="45.06087" lon="5.27425">
        <ele>202.55700683594</ele>
        <time>2010-04-20T16:27:06Z</time>
      </trkpt>
      <trkpt lat="45.06102" lon="5.27339">
        <ele>204.22700500488</ele>
        <time>2010-04-20T16:27:16Z</time>
      </trkpt>
      <trkpt lat="45.06116" lon="5.27278">
        <ele>207.08200073242</ele>
        <time>2010-04-20T16:27:23Z</time>
      </trkpt>
      <trkpt lat="45.06142" lon="5.27213">
        <ele>209.05900573731</ele>
        <time>2010-04-20T16:27:31Z</time>
      </trkpt>
      <trkpt lat="45.06171" lon="5.27165">
        <ele>210.04800415039</ele>
        <time>2010-04-20T16:27:38Z</time>
      </trkpt>
      <trkpt lat="45.06218" lon="5.2709">
        <ele>212.50199890137</ele>
        <time>2010-04-20T16:27:49Z</time>
      </trkpt>
      <trkpt lat="45.06255" lon="5.27027">
        <ele>214.91600036621</ele>
        <time>2010-04-20T16:27:58Z</time>
      </trkpt>
      <trkpt lat="45.0627" lon="5.26978">
        <ele>215.14900207519</ele>
        <time>2010-04-20T16:28:04Z</time>
      </trkpt>
      <trkpt lat="45.06287" lon="5.26909">
        <ele>215.42300415039</ele>
        <time>2010-04-20T16:28:12Z</time>
      </trkpt>
      <trkpt lat="45.06292" lon="5.26892">
        <ele>215.5359954834</ele>
        <time>2010-04-20T16:28:14Z</time>
      </trkpt>
      <trkpt lat="45.06316" lon="5.26853">
        <ele>215.93899536133</ele>
        <time>2010-04-20T16:28:20Z</time>
      </trkpt>
      <trkpt lat="45.06339" lon="5.26835">
        <ele>215.88299560547</ele>
        <time>2010-04-20T16:28:24Z</time>
      </trkpt>
      <trkpt lat="45.06388" lon="5.26824">
        <ele>214.47500610352</ele>
        <time>2010-04-20T16:28:31Z</time>
      </trkpt>
      <trkpt lat="45.06402" lon="5.26823">
        <ele>214.38400268555</ele>
        <time>2010-04-20T16:28:33Z</time>
      </trkpt>
      <trkpt lat="45.06428" lon="5.26822">
        <ele>214.58000183106</ele>
        <time>2010-04-20T16:28:37Z</time>
      </trkpt>
      <trkpt lat="45.06441" lon="5.26809">
        <ele>215.20700073242</ele>
        <time>2010-04-20T16:28:40Z</time>
      </trkpt>
      <trkpt lat="45.0644" lon="5.26792">
        <ele>215.01600646973</ele>
        <time>2010-04-20T16:28:42Z</time>
      </trkpt>
      <trkpt lat="45.06424" lon="5.2677">
        <ele>215.19799804688</ele>
        <time>2010-04-20T16:28:45Z</time>
      </trkpt>
      <trkpt lat="45.0642" lon="5.26762">
        <ele>215.14599609375</ele>
        <time>2010-04-20T16:28:46Z</time>
      </trkpt>
      <trkpt lat="45.06392" lon="5.26693">
        <ele>214.10299682617</ele>
        <time>2010-04-20T16:28:53Z</time>
      </trkpt>
      <trkpt lat="45.06363" lon="5.26614">
        <ele>212.41200256348</ele>
        <time>2010-04-20T16:29:00Z</time>
      </trkpt>
      <trkpt lat="45.06328" lon="5.26518">
        <ele>211.24200439453</ele>
        <time>2010-04-20T16:29:08Z</time>
      </trkpt>
      <trkpt lat="45.06323" lon="5.26507">
        <ele>211.21600341797</ele>
        <time>2010-04-20T16:29:09Z</time>
      </trkpt>
      <trkpt lat="45.06284" lon="5.26448">
        <ele>210.63499450684</ele>
        <time>2010-04-20T16:29:15Z</time>
      </trkpt>
      <trkpt lat="45.06264" lon="5.26418">
        <ele>209.95300292969</ele>
        <time>2010-04-20T16:29:18Z</time>
      </trkpt>
      <trkpt lat="45.06247" lon="5.26353">
        <ele>208.79400634766</ele>
        <time>2010-04-20T16:29:23Z</time>
      </trkpt>
      <trkpt lat="45.06234" lon="5.2621">
        <ele>207.2140045166</ele>
        <time>2010-04-20T16:29:33Z</time>
      </trkpt>
      <trkpt lat="45.06225" lon="5.26089">
        <ele>204.96699523926</ele>
        <time>2010-04-20T16:29:41Z</time>
      </trkpt>
      <trkpt lat="45.06215" lon="5.25966">
        <ele>204.02099609375</ele>
        <time>2010-04-20T16:29:49Z</time>
      </trkpt>
      <trkpt lat="45.062" lon="5.25875">
        <ele>202.33500671387</ele>
        <time>2010-04-20T16:29:55Z</time>
      </trkpt>
      <trkpt lat="45.06179" lon="5.2577">
        <ele>201.47799682617</ele>
        <time>2010-04-20T16:30:02Z</time>
      </trkpt>
      <trkpt lat="45.06166" lon="5.25659">
        <ele>199.7440032959</ele>
        <time>2010-04-20T16:30:09Z</time>
      </trkpt>
      <trkpt lat="45.06144" lon="5.25567">
        <ele>198.19299316406</ele>
        <time>2010-04-20T16:30:15Z</time>
      </trkpt>
      <trkpt lat="45.06133" lon="5.25503">
        <ele>197.63499450684</ele>
        <time>2010-04-20T16:30:19Z</time>
      </trkpt>
      <trkpt lat="45.06137" lon="5.25439">
        <ele>196.35099792481</ele>
        <time>2010-04-20T16:30:23Z</time>
      </trkpt>
      <trkpt lat="45.06154" lon="5.25312">
        <ele>195.18899536133</ele>
        <time>2010-04-20T16:30:31Z</time>
      </trkpt>
      <trkpt lat="45.06173" lon="5.25222">
        <ele>194.58399963379</ele>
        <time>2010-04-20T16:30:37Z</time>
      </trkpt>
      <trkpt lat="45.06186" lon="5.25115">
        <ele>192.88999938965</ele>
        <time>2010-04-20T16:30:44Z</time>
      </trkpt>
      <trkpt lat="45.06197" lon="5.24977">
        <ele>191.18600463867</ele>
        <time>2010-04-20T16:30:53Z</time>
      </trkpt>
      <trkpt lat="45.06193" lon="5.24873">
        <ele>189.98300170898</ele>
        <time>2010-04-20T16:31:00Z</time>
      </trkpt>
      <trkpt lat="45.06178" lon="5.24781">
        <ele>189.06300354004</ele>
        <time>2010-04-20T16:31:06Z</time>
      </trkpt>
      <trkpt lat="45.06173" lon="5.24754">
        <ele>187.95700073242</ele>
        <time>2010-04-20T16:31:08Z</time>
      </trkpt>
      <trkpt lat="45.06139" lon="5.24729">
        <ele>187.64399719238</ele>
        <time>2010-04-20T16:31:12Z</time>
      </trkpt>
      <trkpt lat="45.06075" lon="5.24717">
        <ele>188.74600219727</ele>
        <time>2010-04-20T16:31:19Z</time>
      </trkpt>
      <trkpt lat="45.06052" lon="5.24712">
        <ele>190.03799438477</ele>
        <time>2010-04-20T16:31:22Z</time>
      </trkpt>
      <trkpt lat="45.06023" lon="5.247">
        <ele>191.51400756836</ele>
        <time>2010-04-20T16:31:26Z</time>
      </trkpt>
      <trkpt lat="45.06008" lon="5.2468">
        <ele>191.38800048828</ele>
        <time>2010-04-20T16:31:29Z</time>
      </trkpt>
      <trkpt lat="45.06001" lon="5.24662">
        <ele>191.57299804688</ele>
        <time>2010-04-20T16:31:31Z</time>
      </trkpt>
      <trkpt lat="45.05991" lon="5.2462">
        <ele>193.0890045166</ele>
        <time>2010-04-20T16:31:35Z</time>
      </trkpt>
      <trkpt lat="45.05984" lon="5.24546">
        <ele>194.65100097656</ele>
        <time>2010-04-20T16:31:42Z</time>
      </trkpt>
      <trkpt lat="45.05983" lon="5.24497">
        <ele>195.96600341797</ele>
        <time>2010-04-20T16:31:47Z</time>
      </trkpt>
      <trkpt lat="45.05984" lon="5.24434">
        <ele>197.56199645996</ele>
        <time>2010-04-20T16:31:54Z</time>
      </trkpt>
      <trkpt lat="45.05985" lon="5.24408">
        <ele>198.00300598144</ele>
        <time>2010-04-20T16:31:57Z</time>
      </trkpt>
      <trkpt lat="45.05998" lon="5.2437">
        <ele>198.5359954834</ele>
        <time>2010-04-20T16:32:02Z</time>
      </trkpt>
      <trkpt lat="45.06025" lon="5.24319">
        <ele>199.68200683594</ele>
        <time>2010-04-20T16:32:10Z</time>
      </trkpt>
      <trkpt lat="45.06046" lon="5.24295">
        <ele>200.61199951172</ele>
        <time>2010-04-20T16:32:15Z</time>
      </trkpt>
      <trkpt lat="45.0608" lon="5.24277">
        <ele>201.43699645996</ele>
        <time>2010-04-20T16:32:21Z</time>
      </trkpt>
      <trkpt lat="45.0611" lon="5.24276">
        <ele>201.93600463867</ele>
        <time>2010-04-20T16:32:26Z</time>
      </trkpt>
      <trkpt lat="45.06151" lon="5.24274">
        <ele>203.94900512695</ele>
        <time>2010-04-20T16:32:33Z</time>
      </trkpt>
      <trkpt lat="45.06188" lon="5.24264">
        <ele>204.47300720215</ele>
        <time>2010-04-20T16:32:39Z</time>
      </trkpt>
      <trkpt lat="45.06226" lon="5.24255">
        <ele>205.02499389648</ele>
        <time>2010-04-20T16:32:45Z</time>
      </trkpt>
      <trkpt lat="45.06271" lon="5.2425">
        <ele>205.97300720215</ele>
        <time>2010-04-20T16:32:52Z</time>
      </trkpt>
      <trkpt lat="45.06295" lon="5.24248">
        <ele>206.44900512695</ele>
        <time>2010-04-20T16:32:56Z</time>
      </trkpt>
      <trkpt lat="45.0634" lon="5.24226">
        <ele>205.56599426269</ele>
        <time>2010-04-20T16:33:03Z</time>
      </trkpt>
      <trkpt lat="45.06406" lon="5.24184">
        <ele>205.1190032959</ele>
        <time>2010-04-20T16:33:13Z</time>
      </trkpt>
      <trkpt lat="45.06455" lon="5.24153">
        <ele>204.66299438477</ele>
        <time>2010-04-20T16:33:20Z</time>
      </trkpt>
      <trkpt lat="45.06496" lon="5.24129">
        <ele>203.40899658203</ele>
        <time>2010-04-20T16:33:26Z</time>
      </trkpt>
      <trkpt lat="45.06524" lon="5.24137">
        <ele>202.23300170898</ele>
        <time>2010-04-20T16:33:30Z</time>
      </trkpt>
      <trkpt lat="45.06537" lon="5.24165">
        <ele>201.1190032959</ele>
        <time>2010-04-20T16:33:33Z</time>
      </trkpt>
      <trkpt lat="45.06546" lon="5.24197">
        <ele>199.67300415039</ele>
        <time>2010-04-20T16:33:36Z</time>
      </trkpt>
      <trkpt lat="45.0655" lon="5.24208">
        <ele>199.49899291992</ele>
        <time>2010-04-20T16:33:37Z</time>
      </trkpt>
      <trkpt lat="45.06565" lon="5.24237">
        <ele>197.83299255371</ele>
        <time>2010-04-20T16:33:40Z</time>
      </trkpt>
      <trkpt lat="45.06588" lon="5.24255">
        <ele>196.57000732422</ele>
        <time>2010-04-20T16:33:43Z</time>
      </trkpt>
      <trkpt lat="45.06653" lon="5.24279">
        <ele>197.17100524902</ele>
        <time>2010-04-20T16:33:51Z</time>
      </trkpt>
      <trkpt lat="45.06693" lon="5.24295">
        <ele>198.25900268555</ele>
        <time>2010-04-20T16:33:57Z</time>
      </trkpt>
      <trkpt lat="45.06728" lon="5.24308">
        <ele>199.19000244141</ele>
        <time>2010-04-20T16:34:03Z</time>
      </trkpt>
      <trkpt lat="45.06755" lon="5.24318">
        <ele>200.02099609375</ele>
        <time>2010-04-20T16:34:09Z</time>
      </trkpt>
      <trkpt lat="45.06798" lon="5.24334">
        <ele>200.50700378418</ele>
        <time>2010-04-20T16:34:17Z</time>
      </trkpt>
      <trkpt lat="45.06837" lon="5.24349">
        <ele>201.68600463867</ele>
        <time>2010-04-20T16:34:24Z</time>
      </trkpt>
      <trkpt lat="45.06865" lon="5.2436">
        <ele>203.22399902344</ele>
        <time>2010-04-20T16:34:30Z</time>
      </trkpt>
      <trkpt lat="45.06889" lon="5.24369">
        <ele>204.47599792481</ele>
        <time>2010-04-20T16:34:36Z</time>
      </trkpt>
      <trkpt lat="45.0692" lon="5.2438">
        <ele>205.92900085449</ele>
        <time>2010-04-20T16:34:44Z</time>
      </trkpt>
      <trkpt lat="45.06949" lon="5.24394">
        <ele>206.70899963379</ele>
        <time>2010-04-20T16:34:51Z</time>
      </trkpt>
      <trkpt lat="45.06974" lon="5.24405">
        <ele>208.53900146484</ele>
        <time>2010-04-20T16:34:57Z</time>
      </trkpt>
      <trkpt lat="45.06988" lon="5.24396">
        <ele>208.83599853516</ele>
        <time>2010-04-20T16:35:01Z</time>
      </trkpt>
      <trkpt lat="45.07013" lon="5.24361">
        <ele>209.00399780273</ele>
        <time>2010-04-20T16:35:08Z</time>
      </trkpt>
      <trkpt lat="45.0704" lon="5.24323">
        <ele>208.99499511719</ele>
        <time>2010-04-20T16:35:15Z</time>
      </trkpt>
      <trkpt lat="45.07055" lon="5.24282">
        <ele>209.26899719238</ele>
        <time>2010-04-20T16:35:20Z</time>
      </trkpt>
      <trkpt lat="45.07066" lon="5.24249">
        <ele>209.15699768066</ele>
        <time>2010-04-20T16:35:24Z</time>
      </trkpt>
      <trkpt lat="45.0708" lon="5.24183">
        <ele>208.55799865723</ele>
        <time>2010-04-20T16:35:31Z</time>
      </trkpt>
      <trkpt lat="45.07101" lon="5.24087">
        <ele>207.8390045166</ele>
        <time>2010-04-20T16:35:40Z</time>
      </trkpt>
      <trkpt lat="45.07105" lon="5.24077">
        <ele>207.69700622559</ele>
        <time>2010-04-20T16:35:41Z</time>
      </trkpt>
      <trkpt lat="45.0713" lon="5.24051">
        <ele>207.82699584961</ele>
        <time>2010-04-20T16:35:45Z</time>
      </trkpt>
      <trkpt lat="45.07153" lon="5.24054">
        <ele>208.14700317383</ele>
        <time>2010-04-20T16:35:48Z</time>
      </trkpt>
      <trkpt lat="45.07167" lon="5.24059">
        <ele>208.67399597168</ele>
        <time>2010-04-20T16:35:50Z</time>
      </trkpt>
      <trkpt lat="45.072" lon="5.24073">
        <ele>210.41400146484</ele>
        <time>2010-04-20T16:35:55Z</time>
      </trkpt>
      <trkpt lat="45.07232" lon="5.24075">
        <ele>212.20599365234</ele>
        <time>2010-04-20T16:36:00Z</time>
      </trkpt>
      <trkpt lat="45.07269" lon="5.24072">
        <ele>214.04699707031</ele>
        <time>2010-04-20T16:36:07Z</time>
      </trkpt>
      <trkpt lat="45.07305" lon="5.24068">
        <ele>215.44599914551</ele>
        <time>2010-04-20T16:36:14Z</time>
      </trkpt>
      <trkpt lat="45.07343" lon="5.24065">
        <ele>215.97700500488</ele>
        <time>2010-04-20T16:36:21Z</time>
      </trkpt>
      <trkpt lat="45.07391" lon="5.2406">
        <ele>216.64700317383</ele>
        <time>2010-04-20T16:36:29Z</time>
      </trkpt>
      <trkpt lat="45.07441" lon="5.24055">
        <ele>216.43299865723</ele>
        <time>2010-04-20T16:36:37Z</time>
      </trkpt>
      <trkpt lat="45.075" lon="5.24048">
        <ele>216.18499755859</ele>
        <time>2010-04-20T16:36:46Z</time>
      </trkpt>
      <trkpt lat="45.07569" lon="5.24041">
        <ele>216.51100158691</ele>
        <time>2010-04-20T16:36:56Z</time>
      </trkpt>
      <trkpt lat="45.07631" lon="5.24035">
        <ele>216.96899414062</ele>
        <time>2010-04-20T16:37:05Z</time>
      </trkpt>
      <trkpt lat="45.07684" lon="5.24028">
        <ele>218.37199401856</ele>
        <time>2010-04-20T16:37:13Z</time>
      </trkpt>
      <trkpt lat="45.07709" lon="5.24004">
        <ele>218.71200561523</ele>
        <time>2010-04-20T16:37:18Z</time>
      </trkpt>
      <trkpt lat="45.07716" lon="5.23989">
        <ele>218.95100402832</ele>
        <time>2010-04-20T16:37:20Z</time>
      </trkpt>
      <trkpt lat="45.07738" lon="5.23916">
        <ele>219.18699645996</ele>
        <time>2010-04-20T16:37:28Z</time>
      </trkpt>
      <trkpt lat="45.07766" lon="5.23817">
        <ele>219.19500732422</ele>
        <time>2010-04-20T16:37:38Z</time>
      </trkpt>
      <trkpt lat="45.07787" lon="5.23743">
        <ele>219.03399658203</ele>
        <time>2010-04-20T16:37:45Z</time>
      </trkpt>
      <trkpt lat="45.07822" lon="5.23629">
        <ele>219.63499450684</ele>
        <time>2010-04-20T16:37:56Z</time>
      </trkpt>
      <trkpt lat="45.07842" lon="5.23555">
        <ele>218.83700561523</ele>
        <time>2010-04-20T16:38:03Z</time>
      </trkpt>
      <trkpt lat="45.07861" lon="5.23479">
        <ele>218.74800109863</ele>
        <time>2010-04-20T16:38:10Z</time>
      </trkpt>
      <trkpt lat="45.07882" lon="5.23406">
        <ele>218.11099243164</ele>
        <time>2010-04-20T16:38:17Z</time>
      </trkpt>
      <trkpt lat="45.07918" lon="5.23327">
        <ele>217.29699707031</ele>
        <time>2010-04-20T16:38:25Z</time>
      </trkpt>
      <trkpt lat="45.07951" lon="5.23258">
        <ele>218.02799987793</ele>
        <time>2010-04-20T16:38:32Z</time>
      </trkpt>
      <trkpt lat="45.07969" lon="5.23207">
        <ele>218.0890045166</ele>
        <time>2010-04-20T16:38:37Z</time>
      </trkpt>
      <trkpt lat="45.07992" lon="5.23144">
        <ele>218.02000427246</ele>
        <time>2010-04-20T16:38:43Z</time>
      </trkpt>
      <trkpt lat="45.08019" lon="5.23066">
        <ele>216.38800048828</ele>
        <time>2010-04-20T16:38:50Z</time>
      </trkpt>
      <trkpt lat="45.08036" lon="5.23005">
        <ele>216.04600524902</ele>
        <time>2010-04-20T16:38:55Z</time>
      </trkpt>
      <trkpt lat="45.08047" lon="5.22929">
        <ele>214.7559967041</ele>
        <time>2010-04-20T16:39:01Z</time>
      </trkpt>
      <trkpt lat="45.08051" lon="5.22915">
        <ele>214.25300598144</ele>
        <time>2010-04-20T16:39:02Z</time>
      </trkpt>
      <trkpt lat="45.08079" lon="5.22845">
        <ele>214.26899719238</ele>
        <time>2010-04-20T16:39:08Z</time>
      </trkpt>
      <trkpt lat="45.08122" lon="5.22741">
        <ele>210.84100341797</ele>
        <time>2010-04-20T16:39:17Z</time>
      </trkpt>
      <trkpt lat="45.08159" lon="5.22688">
        <ele>207.86099243164</ele>
        <time>2010-04-20T16:39:22Z</time>
      </trkpt>
      <trkpt lat="45.08175" lon="5.22666">
        <ele>207.08000183106</ele>
        <time>2010-04-20T16:39:24Z</time>
      </trkpt>
      <trkpt lat="45.08206" lon="5.22623">
        <ele>205.05400085449</ele>
        <time>2010-04-20T16:39:28Z</time>
      </trkpt>
      <trkpt lat="45.08267" lon="5.22538">
        <ele>204.08799743652</ele>
        <time>2010-04-20T16:39:36Z</time>
      </trkpt>
      <trkpt lat="45.08295" lon="5.225">
        <ele>204.08299255371</ele>
        <time>2010-04-20T16:39:40Z</time>
      </trkpt>
      <trkpt lat="45.08317" lon="5.22447">
        <ele>205.10499572754</ele>
        <time>2010-04-20T16:39:45Z</time>
      </trkpt>
      <trkpt lat="45.08331" lon="5.22383">
        <ele>205.92799377441</ele>
        <time>2010-04-20T16:39:51Z</time>
      </trkpt>
      <trkpt lat="45.08339" lon="5.22306">
        <ele>205.89900207519</ele>
        <time>2010-04-20T16:39:58Z</time>
      </trkpt>
      <trkpt lat="45.08351" lon="5.22252">
        <ele>205.1609954834</ele>
        <time>2010-04-20T16:40:03Z</time>
      </trkpt>
      <trkpt lat="45.08365" lon="5.22206">
        <ele>206.06599426269</ele>
        <time>2010-04-20T16:40:08Z</time>
      </trkpt>
      <trkpt lat="45.08384" lon="5.22158">
        <ele>206.6309967041</ele>
        <time>2010-04-20T16:40:15Z</time>
      </trkpt>
      <trkpt lat="45.08404" lon="5.22121">
        <ele>206.73899841309</ele>
        <time>2010-04-20T16:40:22Z</time>
      </trkpt>
      <trkpt lat="45.08421" lon="5.22099">
        <ele>207.00799560547</ele>
        <time>2010-04-20T16:40:28Z</time>
      </trkpt>
      <trkpt lat="45.08424" lon="5.22095">
        <ele>207.02699279785</ele>
        <time>2010-04-20T16:40:31Z</time>
      </trkpt>
      <trkpt lat="45.08425" lon="5.22095">
        <ele>207.0119934082</ele>
        <time>2010-04-20T16:40:33Z</time>
      </trkpt>
      <trkpt lat="45.08426" lon="5.22091">
        <ele>206.16999816894</ele>
        <time>2010-04-20T16:43:11Z</time>
      </trkpt>
      <trkpt lat="45.08427" lon="5.22087">
        <ele>206.2140045166</ele>
        <time>2010-04-20T16:43:13Z</time>
      </trkpt>
      <trkpt lat="45.08438" lon="5.22068">
        <ele>205.62100219727</ele>
        <time>2010-04-20T16:43:18Z</time>
      </trkpt>
      <trkpt lat="45.08455" lon="5.22037">
        <ele>204.87300109863</ele>
        <time>2010-04-20T16:43:23Z</time>
      </trkpt>
      <trkpt lat="45.08474" lon="5.21994">
        <ele>205.81500244141</ele>
        <time>2010-04-20T16:43:29Z</time>
      </trkpt>
      <trkpt lat="45.08491" lon="5.21947">
        <ele>204.84700012207</ele>
        <time>2010-04-20T16:43:35Z</time>
      </trkpt>
      <trkpt lat="45.08501" lon="5.2192">
        <ele>203.83999633789</ele>
        <time>2010-04-20T16:43:38Z</time>
      </trkpt>
      <trkpt lat="45.08529" lon="5.21855">
        <ele>203.03700256348</ele>
        <time>2010-04-20T16:43:45Z</time>
      </trkpt>
      <trkpt lat="45.08544" lon="5.21832">
        <ele>203.11099243164</ele>
        <time>2010-04-20T16:43:48Z</time>
      </trkpt>
      <trkpt lat="45.08561" lon="5.21817">
        <ele>203.89199829102</ele>
        <time>2010-04-20T16:43:51Z</time>
      </trkpt>
      <trkpt lat="45.08584" lon="5.21814">
        <ele>205.01899719238</ele>
        <time>2010-04-20T16:43:55Z</time>
      </trkpt>
      <trkpt lat="45.08632" lon="5.21834">
        <ele>206.37300109863</ele>
        <time>2010-04-20T16:44:04Z</time>
      </trkpt>
      <trkpt lat="45.08643" lon="5.21837">
        <ele>206.97300720215</ele>
        <time>2010-04-20T16:44:06Z</time>
      </trkpt>
      <trkpt lat="45.08671" lon="5.21832">
        <ele>207.42900085449</ele>
        <time>2010-04-20T16:44:11Z</time>
      </trkpt>
      <trkpt lat="45.08677" lon="5.21829">
        <ele>207.11199951172</ele>
        <time>2010-04-20T16:44:12Z</time>
      </trkpt>
      <trkpt lat="45.08698" lon="5.21809">
        <ele>208.39399719238</ele>
        <time>2010-04-20T16:44:18Z</time>
      </trkpt>
      <trkpt lat="45.087" lon="5.21805">
        <ele>208.25500488281</ele>
        <time>2010-04-20T16:44:21Z</time>
      </trkpt>
      <trkpt lat="45.087" lon="5.21805">
        <ele>208.42300415039</ele>
        <time>2010-04-20T16:44:22Z</time>
      </trkpt>
      <trkpt lat="45.087" lon="5.21805">
        <ele>208.93499755859</ele>
        <time>2010-04-20T16:44:24Z</time>
      </trkpt>
      <trkpt lat="45.08702" lon="5.21795">
        <ele>208.02299499512</ele>
        <time>2010-04-20T16:44:31Z</time>
      </trkpt>
      <trkpt lat="45.08697" lon="5.21777">
        <ele>207.89599609375</ele>
        <time>2010-04-20T16:44:35Z</time>
      </trkpt>
      <trkpt lat="45.08673" lon="5.21737">
        <ele>206.93800354004</ele>
        <time>2010-04-20T16:44:41Z</time>
      </trkpt>
      <trkpt lat="45.08643" lon="5.21682">
        <ele>205.41799926758</ele>
        <time>2010-04-20T16:44:48Z</time>
      </trkpt>
      <trkpt lat="45.08615" lon="5.21621">
        <ele>202.81500244141</ele>
        <time>2010-04-20T16:44:54Z</time>
      </trkpt>
      <trkpt lat="45.08601" lon="5.21587">
        <ele>201.16400146484</ele>
        <time>2010-04-20T16:44:57Z</time>
      </trkpt>
      <trkpt lat="45.08577" lon="5.21519">
        <ele>197.2380065918</ele>
        <time>2010-04-20T16:45:02Z</time>
      </trkpt>
      <trkpt lat="45.08546" lon="5.21425">
        <ele>191.25799560547</ele>
        <time>2010-04-20T16:45:08Z</time>
      </trkpt>
      <trkpt lat="45.08507" lon="5.21289">
        <ele>184.70799255371</ele>
        <time>2010-04-20T16:45:16Z</time>
      </trkpt>
      <trkpt lat="45.08482" lon="5.21203">
        <ele>181.02499389648</ele>
        <time>2010-04-20T16:45:21Z</time>
      </trkpt>
      <trkpt lat="45.08479" lon="5.21184">
        <ele>179.96000671387</ele>
        <time>2010-04-20T16:45:22Z</time>
      </trkpt>
      <trkpt lat="45.08488" lon="5.21128">
        <ele>177.96600341797</ele>
        <time>2010-04-20T16:45:25Z</time>
      </trkpt>
      <trkpt lat="45.08493" lon="5.21112">
        <ele>177.73899841309</ele>
        <time>2010-04-20T16:45:26Z</time>
      </trkpt>
      <trkpt lat="45.08522" lon="5.21017">
        <ele>175.25199890137</ele>
        <time>2010-04-20T16:45:32Z</time>
      </trkpt>
      <trkpt lat="45.08524" lon="5.21001">
        <ele>174.83099365234</ele>
        <time>2010-04-20T16:45:33Z</time>
      </trkpt>
      <trkpt lat="45.08525" lon="5.20902">
        <ele>172.02200317383</ele>
        <time>2010-04-20T16:45:39Z</time>
      </trkpt>
      <trkpt lat="45.08524" lon="5.20813">
        <ele>173.17900085449</ele>
        <time>2010-04-20T16:45:45Z</time>
      </trkpt>
      <trkpt lat="45.08521" lon="5.20692">
        <ele>174.48300170898</ele>
        <time>2010-04-20T16:45:54Z</time>
      </trkpt>
      <trkpt lat="45.08519" lon="5.20592">
        <ele>174.20599365234</ele>
        <time>2010-04-20T16:46:02Z</time>
      </trkpt>
      <trkpt lat="45.08518" lon="5.20521">
        <ele>174.23399353027</ele>
        <time>2010-04-20T16:46:08Z</time>
      </trkpt>
      <trkpt lat="45.08516" lon="5.20427">
        <ele>173.64100646973</ele>
        <time>2010-04-20T16:46:16Z</time>
      </trkpt>
      <trkpt lat="45.08516" lon="5.20338">
        <ele>174.0059967041</ele>
        <time>2010-04-20T16:46:24Z</time>
      </trkpt>
      <trkpt lat="45.08514" lon="5.20224">
        <ele>173.46099853516</ele>
        <time>2010-04-20T16:46:34Z</time>
      </trkpt>
      <trkpt lat="45.08512" lon="5.20098">
        <ele>172.75799560547</ele>
        <time>2010-04-20T16:46:45Z</time>
      </trkpt>
      <trkpt lat="45.0851" lon="5.19983">
        <ele>172.54699707031</ele>
        <time>2010-04-20T16:46:55Z</time>
      </trkpt>
      <trkpt lat="45.08511" lon="5.1987">
        <ele>171.68699645996</ele>
        <time>2010-04-20T16:47:05Z</time>
      </trkpt>
      <trkpt lat="45.08513" lon="5.19753">
        <ele>170.82299804688</ele>
        <time>2010-04-20T16:47:15Z</time>
      </trkpt>
      <trkpt lat="45.08514" lon="5.19644">
        <ele>169.93099975586</ele>
        <time>2010-04-20T16:47:24Z</time>
      </trkpt>
      <trkpt lat="45.08517" lon="5.19547">
        <ele>169.07499694824</ele>
        <time>2010-04-20T16:47:32Z</time>
      </trkpt>
      <trkpt lat="45.08519" lon="5.19508">
        <ele>167.84100341797</ele>
        <time>2010-04-20T16:47:35Z</time>
      </trkpt>
      <trkpt lat="45.08526" lon="5.19413">
        <ele>166.05799865723</ele>
        <time>2010-04-20T16:47:42Z</time>
      </trkpt>
      <trkpt lat="45.08536" lon="5.19281">
        <ele>164.69500732422</ele>
        <time>2010-04-20T16:47:52Z</time>
      </trkpt>
      <trkpt lat="45.08546" lon="5.19144">
        <ele>163.31399536133</ele>
        <time>2010-04-20T16:48:03Z</time>
      </trkpt>
      <trkpt lat="45.08555" lon="5.19018">
        <ele>163.39599609375</ele>
        <time>2010-04-20T16:48:14Z</time>
      </trkpt>
      <trkpt lat="45.08563" lon="5.18914">
        <ele>163.16700744629</ele>
        <time>2010-04-20T16:48:23Z</time>
      </trkpt>
      <trkpt lat="45.08568" lon="5.18856">
        <ele>162.7799987793</ele>
        <time>2010-04-20T16:48:28Z</time>
      </trkpt>
      <trkpt lat="45.08568" lon="5.18834">
        <ele>162.92799377441</ele>
        <time>2010-04-20T16:48:30Z</time>
      </trkpt>
      <trkpt lat="45.08573" lon="5.1879">
        <ele>162.44000244141</ele>
        <time>2010-04-20T16:48:34Z</time>
      </trkpt>
      <trkpt lat="45.08574" lon="5.18756">
        <ele>162.15199279785</ele>
        <time>2010-04-20T16:48:37Z</time>
      </trkpt>
      <trkpt lat="45.08576" lon="5.18733">
        <ele>161.82600402832</ele>
        <time>2010-04-20T16:48:39Z</time>
      </trkpt>
      <trkpt lat="45.08575" lon="5.18641">
        <ele>161.91400146484</ele>
        <time>2010-04-20T16:48:47Z</time>
      </trkpt>
      <trkpt lat="45.08574" lon="5.18575">
        <ele>161.31799316406</ele>
        <time>2010-04-20T16:48:53Z</time>
      </trkpt>
      <trkpt lat="45.0857" lon="5.1853">
        <ele>160.54400634766</ele>
        <time>2010-04-20T16:48:57Z</time>
      </trkpt>
      <trkpt lat="45.08568" lon="5.18496">
        <ele>161.13400268555</ele>
        <time>2010-04-20T16:49:00Z</time>
      </trkpt>
      <trkpt lat="45.08566" lon="5.18426">
        <ele>162.90800476074</ele>
        <time>2010-04-20T16:49:07Z</time>
      </trkpt>
      <trkpt lat="45.08567" lon="5.1837">
        <ele>164.7559967041</ele>
        <time>2010-04-20T16:49:14Z</time>
      </trkpt>
      <trkpt lat="45.08568" lon="5.18323">
        <ele>166.59300231934</ele>
        <time>2010-04-20T16:49:21Z</time>
      </trkpt>
      <trkpt lat="45.08565" lon="5.18284">
        <ele>168.07299804688</ele>
        <time>2010-04-20T16:49:27Z</time>
      </trkpt>
      <trkpt lat="45.0855" lon="5.18232">
        <ele>168.375</ele>
        <time>2010-04-20T16:49:34Z</time>
      </trkpt>
      <trkpt lat="45.08537" lon="5.1819">
        <ele>169.55000305176</ele>
        <time>2010-04-20T16:49:39Z</time>
      </trkpt>
      <trkpt lat="45.08517" lon="5.18133">
        <ele>170.49299621582</ele>
        <time>2010-04-20T16:49:46Z</time>
      </trkpt>
      <trkpt lat="45.08499" lon="5.18077">
        <ele>171.39799499512</ele>
        <time>2010-04-20T16:49:53Z</time>
      </trkpt>
      <trkpt lat="45.08489" lon="5.18046">
        <ele>172.36199951172</ele>
        <time>2010-04-20T16:49:57Z</time>
      </trkpt>
      <trkpt lat="45.08463" lon="5.17986">
        <ele>173.46499633789</ele>
        <time>2010-04-20T16:50:05Z</time>
      </trkpt>
      <trkpt lat="45.08442" lon="5.17945">
        <ele>174.64500427246</ele>
        <time>2010-04-20T16:50:11Z</time>
      </trkpt>
      <trkpt lat="45.08414" lon="5.17893">
        <ele>175.80099487305</ele>
        <time>2010-04-20T16:50:19Z</time>
      </trkpt>
      <trkpt lat="45.08381" lon="5.17835">
        <ele>176.82800292969</ele>
        <time>2010-04-20T16:50:28Z</time>
      </trkpt>
      <trkpt lat="45.08342" lon="5.17786">
        <ele>177.69799804688</ele>
        <time>2010-04-20T16:50:36Z</time>
      </trkpt>
      <trkpt lat="45.0831" lon="5.17747">
        <ele>178.22599792481</ele>
        <time>2010-04-20T16:50:42Z</time>
      </trkpt>
      <trkpt lat="45.08249" lon="5.17671">
        <ele>178.36599731445</ele>
        <time>2010-04-20T16:50:53Z</time>
      </trkpt>
      <trkpt lat="45.08206" lon="5.1761">
        <ele>179.69599914551</ele>
        <time>2010-04-20T16:51:02Z</time>
      </trkpt>
      <trkpt lat="45.08175" lon="5.17564">
        <ele>180.54100036621</ele>
        <time>2010-04-20T16:51:09Z</time>
      </trkpt>
      <trkpt lat="45.08141" lon="5.17512">
        <ele>181.60400390625</ele>
        <time>2010-04-20T16:51:17Z</time>
      </trkpt>
      <trkpt lat="45.08107" lon="5.17461">
        <ele>182.96499633789</ele>
        <time>2010-04-20T16:51:25Z</time>
      </trkpt>
      <trkpt lat="45.0808" lon="5.17414">
        <ele>183.6369934082</ele>
        <time>2010-04-20T16:51:32Z</time>
      </trkpt>
      <trkpt lat="45.08046" lon="5.17356">
        <ele>184.48699951172</ele>
        <time>2010-04-20T16:51:40Z</time>
      </trkpt>
      <trkpt lat="45.08017" lon="5.17314">
        <ele>186.57800292969</ele>
        <time>2010-04-20T16:51:46Z</time>
      </trkpt>
      <trkpt lat="45.07978" lon="5.17258">
        <ele>189.67500305176</ele>
        <time>2010-04-20T16:51:54Z</time>
      </trkpt>
      <trkpt lat="45.07949" lon="5.1721">
        <ele>191.94900512695</ele>
        <time>2010-04-20T16:52:01Z</time>
      </trkpt>
      <trkpt lat="45.0792" lon="5.17158">
        <ele>193.83700561523</ele>
        <time>2010-04-20T16:52:09Z</time>
      </trkpt>
      <trkpt lat="45.07891" lon="5.17105">
        <ele>193.89700317383</ele>
        <time>2010-04-20T16:52:17Z</time>
      </trkpt>
      <trkpt lat="45.07869" lon="5.1706">
        <ele>194.21499633789</ele>
        <time>2010-04-20T16:52:23Z</time>
      </trkpt>
      <trkpt lat="45.07855" lon="5.17029">
        <ele>194.35000610352</ele>
        <time>2010-04-20T16:52:27Z</time>
      </trkpt>
      <trkpt lat="45.07838" lon="5.1698">
        <ele>194.70399475098</ele>
        <time>2010-04-20T16:52:33Z</time>
      </trkpt>
      <trkpt lat="45.07818" lon="5.1692">
        <ele>194.67599487305</ele>
        <time>2010-04-20T16:52:40Z</time>
      </trkpt>
      <trkpt lat="45.07798" lon="5.16847">
        <ele>195.57400512695</ele>
        <time>2010-04-20T16:52:48Z</time>
      </trkpt>
      <trkpt lat="45.07779" lon="5.16759">
        <ele>196.41499328613</ele>
        <time>2010-04-20T16:52:57Z</time>
      </trkpt>
      <trkpt lat="45.07763" lon="5.16688">
        <ele>196.36500549316</ele>
        <time>2010-04-20T16:53:04Z</time>
      </trkpt>
      <trkpt lat="45.07748" lon="5.16621">
        <ele>197.30999755859</ele>
        <time>2010-04-20T16:53:11Z</time>
      </trkpt>
      <trkpt lat="45.0773" lon="5.1654">
        <ele>197.47999572754</ele>
        <time>2010-04-20T16:53:19Z</time>
      </trkpt>
      <trkpt lat="45.07713" lon="5.16468">
        <ele>196.97099304199</ele>
        <time>2010-04-20T16:53:26Z</time>
      </trkpt>
      <trkpt lat="45.07692" lon="5.16371">
        <ele>196.92900085449</ele>
        <time>2010-04-20T16:53:35Z</time>
      </trkpt>
      <trkpt lat="45.0767" lon="5.16272">
        <ele>196.41400146484</ele>
        <time>2010-04-20T16:53:44Z</time>
      </trkpt>
      <trkpt lat="45.07676" lon="5.16243">
        <ele>196.3450012207</ele>
        <time>2010-04-20T16:53:47Z</time>
      </trkpt>
      <trkpt lat="45.0768" lon="5.16235">
        <ele>196.36599731445</ele>
        <time>2010-04-20T16:53:48Z</time>
      </trkpt>
      <trkpt lat="45.07711" lon="5.16187">
        <ele>196.92399597168</ele>
        <time>2010-04-20T16:53:55Z</time>
      </trkpt>
      <trkpt lat="45.07727" lon="5.16163">
        <ele>198.09100341797</ele>
        <time>2010-04-20T16:54:00Z</time>
      </trkpt>
      <trkpt lat="45.07738" lon="5.16146">
        <ele>199.16999816894</ele>
        <time>2010-04-20T16:54:05Z</time>
      </trkpt>
      <trkpt lat="45.07754" lon="5.16122">
        <ele>199.69200134277</ele>
        <time>2010-04-20T16:54:10Z</time>
      </trkpt>
      <trkpt lat="45.07776" lon="5.1608">
        <ele>201.75799560547</ele>
        <time>2010-04-20T16:54:17Z</time>
      </trkpt>
      <trkpt lat="45.07784" lon="5.16062">
        <ele>202.68600463867</ele>
        <time>2010-04-20T16:54:20Z</time>
      </trkpt>
      <trkpt lat="45.07788" lon="5.1605">
        <ele>203.28300476074</ele>
        <time>2010-04-20T16:54:22Z</time>
      </trkpt>
      <trkpt lat="45.07793" lon="5.16031">
        <ele>203.85000610352</ele>
        <time>2010-04-20T16:54:25Z</time>
      </trkpt>
      <trkpt lat="45.07806" lon="5.15979">
        <ele>204.96499633789</ele>
        <time>2010-04-20T16:54:33Z</time>
      </trkpt>
      <trkpt lat="45.07818" lon="5.15938">
        <ele>206.0059967041</ele>
        <time>2010-04-20T16:54:39Z</time>
      </trkpt>
      <trkpt lat="45.07833" lon="5.15881">
        <ele>206.3390045166</ele>
        <time>2010-04-20T16:54:47Z</time>
      </trkpt>
      <trkpt lat="45.0785" lon="5.15816">
        <ele>206.69400024414</ele>
        <time>2010-04-20T16:54:55Z</time>
      </trkpt>
      <trkpt lat="45.07864" lon="5.15758">
        <ele>206.98100280762</ele>
        <time>2010-04-20T16:55:02Z</time>
      </trkpt>
      <trkpt lat="45.07878" lon="5.15691">
        <ele>207.9880065918</ele>
        <time>2010-04-20T16:55:10Z</time>
      </trkpt>
      <trkpt lat="45.07891" lon="5.15613">
        <ele>209.21299743652</ele>
        <time>2010-04-20T16:55:19Z</time>
      </trkpt>
      <trkpt lat="45.07906" lon="5.15542">
        <ele>210.09800720215</ele>
        <time>2010-04-20T16:55:27Z</time>
      </trkpt>
      <trkpt lat="45.07925" lon="5.15455">
        <ele>211.19500732422</ele>
        <time>2010-04-20T16:55:37Z</time>
      </trkpt>
      <trkpt lat="45.07941" lon="5.15393">
        <ele>211.18899536133</ele>
        <time>2010-04-20T16:55:44Z</time>
      </trkpt>
      <trkpt lat="45.0796" lon="5.15322">
        <ele>209.78199768066</ele>
        <time>2010-04-20T16:55:51Z</time>
      </trkpt>
      <trkpt lat="45.07978" lon="5.1525">
        <ele>208.97700500488</ele>
        <time>2010-04-20T16:55:58Z</time>
      </trkpt>
      <trkpt lat="45.07985" lon="5.15185">
        <ele>209.5299987793</ele>
        <time>2010-04-20T16:56:04Z</time>
      </trkpt>
      <trkpt lat="45.07995" lon="5.151">
        <ele>210.94799804688</ele>
        <time>2010-04-20T16:56:12Z</time>
      </trkpt>
      <trkpt lat="45.08008" lon="5.15043">
        <ele>210.30099487305</ele>
        <time>2010-04-20T16:56:18Z</time>
      </trkpt>
      <trkpt lat="45.08027" lon="5.14968">
        <ele>208.40899658203</ele>
        <time>2010-04-20T16:56:25Z</time>
      </trkpt>
      <trkpt lat="45.08041" lon="5.14912">
        <ele>206.57899475098</ele>
        <time>2010-04-20T16:56:30Z</time>
      </trkpt>
      <trkpt lat="45.08069" lon="5.1481">
        <ele>206.14799499512</ele>
        <time>2010-04-20T16:56:39Z</time>
      </trkpt>
      <trkpt lat="45.081" lon="5.14726">
        <ele>206.60499572754</ele>
        <time>2010-04-20T16:56:47Z</time>
      </trkpt>
      <trkpt lat="45.08126" lon="5.14658">
        <ele>207.7859954834</ele>
        <time>2010-04-20T16:56:54Z</time>
      </trkpt>
      <trkpt lat="45.08147" lon="5.14597">
        <ele>209.27400207519</ele>
        <time>2010-04-20T16:57:01Z</time>
      </trkpt>
      <trkpt lat="45.08155" lon="5.14573">
        <ele>209.83500671387</ele>
        <time>2010-04-20T16:57:04Z</time>
      </trkpt>
      <trkpt lat="45.08166" lon="5.1453">
        <ele>210.88000488281</ele>
        <time>2010-04-20T16:57:10Z</time>
      </trkpt>
      <trkpt lat="45.08175" lon="5.14496">
        <ele>211.60699462891</ele>
        <time>2010-04-20T16:57:15Z</time>
      </trkpt>
      <trkpt lat="45.08187" lon="5.14449">
        <ele>211.02000427246</ele>
        <time>2010-04-20T16:57:21Z</time>
      </trkpt>
      <trkpt lat="45.08199" lon="5.14415">
        <ele>210.80000305176</ele>
        <time>2010-04-20T16:57:25Z</time>
      </trkpt>
      <trkpt lat="45.08224" lon="5.1434">
        <ele>210.0359954834</ele>
        <time>2010-04-20T16:57:33Z</time>
      </trkpt>
      <trkpt lat="45.08247" lon="5.14274">
        <ele>209.74699401856</ele>
        <time>2010-04-20T16:57:40Z</time>
      </trkpt>
      <trkpt lat="45.08276" lon="5.14177">
        <ele>208.28300476074</ele>
        <time>2010-04-20T16:57:49Z</time>
      </trkpt>
      <trkpt lat="45.08306" lon="5.14074">
        <ele>206.92300415039</ele>
        <time>2010-04-20T16:57:58Z</time>
      </trkpt>
      <trkpt lat="45.08334" lon="5.13981">
        <ele>205.76600646973</ele>
        <time>2010-04-20T16:58:06Z</time>
      </trkpt>
      <trkpt lat="45.08357" lon="5.13908">
        <ele>206.65100097656</ele>
        <time>2010-04-20T16:58:13Z</time>
      </trkpt>
      <trkpt lat="45.08377" lon="5.13865">
        <ele>207.49499511719</ele>
        <time>2010-04-20T16:58:18Z</time>
      </trkpt>
      <trkpt lat="45.08412" lon="5.13816">
        <ele>207.22900390625</ele>
        <time>2010-04-20T16:58:25Z</time>
      </trkpt>
      <trkpt lat="45.08462" lon="5.13752">
        <ele>207.07200622559</ele>
        <time>2010-04-20T16:58:34Z</time>
      </trkpt>
      <trkpt lat="45.08507" lon="5.13693">
        <ele>206.81199645996</ele>
        <time>2010-04-20T16:58:42Z</time>
      </trkpt>
      <trkpt lat="45.08562" lon="5.13619">
        <ele>206.09199523926</ele>
        <time>2010-04-20T16:58:52Z</time>
      </trkpt>
      <trkpt lat="45.08593" lon="5.1357">
        <ele>205.90600585938</ele>
        <time>2010-04-20T16:58:58Z</time>
      </trkpt>
      <trkpt lat="45.08625" lon="5.13498">
        <ele>206.67399597168</ele>
        <time>2010-04-20T16:59:06Z</time>
      </trkpt>
      <trkpt lat="45.08644" lon="5.13454">
        <ele>206.38800048828</ele>
        <time>2010-04-20T16:59:11Z</time>
      </trkpt>
      <trkpt lat="45.08672" lon="5.1338">
        <ele>206.60099792481</ele>
        <time>2010-04-20T16:59:19Z</time>
      </trkpt>
      <trkpt lat="45.08677" lon="5.13371">
        <ele>206.7140045166</ele>
        <time>2010-04-20T16:59:20Z</time>
      </trkpt>
      <trkpt lat="45.08708" lon="5.13299">
        <ele>206.16999816894</ele>
        <time>2010-04-20T16:59:28Z</time>
      </trkpt>
      <trkpt lat="45.08715" lon="5.13283">
        <ele>206.53300476074</ele>
        <time>2010-04-20T16:59:30Z</time>
      </trkpt>
      <trkpt lat="45.08735" lon="5.13234">
        <ele>206.17100524902</ele>
        <time>2010-04-20T16:59:36Z</time>
      </trkpt>
      <trkpt lat="45.08757" lon="5.13184">
        <ele>206.42799377441</ele>
        <time>2010-04-20T16:59:42Z</time>
      </trkpt>
      <trkpt lat="45.08761" lon="5.13176">
        <ele>206.52400207519</ele>
        <time>2010-04-20T16:59:43Z</time>
      </trkpt>
      <trkpt lat="45.08768" lon="5.13162">
        <ele>206.74699401856</ele>
        <time>2010-04-20T16:59:45Z</time>
      </trkpt>
      <trkpt lat="45.08776" lon="5.1314">
        <ele>206.44200134277</ele>
        <time>2010-04-20T16:59:48Z</time>
      </trkpt>
      <trkpt lat="45.08783" lon="5.13094">
        <ele>205.91700744629</ele>
        <time>2010-04-20T16:59:53Z</time>
      </trkpt>
      <trkpt lat="45.08794" lon="5.13036">
        <ele>205.54699707031</ele>
        <time>2010-04-20T16:59:59Z</time>
      </trkpt>
      <trkpt lat="45.08795" lon="5.12988">
        <ele>206.36199951172</ele>
        <time>2010-04-20T17:00:04Z</time>
      </trkpt>
      <trkpt lat="45.08795" lon="5.12978">
        <ele>206.08099365234</ele>
        <time>2010-04-20T17:00:05Z</time>
      </trkpt>
      <trkpt lat="45.08801" lon="5.12922">
        <ele>207.55000305176</ele>
        <time>2010-04-20T17:00:11Z</time>
      </trkpt>
      <trkpt lat="45.08817" lon="5.12838">
        <ele>209.06900024414</ele>
        <time>2010-04-20T17:00:20Z</time>
      </trkpt>
      <trkpt lat="45.08836" lon="5.1276">
        <ele>209.35800170898</ele>
        <time>2010-04-20T17:00:28Z</time>
      </trkpt>
      <trkpt lat="45.08858" lon="5.12684">
        <ele>210.04100036621</ele>
        <time>2010-04-20T17:00:36Z</time>
      </trkpt>
      <trkpt lat="45.08884" lon="5.12606">
        <ele>211.01899719238</ele>
        <time>2010-04-20T17:00:45Z</time>
      </trkpt>
      <trkpt lat="45.08905" lon="5.12548">
        <ele>211.31500244141</ele>
        <time>2010-04-20T17:00:52Z</time>
      </trkpt>
      <trkpt lat="45.08919" lon="5.12482">
        <ele>210.78500366211</ele>
        <time>2010-04-20T17:00:59Z</time>
      </trkpt>
      <trkpt lat="45.0892" lon="5.12425">
        <ele>209.16700744629</ele>
        <time>2010-04-20T17:01:04Z</time>
      </trkpt>
      <trkpt lat="45.0892" lon="5.12412">
        <ele>208.99899291992</ele>
        <time>2010-04-20T17:01:05Z</time>
      </trkpt>
      <trkpt lat="45.08915" lon="5.12334">
        <ele>208.1309967041</ele>
        <time>2010-04-20T17:01:11Z</time>
      </trkpt>
      <trkpt lat="45.08912" lon="5.12251">
        <ele>205.84800720215</ele>
        <time>2010-04-20T17:01:17Z</time>
      </trkpt>
      <trkpt lat="45.08902" lon="5.12077">
        <ele>203.92300415039</ele>
        <time>2010-04-20T17:01:29Z</time>
      </trkpt>
      <trkpt lat="45.08892" lon="5.11945">
        <ele>202.83500671387</ele>
        <time>2010-04-20T17:01:38Z</time>
      </trkpt>
      <trkpt lat="45.08884" lon="5.11831">
        <ele>203.07400512695</ele>
        <time>2010-04-20T17:01:46Z</time>
      </trkpt>
      <trkpt lat="45.08876" lon="5.11706">
        <ele>202.46000671387</ele>
        <time>2010-04-20T17:01:55Z</time>
      </trkpt>
      <trkpt lat="45.08867" lon="5.11589">
        <ele>202.90199279785</ele>
        <time>2010-04-20T17:02:04Z</time>
      </trkpt>
      <trkpt lat="45.08858" lon="5.11482">
        <ele>201.60600280762</ele>
        <time>2010-04-20T17:02:12Z</time>
      </trkpt>
      <trkpt lat="45.08846" lon="5.11345">
        <ele>200.28500366211</ele>
        <time>2010-04-20T17:02:22Z</time>
      </trkpt>
      <trkpt lat="45.08835" lon="5.1122">
        <ele>199.40899658203</ele>
        <time>2010-04-20T17:02:31Z</time>
      </trkpt>
      <trkpt lat="45.08822" lon="5.11124">
        <ele>198.63400268555</ele>
        <time>2010-04-20T17:02:38Z</time>
      </trkpt>
      <trkpt lat="45.08804" lon="5.1103">
        <ele>198.15299987793</ele>
        <time>2010-04-20T17:02:45Z</time>
      </trkpt>
      <trkpt lat="45.0879" lon="5.10934">
        <ele>197.37100219727</ele>
        <time>2010-04-20T17:02:52Z</time>
      </trkpt>
      <trkpt lat="45.08784" lon="5.10827">
        <ele>197.84599304199</ele>
        <time>2010-04-20T17:03:00Z</time>
      </trkpt>
      <trkpt lat="45.08779" lon="5.10711">
        <ele>197.79800415039</ele>
        <time>2010-04-20T17:03:09Z</time>
      </trkpt>
      <trkpt lat="45.08766" lon="5.10637">
        <ele>198</ele>
        <time>2010-04-20T17:03:15Z</time>
      </trkpt>
      <trkpt lat="45.08738" lon="5.10527">
        <ele>198.03500366211</ele>
        <time>2010-04-20T17:03:24Z</time>
      </trkpt>
      <trkpt lat="45.08717" lon="5.10449">
        <ele>199.33399963379</ele>
        <time>2010-04-20T17:03:31Z</time>
      </trkpt>
      <trkpt lat="45.08704" lon="5.10397">
        <ele>199.49200439453</ele>
        <time>2010-04-20T17:03:36Z</time>
      </trkpt>
      <trkpt lat="45.08675" lon="5.10299">
        <ele>199.37899780273</ele>
        <time>2010-04-20T17:03:45Z</time>
      </trkpt>
      <trkpt lat="45.08651" lon="5.10201">
        <ele>200.39599609375</ele>
        <time>2010-04-20T17:03:54Z</time>
      </trkpt>
      <trkpt lat="45.08632" lon="5.1011">
        <ele>200.55099487305</ele>
        <time>2010-04-20T17:04:02Z</time>
      </trkpt>
      <trkpt lat="45.08609" lon="5.10014">
        <ele>198.80299377441</ele>
        <time>2010-04-20T17:04:10Z</time>
      </trkpt>
      <trkpt lat="45.08575" lon="5.09888">
        <ele>197.62399291992</ele>
        <time>2010-04-20T17:04:20Z</time>
      </trkpt>
      <trkpt lat="45.08545" lon="5.09777">
        <ele>197.32299804688</ele>
        <time>2010-04-20T17:04:29Z</time>
      </trkpt>
      <trkpt lat="45.08514" lon="5.09694">
        <ele>196.5950012207</ele>
        <time>2010-04-20T17:04:36Z</time>
      </trkpt>
      <trkpt lat="45.08471" lon="5.09584">
        <ele>195.44799804688</ele>
        <time>2010-04-20T17:04:45Z</time>
      </trkpt>
      <trkpt lat="45.08467" lon="5.09572">
        <ele>195.74200439453</ele>
        <time>2010-04-20T17:04:46Z</time>
      </trkpt>
      <trkpt lat="45.08462" lon="5.09503">
        <ele>195.06500244141</ele>
        <time>2010-04-20T17:04:51Z</time>
      </trkpt>
      <trkpt lat="45.0847" lon="5.09408">
        <ele>195.51800537109</ele>
        <time>2010-04-20T17:04:58Z</time>
      </trkpt>
      <trkpt lat="45.08482" lon="5.09333">
        <ele>195.57400512695</ele>
        <time>2010-04-20T17:05:04Z</time>
      </trkpt>
      <trkpt lat="45.08485" lon="5.09322">
        <ele>196.08500671387</ele>
        <time>2010-04-20T17:05:05Z</time>
      </trkpt>
      <trkpt lat="45.08499" lon="5.09293">
        <ele>196.11099243164</ele>
        <time>2010-04-20T17:05:08Z</time>
      </trkpt>
      <trkpt lat="45.08532" lon="5.09246">
        <ele>197.23399353027</ele>
        <time>2010-04-20T17:05:14Z</time>
      </trkpt>
      <trkpt lat="45.08558" lon="5.09199">
        <ele>198.14700317383</ele>
        <time>2010-04-20T17:05:20Z</time>
      </trkpt>
      <trkpt lat="45.08572" lon="5.09152">
        <ele>198.44599914551</ele>
        <time>2010-04-20T17:05:25Z</time>
      </trkpt>
      <trkpt lat="45.08593" lon="5.09064">
        <ele>199.3630065918</ele>
        <time>2010-04-20T17:05:34Z</time>
      </trkpt>
      <trkpt lat="45.08613" lon="5.0901">
        <ele>199.74800109863</ele>
        <time>2010-04-20T17:05:40Z</time>
      </trkpt>
      <trkpt lat="45.08646" lon="5.08946">
        <ele>200.62100219727</ele>
        <time>2010-04-20T17:05:48Z</time>
      </trkpt>
      <trkpt lat="45.08674" lon="5.08884">
        <ele>201.83200073242</ele>
        <time>2010-04-20T17:05:56Z</time>
      </trkpt>
      <trkpt lat="45.08694" lon="5.08818">
        <ele>202.48500061035</ele>
        <time>2010-04-20T17:06:04Z</time>
      </trkpt>
      <trkpt lat="45.08714" lon="5.08746">
        <ele>203.69099426269</ele>
        <time>2010-04-20T17:06:12Z</time>
      </trkpt>
      <trkpt lat="45.08733" lon="5.08666">
        <ele>204.97700500488</ele>
        <time>2010-04-20T17:06:21Z</time>
      </trkpt>
      <trkpt lat="45.08742" lon="5.08623">
        <ele>205.67100524902</ele>
        <time>2010-04-20T17:06:26Z</time>
      </trkpt>
      <trkpt lat="45.08752" lon="5.08602">
        <ele>206.47399902344</ele>
        <time>2010-04-20T17:06:29Z</time>
      </trkpt>
      <trkpt lat="45.08756" lon="5.08572">
        <ele>206.60099792481</ele>
        <time>2010-04-20T17:06:33Z</time>
      </trkpt>
      <trkpt lat="45.08751" lon="5.08537">
        <ele>207.09300231934</ele>
        <time>2010-04-20T17:06:37Z</time>
      </trkpt>
      <trkpt lat="45.08757" lon="5.08471">
        <ele>208.70599365234</ele>
        <time>2010-04-20T17:06:45Z</time>
      </trkpt>
      <trkpt lat="45.08762" lon="5.0843">
        <ele>210.32699584961</ele>
        <time>2010-04-20T17:06:51Z</time>
      </trkpt>
      <trkpt lat="45.08769" lon="5.08373">
        <ele>211.91400146484</ele>
        <time>2010-04-20T17:07:00Z</time>
      </trkpt>
      <trkpt lat="45.0877" lon="5.0836">
        <ele>212.52400207519</ele>
        <time>2010-04-20T17:07:02Z</time>
      </trkpt>
      <trkpt lat="45.08778" lon="5.08302">
        <ele>214.86099243164</ele>
        <time>2010-04-20T17:07:11Z</time>
      </trkpt>
      <trkpt lat="45.08786" lon="5.08249">
        <ele>216.64199829102</ele>
        <time>2010-04-20T17:07:19Z</time>
      </trkpt>
      <trkpt lat="45.08794" lon="5.08191">
        <ele>219.26699829102</ele>
        <time>2010-04-20T17:07:28Z</time>
      </trkpt>
      <trkpt lat="45.08805" lon="5.08128">
        <ele>221.0299987793</ele>
        <time>2010-04-20T17:07:38Z</time>
      </trkpt>
      <trkpt lat="45.08816" lon="5.08079">
        <ele>222.41900634766</ele>
        <time>2010-04-20T17:07:46Z</time>
      </trkpt>
      <trkpt lat="45.08826" lon="5.08021">
        <ele>223.84899902344</ele>
        <time>2010-04-20T17:07:55Z</time>
      </trkpt>
      <trkpt lat="45.08834" lon="5.07978">
        <ele>225.35899353027</ele>
        <time>2010-04-20T17:08:02Z</time>
      </trkpt>
      <trkpt lat="45.08843" lon="5.07934">
        <ele>226.51499938965</ele>
        <time>2010-04-20T17:08:09Z</time>
      </trkpt>
      <trkpt lat="45.08854" lon="5.07898">
        <ele>227.45300292969</ele>
        <time>2010-04-20T17:08:15Z</time>
      </trkpt>
      <trkpt lat="45.0887" lon="5.07869">
        <ele>228.66400146484</ele>
        <time>2010-04-20T17:08:21Z</time>
      </trkpt>
      <trkpt lat="45.08888" lon="5.07847">
        <ele>229.79400634766</ele>
        <time>2010-04-20T17:08:26Z</time>
      </trkpt>
      <trkpt lat="45.08923" lon="5.07825">
        <ele>230.60000610352</ele>
        <time>2010-04-20T17:08:34Z</time>
      </trkpt>
      <trkpt lat="45.08952" lon="5.07809">
        <ele>231.69200134277</ele>
        <time>2010-04-20T17:08:40Z</time>
      </trkpt>
      <trkpt lat="45.0899" lon="5.07786">
        <ele>232.79400634766</ele>
        <time>2010-04-20T17:08:48Z</time>
      </trkpt>
      <trkpt lat="45.09027" lon="5.07759">
        <ele>233.51699829102</ele>
        <time>2010-04-20T17:08:56Z</time>
      </trkpt>
      <trkpt lat="45.09063" lon="5.07724">
        <ele>232.97999572754</ele>
        <time>2010-04-20T17:09:04Z</time>
      </trkpt>
      <trkpt lat="45.09096" lon="5.07691">
        <ele>231.3809967041</ele>
        <time>2010-04-20T17:09:10Z</time>
      </trkpt>
      <trkpt lat="45.09131" lon="5.07649">
        <ele>230.00399780273</ele>
        <time>2010-04-20T17:09:16Z</time>
      </trkpt>
      <trkpt lat="45.09155" lon="5.07602">
        <ele>230.10299682617</ele>
        <time>2010-04-20T17:09:21Z</time>
      </trkpt>
      <trkpt lat="45.09169" lon="5.0757">
        <ele>228.75</ele>
        <time>2010-04-20T17:09:24Z</time>
      </trkpt>
      <trkpt lat="45.0921" lon="5.07483">
        <ele>226.60400390625</ele>
        <time>2010-04-20T17:09:32Z</time>
      </trkpt>
      <trkpt lat="45.09274" lon="5.07349">
        <ele>224.10299682617</ele>
        <time>2010-04-20T17:09:44Z</time>
      </trkpt>
      <trkpt lat="45.09308" lon="5.07277">
        <ele>224.41600036621</ele>
        <time>2010-04-20T17:09:51Z</time>
      </trkpt>
      <trkpt lat="45.09334" lon="5.07223">
        <ele>225.51699829102</ele>
        <time>2010-04-20T17:09:57Z</time>
      </trkpt>
      <trkpt lat="45.09357" lon="5.072">
        <ele>226.32400512695</ele>
        <time>2010-04-20T17:10:01Z</time>
      </trkpt>
      <trkpt lat="45.09385" lon="5.07169">
        <ele>226.45199584961</ele>
        <time>2010-04-20T17:10:06Z</time>
      </trkpt>
      <trkpt lat="45.09389" lon="5.07136">
        <ele>225.16200256348</ele>
        <time>2010-04-20T17:10:09Z</time>
      </trkpt>
      <trkpt lat="45.09389" lon="5.07113">
        <ele>224.48100280762</ele>
        <time>2010-04-20T17:10:11Z</time>
      </trkpt>
      <trkpt lat="45.09386" lon="5.07028">
        <ele>222.86000061035</ele>
        <time>2010-04-20T17:10:18Z</time>
      </trkpt>
      <trkpt lat="45.0938" lon="5.06915">
        <ele>220.45300292969</ele>
        <time>2010-04-20T17:10:27Z</time>
      </trkpt>
      <trkpt lat="45.09373" lon="5.06799">
        <ele>219.68899536133</ele>
        <time>2010-04-20T17:10:36Z</time>
      </trkpt>
      <trkpt lat="45.09372" lon="5.06713">
        <ele>218.80499267578</ele>
        <time>2010-04-20T17:10:43Z</time>
      </trkpt>
      <trkpt lat="45.0938" lon="5.06626">
        <ele>218.16200256348</ele>
        <time>2010-04-20T17:10:50Z</time>
      </trkpt>
      <trkpt lat="45.09384" lon="5.06538">
        <ele>217.31500244141</ele>
        <time>2010-04-20T17:10:57Z</time>
      </trkpt>
      <trkpt lat="45.09378" lon="5.06426">
        <ele>216.32200622559</ele>
        <time>2010-04-20T17:11:06Z</time>
      </trkpt>
      <trkpt lat="45.09373" lon="5.06278">
        <ele>215.17700195312</ele>
        <time>2010-04-20T17:11:18Z</time>
      </trkpt>
      <trkpt lat="45.0937" lon="5.06186">
        <ele>213.69099426269</ele>
        <time>2010-04-20T17:11:25Z</time>
      </trkpt>
      <trkpt lat="45.0937" lon="5.06065">
        <ele>212.36099243164</ele>
        <time>2010-04-20T17:11:34Z</time>
      </trkpt>
      <trkpt lat="45.09377" lon="5.05961">
        <ele>212.41499328613</ele>
        <time>2010-04-20T17:11:42Z</time>
      </trkpt>
      <trkpt lat="45.09391" lon="5.05861">
        <ele>212.38800048828</ele>
        <time>2010-04-20T17:11:50Z</time>
      </trkpt>
      <trkpt lat="45.09411" lon="5.05782">
        <ele>212.80400085449</ele>
        <time>2010-04-20T17:11:57Z</time>
      </trkpt>
      <trkpt lat="45.09425" lon="5.05718">
        <ele>213.42399597168</ele>
        <time>2010-04-20T17:12:03Z</time>
      </trkpt>
      <trkpt lat="45.09433" lon="5.05659">
        <ele>214.66700744629</ele>
        <time>2010-04-20T17:12:09Z</time>
      </trkpt>
      <trkpt lat="45.09439" lon="5.05596">
        <ele>214.51600646973</ele>
        <time>2010-04-20T17:12:16Z</time>
      </trkpt>
      <trkpt lat="45.09437" lon="5.05551">
        <ele>214.26300048828</ele>
        <time>2010-04-20T17:12:21Z</time>
      </trkpt>
      <trkpt lat="45.09431" lon="5.05496">
        <ele>214.19200134277</ele>
        <time>2010-04-20T17:12:26Z</time>
      </trkpt>
      <trkpt lat="45.09423" lon="5.0542">
        <ele>213.72099304199</ele>
        <time>2010-04-20T17:12:33Z</time>
      </trkpt>
      <trkpt lat="45.09401" lon="5.05345">
        <ele>213.0950012207</ele>
        <time>2010-04-20T17:12:40Z</time>
      </trkpt>
      <trkpt lat="45.09371" lon="5.05287">
        <ele>212.44000244141</ele>
        <time>2010-04-20T17:12:46Z</time>
      </trkpt>
      <trkpt lat="45.09323" lon="5.05204">
        <ele>212.78900146484</ele>
        <time>2010-04-20T17:12:55Z</time>
      </trkpt>
      <trkpt lat="45.09282" lon="5.05134">
        <ele>213.69900512695</ele>
        <time>2010-04-20T17:13:03Z</time>
      </trkpt>
      <trkpt lat="45.09252" lon="5.05067">
        <ele>213.40800476074</ele>
        <time>2010-04-20T17:13:10Z</time>
      </trkpt>
      <trkpt lat="45.0924" lon="5.05022">
        <ele>210.82400512695</ele>
        <time>2010-04-20T17:13:14Z</time>
      </trkpt>
      <trkpt lat="45.09243" lon="5.04983">
        <ele>209.38900756836</ele>
        <time>2010-04-20T17:13:17Z</time>
      </trkpt>
      <trkpt lat="45.09261" lon="5.04951">
        <ele>208.29100036621</ele>
        <time>2010-04-20T17:13:20Z</time>
      </trkpt>
      <trkpt lat="45.09294" lon="5.04902">
        <ele>206.55499267578</ele>
        <time>2010-04-20T17:13:25Z</time>
      </trkpt>
      <trkpt lat="45.09306" lon="5.04854">
        <ele>205.41400146484</ele>
        <time>2010-04-20T17:13:29Z</time>
      </trkpt>
      <trkpt lat="45.09311" lon="5.04776">
        <ele>206.56100463867</ele>
        <time>2010-04-20T17:13:36Z</time>
      </trkpt>
      <trkpt lat="45.09312" lon="5.04766">
        <ele>206.52299499512</ele>
        <time>2010-04-20T17:13:37Z</time>
      </trkpt>
      <trkpt lat="45.09328" lon="5.04738">
        <ele>206.18299865723</ele>
        <time>2010-04-20T17:13:41Z</time>
      </trkpt>
      <trkpt lat="45.0934" lon="5.04726">
        <ele>206.26899719238</ele>
        <time>2010-04-20T17:13:43Z</time>
      </trkpt>
      <trkpt lat="45.09354" lon="5.04715">
        <ele>207.08299255371</ele>
        <time>2010-04-20T17:13:45Z</time>
      </trkpt>
      <trkpt lat="45.09368" lon="5.04703">
        <ele>206.98599243164</ele>
        <time>2010-04-20T17:13:47Z</time>
      </trkpt>
      <trkpt lat="45.09401" lon="5.04684">
        <ele>208.13299560547</ele>
        <time>2010-04-20T17:13:51Z</time>
      </trkpt>
      <trkpt lat="45.0944" lon="5.04665">
        <ele>209.69799804688</ele>
        <time>2010-04-20T17:13:56Z</time>
      </trkpt>
      <trkpt lat="45.09486" lon="5.04644">
        <ele>210.54100036621</ele>
        <time>2010-04-20T17:14:02Z</time>
      </trkpt>
      <trkpt lat="45.09536" lon="5.0462">
        <ele>211.48699951172</ele>
        <time>2010-04-20T17:14:09Z</time>
      </trkpt>
      <trkpt lat="45.09568" lon="5.04595">
        <ele>212.57600402832</ele>
        <time>2010-04-20T17:14:14Z</time>
      </trkpt>
      <trkpt lat="45.09593" lon="5.04553">
        <ele>213.60600280762</ele>
        <time>2010-04-20T17:14:19Z</time>
      </trkpt>
      <trkpt lat="45.09597" lon="5.04545">
        <ele>214.1190032959</ele>
        <time>2010-04-20T17:14:20Z</time>
      </trkpt>
      <trkpt lat="45.09613" lon="5.04526">
        <ele>214.58200073242</ele>
        <time>2010-04-20T17:14:23Z</time>
      </trkpt>
      <trkpt lat="45.09623" lon="5.04502">
        <ele>215.71000671387</ele>
        <time>2010-04-20T17:14:26Z</time>
      </trkpt>
      <trkpt lat="45.09622" lon="5.0447">
        <ele>216.6309967041</ele>
        <time>2010-04-20T17:14:29Z</time>
      </trkpt>
      <trkpt lat="45.09628" lon="5.04453">
        <ele>216.97999572754</ele>
        <time>2010-04-20T17:14:31Z</time>
      </trkpt>
      <trkpt lat="45.09656" lon="5.04372">
        <ele>218.01699829102</ele>
        <time>2010-04-20T17:14:40Z</time>
      </trkpt>
      <trkpt lat="45.09681" lon="5.04329">
        <ele>216.86000061035</ele>
        <time>2010-04-20T17:14:45Z</time>
      </trkpt>
      <trkpt lat="45.09715" lon="5.04293">
        <ele>216.03300476074</ele>
        <time>2010-04-20T17:14:50Z</time>
      </trkpt>
      <trkpt lat="45.0977" lon="5.04238">
        <ele>215.44299316406</ele>
        <time>2010-04-20T17:14:58Z</time>
      </trkpt>
      <trkpt lat="45.09827" lon="5.04178">
        <ele>215.28500366211</ele>
        <time>2010-04-20T17:15:07Z</time>
      </trkpt>
      <trkpt lat="45.0985" lon="5.04154">
        <ele>215.14599609375</ele>
        <time>2010-04-20T17:15:11Z</time>
      </trkpt>
      <trkpt lat="45.09871" lon="5.0411">
        <ele>214.79100036621</ele>
        <time>2010-04-20T17:15:16Z</time>
      </trkpt>
      <trkpt lat="45.09873" lon="5.041">
        <ele>214.78799438477</ele>
        <time>2010-04-20T17:15:17Z</time>
      </trkpt>
      <trkpt lat="45.09886" lon="5.04039">
        <ele>214.62399291992</ele>
        <time>2010-04-20T17:15:23Z</time>
      </trkpt>
      <trkpt lat="45.09887" lon="5.03988">
        <ele>215.12899780273</ele>
        <time>2010-04-20T17:15:28Z</time>
      </trkpt>
      <trkpt lat="45.09879" lon="5.03959">
        <ele>215.02499389648</ele>
        <time>2010-04-20T17:15:31Z</time>
      </trkpt>
      <trkpt lat="45.0985" lon="5.03885">
        <ele>215.79100036621</ele>
        <time>2010-04-20T17:15:39Z</time>
      </trkpt>
      <trkpt lat="45.09821" lon="5.03811">
        <ele>215.45100402832</ele>
        <time>2010-04-20T17:15:47Z</time>
      </trkpt>
      <trkpt lat="45.09806" lon="5.03752">
        <ele>216.45700073242</ele>
        <time>2010-04-20T17:15:53Z</time>
      </trkpt>
      <trkpt lat="45.09794" lon="5.03689">
        <ele>218.07400512695</ele>
        <time>2010-04-20T17:16:00Z</time>
      </trkpt>
      <trkpt lat="45.09787" lon="5.03632">
        <ele>219.25999450684</ele>
        <time>2010-04-20T17:16:07Z</time>
      </trkpt>
      <trkpt lat="45.09787" lon="5.03623">
        <ele>219.2200012207</ele>
        <time>2010-04-20T17:16:08Z</time>
      </trkpt>
      <trkpt lat="45.09793" lon="5.03588">
        <ele>218.60800170898</ele>
        <time>2010-04-20T17:16:12Z</time>
      </trkpt>
      <trkpt lat="45.09807" lon="5.03554">
        <ele>217.91299438477</ele>
        <time>2010-04-20T17:16:16Z</time>
      </trkpt>
      <trkpt lat="45.09856" lon="5.03483">
        <ele>216.42900085449</ele>
        <time>2010-04-20T17:16:25Z</time>
      </trkpt>
      <trkpt lat="45.09872" lon="5.03459">
        <ele>216.40299987793</ele>
        <time>2010-04-20T17:16:28Z</time>
      </trkpt>
      <trkpt lat="45.09899" lon="5.03406">
        <ele>216.93699645996</ele>
        <time>2010-04-20T17:16:34Z</time>
      </trkpt>
      <trkpt lat="45.09915" lon="5.03352">
        <ele>218.43699645996</ele>
        <time>2010-04-20T17:16:40Z</time>
      </trkpt>
      <trkpt lat="45.09927" lon="5.03309">
        <ele>219.81799316406</ele>
        <time>2010-04-20T17:16:46Z</time>
      </trkpt>
      <trkpt lat="45.09942" lon="5.03254">
        <ele>222.44400024414</ele>
        <time>2010-04-20T17:16:55Z</time>
      </trkpt>
      <trkpt lat="45.09956" lon="5.03207">
        <ele>224.07099914551</ele>
        <time>2010-04-20T17:17:03Z</time>
      </trkpt>
      <trkpt lat="45.09958" lon="5.03201">
        <ele>224.07600402832</ele>
        <time>2010-04-20T17:17:04Z</time>
      </trkpt>
      <trkpt lat="45.0997" lon="5.03155">
        <ele>225.28500366211</ele>
        <time>2010-04-20T17:17:11Z</time>
      </trkpt>
      <trkpt lat="45.09984" lon="5.03105">
        <ele>225.90600585938</ele>
        <time>2010-04-20T17:17:19Z</time>
      </trkpt>
      <trkpt lat="45.10002" lon="5.03039">
        <ele>227.51499938965</ele>
        <time>2010-04-20T17:17:29Z</time>
      </trkpt>
      <trkpt lat="45.10011" lon="5.03008">
        <ele>228.48500061035</ele>
        <time>2010-04-20T17:17:34Z</time>
      </trkpt>
      <trkpt lat="45.10014" lon="5.02997">
        <ele>229.25</ele>
        <time>2010-04-20T17:17:36Z</time>
      </trkpt>
      <trkpt lat="45.1003" lon="5.02947">
        <ele>230.85600280762</ele>
        <time>2010-04-20T17:17:45Z</time>
      </trkpt>
      <trkpt lat="45.10041" lon="5.02905">
        <ele>233.01899719238</ele>
        <time>2010-04-20T17:17:53Z</time>
      </trkpt>
      <trkpt lat="45.10051" lon="5.02869">
        <ele>234.73599243164</ele>
        <time>2010-04-20T17:18:01Z</time>
      </trkpt>
      <trkpt lat="45.10057" lon="5.02847">
        <ele>236.04499816894</ele>
        <time>2010-04-20T17:18:07Z</time>
      </trkpt>
      <trkpt lat="45.10062" lon="5.0282">
        <ele>237.14399719238</ele>
        <time>2010-04-20T17:18:14Z</time>
      </trkpt>
      <trkpt lat="45.1007" lon="5.02796">
        <ele>238.4880065918</ele>
        <time>2010-04-20T17:18:20Z</time>
      </trkpt>
      <trkpt lat="45.1007" lon="5.02768">
        <ele>239.82099914551</ele>
        <time>2010-04-20T17:18:26Z</time>
      </trkpt>
      <trkpt lat="45.10061" lon="5.02742">
        <ele>240.7440032959</ele>
        <time>2010-04-20T17:18:32Z</time>
      </trkpt>
      <trkpt lat="45.10045" lon="5.02718">
        <ele>242.34300231934</ele>
        <time>2010-04-20T17:18:39Z</time>
      </trkpt>
      <trkpt lat="45.10024" lon="5.02692">
        <ele>244.14500427246</ele>
        <time>2010-04-20T17:18:47Z</time>
      </trkpt>
      <trkpt lat="45.10006" lon="5.02668">
        <ele>245.7559967041</ele>
        <time>2010-04-20T17:18:54Z</time>
      </trkpt>
      <trkpt lat="45.09995" lon="5.02654">
        <ele>246.66200256348</ele>
        <time>2010-04-20T17:18:58Z</time>
      </trkpt>
      <trkpt lat="45.09987" lon="5.02637">
        <ele>247.59800720215</ele>
        <time>2010-04-20T17:19:03Z</time>
      </trkpt>
      <trkpt lat="45.09986" lon="5.02633">
        <ele>247.69000244141</ele>
        <time>2010-04-20T17:19:04Z</time>
      </trkpt>
      <trkpt lat="45.09983" lon="5.0261">
        <ele>248.66799926758</ele>
        <time>2010-04-20T17:19:10Z</time>
      </trkpt>
      <trkpt lat="45.0997" lon="5.02579">
        <ele>250.40800476074</ele>
        <time>2010-04-20T17:19:17Z</time>
      </trkpt>
      <trkpt lat="45.09953" lon="5.02554">
        <ele>251.5</ele>
        <time>2010-04-20T17:19:24Z</time>
      </trkpt>
      <trkpt lat="45.09937" lon="5.02533">
        <ele>252.74000549316</ele>
        <time>2010-04-20T17:19:30Z</time>
      </trkpt>
      <trkpt lat="45.09921" lon="5.02512">
        <ele>254.34399414062</ele>
        <time>2010-04-20T17:19:37Z</time>
      </trkpt>
      <trkpt lat="45.09911" lon="5.02491">
        <ele>255.59700012207</ele>
        <time>2010-04-20T17:19:43Z</time>
      </trkpt>
      <trkpt lat="45.09902" lon="5.02469">
        <ele>257.21301269531</ele>
        <time>2010-04-20T17:19:49Z</time>
      </trkpt>
      <trkpt lat="45.09889" lon="5.02449">
        <ele>258.48400878906</ele>
        <time>2010-04-20T17:19:55Z</time>
      </trkpt>
      <trkpt lat="45.09883" lon="5.02422">
        <ele>259.41799926758</ele>
        <time>2010-04-20T17:20:00Z</time>
      </trkpt>
      <trkpt lat="45.09878" lon="5.02399">
        <ele>259.83700561523</ele>
        <time>2010-04-20T17:20:04Z</time>
      </trkpt>
      <trkpt lat="45.09862" lon="5.0234">
        <ele>258.64700317383</ele>
        <time>2010-04-20T17:20:12Z</time>
      </trkpt>
      <trkpt lat="45.09855" lon="5.02313">
        <ele>257.38500976562</ele>
        <time>2010-04-20T17:20:15Z</time>
      </trkpt>
      <trkpt lat="45.09849" lon="5.02281">
        <ele>255.49600219727</ele>
        <time>2010-04-20T17:20:18Z</time>
      </trkpt>
      <trkpt lat="45.0985" lon="5.02231">
        <ele>252.79800415039</ele>
        <time>2010-04-20T17:20:22Z</time>
      </trkpt>
      <trkpt lat="45.09857" lon="5.02206">
        <ele>251.75500488281</ele>
        <time>2010-04-20T17:20:24Z</time>
      </trkpt>
      <trkpt lat="45.09895" lon="5.02098">
        <ele>246.22700500488</ele>
        <time>2010-04-20T17:20:32Z</time>
      </trkpt>
      <trkpt lat="45.09905" lon="5.02069">
        <ele>245.47200012207</ele>
        <time>2010-04-20T17:20:34Z</time>
      </trkpt>
      <trkpt lat="45.09926" lon="5.02008">
        <ele>242.38600158691</ele>
        <time>2010-04-20T17:20:38Z</time>
      </trkpt>
      <trkpt lat="45.09972" lon="5.01874">
        <ele>238.93400573731</ele>
        <time>2010-04-20T17:20:47Z</time>
      </trkpt>
      <trkpt lat="45.10011" lon="5.0176">
        <ele>236.8630065918</ele>
        <time>2010-04-20T17:20:55Z</time>
      </trkpt>
      <trkpt lat="45.10039" lon="5.01678">
        <ele>236.10000610352</ele>
        <time>2010-04-20T17:21:01Z</time>
      </trkpt>
      <trkpt lat="45.10052" lon="5.01614">
        <ele>236.27099609375</ele>
        <time>2010-04-20T17:21:06Z</time>
      </trkpt>
      <trkpt lat="45.10062" lon="5.01517">
        <ele>237.11399841309</ele>
        <time>2010-04-20T17:21:14Z</time>
      </trkpt>
      <trkpt lat="45.10071" lon="5.01416">
        <ele>237.67999267578</ele>
        <time>2010-04-20T17:21:23Z</time>
      </trkpt>
      <trkpt lat="45.10078" lon="5.01314">
        <ele>238.31100463867</ele>
        <time>2010-04-20T17:21:32Z</time>
      </trkpt>
      <trkpt lat="45.10085" lon="5.01238">
        <ele>237.875</ele>
        <time>2010-04-20T17:21:39Z</time>
      </trkpt>
      <trkpt lat="45.101" lon="5.01173">
        <ele>237.26300048828</ele>
        <time>2010-04-20T17:21:45Z</time>
      </trkpt>
      <trkpt lat="45.10121" lon="5.01123">
        <ele>237.05400085449</ele>
        <time>2010-04-20T17:21:50Z</time>
      </trkpt>
      <trkpt lat="45.1016" lon="5.01058">
        <ele>235.45700073242</ele>
        <time>2010-04-20T17:21:57Z</time>
      </trkpt>
      <trkpt lat="45.10208" lon="5.00986">
        <ele>234.01300048828</ele>
        <time>2010-04-20T17:22:05Z</time>
      </trkpt>
      <trkpt lat="45.10249" lon="5.00935">
        <ele>233.34700012207</ele>
        <time>2010-04-20T17:22:11Z</time>
      </trkpt>
      <trkpt lat="45.10318" lon="5.00878">
        <ele>231.80099487305</ele>
        <time>2010-04-20T17:22:20Z</time>
      </trkpt>
      <trkpt lat="45.1038" lon="5.00829">
        <ele>230.7380065918</ele>
        <time>2010-04-20T17:22:28Z</time>
      </trkpt>
      <trkpt lat="45.10431" lon="5.00789">
        <ele>231.11399841309</ele>
        <time>2010-04-20T17:22:35Z</time>
      </trkpt>
      <trkpt lat="45.10482" lon="5.00748">
        <ele>231.91799926758</ele>
        <time>2010-04-20T17:22:43Z</time>
      </trkpt>
      <trkpt lat="45.10526" lon="5.00713">
        <ele>233.90100097656</ele>
        <time>2010-04-20T17:22:51Z</time>
      </trkpt>
      <trkpt lat="45.10555" lon="5.0069">
        <ele>235.19599914551</ele>
        <time>2010-04-20T17:22:58Z</time>
      </trkpt>
      <trkpt lat="45.10586" lon="5.00664">
        <ele>236.71800231934</ele>
        <time>2010-04-20T17:23:06Z</time>
      </trkpt>
      <trkpt lat="45.10615" lon="5.0064">
        <ele>238.47900390625</ele>
        <time>2010-04-20T17:23:13Z</time>
      </trkpt>
      <trkpt lat="45.10646" lon="5.0062">
        <ele>239.82299804688</ele>
        <time>2010-04-20T17:23:19Z</time>
      </trkpt>
      <trkpt lat="45.10672" lon="5.00607">
        <ele>241.60800170898</ele>
        <time>2010-04-20T17:23:24Z</time>
      </trkpt>
      <trkpt lat="45.10711" lon="5.00594">
        <ele>243.95199584961</ele>
        <time>2010-04-20T17:23:32Z</time>
      </trkpt>
      <trkpt lat="45.1073" lon="5.0059">
        <ele>245.15299987793</ele>
        <time>2010-04-20T17:23:37Z</time>
      </trkpt>
      <trkpt lat="45.10751" lon="5.00588">
        <ele>246.30099487305</ele>
        <time>2010-04-20T17:23:43Z</time>
      </trkpt>
      <trkpt lat="45.10781" lon="5.00585">
        <ele>248.54600524902</ele>
        <time>2010-04-20T17:23:52Z</time>
      </trkpt>
      <trkpt lat="45.10808" lon="5.00582">
        <ele>250.21200561523</ele>
        <time>2010-04-20T17:24:00Z</time>
      </trkpt>
      <trkpt lat="45.10825" lon="5.00581">
        <ele>251.19999694824</ele>
        <time>2010-04-20T17:24:05Z</time>
      </trkpt>
      <trkpt lat="45.10854" lon="5.00577">
        <ele>252.97500610352</ele>
        <time>2010-04-20T17:24:13Z</time>
      </trkpt>
      <trkpt lat="45.10885" lon="5.00568">
        <ele>254.57299804688</ele>
        <time>2010-04-20T17:24:22Z</time>
      </trkpt>
      <trkpt lat="45.10916" lon="5.00555">
        <ele>255.17900085449</ele>
        <time>2010-04-20T17:24:30Z</time>
      </trkpt>
      <trkpt lat="45.10953" lon="5.00531">
        <ele>255.18200683594</ele>
        <time>2010-04-20T17:24:39Z</time>
      </trkpt>
      <trkpt lat="45.10978" lon="5.00513">
        <ele>253.92999267578</ele>
        <time>2010-04-20T17:24:44Z</time>
      </trkpt>
      <trkpt lat="45.11009" lon="5.0049">
        <ele>252.49000549316</ele>
        <time>2010-04-20T17:24:49Z</time>
      </trkpt>
      <trkpt lat="45.11056" lon="5.00457">
        <ele>249.30000305176</ele>
        <time>2010-04-20T17:24:55Z</time>
      </trkpt>
      <trkpt lat="45.11102" lon="5.00429">
        <ele>245.99299621582</ele>
        <time>2010-04-20T17:25:00Z</time>
      </trkpt>
      <trkpt lat="45.11164" lon="5.00395">
        <ele>242.42300415039</ele>
        <time>2010-04-20T17:25:06Z</time>
      </trkpt>
      <trkpt lat="45.1124" lon="5.00356">
        <ele>238.50900268555</ele>
        <time>2010-04-20T17:25:13Z</time>
      </trkpt>
      <trkpt lat="45.11261" lon="5.00344">
        <ele>237.74600219727</ele>
        <time>2010-04-20T17:25:15Z</time>
      </trkpt>
      <trkpt lat="45.11343" lon="5.00283">
        <ele>236.09100341797</ele>
        <time>2010-04-20T17:25:23Z</time>
      </trkpt>
      <trkpt lat="45.11371" lon="5.00259">
        <ele>234.51100158691</ele>
        <time>2010-04-20T17:25:26Z</time>
      </trkpt>
      <trkpt lat="45.11412" lon="5.00221">
        <ele>235.34100341797</ele>
        <time>2010-04-20T17:25:31Z</time>
      </trkpt>
      <trkpt lat="45.11464" lon="5.00173">
        <ele>235.12699890137</ele>
        <time>2010-04-20T17:25:38Z</time>
      </trkpt>
      <trkpt lat="45.11518" lon="5.00121">
        <ele>234.94999694824</ele>
        <time>2010-04-20T17:25:46Z</time>
      </trkpt>
      <trkpt lat="45.11576" lon="5.00061">
        <ele>235.29600524902</ele>
        <time>2010-04-20T17:25:55Z</time>
      </trkpt>
      <trkpt lat="45.11612" lon="5.00011">
        <ele>233.07600402832</ele>
        <time>2010-04-20T17:26:01Z</time>
      </trkpt>
      <trkpt lat="45.11662" lon="4.9995">
        <ele>229.41299438477</ele>
        <time>2010-04-20T17:26:08Z</time>
      </trkpt>
      <trkpt lat="45.11698" lon="4.99922">
        <ele>227.15100097656</ele>
        <time>2010-04-20T17:26:12Z</time>
      </trkpt>
      <trkpt lat="45.11751" lon="4.99898">
        <ele>222.93400573731</ele>
        <time>2010-04-20T17:26:17Z</time>
      </trkpt>
      <trkpt lat="45.11795" lon="4.99879">
        <ele>220.17300415039</ele>
        <time>2010-04-20T17:26:21Z</time>
      </trkpt>
      <trkpt lat="45.11865" lon="4.99847">
        <ele>215.06799316406</ele>
        <time>2010-04-20T17:26:27Z</time>
      </trkpt>
      <trkpt lat="45.11897" lon="4.99821">
        <ele>213.18800354004</ele>
        <time>2010-04-20T17:26:30Z</time>
      </trkpt>
      <trkpt lat="45.11943" lon="4.99765">
        <ele>210.48599243164</ele>
        <time>2010-04-20T17:26:35Z</time>
      </trkpt>
      <trkpt lat="45.11986" lon="4.99692">
        <ele>211.10800170898</ele>
        <time>2010-04-20T17:26:41Z</time>
      </trkpt>
      <trkpt lat="45.12028" lon="4.99615">
        <ele>212.22999572754</ele>
        <time>2010-04-20T17:26:48Z</time>
      </trkpt>
      <trkpt lat="45.12066" lon="4.99546">
        <ele>212.01800537109</ele>
        <time>2010-04-20T17:26:55Z</time>
      </trkpt>
      <trkpt lat="45.1212" lon="4.99449">
        <ele>210.22599792481</ele>
        <time>2010-04-20T17:27:05Z</time>
      </trkpt>
      <trkpt lat="45.12139" lon="4.99394">
        <ele>210.64399719238</ele>
        <time>2010-04-20T17:27:10Z</time>
      </trkpt>
      <trkpt lat="45.12142" lon="4.99383">
        <ele>210.55200195312</ele>
        <time>2010-04-20T17:27:11Z</time>
      </trkpt>
      <trkpt lat="45.12162" lon="4.99308">
        <ele>210.20500183106</ele>
        <time>2010-04-20T17:27:18Z</time>
      </trkpt>
      <trkpt lat="45.12186" lon="4.99213">
        <ele>211.31799316406</ele>
        <time>2010-04-20T17:27:27Z</time>
      </trkpt>
      <trkpt lat="45.12206" lon="4.99135">
        <ele>211.95500183106</ele>
        <time>2010-04-20T17:27:35Z</time>
      </trkpt>
      <trkpt lat="45.12217" lon="4.991">
        <ele>213.04600524902</ele>
        <time>2010-04-20T17:27:39Z</time>
      </trkpt>
      <trkpt lat="45.12231" lon="4.99074">
        <ele>214.22700500488</ele>
        <time>2010-04-20T17:27:43Z</time>
      </trkpt>
      <trkpt lat="45.12237" lon="4.99049">
        <ele>214.91400146484</ele>
        <time>2010-04-20T17:27:47Z</time>
      </trkpt>
      <trkpt lat="45.12223" lon="4.99038">
        <ele>214.00300598144</ele>
        <time>2010-04-20T17:27:50Z</time>
      </trkpt>
      <trkpt lat="45.12185" lon="4.99015">
        <ele>211.01600646973</ele>
        <time>2010-04-20T17:27:56Z</time>
      </trkpt>
      <trkpt lat="45.12164" lon="4.98992">
        <ele>209.78100585938</ele>
        <time>2010-04-20T17:27:59Z</time>
      </trkpt>
      <trkpt lat="45.12136" lon="4.98954">
        <ele>207.48100280762</ele>
        <time>2010-04-20T17:28:03Z</time>
      </trkpt>
      <trkpt lat="45.12091" lon="4.98877">
        <ele>206.16999816894</ele>
        <time>2010-04-20T17:28:10Z</time>
      </trkpt>
      <trkpt lat="45.12061" lon="4.98806">
        <ele>206.23100280762</ele>
        <time>2010-04-20T17:28:16Z</time>
      </trkpt>
      <trkpt lat="45.1204" lon="4.98731">
        <ele>205.38299560547</ele>
        <time>2010-04-20T17:28:22Z</time>
      </trkpt>
      <trkpt lat="45.12024" lon="4.98643">
        <ele>205.94799804688</ele>
        <time>2010-04-20T17:28:29Z</time>
      </trkpt>
      <trkpt lat="45.12019" lon="4.98555">
        <ele>205.88600158691</ele>
        <time>2010-04-20T17:28:36Z</time>
      </trkpt>
      <trkpt lat="45.12023" lon="4.98482">
        <ele>205.64999389648</ele>
        <time>2010-04-20T17:28:42Z</time>
      </trkpt>
      <trkpt lat="45.12028" lon="4.98458">
        <ele>205.61700439453</ele>
        <time>2010-04-20T17:28:44Z</time>
      </trkpt>
      <trkpt lat="45.12046" lon="4.9842">
        <ele>205.90100097656</ele>
        <time>2010-04-20T17:28:48Z</time>
      </trkpt>
      <trkpt lat="45.12051" lon="4.98386">
        <ele>205.95799255371</ele>
        <time>2010-04-20T17:28:51Z</time>
      </trkpt>
      <trkpt lat="45.12052" lon="4.98362">
        <ele>205.62899780273</ele>
        <time>2010-04-20T17:28:53Z</time>
      </trkpt>
      <trkpt lat="45.12067" lon="4.98273">
        <ele>203.99800109863</ele>
        <time>2010-04-20T17:29:00Z</time>
      </trkpt>
      <trkpt lat="45.12071" lon="4.98207">
        <ele>203.93699645996</ele>
        <time>2010-04-20T17:29:05Z</time>
      </trkpt>
      <trkpt lat="45.12066" lon="4.98138">
        <ele>203.03999328613</ele>
        <time>2010-04-20T17:29:10Z</time>
      </trkpt>
      <trkpt lat="45.12049" lon="4.98057">
        <ele>202.41999816894</ele>
        <time>2010-04-20T17:29:16Z</time>
      </trkpt>
      <trkpt lat="45.12015" lon="4.97928">
        <ele>201.47500610352</ele>
        <time>2010-04-20T17:29:26Z</time>
      </trkpt>
      <trkpt lat="45.11998" lon="4.97837">
        <ele>200.46699523926</ele>
        <time>2010-04-20T17:29:33Z</time>
      </trkpt>
      <trkpt lat="45.11973" lon="4.97697">
        <ele>199.55900573731</ele>
        <time>2010-04-20T17:29:44Z</time>
      </trkpt>
      <trkpt lat="45.11951" lon="4.97574">
        <ele>199.98300170898</ele>
        <time>2010-04-20T17:29:54Z</time>
      </trkpt>
      <trkpt lat="45.11934" lon="4.97475">
        <ele>198.21200561523</ele>
        <time>2010-04-20T17:30:02Z</time>
      </trkpt>
      <trkpt lat="45.11912" lon="4.97349">
        <ele>197.31500244141</ele>
        <time>2010-04-20T17:30:12Z</time>
      </trkpt>
      <trkpt lat="45.11893" lon="4.9724">
        <ele>196.97099304199</ele>
        <time>2010-04-20T17:30:21Z</time>
      </trkpt>
      <trkpt lat="45.11878" lon="4.97152">
        <ele>198.23300170898</ele>
        <time>2010-04-20T17:30:29Z</time>
      </trkpt>
      <trkpt lat="45.11883" lon="4.97104">
        <ele>198.82400512695</ele>
        <time>2010-04-20T17:30:34Z</time>
      </trkpt>
      <trkpt lat="45.11891" lon="4.97093">
        <ele>199.3869934082</ele>
        <time>2010-04-20T17:30:36Z</time>
      </trkpt>
      <trkpt lat="45.11901" lon="4.97063">
        <ele>200.30200195312</ele>
        <time>2010-04-20T17:30:41Z</time>
      </trkpt>
      <trkpt lat="45.11888" lon="4.9705">
        <ele>199.87100219727</ele>
        <time>2010-04-20T17:30:44Z</time>
      </trkpt>
      <trkpt lat="45.11868" lon="4.97031">
        <ele>200.06799316406</ele>
        <time>2010-04-20T17:30:48Z</time>
      </trkpt>
      <trkpt lat="45.11817" lon="4.96963">
        <ele>199.51499938965</ele>
        <time>2010-04-20T17:30:58Z</time>
      </trkpt>
      <trkpt lat="45.11777" lon="4.969">
        <ele>199.28999328613</ele>
        <time>2010-04-20T17:31:06Z</time>
      </trkpt>
      <trkpt lat="45.11768" lon="4.96885">
        <ele>199.05499267578</ele>
        <time>2010-04-20T17:31:08Z</time>
      </trkpt>
      <trkpt lat="45.11762" lon="4.96849">
        <ele>198.60200500488</ele>
        <time>2010-04-20T17:31:12Z</time>
      </trkpt>
      <trkpt lat="45.1175" lon="4.96823">
        <ele>199.04499816894</ele>
        <time>2010-04-20T17:31:16Z</time>
      </trkpt>
      <trkpt lat="45.11744" lon="4.96821">
        <ele>199.10200500488</ele>
        <time>2010-04-20T17:31:17Z</time>
      </trkpt>
      <trkpt lat="45.11717" lon="4.96801">
        <ele>198.68400573731</ele>
        <time>2010-04-20T17:31:22Z</time>
      </trkpt>
      <trkpt lat="45.11684" lon="4.96751">
        <ele>197.84199523926</ele>
        <time>2010-04-20T17:31:29Z</time>
      </trkpt>
      <trkpt lat="45.11653" lon="4.96688">
        <ele>197.06700134277</ele>
        <time>2010-04-20T17:31:36Z</time>
      </trkpt>
      <trkpt lat="45.11618" lon="4.96598">
        <ele>196.52799987793</ele>
        <time>2010-04-20T17:31:45Z</time>
      </trkpt>
      <trkpt lat="45.11591" lon="4.96528">
        <ele>196.94000244141</ele>
        <time>2010-04-20T17:31:53Z</time>
      </trkpt>
      <trkpt lat="45.11581" lon="4.96505">
        <ele>196.94099426269</ele>
        <time>2010-04-20T17:31:56Z</time>
      </trkpt>
      <trkpt lat="45.11578" lon="4.96477">
        <ele>197.54100036621</ele>
        <time>2010-04-20T17:32:00Z</time>
      </trkpt>
      <trkpt lat="45.1158" lon="4.96453">
        <ele>198.42199707031</ele>
        <time>2010-04-20T17:32:05Z</time>
      </trkpt>
      <trkpt lat="45.11575" lon="4.96446">
        <ele>198.79299926758</ele>
        <time>2010-04-20T17:32:09Z</time>
      </trkpt>
      <trkpt lat="45.11573" lon="4.96446">
        <ele>198.875</ele>
        <time>2010-04-20T17:32:11Z</time>
      </trkpt>
      <trkpt lat="45.11573" lon="4.96446">
        <ele>198.83799743652</ele>
        <time>2010-04-20T17:32:13Z</time>
      </trkpt>
      <trkpt lat="45.1157" lon="4.96452">
        <ele>198.46000671387</ele>
        <time>2010-04-20T17:32:32Z</time>
      </trkpt>
      <trkpt lat="45.11563" lon="4.96449">
        <ele>197.97399902344</ele>
        <time>2010-04-20T17:32:35Z</time>
      </trkpt>
      <trkpt lat="45.11559" lon="4.96428">
        <ele>198.75399780273</ele>
        <time>2010-04-20T17:32:39Z</time>
      </trkpt>
      <trkpt lat="45.11561" lon="4.96426">
        <ele>198.98300170898</ele>
        <time>2010-04-20T17:32:40Z</time>
      </trkpt>
      <trkpt lat="45.11565" lon="4.96427">
        <ele>199.24000549316</ele>
        <time>2010-04-20T17:32:44Z</time>
      </trkpt>
      <trkpt lat="45.11568" lon="4.96428">
        <ele>199.27099609375</ele>
        <time>2010-04-20T17:33:22Z</time>
      </trkpt>
      <trkpt lat="45.1157" lon="4.96429">
        <ele>199.16400146484</ele>
        <time>2010-04-20T17:33:28Z</time>
      </trkpt>
    </trkseg>
  </trk>
</gpx>